<
# Wetter Temperatur Luftdruck Luftfeuchtigkeit Sichtweite Windgeschwindigkeit Windrichtung Zeit
1 Clouds 12 1010 87 10000 1.5 150 20:18 17.10.2019
2 Clouds 13 1010 87 10000 1.5 150 19:42 17.10.2019
3 Clouds 13 1010 87 10000 1.5 150 19:42 17.10.2019
4 Clouds 13 1010 87 10000 1 170 19:20 17.10.2019
5 Clouds 13 1010 87 10000 1 170 18:59 17.10.2019
6 Clouds 14 1010 87 10000 1 170 18:39 17.10.2019
7 Clouds 15 1010 76 10000 1.5 0 18:20 17.10.2019
8 Clouds 16 1010 76 10000 1.5 0 17:44 17.10.2019
9 Clouds 16 1010 76 10000 2.6 250 17:25 17.10.2019
10 Clouds 16 1010 76 10000 2.6 250 16:59 17.10.2019
11 Clouds 14 1010 76 10000 2.6 250 16:41 17.10.2019
12 Clouds 15 1010 77 10000 3.1 250 16:19 17.10.2019
13 Clouds 15 1010 77 10000 3.1 250 16:19 17.10.2019
14 Clouds 15 1010 77 10000 3.1 250 15:57 17.10.2019
15 Clouds 15 1010 77 10000 3.1 250 15:39 17.10.2019
16 Clouds 15 1009 77 10000 2.6 240 15:20 17.10.2019
17 Clouds 15 1009 77 10000 2.6 240 15:20 17.10.2019
18 Clouds 15 1009 77 10000 2.6 240 14:57 17.10.2019
19 Clouds 15 1009 77 10000 2.6 240 14:38 17.10.2019
20 Clouds 13 1009 93 10000 1.5 220 14:20 17.10.2019
21 Clouds 13 1009 93 10000 1.5 220 13:41 17.10.2019
22 Clouds 13 1009 93 9000 3.6 270 13:21 17.10.2019
23 Drizzle 12 1009 100 4000 6.7 290 12:58 17.10.2019
24 Drizzle 12 1009 100 4000 6.7 290 12:39 17.10.2019
25 Drizzle 12 1008 100 2200 5.1 290 12:20 17.10.2019
26 Drizzle 13 1008 93 3000 5.1 290 11:56 17.10.2019
27 Drizzle 13 1008 93 3000 5.1 290 11:38 17.10.2019
28 Drizzle 14 1007 93 3000 4.6 230 11:18 17.10.2019
29 Drizzle 14 1007 93 3000 4.6 230 10:42 17.10.2019
30 Drizzle 13 1007 100 2500 4.6 220 10:20 17.10.2019
31 Drizzle 13 1007 100 2500 4.6 220 09:57 17.10.2019
32 Drizzle 13 1007 100 2500 4.6 220 09:57 17.10.2019
33 Drizzle 13 1007 100 2500 4.6 220 09:38 17.10.2019
34 Drizzle 13 1007 100 2500 4.6 220 09:20 17.10.2019
35 Drizzle 13 1006 100 3000 4.6 220 08:57 17.10.2019
36 -273 0 0 0 0 0 08:57 17.10.2019
37 Drizzle 13 1006 100 3000 4.6 220 08:38 17.10.2019
38 Drizzle 13 1006 100 4000 4.1 210 08:18 17.10.2019
39 Drizzle 13 1006 100 4000 4.1 210 07:48 17.10.2019
40 Drizzle 13 1005 100 5000 4.6 210 07:21 17.10.2019
41 Drizzle 13 1005 100 5000 4.6 210 07:21 17.10.2019
42 Drizzle 13 1005 100 4500 5.1 220 06:58 17.10.2019
43 Drizzle 13 1005 100 4500 5.1 220 06:39 17.10.2019
44 Drizzle 13 1006 100 5000 4.1 210 06:19 17.10.2019
45 Drizzle 13 1006 100 4500 5.1 210 05:41 17.10.2019
46 Drizzle 13 1006 100 4000 4.1 210 05:21 17.10.2019
47 Drizzle 13 1006 100 4000 4.1 210 04:50 17.10.2019
48 Rain 13 1006 100 6000 4.6 210 03:50 17.10.2019
49 Rain 13 1006 100 6000 4.1 200 02:35 17.10.2019
50 Drizzle 13 1006 93 4000 3.6 190 00:54 17.10.2019
51 Drizzle 13 1006 93 4000 3.6 190 00:36 17.10.2019
52 Drizzle 13 1006 93 7000 3.6 180 00:18 17.10.2019
53 Drizzle 13 1007 93 7000 3.6 190 23:42 16.10.2019
54 Clouds 13 1007 87 10000 3.1 180 23:20 16.10.2019
55 Clouds 13 1007 87 10000 3.1 180 22:55 16.10.2019
56 Clouds 13 1007 87 10000 3.1 180 22:36 16.10.2019
57 Clouds 13 1007 87 10000 3.1 170 22:18 16.10.2019
58 Clouds 13 1007 87 10000 3.1 170 21:55 16.10.2019
59 Clouds 13 1007 87 10000 3.1 170 21:37 16.10.2019
60 Clouds 13 1007 87 10000 2.6 160 21:18 16.10.2019
61 Clouds 13 1007 87 10000 2.6 160 20:56 16.10.2019
62 Clouds 13 1007 87 10000 2.6 160 20:56 16.10.2019
63 Clouds 13 1007 87 10000 2.6 160 20:56 16.10.2019
64 Clouds 13 1007 87 10000 2.6 160 20:38 16.10.2019
65 Clouds 13 1007 87 10000 2.1 150 20:20 16.10.2019
66 Clouds 13 1007 87 10000 2.1 150 19:56 16.10.2019
67 Clouds 13 1007 87 10000 2.1 150 19:38 16.10.2019
68 Clouds 13 1007 87 10000 1.5 160 19:19 16.10.2019
69 Clouds 14 1007 87 10000 1.5 160 18:39 16.10.2019
70 Clouds 14 1007 76 10000 3.6 220 18:19 16.10.2019
71 Clouds 14 1007 76 10000 3.6 220 17:56 16.10.2019
72 Clouds 15 1007 76 10000 3.6 220 17:38 16.10.2019
73 Clouds 15 1007 76 10000 4.6 220 17:20 16.10.2019
74 Clouds 15 1007 76 10000 4.6 220 16:58 16.10.2019
75 Clouds 16 1007 76 10000 4.6 220 16:40 16.10.2019
76 Clouds 16 1007 76 10000 5.7 230 16:20 16.10.2019
77 Clouds 16 1007 76 10000 5.7 230 15:56 16.10.2019
78 Clouds 16 1007 76 10000 5.7 230 15:55 16.10.2019
79 Clouds 14 1007 76 10000 5.7 230 15:36 16.10.2019
80 Clouds 14 1007 82 10000 4.1 240 15:18 16.10.2019
81 -273 0 0 0 0 0 14:55 16.10.2019
82 Clouds 14 1007 82 10000 4.1 240 14:37 16.10.2019
83 Clouds 14 1007 82 10000 4.1 250 14:18 16.10.2019
84 Clouds 14 1007 82 9000 4.1 260 13:55 16.10.2019
85 Clouds 14 1007 82 9000 4.1 260 13:36 16.10.2019
86 Clouds 13 1008 93 7000 6.2 260 13:18 16.10.2019
87 Clouds 13 1008 93 7000 6.2 260 12:40 16.10.2019
88 Clouds 13 1007 93 7000 5.1 260 12:18 16.10.2019
89 Clouds 13 1007 93 7000 6.2 260 11:42 16.10.2019
90 Mist 13 1007 93 5000 5.1 260 11:18 16.10.2019
91 -273 0 0 0 0 0 10:39 16.10.2019
92 Mist 13 1007 93 3700 3.6 250 10:20 16.10.2019
93 Mist 13 1007 93 3700 3.6 250 09:55 16.10.2019
94 Mist 13 1007 93 3700 3.6 250 09:37 16.10.2019
95 Mist 13 1007 93 3700 3.1 240 09:19 16.10.2019
96 Drizzle 13 1006 93 3500 4.1 260 08:42 16.10.2019
97 Drizzle 13 1006 93 2500 3.6 260 08:24 16.10.2019
98 Drizzle 13 1006 93 2500 3.1 260 07:45 16.10.2019
99 Rain 13 1006 93 3700 3.1 260 07:25 16.10.2019
100 Drizzle 13 1006 93 3000 3.1 270 06:58 16.10.2019
101 Drizzle 13 1006 93 3000 3.1 270 06:39 16.10.2019
102 Rain 13 1006 93 4500 2.1 270 05:48 16.10.2019
103 Rain 14 1006 93 2500 2.6 280 03:24 16.10.2019
104 Rain 14 1006 93 2500 2.6 280 02:47 16.10.2019
105 Rain 14 1006 93 1500 3.1 270 01:19 16.10.2019
106 Rain 14 1006 93 1500 3.1 270 00:49 16.10.2019
107 Rain 14 1006 93 1700 2.1 270 00:27 16.10.2019
108 Rain 14 1006 93 2500 0.5 0 23:41 15.10.2019
109 Rain 14 1006 93 4000 1.5 0 23:22 15.10.2019
110 Rain 14 1006 93 4000 1.5 0 22:56 15.10.2019
111 Rain 14 1006 93 4000 1.5 0 22:38 15.10.2019
112 Clouds 14 1006 87 10000 1 80 22:20 15.10.2019
113 Clouds 14 1006 87 10000 1 80 21:56 15.10.2019
114 Clouds 14 1006 87 10000 1 80 21:56 15.10.2019
115 Clouds 14 1006 87 10000 1 80 21:38 15.10.2019
116 Clouds 14 1006 87 10000 1 0 21:20 15.10.2019
117 Clouds 14 1006 87 10000 0.5 0 20:57 15.10.2019
118 Clouds 14 1006 87 10000 0.5 0 20:57 15.10.2019
119 Clouds 15 1006 87 10000 0.5 0 20:39 15.10.2019
120 Clouds 15 1006 87 10000 3.103 285 20:20 15.10.2019
121 Clouds 15 1006 87 10000 3.103 285 20:20 15.10.2019
122 Clouds 15 1006 87 10000 1.5 350 19:58 15.10.2019
123 Clouds 15 1006 87 10000 1.5 350 19:40 15.10.2019
124 Clouds 15 1005 82 10000 3.103 285 19:19 15.10.2019
125 Clouds 16 1005 82 10000 3.103 285 18:47 15.10.2019
126 Clouds 17 1005 77 10000 2.1 230 18:29 15.10.2019
127 Clouds 17 1005 77 10000 2.1 230 17:59 15.10.2019
128 Clouds 17 1005 77 10000 2.1 230 17:40 15.10.2019
129 Clouds 17 1005 77 10000 2.1 230 17:40 15.10.2019
130 Clouds 17 1005 72 10000 2.1 250 17:20 15.10.2019
131 Clouds 17 1005 72 10000 2.1 250 16:56 15.10.2019
132 Clouds 18 1005 72 10000 2.6 260 16:37 15.10.2019
133 Clouds 18 1005 72 10000 2.6 260 16:19 15.10.2019
134 Clouds 18 1005 72 10000 2.6 260 15:43 15.10.2019
135 Clouds 18 1005 72 10000 4.1 270 15:21 15.10.2019
136 Clouds 18 1005 72 10000 4.1 270 14:59 15.10.2019
137 Clouds 18 1005 72 10000 4.1 270 14:38 15.10.2019
138 Clouds 18 1005 72 10000 2.6 260 14:20 15.10.2019
139 Clouds 18 1005 72 10000 2.6 260 14:20 15.10.2019
140 Clouds 18 1005 72 10000 2.6 260 13:56 15.10.2019
141 Clouds 18 1005 72 10000 2.6 260 13:37 15.10.2019
142 Clouds 18 1006 72 10000 4.1 240 13:19 15.10.2019
143 Clouds 18 1006 72 10000 4.1 240 12:43 15.10.2019
144 Clouds 17 1005 77 10000 4.1 230 12:21 15.10.2019
145 Clouds 17 1005 77 10000 4.1 230 11:57 15.10.2019
146 Clouds 17 1005 77 10000 4.1 230 11:38 15.10.2019
147 Clouds 16 1005 82 10000 3.1 210 11:19 15.10.2019
148 Clouds 16 1005 82 10000 3.1 210 10:45 15.10.2019
149 Clouds 12 1005 93 10000 2.1 140 10:22 15.10.2019
150 Clouds 12 1005 93 10000 2.1 140 09:58 15.10.2019
151 Clouds 12 1005 93 10000 2.1 140 09:38 15.10.2019
152 Fog 11 1005 100 9000 3.1 140 09:20 15.10.2019
153 Fog 11 1005 100 9000 3.1 140 08:56 15.10.2019
154 Clouds 11 1005 93 10000 3.1 130 08:37 15.10.2019
155 Clouds 11 1005 93 10000 3.1 130 08:18 15.10.2019
156 Clouds 11 1005 93 10000 3.1 130 07:41 15.10.2019
157 Clouds 11 1005 93 10000 3.6 130 07:21 15.10.2019
158 Clouds 11 1005 93 10000 3.6 130 06:47 15.10.2019
159 Clouds 11 1005 93 10000 3.6 120 06:29 15.10.2019
160 Clouds 11 1005 93 10000 3.6 120 05:48 15.10.2019
161 Clouds 12 1006 87 10000 4.1 110 05:29 15.10.2019
162 Clouds 12 1006 87 10000 4.1 110 04:39 15.10.2019
163 Clouds 12 1007 87 10000 3.6 100 03:57 15.10.2019
164 Clouds 12 1007 87 10000 3.1 110 03:27 15.10.2019
165 Clouds 13 1008 87 10000 4.1 100 01:51 15.10.2019
166 Clouds 13 1008 87 10000 4.6 100 01:23 15.10.2019
167 Clouds 13 1008 87 10000 4.6 100 00:52 15.10.2019
168 Clouds 13 1009 87 10000 5.1 100 00:23 15.10.2019
169 Clouds 13 1009 87 10000 5.1 100 23:46 14.10.2019
170 Clouds 13 1010 82 10000 4.6 100 23:21 14.10.2019
171 Clouds 13 1010 82 10000 4.6 100 22:59 14.10.2019
172 -273 0 0 0 0 0 22:39 14.10.2019
173 Clouds 14 1010 82 10000 5.1 100 22:19 14.10.2019
174 Clouds 14 1010 82 10000 5.1 100 21:56 14.10.2019
175 Clouds 14 1010 82 10000 5.1 100 21:38 14.10.2019
176 Clouds 14 1011 87 10000 4.1 100 21:20 14.10.2019
177 Clouds 14 1011 87 10000 4.1 100 21:20 14.10.2019
178 -273 0 0 0 0 0 20:56 14.10.2019
179 Clouds 14 1011 87 10000 4.1 100 20:37 14.10.2019
180 Clouds 14 1011 87 10000 4.6 90 20:18 14.10.2019
181 Clouds 14 1011 87 10000 4.6 90 19:43 14.10.2019
182 Clouds 14 1012 87 10000 2.1 50 19:24 14.10.2019
183 Clouds 14 1012 87 10000 2.1 50 19:24 14.10.2019
184 Clouds 14 1012 87 10000 2.1 50 18:59 14.10.2019
185 Clouds 14 1012 87 10000 2.1 50 18:39 14.10.2019
186 Rain 14 1011 87 8000 6.2 100 18:20 14.10.2019
187 Rain 14 1011 87 8000 6.2 100 18:20 14.10.2019
188 Rain 14 1011 87 8000 6.2 100 18:20 14.10.2019
189 Rain 14 1012 87 3500 4.6 60 17:58 14.10.2019
190 Rain 14 1012 87 3500 4.6 60 17:40 14.10.2019
191 Rain 14 1012 77 10000 3.6 100 17:21 14.10.2019
192 Rain 14 1012 77 10000 3.6 100 17:21 14.10.2019
193 Clouds 15 1012 72 10000 4.1 100 16:44 14.10.2019
194 Clouds 15 1013 77 10000 3.1 110 16:22 14.10.2019
195 Clouds 15 1013 77 10000 3.1 110 15:57 14.10.2019
196 Clouds 15 1013 77 10000 3.1 110 15:38 14.10.2019
197 Clouds 15 1014 77 10000 2.1 110 15:20 14.10.2019
198 Clouds 15 1014 77 10000 2.1 110 14:43 14.10.2019
199 Clouds 15 1014 82 10000 1 200 14:24 14.10.2019
200 Clouds 15 1014 82 10000 1 200 13:56 14.10.2019
201 Clouds 15 1014 82 10000 1 200 13:37 14.10.2019
202 Clouds 15 1015 76 10000 2.6 260 13:18 14.10.2019
203 Clouds 15 1015 76 10000 2.6 260 12:40 14.10.2019
204 Clouds 15 1015 76 10000 2.6 260 12:40 14.10.2019
205 Clouds 15 1014 82 10000 2.6 240 12:19 14.10.2019
206 Clouds 14 1014 82 10000 2.6 240 11:46 14.10.2019
207 Clouds 13 1014 82 10000 3.1 240 11:27 14.10.2019
208 Clouds 13 1014 82 10000 3.1 240 10:58 14.10.2019
209 Clouds 13 1014 82 10000 3.1 240 10:39 14.10.2019
210 Clouds 13 1013 82 10000 3.1 240 10:20 14.10.2019
211 Clouds 13 1013 82 10000 3.1 240 09:56 14.10.2019
212 Clouds 12 1013 82 10000 3.1 240 09:37 14.10.2019
213 Clouds 12 1012 87 10000 3.1 240 09:18 14.10.2019
214 Clouds 12 1012 87 10000 3.1 240 08:44 14.10.2019
215 Clouds 12 1012 87 10000 4.1 230 08:22 14.10.2019
216 Clouds 13 1012 87 10000 4.1 230 07:42 14.10.2019
217 Clouds 13 1011 82 10000 5.1 260 07:19 14.10.2019
218 Clouds 13 1011 82 10000 5.1 260 06:53 14.10.2019
219 Clouds 13 1011 82 10000 6.7 260 06:26 14.10.2019
220 Clouds 13 1011 82 10000 6.7 260 05:49 14.10.2019
221 Clouds 14 1010 82 10000 7.7 260 04:48 14.10.2019
222 Clouds 14 1008 82 10000 8.2 260 03:28 14.10.2019
223 Clouds 14 1008 82 10000 8.2 260 02:56 14.10.2019
224 Clouds 15 1006 82 10000 8.2 260 01:25 14.10.2019
225 Clouds 15 1003 81 0 1.34 180 00:59 14.10.2019
226 Clouds 16 1006 82 10000 8.2 250 00:21 14.10.2019
227 Clouds 16 1006 82 10000 8.2 250 00:21 14.10.2019
228 Clouds 17 1006 82 10000 8.2 250 23:46 13.10.2019
229 Rain 17 1005 88 10000 7.2 230 23:21 13.10.2019
230 Rain 17 1005 88 10000 7.2 230 22:59 13.10.2019
231 -273 0 0 0 0 0 22:41 13.10.2019
232 Clouds 18 1004 77 10000 6.7 220 22:22 13.10.2019
233 Clouds 18 1004 77 10000 6.7 220 21:58 13.10.2019
234 Clouds 18 1004 77 10000 6.7 220 21:58 13.10.2019
235 Clouds 19 1004 77 10000 6.7 220 21:38 13.10.2019
236 Clouds 19 1004 77 10000 6.2 210 21:19 13.10.2019
237 -273 0 0 0 0 0 20:58 13.10.2019
238 Clouds 19 1004 77 10000 6.2 210 20:58 13.10.2019
239 Clouds 19 1004 77 10000 6.2 210 20:58 13.10.2019
240 Clouds 19 1004 77 10000 6.2 210 20:39 13.10.2019
241 Clouds 19 1004 77 10000 6.2 210 20:39 13.10.2019
242 Clouds 19 1004 82 10000 5.1 200 20:21 13.10.2019
243 Clouds 19 1004 82 10000 5.1 200 20:21 13.10.2019
244 Clouds 19 1004 82 10000 5.1 200 19:59 13.10.2019
245 Clouds 19 1004 82 10000 5.1 200 19:39 13.10.2019
246 Clouds 19 1004 82 10000 5.1 200 19:39 13.10.2019
247 Clouds 19 1004 82 10000 5.1 200 19:39 13.10.2019
248 Clouds 19 1004 88 10000 5.7 190 19:21 13.10.2019
249 Clouds 19 1004 88 10000 5.7 190 18:59 13.10.2019
250 -273 0 0 0 0 0 18:58 13.10.2019
251 Clouds 19 1004 88 10000 5.7 190 18:58 13.10.2019
252 Clouds 19 1004 88 10000 5.7 190 18:58 13.10.2019
253 -273 0 0 0 0 0 18:58 13.10.2019
254 Clouds 19 1004 88 10000 5.7 190 18:37 13.10.2019
255 Clouds 18 1004 93 10000 3.6 170 18:19 13.10.2019
256 Clouds 18 1004 93 10000 3.6 170 18:19 13.10.2019
257 Clouds 18 1004 93 10000 3.6 170 17:58 13.10.2019
258 Clouds 18 1004 93 10000 3.6 170 17:39 13.10.2019
259 Clouds 17 1005 93 8000 3.6 170 17:21 13.10.2019
260 Clouds 17 1005 93 8000 3.6 170 16:43 13.10.2019
261 Clouds 17 1006 93 8000 4.1 170 16:19 13.10.2019
262 Clouds 17 1006 93 6000 3.1 170 15:57 13.10.2019
263 Clouds 17 1006 93 6000 3.1 170 15:38 13.10.2019
264 Drizzle 16 1006 100 5000 2.6 160 15:19 13.10.2019
265 Clouds 16 1007 93 8000 3.6 160 14:57 13.10.2019
266 Clouds 16 1007 93 8000 3.6 160 14:39 13.10.2019
267 Drizzle 16 1007 93 3500 2.6 160 14:20 13.10.2019
268 Clouds 16 1008 87 6000 3.1 170 13:42 13.10.2019
269 Clouds 15 1008 93 6000 3.1 160 13:23 13.10.2019
270 Clouds 14 1008 100 6000 3.1 140 12:59 13.10.2019
271 Clouds 14 1008 100 6000 3.1 140 12:40 13.10.2019
272 Mist 13 1008 93 5000 3.1 150 12:21 13.10.2019
273 Mist 12 1008 100 5000 3.1 140 11:59 13.10.2019
274 Mist 12 1008 100 5000 3.1 140 11:39 13.10.2019
275 Mist 11 1009 100 4000 3.6 130 11:21 13.10.2019
276 Mist 11 1009 100 4000 3.6 130 10:59 13.10.2019
277 -273 0 0 0 0 0 10:40 13.10.2019
278 Drizzle 11 1009 93 3500 3.1 120 10:22 13.10.2019
279 Drizzle 11 1009 93 3500 3.1 120 09:40 13.10.2019
280 Mist 11 1009 93 4500 3.6 120 09:21 13.10.2019
281 Mist 11 1009 93 4500 3.6 120 08:55 13.10.2019
282 Mist 11 1009 93 4500 3.1 120 08:27 13.10.2019
283 Mist 11 1009 93 4500 3.1 120 08:27 13.10.2019
284 Drizzle 11 1009 93 3500 2.6 110 07:56 13.10.2019
285 Drizzle 11 1009 93 3500 2.6 110 07:38 13.10.2019
286 Drizzle 11 1010 93 3000 1.5 90 06:55 13.10.2019
287 Drizzle 10 1010 100 2500 1 110 06:26 13.10.2019
288 Drizzle 10 1010 100 2500 1 110 05:34 13.10.2019
289 Drizzle 10 1010 100 3000 1.5 150 04:38 13.10.2019
290 Drizzle 11 1010 93 5000 2.6 200 03:39 13.10.2019
291 Drizzle 11 1010 93 5000 2.6 200 02:35 13.10.2019
292 Drizzle 11 1010 93 5000 2.6 220 01:51 13.10.2019
293 Drizzle 11 1011 93 5000 2.6 220 01:22 13.10.2019
294 Drizzle 11 1011 93 5000 2.6 220 00:44 13.10.2019
295 Drizzle 11 1011 93 5000 2.6 220 00:21 13.10.2019
296 Drizzle 11 1010 93 6000 3.1 220 23:55 12.10.2019
297 Drizzle 11 1010 93 6000 3.1 220 23:36 12.10.2019
298 Drizzle 11 1010 93 7000 3.1 210 23:18 12.10.2019
299 Drizzle 11 1010 93 7000 3.1 210 22:55 12.10.2019
300 Drizzle 11 1010 93 7000 3.1 210 22:37 12.10.2019
301 Drizzle 11 1010 93 7000 4.6 230 22:18 12.10.2019
302 Drizzle 11 1010 93 7000 4.6 230 21:42 12.10.2019
303 Drizzle 11 1009 93 7000 4.1 220 21:24 12.10.2019
304 Drizzle 11 1010 100 7000 3.6 220 20:57 12.10.2019
305 Drizzle 12 1010 100 7000 3.6 220 20:39 12.10.2019
306 Drizzle 12 1010 93 7000 3.6 230 20:20 12.10.2019
307 Rain 13 1009 93 8000 3.1 220 19:37 12.10.2019
308 Rain 12 1009 93 9000 3.1 240 19:19 12.10.2019
309 -273 0 0 0 0 0 18:55 12.10.2019
310 Rain 12 1009 93 9000 3.1 240 18:54 12.10.2019
311 Rain 13 1009 93 9000 3.1 240 18:36 12.10.2019
312 Rain 13 1009 87 10000 3.6 250 18:18 12.10.2019
313 Rain 14 1009 87 10000 3.6 250 17:42 12.10.2019
314 Rain 13 1009 87 10000 4.1 250 17:19 12.10.2019
315 Rain 13 1009 87 10000 4.1 250 16:41 12.10.2019
316 Rain 13 1009 87 10000 4.1 250 16:41 12.10.2019
317 Clouds 13 1008 87 10000 3.6 240 16:21 12.10.2019
318 Clouds 13 1008 87 10000 3.6 240 15:59 12.10.2019
319 Clouds 14 1008 87 10000 3.6 240 15:39 12.10.2019
320 Clouds 13 1008 87 10000 4.1 240 15:21 12.10.2019
321 Clouds 13 1008 87 10000 4.1 240 15:21 12.10.2019
322 Clouds 13 1008 87 10000 4.1 240 14:41 12.10.2019
323 Clouds 13 1007 87 10000 6.2 230 14:22 12.10.2019
324 Clouds 13 1007 87 10000 6.2 230 14:21 12.10.2019
325 Clouds 13 1007 87 10000 6.2 230 13:53 12.10.2019
326 Clouds 13 1007 87 10000 5.1 240 13:33 12.10.2019
327 Clouds 13 1007 87 10000 5.1 240 12:59 12.10.2019
328 Clouds 13 1007 87 10000 5.1 240 12:59 12.10.2019
329 Clouds 12 1007 87 10000 5.1 240 12:39 12.10.2019
330 Clouds 12 1007 87 10000 5.1 230 12:20 12.10.2019
331 Clouds 12 1007 87 10000 5.1 230 11:58 12.10.2019
332 Clouds 12 1007 87 10000 5.1 230 11:38 12.10.2019
333 Drizzle 11 1006 93 10000 3.6 240 11:19 12.10.2019
334 Drizzle 11 1006 93 10000 3.6 240 10:41 12.10.2019
335 Drizzle 11 1006 93 8000 3.6 240 10:23 12.10.2019
336 Drizzle 11 1006 93 5000 4.1 240 09:58 12.10.2019
337 Drizzle 11 1006 93 5000 4.1 240 09:57 12.10.2019
338 Drizzle 11 1006 93 5000 4.1 240 09:39 12.10.2019
339 Clouds 11 1005 93 10000 4.6 230 09:21 12.10.2019
340 Clouds 11 1005 93 10000 4.6 230 08:57 12.10.2019
341 Clouds 11 1005 93 10000 4.6 230 08:37 12.10.2019
342 Clouds 11 1004 93 10000 4.6 260 08:18 12.10.2019
343 Drizzle 11 1004 93 10000 4.1 250 07:33 12.10.2019
344 Drizzle 11 1004 93 10000 4.1 250 06:50 12.10.2019
345 Drizzle 12 1004 87 9000 5.7 280 05:46 12.10.2019
346 Rain 13 1003 93 10000 7.2 260 04:52 12.10.2019
347 Clouds 13 1003 93 10000 6.7 260 03:58 12.10.2019
348 Drizzle 14 1003 93 3500 7.2 260 02:57 12.10.2019
349 Drizzle 15 1002 93 10000 7.7 240 01:38 12.10.2019
350 Drizzle 15 1002 93 9000 8.7 230 01:19 12.10.2019
351 Drizzle 14 1002 93 9000 8.7 230 00:40 12.10.2019
352 Drizzle 14 1002 93 7000 8.2 230 23:57 11.10.2019
353 Drizzle 14 1002 93 7000 8.2 230 23:39 11.10.2019
354 Drizzle 14 1002 93 5000 8.2 230 23:20 11.10.2019
355 Drizzle 14 1002 93 5000 8.2 230 23:20 11.10.2019
356 Drizzle 14 1002 93 5000 8.2 230 22:40 11.10.2019
357 Drizzle 14 1002 93 7000 8.7 230 22:21 11.10.2019
358 Drizzle 13 1003 93 3800 8.7 230 21:56 11.10.2019
359 Drizzle 14 1003 93 3800 8.7 230 21:38 11.10.2019
360 Drizzle 14 1003 87 6000 9.3 230 21:20 11.10.2019
361 Drizzle 14 1003 87 10000 8.7 230 20:44 11.10.2019
362 Drizzle 14 1004 87 10000 9.8 230 20:26 11.10.2019
363 Drizzle 14 1004 87 10000 9.8 230 19:58 11.10.2019
364 Drizzle 14 1004 87 10000 9.8 230 19:39 11.10.2019
365 Clouds 14 1003 87 10000 9.3 220 19:18 11.10.2019
366 Clouds 14 1003 87 10000 9.3 220 18:58 11.10.2019
367 Clouds 14 1003 87 10000 9.3 220 18:38 11.10.2019
368 Clouds 14 1003 87 10000 9.3 220 18:38 11.10.2019
369 Clouds 15 1004 82 10000 10.3 220 18:19 11.10.2019
370 Clouds 15 1004 82 10000 10.3 220 17:58 11.10.2019
371 Clouds 15 1004 82 10000 10.3 220 17:38 11.10.2019
372 Clouds 15 1004 82 10000 9.8 230 17:19 11.10.2019
373 Clouds 15 1004 82 10000 9.8 230 16:56 11.10.2019
374 Clouds 15 1004 82 10000 9.8 230 16:37 11.10.2019
375 Clouds 15 1005 87 10000 8.7 230 16:19 11.10.2019
376 Clouds 15 1005 87 10000 8.7 230 15:41 11.10.2019
377 Clouds 15 1005 87 10000 8.7 230 15:41 11.10.2019
378 Drizzle 15 1005 87 10000 8.2 230 15:20 11.10.2019
379 Drizzle 15 1005 87 10000 8.2 230 14:58 11.10.2019
380 Drizzle 14 1005 87 10000 8.2 230 14:38 11.10.2019
381 Drizzle 14 1006 93 10000 7.7 230 14:19 11.10.2019
382 Drizzle 14 1006 93 10000 7.7 230 14:19 11.10.2019
383 Drizzle 14 1006 87 7000 8.2 230 13:44 11.10.2019
384 Drizzle 13 1006 93 10000 8.2 220 13:25 11.10.2019
385 Drizzle 13 1006 93 10000 8.2 220 12:57 11.10.2019
386 Drizzle 13 1006 93 10000 8.2 220 12:38 11.10.2019
387 Rain 13 1007 93 10000 7.7 230 12:20 11.10.2019
388 Rain 13 1007 93 10000 7.7 230 11:58 11.10.2019
389 Rain 14 1007 93 10000 7.7 230 11:38 11.10.2019
390 Rain 13 1007 87 10000 7.2 230 11:20 11.10.2019
391 Rain 13 1007 87 10000 7.2 230 10:54 11.10.2019
392 Rain 14 1007 87 10000 7.2 230 10:36 11.10.2019
393 Clouds 13 1006 87 10000 8.2 230 10:18 11.10.2019
394 Clouds 13 1006 93 10000 8.2 230 09:41 11.10.2019
395 Clouds 13 1006 93 10000 8.2 230 09:21 11.10.2019
396 Clouds 13 1006 93 10000 8.2 230 08:56 11.10.2019
397 Clouds 13 1006 93 10000 8.2 230 08:38 11.10.2019
398 Clouds 13 1006 87 10000 8.7 230 08:20 11.10.2019
399 Clouds 13 1006 87 10000 8.7 230 07:52 11.10.2019
400 Clouds 12 1006 87 10000 6.2 220 07:33 11.10.2019
401 Drizzle 12 1006 87 8000 7.7 220 06:50 11.10.2019
402 Clouds 12 1006 81 10000 7.7 220 06:25 11.10.2019
403 Clouds 13 1007 76 10000 7.2 220 05:47 11.10.2019
404 Clouds 12 1007 81 10000 7.7 220 05:29 11.10.2019
405 Clouds 12 1007 81 10000 7.7 220 04:58 11.10.2019
406 Clouds 12 1008 81 10000 7.2 220 03:27 11.10.2019
407 Clouds 12 1009 81 10000 6.7 230 01:18 11.10.2019
408 Clouds 11 1010 81 10000 5.1 220 00:31 11.10.2019
409 Clouds 11 1010 81 10000 5.1 220 23:58 10.10.2019
410 Clouds 11 1010 81 10000 5.1 220 23:40 10.10.2019
411 Clouds 11 1010 81 10000 5.1 230 23:19 10.10.2019
412 Clouds 11 1010 81 10000 5.1 230 22:56 10.10.2019
413 Clouds 11 1010 81 10000 4.6 230 22:36 10.10.2019
414 Clouds 11 1010 81 10000 4.6 230 22:18 10.10.2019
415 Clouds 11 1010 81 10000 4.6 230 21:42 10.10.2019
416 Clouds 11 1010 81 10000 4.6 240 21:22 10.10.2019
417 Clouds 11 1010 81 10000 5.1 250 20:58 10.10.2019
418 Clouds 11 1010 81 10000 5.1 250 20:40 10.10.2019
419 Rain 12 1009 76 10000 6.7 260 20:20 10.10.2019
420 Rain 12 1009 76 10000 6.7 260 19:57 10.10.2019
421 Rain 13 1009 76 10000 6.7 260 19:39 10.10.2019
422 Clouds 13 1008 71 10000 6.7 260 19:19 10.10.2019
423 Clouds 13 1008 71 10000 6.7 260 18:42 10.10.2019
424 Clouds 14 1008 67 10000 7.2 260 18:21 10.10.2019
425 Clouds 14 1008 67 10000 7.2 260 17:59 10.10.2019
426 Clouds 14 1008 67 10000 7.2 260 17:40 10.10.2019
427 Clouds 14 1008 76 10000 6.2 250 17:19 10.10.2019
428 Clouds 14 1008 76 10000 6.2 250 16:57 10.10.2019
429 Clouds 13 1008 76 10000 6.2 250 16:38 10.10.2019
430 Clouds 13 1007 76 10000 6.7 250 16:20 10.10.2019
431 Clouds 14 1007 76 10000 6.7 250 15:43 10.10.2019
432 Rain 12 1007 81 10000 4.6 240 15:23 10.10.2019
433 Rain 12 1007 81 10000 4.6 240 14:59 10.10.2019
434 Rain 12 1007 81 10000 4.6 240 14:37 10.10.2019
435 Rain 14 1006 71 6000 6.7 250 14:19 10.10.2019
436 Clouds 13 1006 76 10000 6.7 250 13:58 10.10.2019
437 Clouds 11 1006 76 10000 6.7 250 13:39 10.10.2019
438 Clouds 11 1006 81 10000 6.7 240 13:18 10.10.2019
439 Clouds 11 1006 81 10000 6.7 240 12:54 10.10.2019
440 Clouds 13 1006 81 10000 6.7 240 12:36 10.10.2019
441 Clouds 12 1006 87 10000 6.2 240 12:18 10.10.2019
442 Clouds 11 1006 87 10000 6.2 240 11:41 10.10.2019
443 Clouds 11 1006 93 10000 6.7 230 11:20 10.10.2019
444 Clouds 11 1006 93 10000 6.7 230 11:20 10.10.2019
445 Clouds 11 1005 87 10000 6.2 230 10:58 10.10.2019
446 Clouds 10 1005 87 10000 6.2 230 10:40 10.10.2019
447 Clouds 10 1005 93 10000 5.1 230 10:21 10.10.2019
448 Clouds 10 1005 93 10000 5.1 230 09:54 10.10.2019
449 Clouds 10 1005 93 10000 5.1 230 09:36 10.10.2019
450 Clouds 10 1004 93 10000 3.1 240 09:18 10.10.2019
451 Clouds 9 1004 93 10000 3.1 240 08:41 10.10.2019
452 Rain 8 1004 93 10000 3.1 240 08:22 10.10.2019
453 Rain 8 1004 93 10000 3.6 240 07:58 10.10.2019
454 Rain 8 1004 93 10000 3.6 240 07:37 10.10.2019
455 Rain 9 1003 93 10000 5.7 240 07:19 10.10.2019
456 Rain 9 1003 93 10000 5.7 240 06:45 10.10.2019
457 Clouds 8 1003 93 10000 4.6 240 05:57 10.10.2019
458 Clouds 9 1002 87 10000 5.1 230 05:23 10.10.2019
459 Clouds 9 1002 87 10000 5.1 230 04:37 10.10.2019
460 Clouds 9 1002 93 10000 4.1 230 02:54 10.10.2019
461 Clouds 10 1002 87 10000 3.6 230 01:42 10.10.2019
462 Clouds 10 1002 87 10000 3.6 230 01:42 10.10.2019
463 Clouds 10 1002 87 10000 4.1 240 01:23 10.10.2019
464 Clouds 10 1002 87 10000 4.1 240 00:45 10.10.2019
465 Clouds 10 1002 93 10000 4.1 220 00:20 10.10.2019
466 Clouds 10 1002 93 10000 4.1 220 23:39 09.10.2019
467 Clouds 10 1002 87 10000 3.1 230 23:20 09.10.2019
468 Clouds 10 1002 87 10000 3.1 230 22:43 09.10.2019
469 Clouds 10 1002 87 10000 3.1 220 22:24 09.10.2019
470 Clouds 10 1002 87 10000 3.1 220 21:59 09.10.2019
471 Clouds 10 1002 87 10000 3.1 220 21:59 09.10.2019
472 Clouds 10 1002 87 10000 3.1 220 21:40 09.10.2019
473 Clouds 9 1002 93 10000 3.1 230 21:20 09.10.2019
474 Clouds 10 1002 87 10000 3.1 230 20:56 09.10.2019
475 Clouds 10 1002 87 10000 3.1 230 20:56 09.10.2019
476 Clouds 10 1002 87 10000 3.1 230 20:37 09.10.2019
477 Clouds 10 1002 87 10000 3.1 230 20:37 09.10.2019
478 Clouds 10 1002 81 10000 3.1 240 20:19 09.10.2019
479 Clouds 10 1002 81 10000 3.1 240 19:57 09.10.2019
480 Clouds 10 1002 81 10000 3.1 240 19:39 09.10.2019
481 Clouds 11 1001 81 10000 3.6 220 19:20 09.10.2019
482 Clouds 12 1001 81 10000 3.6 220 18:38 09.10.2019
483 Clouds 12 1001 76 10000 4.1 240 18:19 09.10.2019
484 Clouds 12 1001 76 10000 4.1 240 17:57 09.10.2019
485 Rain 13 1002 76 10000 6.2 230 17:37 09.10.2019
486 Rain 13 1002 76 10000 6.2 230 17:19 09.10.2019
487 Rain 13 1002 76 10000 6.2 230 16:55 09.10.2019
488 Rain 13 1002 76 10000 6.2 230 16:36 09.10.2019
489 Clouds 13 1002 76 10000 5.1 240 16:18 09.10.2019
490 Clouds 13 1002 76 10000 5.1 240 15:54 09.10.2019
491 Clouds 13 1002 76 10000 5.1 240 15:36 09.10.2019
492 Clouds 13 1002 76 10000 5.7 230 15:18 09.10.2019
493 Clouds 13 1002 76 10000 5.7 230 15:18 09.10.2019
494 Clouds 14 1002 76 10000 6.7 240 14:41 09.10.2019
495 Clouds 14 1002 76 10000 7.2 220 14:18 09.10.2019
496 Clouds 13 1002 76 10000 7.2 230 13:40 09.10.2019
497 Clouds 13 1003 82 10000 6.2 230 13:22 09.10.2019
498 Clouds 13 1003 82 10000 6.2 230 13:22 09.10.2019
499 Clouds 13 1003 82 10000 6.7 220 12:59 09.10.2019
500 Clouds 13 1003 82 10000 6.7 220 12:41 09.10.2019
501 Clouds 13 1003 82 10000 5.7 230 12:22 09.10.2019
502 Clouds 12 1003 87 10000 6.2 230 11:57 09.10.2019
503 Clouds 12 1003 87 10000 6.2 230 11:37 09.10.2019
504 Clouds 12 1003 87 10000 6.2 220 11:19 09.10.2019
505 Clouds 12 1003 87 10000 6.2 220 10:55 09.10.2019
506 Clouds 12 1003 87 10000 6.2 220 10:37 09.10.2019
507 Clouds 11 1003 87 10000 6.2 220 10:18 09.10.2019
508 Clouds 11 1003 87 10000 6.2 220 09:42 09.10.2019
509 Clouds 10 1003 93 10000 5.7 220 09:19 09.10.2019
510 Clouds 10 1003 93 10000 5.7 220 08:56 09.10.2019
511 Clouds 10 1003 93 10000 5.7 220 08:37 09.10.2019
512 Clouds 10 1003 93 10000 5.1 220 08:18 09.10.2019
513 Clouds 10 1003 93 10000 5.1 220 07:42 09.10.2019
514 Clouds 10 1003 93 10000 6.2 230 07:23 09.10.2019
515 Clouds 11 1003 93 10000 6.2 230 06:52 09.10.2019
516 Clouds 11 1002 87 10000 6.2 230 06:20 09.10.2019
517 Clouds 11 1002 87 10000 6.2 230 05:46 09.10.2019
518 Clouds 11 1002 87 10000 4.1 240 04:27 09.10.2019
519 Rain 11 1002 93 7000 8.2 260 02:54 09.10.2019
520 Clouds 12 1001 87 10000 6.2 230 01:48 09.10.2019
521 Clouds 12 1001 87 10000 6.2 230 01:22 09.10.2019
522 Clouds 12 1001 87 10000 6.2 230 00:58 09.10.2019
523 Clouds 12 1001 87 10000 6.2 230 00:40 09.10.2019
524 Clouds 12 1001 93 10000 5.7 220 00:21 09.10.2019
525 Clouds 12 1001 93 10000 5.7 220 23:57 08.10.2019
526 Clouds 11 1001 93 10000 5.7 220 23:36 08.10.2019
527 Rain 11 1001 93 10000 5.1 230 23:18 08.10.2019
528 Rain 11 1001 93 10000 5.1 230 22:39 08.10.2019
529 Rain 12 1002 81 10000 4.6 240 22:20 08.10.2019
530 Rain 12 1002 81 10000 4.6 240 22:20 08.10.2019
531 Rain 12 1002 81 10000 4.6 240 21:58 08.10.2019
532 Rain 12 1002 81 10000 4.6 240 21:39 08.10.2019
533 Rain 12 1002 81 10000 4.1 250 21:19 08.10.2019
534 Clouds 12 1002 81 10000 4.6 250 20:57 08.10.2019
535 Clouds 13 1002 81 10000 4.6 250 20:39 08.10.2019
536 Clouds 13 1002 82 10000 4.1 260 20:21 08.10.2019
537 Clouds 13 1002 82 10000 4.1 260 19:59 08.10.2019
538 Clouds 13 1002 82 10000 4.1 260 19:41 08.10.2019
539 Clouds 14 1002 76 10000 5.1 260 19:23 08.10.2019
540 Clouds 14 1002 76 10000 5.1 260 18:55 08.10.2019
541 Clouds 14 1002 76 10000 5.1 260 18:37 08.10.2019
542 Clouds 14 1002 82 10000 4.6 270 18:19 08.10.2019
543 Clouds 14 1002 82 10000 4.6 270 17:55 08.10.2019
544 Clouds 14 1002 82 10000 4.6 270 17:55 08.10.2019
545 Clouds 14 1002 82 10000 4.6 270 17:36 08.10.2019
546 Clouds 14 1002 82 10000 4.6 270 17:36 08.10.2019
547 Clouds 15 1002 77 10000 4.6 270 17:18 08.10.2019
548 Clouds 15 1002 77 10000 4.6 270 17:18 08.10.2019
549 Clouds 15 1002 77 10000 4.6 270 16:40 08.10.2019
550 Clouds 15 1002 77 10000 6.2 270 16:22 08.10.2019
551 Clouds 15 1002 77 10000 6.2 270 15:56 08.10.2019
552 Clouds 15 1002 77 10000 6.2 270 15:37 08.10.2019
553 Clouds 15 1002 82 10000 4.6 260 15:19 08.10.2019
554 Clouds 15 1002 82 10000 4.6 260 14:42 08.10.2019
555 Clouds 15 1002 82 10000 5.7 260 14:21 08.10.2019
556 Clouds 15 1002 82 10000 5.7 260 13:57 08.10.2019
557 Clouds 15 1002 82 10000 5.7 260 13:39 08.10.2019
558 Clouds 14 1002 87 10000 7.2 260 13:20 08.10.2019
559 Clouds 14 1002 87 10000 7.2 260 12:59 08.10.2019
560 Clouds 14 1002 87 10000 7.2 260 12:38 08.10.2019
561 Clouds 14 1002 93 10000 6.2 260 12:19 08.10.2019
562 Clouds 13 1002 93 10000 6.2 260 11:43 08.10.2019
563 Clouds 13 1002 93 10000 6.2 250 11:24 08.10.2019
564 Clouds 13 1002 93 10000 5.7 250 10:59 08.10.2019
565 Clouds 13 1002 93 10000 5.7 250 10:40 08.10.2019
566 Clouds 12 1002 93 10000 4.1 260 10:20 08.10.2019
567 Drizzle 12 1002 93 3500 4.6 240 09:58 08.10.2019
568 Drizzle 13 1002 93 3500 4.6 240 09:39 08.10.2019
569 Clouds 12 1002 93 10000 4.1 240 09:20 08.10.2019
570 Clouds 11 1003 100 6000 5.7 230 08:42 08.10.2019
571 Clouds 11 1003 100 6000 5.7 230 08:42 08.10.2019
572 Drizzle 11 1003 100 3700 5.7 230 08:24 08.10.2019
573 Drizzle 11 1003 93 2000 6.2 230 07:45 08.10.2019
574 Rain 11 1003 100 3800 5.7 200 07:22 08.10.2019
575 Rain 11 1003 100 3800 5.7 200 06:56 08.10.2019
576 Drizzle 11 1004 93 3500 5.1 190 06:32 08.10.2019
577 Drizzle 11 1005 93 2000 5.1 190 05:57 08.10.2019
578 Drizzle 11 1005 93 2000 5.1 190 05:57 08.10.2019
579 Drizzle 11 1005 93 2000 5.1 190 05:36 08.10.2019
580 Drizzle 11 1005 93 2000 5.1 190 05:36 08.10.2019
581 Rain 10 1007 93 7000 4.6 190 04:36 08.10.2019
582 Rain 10 1009 81 10000 3.6 200 03:29 08.10.2019
583 Rain 10 1009 81 10000 3.6 200 02:39 08.10.2019
584 Rain 10 1010 81 10000 4.6 180 01:49 08.10.2019
585 Clouds 10 1011 76 10000 4.1 180 01:31 08.10.2019
586 Clouds 10 1011 76 10000 4.1 180 01:31 08.10.2019
587 Clouds 10 1011 76 10000 4.1 180 00:51 08.10.2019
588 Clouds 10 1012 70 10000 4.1 160 00:22 08.10.2019
589 Clouds 10 1012 70 10000 4.1 160 23:42 07.10.2019
590 Clouds 9 1014 70 10000 3.1 150 23:21 07.10.2019
591 Clouds 9 1014 70 10000 3.1 150 23:21 07.10.2019
592 Clouds 9 1014 70 10000 3.1 150 22:58 07.10.2019
593 Clouds 9 1014 70 10000 3.1 150 22:40 07.10.2019
594 Clouds 9 1014 70 10000 3.1 140 22:21 07.10.2019
595 Clouds 9 1014 70 10000 3.1 140 21:58 07.10.2019
596 Clouds 9 1014 70 10000 3.1 140 21:40 07.10.2019
597 Clouds 9 1016 70 10000 2.6 150 21:20 07.10.2019
598 Clouds 9 1016 70 10000 2.6 150 20:58 07.10.2019
599 Clouds 9 1016 70 10000 2.6 150 20:39 07.10.2019
600 Clouds 9 1016 70 10000 2.1 140 20:20 07.10.2019
601 Clouds 9 1016 70 10000 2.1 140 19:58 07.10.2019
602 Clouds 9 1016 70 10000 2.1 140 19:40 07.10.2019
603 Clouds 10 1017 66 10000 2.1 130 19:20 07.10.2019
604 Clouds 10 1017 66 10000 2.1 130 19:20 07.10.2019
605 Clouds 10 1017 66 10000 2.1 130 18:58 07.10.2019
606 Clouds 10 1017 66 10000 2.1 130 18:38 07.10.2019
607 Clouds 10 1017 57 10000 2.6 150 18:18 07.10.2019
608 Clouds 11 1017 57 10000 2.6 150 17:43 07.10.2019
609 Clouds 11 1017 53 10000 3.1 140 17:23 07.10.2019
610 Clouds 11 1017 53 10000 3.1 140 17:23 07.10.2019
611 Clouds 11 1017 53 10000 3.1 140 16:59 07.10.2019
612 Clouds 11 1017 53 10000 3.1 140 16:41 07.10.2019
613 Clouds 11 1018 53 10000 3.6 140 16:22 07.10.2019
614 Clouds 11 1018 53 10000 3.6 140 15:46 07.10.2019
615 Clouds 11 1019 50 10000 3.6 160 15:26 07.10.2019
616 Clouds 11 1019 50 10000 3.6 160 14:58 07.10.2019
617 Clouds 11 1019 50 10000 3.6 160 14:40 07.10.2019
618 Clouds 11 1020 50 10000 4.1 150 14:21 07.10.2019
619 Clouds 11 1020 50 10000 4.1 150 13:43 07.10.2019
620 Clouds 10 1020 57 10000 4.6 140 13:21 07.10.2019
621 Clouds 10 1020 57 10000 4.6 140 12:57 07.10.2019
622 Clouds 10 1020 57 10000 4.6 140 12:39 07.10.2019
623 Clouds 10 1021 66 10000 3.1 120 12:19 07.10.2019
624 Clouds 10 1021 66 10000 3.1 120 11:58 07.10.2019
625 Clouds 9 1021 66 10000 3.1 120 11:38 07.10.2019
626 Clouds 8 1021 81 10000 2.1 100 11:20 07.10.2019
627 Clouds 8 1021 81 10000 2.1 100 10:42 07.10.2019
628 Clouds 7 1021 86 10000 2.1 100 10:21 07.10.2019
629 Clouds 6 1021 86 10000 2.1 100 09:56 07.10.2019
630 Clouds 7 1021 86 10000 2.1 100 09:38 07.10.2019
631 Fog 5 1021 100 10000 2.1 90 09:19 07.10.2019
632 Fog 6 1021 100 10000 2.1 90 08:42 07.10.2019
633 Fog 5 1020 93 10000 1.5 120 08:20 07.10.2019
634 Fog 6 1020 93 10000 1.5 120 07:47 07.10.2019
635 Fog 5 1020 100 10000 2.6 100 07:27 07.10.2019
636 Fog 5 1020 100 10000 2.6 100 06:57 07.10.2019
637 Fog 6 1020 100 10000 2.6 100 06:38 07.10.2019
638 Clear 5 1020 86 10000 2.6 80 06:18 07.10.2019
639 Clear 3 1020 86 10000 2.1 70 05:26 07.10.2019
640 Clear 3 1020 86 10000 2.1 70 04:49 07.10.2019
641 Clear 2 1020 93 10000 1 90 03:46 07.10.2019
642 Clear 2 1020 93 10000 1 90 03:46 07.10.2019
643 Clear 3 1020 93 10000 2.1 100 03:27 07.10.2019
644 Clear 6 1020 93 10000 2.1 100 02:37 07.10.2019
645 Clear 5 1019 86 10000 2.1 80 02:18 07.10.2019
646 Clear 5 1019 86 10000 2.6 90 01:23 07.10.2019
647 Clear 7 1019 86 10000 2.6 90 00:51 07.10.2019
648 Clouds 7 1019 81 10000 3.1 100 00:26 07.10.2019
649 Clouds 7 1019 81 10000 3.1 100 23:59 06.10.2019
650 Clouds 8 1019 81 10000 3.1 100 23:40 06.10.2019
651 Clouds 7 1018 81 10000 3.6 100 23:20 06.10.2019
652 Clouds 7 1018 81 10000 3.6 100 22:56 06.10.2019
653 Clouds 8 1018 81 10000 3.6 100 22:37 06.10.2019
654 Clouds 7 1018 87 10000 3.6 90 22:19 06.10.2019
655 Clouds 7 1018 87 10000 3.6 90 21:55 06.10.2019
656 Clouds 8 1018 87 10000 3.6 90 21:36 06.10.2019
657 Clouds 9 1018 75 10000 4.1 100 21:18 06.10.2019
658 Clouds 9 1018 75 10000 4.1 100 20:55 06.10.2019
659 Clouds 9 1018 75 10000 4.1 100 20:36 06.10.2019
660 Clouds 10 1017 76 10000 4.1 100 20:18 06.10.2019
661 Clouds 10 1017 76 10000 4.1 100 19:55 06.10.2019
662 Clouds 10 1017 76 10000 4.1 100 19:36 06.10.2019
663 Clouds 10 1016 76 10000 3.6 100 19:18 06.10.2019
664 Clouds 10 1016 76 10000 3.6 100 18:55 06.10.2019
665 Clouds 10 1016 66 10000 5.7 100 18:36 06.10.2019
666 Clouds 10 1016 66 10000 5.7 100 18:18 06.10.2019
667 Clouds 10 1016 66 10000 5.7 100 18:18 06.10.2019
668 Clouds 11 1016 66 10000 5.7 100 17:42 06.10.2019
669 Clouds 11 1016 57 10000 6.2 110 17:20 06.10.2019
670 Clouds 11 1016 57 10000 6.2 110 17:20 06.10.2019
671 Clouds 11 1016 57 10000 6.2 110 16:55 06.10.2019
672 Clouds 11 1016 57 10000 6.2 110 16:37 06.10.2019
673 Clouds 11 1017 57 10000 5.7 130 16:18 06.10.2019
674 Clouds 11 1017 57 10000 5.7 130 15:42 06.10.2019
675 Clouds 11 1017 62 10000 6.7 120 15:21 06.10.2019
676 Clouds 11 1017 62 10000 6.7 120 14:44 06.10.2019
677 Clouds 10 1018 66 10000 6.2 120 14:26 06.10.2019
678 Clouds 10 1018 66 10000 6.2 120 13:59 06.10.2019
679 Clouds 10 1018 66 10000 6.2 120 13:40 06.10.2019
680 Clouds 10 1018 71 10000 5.1 120 13:22 06.10.2019
681 Clouds 10 1018 71 10000 5.1 120 12:59 06.10.2019
682 Clouds 10 1018 71 10000 5.1 120 12:40 06.10.2019
683 Clouds 10 1019 76 10000 4.6 130 12:21 06.10.2019
684 Clouds 10 1019 76 10000 4.6 130 11:59 06.10.2019
685 Clouds 9 1019 76 10000 4.6 130 11:40 06.10.2019
686 Clouds 8 1019 75 10000 4.1 120 11:21 06.10.2019
687 Clouds 8 1019 75 10000 4.1 120 10:55 06.10.2019
688 Clouds 8 1019 75 10000 4.1 120 10:37 06.10.2019
689 Clouds 7 1020 87 10000 4.1 120 10:19 06.10.2019
690 Clouds 7 1020 87 10000 4.1 120 09:41 06.10.2019
691 Clouds 6 1020 93 10000 2.6 120 09:19 06.10.2019
692 Clouds 7 1020 93 10000 2.6 120 08:48 06.10.2019
693 Clouds 6 1020 93 10000 2.6 120 08:22 06.10.2019
694 Clouds 6 1020 93 10000 2.6 120 07:58 06.10.2019
695 Clouds 7 1020 93 10000 2.6 120 07:39 06.10.2019
696 Clouds 7 1020 93 10000 3.1 120 06:49 06.10.2019
697 Clouds 7 1021 93 10000 3.1 120 05:40 06.10.2019
698 Clouds 7 1021 93 10000 2.1 110 04:32 06.10.2019
699 Clouds 8 1021 93 10000 3.1 100 02:52 06.10.2019
700 Clouds 7 1021 93 10000 2.6 100 02:29 06.10.2019
701 Clouds 8 1021 93 10000 2.6 100 01:46 06.10.2019
702 Clouds 7 1022 93 10000 3.1 100 01:28 06.10.2019
703 Clouds 7 1022 93 10000 3.1 100 00:59 06.10.2019
704 Clouds 8 1021 87 10000 3.6 100 00:31 06.10.2019
705 Clouds 8 1021 87 10000 3.6 100 23:54 05.10.2019
706 Clouds 9 1021 87 10000 3.6 100 23:36 05.10.2019
707 Clouds 9 1022 93 10000 2.1 90 23:18 05.10.2019
708 Clouds 9 1022 93 10000 2.1 90 22:54 05.10.2019
709 Clouds 9 1022 93 10000 2.1 90 22:54 05.10.2019
710 Clouds 9 1022 93 10000 2.1 90 22:36 05.10.2019
711 Clouds 9 1021 93 10000 2.6 90 22:18 05.10.2019
712 Clouds 9 1021 93 10000 2.6 90 21:40 05.10.2019
713 Clouds 9 1021 87 10000 3.1 90 21:21 05.10.2019
714 Clouds 9 1021 87 10000 3.1 90 20:57 05.10.2019
715 Clouds 10 1021 87 10000 3.1 90 20:39 05.10.2019
716 Clouds 9 1020 87 10000 3.1 90 20:19 05.10.2019
717 Clouds 10 1020 87 10000 3.1 90 19:41 05.10.2019
718 Clouds 10 1019 76 10000 4.1 80 19:22 05.10.2019
719 Clouds 10 1019 76 10000 4.1 80 18:58 05.10.2019
720 Clouds 12 1019 66 10000 4.6 80 18:39 05.10.2019
721 Clouds 12 1019 66 10000 4.6 80 18:21 05.10.2019
722 Clouds 12 1019 66 10000 4.6 80 17:59 05.10.2019
723 Clouds 13 1019 66 10000 4.6 80 17:40 05.10.2019
724 Clouds 13 1018 66 10000 6.7 70 17:21 05.10.2019
725 Clouds 14 1018 66 10000 6.7 70 16:42 05.10.2019
726 Clouds 14 1018 66 10000 5.1 60 16:23 05.10.2019
727 Clouds 14 1018 66 10000 5.1 60 15:59 05.10.2019
728 Clouds 12 1018 66 10000 5.1 60 15:40 05.10.2019
729 Clouds 13 1018 66 10000 5.7 70 15:21 05.10.2019
730 Clouds 13 1018 66 10000 5.7 70 14:59 05.10.2019
731 Clouds 13 1018 66 10000 5.7 70 14:41 05.10.2019
732 Clouds 13 1018 66 10000 5.7 70 14:41 05.10.2019
733 Clouds 13 1018 71 10000 5.7 70 14:20 05.10.2019
734 Clouds 12 1018 71 10000 5.7 70 13:43 05.10.2019
735 Clouds 11 1017 76 10000 6.2 60 13:25 05.10.2019
736 Clouds 11 1017 76 10000 6.2 60 12:58 05.10.2019
737 Clouds 12 1017 76 10000 6.2 60 12:40 05.10.2019
738 Clouds 12 1017 76 10000 6.7 80 12:18 05.10.2019
739 Clouds 12 1017 76 10000 6.7 80 11:39 05.10.2019
740 Clouds 11 1016 81 10000 5.7 70 11:20 05.10.2019
741 Clouds 11 1016 81 10000 5.7 70 10:55 05.10.2019
742 Clouds 11 1016 81 10000 5.7 70 10:37 05.10.2019
743 Clouds 10 1015 87 10000 4.1 70 10:18 05.10.2019
744 Clouds 10 1015 87 10000 4.1 70 09:39 05.10.2019
745 Clouds 9 1014 87 10000 4.6 60 09:21 05.10.2019
746 Clouds 9 1014 87 10000 4.6 60 08:41 05.10.2019
747 Clouds 8 1013 93 10000 4.1 60 08:22 05.10.2019
748 Clouds 8 1013 93 10000 4.1 60 07:59 05.10.2019
749 Clouds 9 1013 93 10000 4.1 60 07:38 05.10.2019
750 Clouds 9 1012 87 10000 4.6 50 07:19 05.10.2019
751 Clouds 9 1012 93 10000 4.6 50 06:29 05.10.2019
752 Clouds 9 1012 93 10000 4.6 50 05:59 05.10.2019
753 Clear 8 1011 93 10000 3.6 50 04:44 05.10.2019
754 Clouds 9 1010 93 10000 4.1 60 03:30 05.10.2019
755 Clouds 9 1009 93 10000 4.1 60 01:59 05.10.2019
756 Clouds 10 1009 87 10000 5.1 80 01:24 05.10.2019
757 Clouds 10 1009 87 10000 4.1 80 00:46 05.10.2019
758 Clouds 10 1009 87 10000 4.1 80 00:46 05.10.2019
759 Clouds 10 1008 87 10000 6.2 80 00:27 05.10.2019
760 Clouds 9 1008 87 10000 6.2 80 23:46 04.10.2019
761 Clouds 9 1007 100 10000 5.7 70 23:28 04.10.2019
762 Clouds 9 1007 100 10000 5.7 70 22:59 04.10.2019
763 Clouds 9 1007 100 10000 5.7 70 22:41 04.10.2019
764 Clouds 9 1007 93 10000 4.6 70 22:23 04.10.2019
765 Clouds 9 1007 93 10000 4.6 70 21:58 04.10.2019
766 Clouds 9 1007 93 10000 4.6 70 21:39 04.10.2019
767 Clouds 9 1006 93 10000 4.1 90 21:21 04.10.2019
768 Clouds 9 1006 93 10000 4.1 90 20:57 04.10.2019
769 Clouds 9 1006 93 10000 4.1 90 20:39 04.10.2019
770 Rain 9 1006 93 10000 3.6 100 20:21 04.10.2019
771 Rain 10 1006 93 10000 3.6 100 19:55 04.10.2019
772 Rain 10 1006 93 10000 3.6 100 19:37 04.10.2019
773 Drizzle 10 1005 93 10000 5.1 80 19:18 04.10.2019
774 Drizzle 10 1005 93 10000 5.1 80 18:39 04.10.2019
775 Drizzle 10 1005 93 10000 4.1 90 18:19 04.10.2019
776 Drizzle 10 1005 93 10000 4.1 90 17:58 04.10.2019
777 Drizzle 10 1005 93 10000 4.1 90 17:39 04.10.2019
778 Drizzle 10 1005 87 10000 3.1 100 17:20 04.10.2019
779 Drizzle 10 1005 87 10000 3.1 100 16:55 04.10.2019
780 Drizzle 10 1005 87 10000 3.1 100 16:55 04.10.2019
781 Drizzle 10 1005 87 10000 3.1 100 16:37 04.10.2019
782 Clouds 10 1005 87 10000 2.6 110 16:18 04.10.2019
783 Clouds 10 1005 87 10000 2.6 110 15:55 04.10.2019
784 Clouds 10 1005 87 10000 2.6 110 15:37 04.10.2019
785 Clouds 10 1005 87 10000 2.6 110 15:37 04.10.2019
786 Drizzle 10 1005 93 10000 4.1 90 15:18 04.10.2019
787 Drizzle 10 1006 87 10000 3.1 120 14:42 04.10.2019
788 Drizzle 10 1006 93 5000 2.6 130 14:22 04.10.2019
789 Drizzle 10 1006 93 5000 2.6 130 13:59 04.10.2019
790 Drizzle 10 1006 93 5000 2.6 130 13:41 04.10.2019
791 Drizzle 10 1006 93 5000 2.1 140 13:19 04.10.2019
792 Drizzle 10 1006 93 5000 2.1 140 13:19 04.10.2019
793 Mist 10 1007 93 4500 3.1 160 12:46 04.10.2019
794 Drizzle 10 1007 93 4000 3.1 170 12:27 04.10.2019
795 Drizzle 10 1007 93 4500 3.1 150 11:57 04.10.2019
796 Drizzle 10 1007 93 4500 3.1 150 11:38 04.10.2019
797 Rain 10 1007 100 3800 3.1 150 11:19 04.10.2019
798 Rain 10 1007 100 3800 3.1 150 10:39 04.10.2019
799 Mist 10 1007 93 1600 3.6 140 10:20 04.10.2019
800 Fog 9 1008 100 800 3.1 140 09:45 04.10.2019
801 Fog 9 1008 100 800 3.1 140 09:45 04.10.2019
802 Fog 9 1008 100 800 2.6 150 09:27 04.10.2019
803 Fog 9 1008 100 800 2.6 150 09:27 04.10.2019
804 Fog 8 1008 100 300 2.6 140 08:56 04.10.2019
805 Fog 9 1008 100 300 2.6 140 08:37 04.10.2019
806 Fog 9 1008 100 500 2.6 160 08:19 04.10.2019
807 Fog 8 1009 100 1800 2.6 160 07:43 04.10.2019
808 Mist 8 1009 100 1600 3.6 170 07:22 04.10.2019
809 Fog 9 1009 100 500 3.1 160 06:42 04.10.2019
810 Fog 8 1009 100 900 2.1 160 06:24 04.10.2019
811 Fog 8 1009 100 900 2.1 160 06:24 04.10.2019
812 Fog 8 1010 100 1500 2.1 190 05:38 04.10.2019
813 Clouds 8 1010 100 6000 2.1 180 05:18 04.10.2019
814 Clouds 9 1011 93 10000 2.1 170 03:47 04.10.2019
815 Clouds 9 1011 93 10000 2.1 170 03:47 04.10.2019
816 Fog 7 1011 93 10000 1.5 0 02:53 04.10.2019
817 Clouds 8 1012 87 10000 2.6 160 01:55 04.10.2019
818 Clouds 8 1012 87 10000 2.6 160 01:55 04.10.2019
819 Clouds 8 1012 93 10000 2.6 170 01:30 04.10.2019
820 Clouds 8 1012 93 10000 2.6 170 00:57 04.10.2019
821 Clouds 8 1013 87 10000 2.6 150 23:58 03.10.2019
822 Clouds 9 1013 87 10000 2.6 150 23:37 03.10.2019
823 Clouds 9 1013 87 10000 2.1 130 23:18 03.10.2019
824 Clouds 9 1013 87 10000 2.1 130 23:18 03.10.2019
825 Clouds 9 1013 87 10000 2.1 130 23:18 03.10.2019
826 Clouds 9 1013 87 10000 2.1 130 23:18 03.10.2019
827 Clouds 9 1013 87 10000 2.1 130 22:56 03.10.2019
828 Clouds 10 1013 87 10000 2.1 130 22:37 03.10.2019
829 Clouds 9 1014 87 10000 0.5 110 22:19 03.10.2019
830 Clouds 9 1014 87 10000 0.5 110 21:55 03.10.2019
831 Clouds 9 1014 87 10000 0.5 110 21:36 03.10.2019
832 Clouds 9 1014 87 10000 1 140 21:18 03.10.2019
833 Clouds 9 1014 87 10000 1 140 20:55 03.10.2019
834 Clouds 9 1014 87 10000 1 140 20:55 03.10.2019
835 Clouds 9 1014 87 10000 1 140 20:37 03.10.2019
836 Clouds 9 1014 87 10000 1 140 20:37 03.10.2019
837 Clouds 9 1014 87 10000 0.5 120 20:19 03.10.2019
838 Clouds 11 1014 87 10000 0.5 120 19:41 03.10.2019
839 Clouds 12 1014 66 10000 1.5 60 19:22 03.10.2019
840 Clouds 12 1014 66 10000 1.5 60 18:59 03.10.2019
841 Clouds 13 1014 66 10000 1.5 60 18:39 03.10.2019
842 Clouds 13 1014 66 10000 1.5 60 18:39 03.10.2019
843 Clouds 13 1014 62 10000 2.1 60 18:19 03.10.2019
844 Clouds 13 1014 62 10000 2.1 60 17:59 03.10.2019
845 Clouds 13 1014 62 10000 2.1 60 17:41 03.10.2019
846 Clouds 13 1014 62 10000 2.6 60 17:19 03.10.2019
847 Clouds 13 1014 62 10000 2.6 60 16:44 03.10.2019
848 Clouds 13 1015 62 10000 2.1 40 16:26 03.10.2019
849 Clouds 13 1015 62 10000 2.1 40 15:56 03.10.2019
850 Clouds 14 1015 62 10000 2.1 40 15:38 03.10.2019
851 Clouds 14 1015 62 10000 1.5 50 15:20 03.10.2019
852 Clouds 13 1015 62 10000 1.5 50 14:46 03.10.2019
853 Clouds 13 1015 66 10000 2.6 40 14:27 03.10.2019
854 Clouds 13 1015 66 10000 2.6 40 13:59 03.10.2019
855 Clouds 14 1015 66 10000 2.6 40 13:41 03.10.2019
856 Clouds 13 1015 66 10000 1.5 40 13:19 03.10.2019
857 Clouds 13 1015 66 10000 1.5 40 12:56 03.10.2019
858 Clouds 14 1015 66 10000 1.5 40 12:38 03.10.2019
859 Clouds 13 1015 71 10000 2.1 340 12:19 03.10.2019
860 Clouds 13 1015 71 10000 2.1 340 11:41 03.10.2019
861 Clouds 13 1015 71 10000 2.1 340 11:41 03.10.2019
862 Clouds 12 1014 81 10000 2.1 10 11:23 03.10.2019
863 Clouds 12 1014 81 10000 2.1 10 10:59 03.10.2019
864 Clouds 10 1014 81 10000 2.1 10 10:40 03.10.2019
865 Clouds 10 1014 81 10000 2.6 20 10:19 03.10.2019
866 Clouds 10 1014 81 10000 2.6 20 09:58 03.10.2019
867 Clouds 11 1014 81 10000 2.6 20 09:40 03.10.2019
868 Clouds 10 1014 87 10000 1.5 20 09:21 03.10.2019
869 Clouds 11 1014 87 10000 1.5 20 08:46 03.10.2019
870 Clouds 9 1013 87 10000 1.5 330 08:27 03.10.2019
871 Clouds 9 1013 87 10000 1.5 330 07:59 03.10.2019
872 Clouds 9 1013 87 10000 1.5 330 07:59 03.10.2019
873 Clouds 10 1013 87 10000 1.5 330 07:41 03.10.2019
874 Clouds 10 1012 87 10000 2.1 350 07:19 03.10.2019
875 Clouds 11 1012 87 10000 2.1 350 06:51 03.10.2019
876 Clouds 10 1012 87 10000 2.6 330 06:25 03.10.2019
877 Clouds 11 1012 87 10000 2.6 330 05:47 03.10.2019
878 Clouds 10 1012 81 10000 3.1 360 05:20 03.10.2019
879 Clouds 11 1012 81 10000 3.1 360 04:39 03.10.2019
880 Clouds 11 1011 76 10000 4.1 350 03:24 03.10.2019
881 Rain 12 1011 76 10000 4.1 350 02:39 03.10.2019
882 Rain 11 1011 81 10000 4.1 350 01:59 03.10.2019
883 Clouds 12 1010 76 10000 5.7 360 01:37 03.10.2019
884 Clouds 12 1010 76 10000 5.7 360 00:51 03.10.2019
885 Clouds 12 1009 81 10000 6.2 350 00:26 03.10.2019
886 Clouds 12 1009 81 10000 6.2 350 23:44 02.10.2019
887 Clouds 12 1009 87 10000 6.2 360 23:22 02.10.2019
888 Clouds 12 1008 93 10000 4.6 350 22:47 02.10.2019
889 Clouds 12 1007 76 10000 6.7 340 22:23 02.10.2019
890 Clouds 12 1007 76 10000 6.7 340 21:58 02.10.2019
891 Clouds 12 1007 76 10000 6.7 340 21:39 02.10.2019
892 Rain 12 1006 87 8000 8.2 310 21:20 02.10.2019
893 Rain 12 1006 87 8000 8.2 310 20:57 02.10.2019
894 Rain 11 1006 87 8000 8.2 310 20:39 02.10.2019
895 Rain 11 1006 93 5000 8.7 270 20:20 02.10.2019
896 Rain 11 1006 93 5000 8.7 270 19:57 02.10.2019
897 Rain 12 1006 93 5000 8.7 270 19:39 02.10.2019
898 Rain 12 1006 81 5000 8.2 270 19:21 02.10.2019
899 Rain 12 1006 81 5000 8.2 270 18:57 02.10.2019
900 Rain 11 1006 81 5000 8.2 270 18:38 02.10.2019
901 Rain 12 1006 66 6000 7.2 280 18:20 02.10.2019
902 Rain 12 1006 66 6000 7.2 280 17:56 02.10.2019
903 Rain 13 1006 66 6000 7.2 280 17:37 02.10.2019
904 Rain 13 1006 66 6000 7.2 280 17:37 02.10.2019
905 Rain 12 1007 76 10000 4.1 290 17:19 02.10.2019
906 Rain 12 1007 76 10000 4.1 290 17:19 02.10.2019
907 Rain 13 1007 76 10000 4.1 290 16:42 02.10.2019
908 Rain 13 1007 71 3500 10.8 320 16:22 02.10.2019
909 Rain 13 1007 71 3500 10.8 320 15:59 02.10.2019
910 Rain 13 1006 58 10000 8.2 300 15:38 02.10.2019
911 Rain 13 1006 58 10000 8.2 300 15:20 02.10.2019
912 Rain 13 1006 58 10000 8.2 300 14:57 02.10.2019
913 Clouds 13 1006 62 10000 6.7 310 14:39 02.10.2019
914 Clouds 13 1006 62 10000 6.7 310 14:20 02.10.2019
915 Rain 12 1006 76 10000 6.7 330 13:43 02.10.2019
916 Rain 12 1006 76 10000 6.7 330 13:24 02.10.2019
917 Rain 12 1006 76 10000 6.7 330 12:58 02.10.2019
918 Rain 12 1005 66 10000 8.7 300 12:37 02.10.2019
919 Rain 12 1005 66 10000 8.7 300 12:19 02.10.2019
920 Rain 12 1004 62 10000 5.7 320 11:44 02.10.2019
921 Rain 12 1004 62 10000 5.7 320 11:23 02.10.2019
922 Rain 12 1004 62 10000 5.7 320 10:42 02.10.2019
923 Clouds 10 1004 81 10000 2.1 350 10:20 02.10.2019
924 Clouds 10 1004 81 10000 2.1 350 09:59 02.10.2019
925 Rain 9 1003 93 10000 1.5 0 09:38 02.10.2019
926 Rain 9 1003 93 10000 1.5 0 09:19 02.10.2019
927 Rain 10 1003 93 10000 1.5 0 08:44 02.10.2019
928 Rain 9 1003 81 10000 1 330 08:25 02.10.2019
929 Rain 9 1003 81 10000 1 330 08:25 02.10.2019
930 Rain 9 1003 81 10000 1 330 07:59 02.10.2019
931 Clouds 9 1002 87 10000 1.5 360 07:39 02.10.2019
932 Clouds 9 1002 87 10000 1.5 360 07:20 02.10.2019
933 Clouds 10 1002 87 10000 2.1 320 06:36 02.10.2019
934 Clouds 10 1002 87 10000 2.1 320 05:55 02.10.2019
935 Clouds 10 1002 87 10000 2.1 320 05:55 02.10.2019
936 Rain 10 1002 87 10000 2.6 330 05:24 02.10.2019
937 Rain 10 1002 87 10000 2.6 330 04:53 02.10.2019
938 Rain 11 1001 87 10000 4.6 10 03:52 02.10.2019
939 Clouds 10 1001 93 10000 1.5 230 02:41 02.10.2019
940 Clouds 10 1001 93 10000 1.5 230 02:23 02.10.2019
941 Clouds 10 1001 93 10000 2.1 230 01:40 02.10.2019
942 Clouds 11 1001 93 10000 2.1 230 00:50 02.10.2019
943 Clouds 10 1001 93 10000 0.5 210 00:26 02.10.2019
944 Clouds 10 1000 93 10000 7.52 332.096 23:43 01.10.2019
945 Clouds 10 1000 93 10000 7.52 332.096 23:25 01.10.2019
946 Clouds 10 1000 93 10000 7.52 332.096 22:59 01.10.2019
947 Clouds 10 1000 93 10000 0.5 280 22:39 01.10.2019
948 Clouds 10 1000 93 10000 0.5 280 22:19 01.10.2019
949 Clouds 10 1000 93 10000 0.5 280 22:19 01.10.2019
950 Clouds 10 1000 93 10000 0.5 280 21:57 01.10.2019
951 Clouds 10 1000 93 10000 0.5 300 21:38 01.10.2019
952 Clouds 10 1000 93 10000 0.5 300 21:20 01.10.2019
953 Clouds 10 1000 87 10000 8.16 341.88 20:56 01.10.2019
954 Clouds 11 1000 81 10000 1.5 20 20:37 01.10.2019
955 Clouds 11 1000 81 10000 1.5 20 20:19 01.10.2019
956 Clouds 11 1000 81 10000 1.5 20 19:56 01.10.2019
957 Drizzle 11 999 87 10000 4.1 40 19:38 01.10.2019
958 Drizzle 11 999 87 10000 4.1 40 19:18 01.10.2019
959 Clouds 10 999 87 10000 4.1 30 18:40 01.10.2019
960 Clouds 10 999 87 10000 4.1 30 18:22 01.10.2019
961 Clouds 11 999 76 10000 3.1 30 17:58 01.10.2019
962 Drizzle 11 998 87 9000 4.1 30 17:40 01.10.2019
963 Drizzle 11 998 87 9000 4.1 30 17:19 01.10.2019
964 Clouds 11 998 93 10000 5.1 50 16:57 01.10.2019
965 Drizzle 11 998 87 5000 5.7 30 16:39 01.10.2019
966 Drizzle 11 998 87 5000 5.7 30 16:21 01.10.2019
967 Drizzle 11 998 93 10000 6.2 50 15:46 01.10.2019
968 Drizzle 11 997 93 8000 6.7 40 15:23 01.10.2019
969 Drizzle 11 997 93 8000 6.7 40 14:55 01.10.2019
970 Drizzle 12 997 93 2500 5.7 50 14:37 01.10.2019
971 Drizzle 12 997 93 2500 5.7 50 14:18 01.10.2019
972 Drizzle 11 997 100 6000 6.2 60 13:40 01.10.2019
973 Drizzle 11 997 100 6000 6.2 60 13:21 01.10.2019
974 Drizzle 11 997 100 3500 5.7 60 12:59 01.10.2019
975 Drizzle 11 996 100 3000 5.7 70 12:41 01.10.2019
976 Drizzle 11 996 100 3000 5.7 70 12:20 01.10.2019
977 Drizzle 11 997 93 2000 5.7 60 11:58 01.10.2019
978 Drizzle 11 997 93 3000 5.1 60 11:38 01.10.2019
979 Drizzle 11 997 93 3000 5.1 60 11:19 01.10.2019
980 Drizzle 11 997 93 1500 5.1 70 10:58 01.10.2019
981 Drizzle 11 998 93 1200 3.1 90 10:40 01.10.2019
982 Drizzle 11 998 93 1200 3.1 90 10:22 01.10.2019
983 Drizzle 11 998 93 1500 2.6 110 09:42 01.10.2019
984 Drizzle 11 998 93 1500 2.6 110 09:21 01.10.2019
985 Drizzle 11 998 93 1500 2.6 120 08:43 01.10.2019
986 Drizzle 11 999 93 1400 1.5 120 08:43 01.10.2019
987 Drizzle 11 999 93 1400 1.5 120 08:25 01.10.2019
988 Drizzle 11 999 93 1800 1.5 130 07:49 01.10.2019
989 Drizzle 11 1000 93 2800 1.5 160 07:25 01.10.2019
990 Rain 11 1000 93 4000 2.6 180 06:50 01.10.2019
991 Rain 11 1001 100 4000 2.6 160 06:22 01.10.2019
992 Rain 11 1003 100 10000 2.1 220 05:46 01.10.2019
993 Rain 11 1003 100 10000 2.1 220 05:19 01.10.2019
994 Rain 12 1004 93 10000 2.6 220 04:34 01.10.2019
995 Rain 12 1005 93 10000 2.6 220 03:25 01.10.2019
996 Clouds 12 1006 93 10000 4.1 260 02:18 01.10.2019
997 Clouds 12 1006 93 10000 5.7 250 01:28 01.10.2019
998 Rain 12 1006 93 5000 3.1 260 00:40 01.10.2019
999 Rain 12 1006 93 5000 3.1 260 00:22 01.10.2019
1000 Rain 13 1007 93 4000 4.6 260 23:41 30.09.2019
1001 Rain 13 1007 93 4000 4.6 260 23:41 30.09.2019
1002 Rain 13 1007 93 4000 4.6 260 23:41 30.09.2019
1003 Rain 13 1007 93 4000 4.6 260 23:22 30.09.2019
1004 Rain 13 1007 93 10000 4.6 260 22:45 30.09.2019
1005 Rain 13 1007 93 5000 4.6 260 22:26 30.09.2019
1006 Clouds 13 1007 87 10000 4.6 260 21:58 30.09.2019
1007 Clouds 13 1007 82 10000 5.7 290 21:39 30.09.2019
1008 Clouds 13 1007 82 10000 5.7 290 21:20 30.09.2019
1009 Rain 12 1007 87 8000 4.6 290 20:58 30.09.2019
1010 Rain 14 1006 82 8000 6.7 310 20:39 30.09.2019
1011 Rain 14 1006 82 8000 6.7 310 20:20 30.09.2019
1012 Rain 14 1006 82 8000 6.7 310 19:58 30.09.2019
1013 Rain 15 1006 82 10000 5.7 300 19:40 30.09.2019
1014 Rain 15 1006 82 10000 5.7 300 19:20 30.09.2019
1015 Rain 15 1006 82 10000 5.7 300 18:58 30.09.2019
1016 Rain 15 1006 87 10000 7.7 310 18:40 30.09.2019
1017 Rain 15 1006 87 10000 7.7 310 18:20 30.09.2019
1018 Rain 14 1006 87 6000 7.2 270 17:54 30.09.2019
1019 Rain 15 1005 77 10000 9.3 300 17:36 30.09.2019
1020 Rain 15 1005 77 10000 9.3 300 17:18 30.09.2019
1021 Rain 14 1005 82 9000 8.7 300 16:41 30.09.2019
1022 Rain 14 1005 82 9000 8.7 300 16:41 30.09.2019
1023 Rain 14 1005 82 9000 8.7 300 16:41 30.09.2019
1024 Rain 14 1005 82 9000 8.7 300 16:20 30.09.2019
1025 Rain 14 1005 82 9000 8.7 300 16:20 30.09.2019
1026 Rain 14 1005 82 9000 8.7 300 15:59 30.09.2019
1027 Rain 14 1005 82 9000 8.7 300 15:59 30.09.2019
1028 Rain 15 1004 82 8000 10.8 320 15:38 30.09.2019
1029 Rain 15 1004 82 8000 10.8 320 15:19 30.09.2019
1030 Rain 16 1004 72 10000 10.8 300 14:58 30.09.2019
1031 Rain 15 1004 82 8000 11.8 310 14:38 30.09.2019
1032 Rain 15 1004 82 8000 11.8 310 14:19 30.09.2019
1033 Clouds 16 1003 72 10000 10.8 310 13:59 30.09.2019
1034 Clouds 16 1002 77 10000 12.9 300 13:40 30.09.2019
1035 Clouds 16 1002 77 10000 12.9 300 13:21 30.09.2019
1036 Rain 15 1002 82 8000 10.8 310 12:44 30.09.2019
1037 Rain 15 1002 82 8000 10.8 310 12:25 30.09.2019
1038 Rain 16 1001 77 10000 11.3 300 11:59 30.09.2019
1039 Rain 16 1001 77 10000 11.3 300 11:59 30.09.2019
1040 Rain 14 1000 76 3000 11.8 300 11:40 30.09.2019
1041 Rain 14 1000 76 3000 11.8 300 11:21 30.09.2019
1042 Rain 14 999 82 10000 9.8 300 10:56 30.09.2019
1043 Rain 14 998 87 10000 10.3 310 10:37 30.09.2019
1044 Rain 14 998 87 10000 10.3 310 10:37 30.09.2019
1045 Rain 14 998 87 10000 10.3 310 10:18 30.09.2019
1046 Rain 14 997 76 6000 9.8 310 09:40 30.09.2019
1047 Rain 14 997 76 6000 9.8 310 09:21 30.09.2019
1048 Clouds 14 997 71 10000 11.3 310 08:52 30.09.2019
1049 Clouds 14 996 76 10000 12.3 320 08:33 30.09.2019
1050 Rain 14 995 82 10000 13.4 320 07:59 30.09.2019
1051 Rain 14 994 87 10000 12.9 330 07:40 30.09.2019
1052 Rain 14 994 87 10000 12.9 330 07:18 30.09.2019
1053 Rain 14 992 93 8000 10.3 340 06:42 30.09.2019
1054 Rain 14 992 93 8000 10.3 340 06:23 30.09.2019
1055 Rain 14 992 93 8000 10.3 340 06:23 30.09.2019
1056 Rain 14 989 93 4500 10.3 340 05:40 30.09.2019
1057 Clouds 15 989 93 10000 3.6 240 02:53 30.09.2019
1058 Clouds 15 989 93 10000 4.1 230 02:25 30.09.2019
1059 Clouds 15 989 93 10000 3.6 230 01:24 30.09.2019
1060 Clouds 15 989 93 10000 4.1 230 00:38 30.09.2019
1061 Clouds 15 989 93 10000 4.1 230 00:19 30.09.2019
1062 Clouds 15 989 93 10000 5.1 230 23:42 29.09.2019
1063 Clouds 15 989 93 10000 5.1 230 23:21 29.09.2019
1064 Clouds 15 989 93 10000 6.2 230 22:55 29.09.2019
1065 Clouds 15 989 93 10000 6.7 220 22:36 29.09.2019
1066 Clouds 15 989 93 10000 6.7 220 22:36 29.09.2019
1067 Clouds 15 989 93 10000 6.7 220 22:18 29.09.2019
1068 Drizzle 15 990 93 10000 6.2 220 21:56 29.09.2019
1069 Drizzle 15 990 93 10000 7.2 230 21:36 29.09.2019
1070 Drizzle 15 990 93 10000 7.2 230 21:18 29.09.2019
1071 Drizzle 15 990 93 10000 7.2 230 20:43 29.09.2019
1072 Clouds 15 991 93 10000 6.7 220 20:19 29.09.2019
1073 Clouds 15 991 93 10000 6.7 220 19:58 29.09.2019
1074 Drizzle 15 992 93 5000 6.2 210 19:37 29.09.2019
1075 Drizzle 15 992 93 5000 6.2 210 19:19 29.09.2019
1076 Drizzle 15 992 93 5000 6.2 210 18:55 29.09.2019
1077 Drizzle 15 992 93 5000 6.2 210 18:55 29.09.2019
1078 Drizzle 14 992 93 10000 6.7 210 18:37 29.09.2019
1079 Drizzle 14 992 93 10000 6.7 210 18:19 29.09.2019
1080 Drizzle 14 992 93 6000 6.7 220 17:56 29.09.2019
1081 Drizzle 14 994 100 2500 4.6 210 17:38 29.09.2019
1082 Drizzle 14 994 100 2500 4.6 210 17:19 29.09.2019
1083 Drizzle 14 994 100 2500 4.6 210 16:57 29.09.2019
1084 Drizzle 14 995 93 1500 5.1 210 16:39 29.09.2019
1085 Drizzle 14 995 93 1500 5.1 210 16:18 29.09.2019
1086 Drizzle 14 996 100 3200 5.7 210 15:41 29.09.2019
1087 Drizzle 14 996 100 3200 5.7 210 15:20 29.09.2019
1088 Drizzle 13 996 100 6000 5.1 210 14:59 29.09.2019
1089 Drizzle 14 997 93 3500 5.1 210 14:39 29.09.2019
1090 Drizzle 14 997 93 3500 5.1 210 14:20 29.09.2019
1091 Drizzle 13 997 93 4000 4.6 210 13:57 29.09.2019
1092 Drizzle 13 998 93 4000 4.6 200 13:39 29.09.2019
1093 Drizzle 13 998 93 4000 4.6 200 13:19 29.09.2019
1094 Drizzle 13 998 93 4000 4.6 200 12:57 29.09.2019
1095 Drizzle 13 999 93 4000 5.7 200 12:39 29.09.2019
1096 Drizzle 13 999 93 4000 5.7 200 12:21 29.09.2019
1097 Drizzle 13 999 93 5000 4.6 210 11:57 29.09.2019
1098 Drizzle 13 1000 93 4500 5.7 200 11:37 29.09.2019
1099 Drizzle 13 1000 93 4500 5.7 200 11:18 29.09.2019
1100 Drizzle 13 1000 93 7000 5.1 200 10:56 29.09.2019
1101 Drizzle 13 1000 93 7000 5.1 200 10:56 29.09.2019
1102 Rain 13 1001 93 8000 4.1 200 10:36 29.09.2019
1103 Rain 13 1001 93 8000 4.1 200 10:18 29.09.2019
1104 Drizzle 13 1001 93 6000 3.6 210 09:44 29.09.2019
1105 Rain 13 1001 93 7000 4.1 210 09:21 29.09.2019
1106 Rain 13 1002 93 7000 5.1 220 08:58 29.09.2019
1107 Rain 13 1002 93 8000 6.2 230 08:37 29.09.2019
1108 Rain 13 1002 93 8000 6.2 230 08:18 29.09.2019
1109 Clouds 13 1003 93 10000 6.2 230 07:41 29.09.2019
1110 Clouds 13 1003 93 10000 6.2 230 07:41 29.09.2019
1111 Clouds 13 1003 93 10000 6.2 230 07:23 29.09.2019
1112 Clouds 13 1003 93 10000 6.2 230 07:23 29.09.2019
1113 Clouds 14 1003 93 10000 6.7 220 06:42 29.09.2019
1114 Rain 14 1004 93 2100 6.2 230 04:59 29.09.2019
1115 Rain 14 1004 93 4000 5.7 230 04:25 29.09.2019
1116 Rain 14 1004 93 4000 5.7 230 03:56 29.09.2019
1117 Rain 13 1005 93 4400 3.6 240 02:45 29.09.2019
1118 Rain 13 1005 93 4400 3.6 240 02:18 29.09.2019
1119 Clouds 14 1005 93 4300 5.7 250 01:31 29.09.2019
1120 Clouds 13 1005 93 4300 5.7 250 00:48 29.09.2019
1121 Rain 14 1005 87 4400 5.1 250 00:20 29.09.2019
1122 Rain 14 1005 87 3400 6.2 250 23:43 28.09.2019
1123 Rain 14 1005 87 3400 6.2 250 23:22 28.09.2019
1124 Rain 14 1005 87 3400 6.2 250 23:22 28.09.2019
1125 Rain 14 1005 87 3400 6.2 250 22:57 28.09.2019
1126 Rain 14 1004 82 4900 6.7 240 22:38 28.09.2019
1127 Rain 14 1004 82 4900 6.7 240 22:20 28.09.2019
1128 Rain 14 1004 82 4900 6.7 240 21:56 28.09.2019
1129 Rain 15 1004 82 4800 7.2 220 21:38 28.09.2019
1130 Rain 15 1004 82 4800 7.2 220 21:20 28.09.2019
1131 Rain 15 1004 82 4800 7.2 220 20:57 28.09.2019
1132 Rain 15 1004 93 4200 7.7 220 20:38 28.09.2019
1133 Rain 15 1004 93 4200 7.7 220 20:18 28.09.2019
1134 Rain 15 1004 93 4200 7.7 220 19:55 28.09.2019
1135 Rain 16 1004 72 6000 7.7 220 19:36 28.09.2019
1136 Rain 16 1004 72 6000 7.7 220 19:18 28.09.2019
1137 Rain 15 1005 77 6000 6.2 220 18:42 28.09.2019
1138 Rain 15 1005 77 6000 6.2 220 18:22 28.09.2019
1139 Rain 15 1005 77 6000 6.2 220 17:59 28.09.2019
1140 Rain 17 1005 63 7000 7.2 220 17:40 28.09.2019
1141 Rain 17 1005 63 7000 7.2 220 17:21 28.09.2019
1142 Rain 17 1005 63 7000 7.2 220 16:55 28.09.2019
1143 Rain 17 1006 67 7000 6.2 230 16:37 28.09.2019
1144 Rain 17 1006 67 7000 6.2 230 16:18 28.09.2019
1145 Rain 17 1006 67 7000 8.7 230 15:40 28.09.2019
1146 Rain 17 1006 67 7000 8.7 230 15:22 28.09.2019
1147 Rain 17 1006 67 7000 8.7 230 14:55 28.09.2019
1148 Rain 17 1006 67 7000 7.7 230 14:37 28.09.2019
1149 Rain 17 1006 67 7000 7.7 230 14:37 28.09.2019
1150 Rain 17 1006 67 7000 7.7 230 14:19 28.09.2019
1151 Rain 17 1006 67 7000 7.7 230 13:54 28.09.2019
1152 Rain 16 1006 72 6000 6.7 230 13:36 28.09.2019
1153 Rain 16 1006 72 6000 6.7 230 13:18 28.09.2019
1154 Clouds 17 1006 77 10000 6.7 230 12:39 28.09.2019
1155 Clouds 17 1006 77 10000 6.7 230 12:19 28.09.2019
1156 Clouds 15 1006 82 10000 7.2 230 11:42 28.09.2019
1157 Clouds 15 1006 82 10000 7.2 230 11:21 28.09.2019
1158 Clouds 15 1006 82 10000 7.2 230 10:59 28.09.2019
1159 Clouds 15 1006 87 10000 5.1 230 10:39 28.09.2019
1160 Clouds 15 1006 87 10000 5.1 230 10:19 28.09.2019
1161 Clouds 13 1005 93 10000 4.6 220 09:42 28.09.2019
1162 Clouds 13 1005 93 10000 4.6 220 09:23 28.09.2019
1163 Clouds 13 1005 93 10000 4.6 220 08:55 28.09.2019
1164 Clouds 14 1005 87 10000 6.2 220 08:37 28.09.2019
1165 Clouds 14 1005 87 10000 6.2 220 08:18 28.09.2019
1166 Clouds 14 1005 87 10000 6.2 220 07:43 28.09.2019
1167 Clouds 14 1005 82 10000 6.2 230 07:19 28.09.2019
1168 Clouds 13 1005 82 10000 5.7 220 06:52 28.09.2019
1169 Clouds 13 1005 87 10000 5.7 220 06:30 28.09.2019
1170 Clouds 13 1005 87 10000 4.6 210 05:43 28.09.2019
1171 Clouds 13 1005 87 10000 4.6 210 05:20 28.09.2019
1172 Clouds 13 1005 82 10000 5.1 220 04:38 28.09.2019
1173 Clouds 13 1005 82 10000 5.1 220 03:49 28.09.2019
1174 Rain 13 1004 82 10000 7.7 220 03:21 28.09.2019
1175 Rain 14 1004 82 10000 7.7 220 02:44 28.09.2019
1176 Clouds 14 1004 77 10000 5.7 210 02:26 28.09.2019
1177 Clouds 14 1004 77 10000 5.7 210 01:47 28.09.2019
1178 Clouds 14 1005 77 10000 4.6 200 01:26 28.09.2019
1179 Clouds 15 1005 77 10000 4.6 200 00:49 28.09.2019
1180 Clouds 14 1005 87 10000 4.6 200 00:31 28.09.2019
1181 Clouds 14 1005 87 10000 4.6 200 23:55 27.09.2019
1182 Clouds 15 1005 87 10000 3.6 200 23:36 27.09.2019
1183 Clouds 15 1005 87 10000 3.6 200 23:18 27.09.2019
1184 Clouds 15 1006 87 10000 3.6 200 22:41 27.09.2019
1185 Clouds 15 1006 87 10000 3.6 200 22:19 27.09.2019
1186 Clouds 15 1006 87 10000 3.6 200 22:19 27.09.2019
1187 Clouds 15 1006 87 10000 3.6 200 21:55 27.09.2019
1188 Clouds 15 1006 93 10000 2.6 180 21:37 27.09.2019
1189 Clouds 15 1006 93 10000 2.6 180 21:18 27.09.2019
1190 Clouds 15 1006 93 10000 2.6 180 20:55 27.09.2019
1191 Rain 15 1006 87 10000 2.1 210 20:36 27.09.2019
1192 Rain 15 1006 87 10000 2.1 210 20:18 27.09.2019
1193 Rain 16 1005 82 10000 4.1 230 19:42 27.09.2019
1194 Rain 16 1005 82 10000 4.1 230 19:23 27.09.2019
1195 Rain 16 1005 82 10000 4.1 230 18:57 27.09.2019
1196 Clouds 18 1005 68 10000 4.6 220 18:38 27.09.2019
1197 Clouds 18 1005 68 10000 4.6 220 18:20 27.09.2019
1198 Clouds 18 1005 68 10000 4.6 220 18:20 27.09.2019
1199 Clouds 18 1005 68 10000 4.6 220 17:54 27.09.2019
1200 Rain 18 1005 68 10000 6.2 230 17:36 27.09.2019
1201 Rain 18 1005 68 10000 6.2 230 17:18 27.09.2019
1202 Rain 18 1005 63 10000 5.7 230 16:54 27.09.2019
1203 Clouds 18 1006 68 10000 6.7 230 16:36 27.09.2019
1204 Clouds 18 1006 68 10000 6.7 230 16:18 27.09.2019
1205 Clouds 18 1006 72 10000 5.7 230 15:42 27.09.2019
1206 Clouds 18 1006 72 10000 5.7 230 15:20 27.09.2019
1207 Clouds 18 1006 72 10000 5.7 230 14:56 27.09.2019
1208 Clouds 18 1006 72 10000 5.7 230 14:38 27.09.2019
1209 Clouds 18 1006 72 10000 5.7 230 14:18 27.09.2019
1210 Clouds 18 1006 72 10000 5.7 230 13:56 27.09.2019
1211 Rain 17 1002 69 0 9.32 218.092 13:38 27.09.2019
1212 Rain 17 1002 69 0 8.94 217.583 13:18 27.09.2019
1213 Clouds 16 1006 87 10000 5.7 230 12:43 27.09.2019
1214 Clouds 16 1006 87 10000 5.7 230 12:21 27.09.2019
1215 Clouds 16 1006 82 10000 4.6 240 11:40 27.09.2019
1216 Clouds 16 1006 82 10000 4.6 240 11:22 27.09.2019
1217 Clouds 16 1006 87 10000 5.1 220 10:59 27.09.2019
1218 Rain 15 1006 93 9000 4.1 220 10:40 27.09.2019
1219 Rain 15 1006 93 9000 4.1 220 10:21 27.09.2019
1220 Clouds 14 1006 93 8000 3.6 220 09:44 27.09.2019
1221 Clouds 14 1006 93 8000 3.6 220 09:44 27.09.2019
1222 Clouds 14 1006 93 8000 3.6 220 09:23 27.09.2019
1223 Clouds 14 1006 93 8000 3.6 220 08:58 27.09.2019
1224 Clouds 14 1006 93 7000 4.1 220 08:40 27.09.2019
1225 Clouds 14 1006 93 7000 4.1 220 08:20 27.09.2019
1226 Mist 14 1006 93 5000 4.1 230 07:49 27.09.2019
1227 Clouds 14 1006 93 7000 4.1 230 07:24 27.09.2019
1228 Clouds 14 1005 93 7000 4.1 230 06:43 27.09.2019
1229 Clouds 14 1005 93 7000 4.1 230 06:25 27.09.2019
1230 Clouds 14 1005 93 8000 3.1 240 05:52 27.09.2019
1231 Clouds 14 1005 93 8000 4.6 250 05:33 27.09.2019
1232 Clouds 15 1005 93 10000 3.1 220 03:59 27.09.2019
1233 Rain 15 1005 93 10000 3.6 240 03:37 27.09.2019
1234 Rain 16 1005 93 3000 4.6 200 01:53 27.09.2019
1235 Rain 16 1005 93 3000 5.1 190 01:28 27.09.2019
1236 Clouds 16 1006 93 6000 4.1 190 00:34 27.09.2019
1237 Clouds 16 1006 93 6000 4.1 190 23:57 26.09.2019
1238 Drizzle 16 1006 93 6000 4.1 180 23:38 26.09.2019
1239 Drizzle 16 1006 93 6000 4.1 180 23:19 26.09.2019
1240 Drizzle 16 1006 93 6000 4.1 180 22:58 26.09.2019
1241 Drizzle 16 1006 93 6000 4.1 180 22:58 26.09.2019
1242 Clouds 16 1006 93 7000 5.1 190 22:39 26.09.2019
1243 Clouds 16 1006 93 7000 5.1 190 22:18 26.09.2019
1244 Clouds 16 1006 93 7000 5.1 190 21:58 26.09.2019
1245 Clouds 16 1006 93 7000 5.1 180 21:37 26.09.2019
1246 Clouds 16 1006 93 7000 5.1 180 21:19 26.09.2019
1247 Clouds 16 1007 93 7000 4.6 190 20:58 26.09.2019
1248 Clouds 16 1006 93 7000 5.1 190 20:39 26.09.2019
1249 Clouds 16 1006 93 7000 5.1 190 20:21 26.09.2019
1250 Clouds 16 1006 93 7000 5.1 190 20:21 26.09.2019
1251 Drizzle 16 1006 93 3500 4.6 170 19:56 26.09.2019
1252 Drizzle 16 1007 93 3500 4.6 180 19:38 26.09.2019
1253 Drizzle 16 1007 93 3500 4.6 180 19:18 26.09.2019
1254 Rain 16 1007 93 7000 3.6 170 18:43 26.09.2019
1255 Rain 16 1007 93 7000 3.6 170 18:22 26.09.2019
1256 Rain 16 1007 93 7000 3.6 170 17:59 26.09.2019
1257 Rain 16 1007 93 7000 3.6 170 17:59 26.09.2019
1258 Rain 17 1007 82 7000 3.6 200 17:38 26.09.2019
1259 Rain 17 1007 82 7000 3.6 200 17:19 26.09.2019
1260 Rain 17 1007 82 7000 3.6 200 16:56 26.09.2019
1261 Clouds 17 1007 82 10000 3.6 180 16:37 26.09.2019
1262 Clouds 17 1007 82 10000 3.6 180 16:37 26.09.2019
1263 Clouds 17 1007 82 10000 3.6 180 16:18 26.09.2019
1264 Clouds 17 1007 82 9000 4.1 180 15:42 26.09.2019
1265 Clouds 17 1007 82 9000 4.1 180 15:24 26.09.2019
1266 Clouds 17 1007 82 9000 4.1 180 14:59 26.09.2019
1267 Clouds 17 1008 93 6000 3.1 190 14:41 26.09.2019
1268 Clouds 17 1008 93 6000 3.1 190 14:41 26.09.2019
1269 Clouds 17 1008 93 6000 3.1 190 14:22 26.09.2019
1270 Clouds 17 1008 93 6000 3.1 190 13:58 26.09.2019
1271 Mist 17 1008 93 4500 2.1 200 13:39 26.09.2019
1272 Mist 17 1008 93 4500 2.1 200 13:19 26.09.2019
1273 Mist 17 1008 93 4500 2.1 200 12:55 26.09.2019
1274 Mist 17 1008 93 4500 2.1 200 12:55 26.09.2019
1275 Mist 17 1008 93 4500 2.1 200 12:55 26.09.2019
1276 Mist 16 1007 100 4000 3.1 170 12:36 26.09.2019
1277 Mist 16 1007 100 4000 3.1 170 12:18 26.09.2019
1278 Mist 15 1007 100 3200 3.6 180 11:41 26.09.2019
1279 Mist 15 1007 100 3200 3.6 180 11:20 26.09.2019
1280 Mist 15 1007 100 2000 2.6 170 10:43 26.09.2019
1281 Mist 14 1007 100 1500 2.6 160 10:25 26.09.2019
1282 Mist 14 1007 100 1500 2.6 160 10:25 26.09.2019
1283 Mist 14 1007 100 1500 2.6 160 09:59 26.09.2019
1284 Mist 14 1007 100 1500 2.6 160 09:59 26.09.2019
1285 Mist 14 1007 100 1500 2.6 160 09:59 26.09.2019
1286 Mist 13 1007 100 1200 2.6 160 09:41 26.09.2019
1287 Mist 13 1007 100 1200 2.6 160 09:22 26.09.2019
1288 Mist 13 1007 93 2500 2.6 160 08:54 26.09.2019
1289 Mist 13 1007 93 1200 2.6 150 08:32 26.09.2019
1290 Mist 12 1006 100 3000 3.1 140 07:58 26.09.2019
1291 Fog 12 1006 100 700 1.5 140 07:40 26.09.2019
1292 Fog 12 1006 100 700 1.5 140 07:19 26.09.2019
1293 Fog 12 1006 93 200 1 100 06:43 26.09.2019
1294 Fog 12 1006 93 200 1 100 06:24 26.09.2019
1295 Fog 12 1006 100 200 1 110 05:40 26.09.2019
1296 Fog 12 1006 100 200 1 110 05:21 26.09.2019
1297 Fog 12 1006 100 300 1.5 0 02:41 26.09.2019
1298 Fog 13 1006 100 300 1.5 0 01:49 26.09.2019
1299 Fog 13 1006 93 800 2.6 160 01:27 26.09.2019
1300 Fog 13 1006 93 800 2.6 160 00:54 26.09.2019
1301 Fog 13 1006 100 100 1.5 130 00:36 26.09.2019
1302 Fog 14 1006 100 100 1.5 130 23:47 25.09.2019
1303 Fog 13 1006 100 250 1 120 23:28 25.09.2019
1304 Fog 13 1006 100 250 1 120 22:57 25.09.2019
1305 Fog 14 1006 100 500 1 120 22:39 25.09.2019
1306 Fog 14 1006 100 500 1 120 22:20 25.09.2019
1307 Fog 14 1006 93 1000 1.5 120 21:56 25.09.2019
1308 Fog 14 1006 93 5000 1.5 120 21:38 25.09.2019
1309 Fog 14 1006 93 5000 1.5 120 21:19 25.09.2019
1310 Clouds 14 1006 93 10000 1.5 130 20:56 25.09.2019
1311 Clouds 14 1006 93 10000 1.5 130 20:56 25.09.2019
1312 Clouds 15 1005 93 10000 1 140 20:38 25.09.2019
1313 Clouds 15 1005 93 10000 1 140 20:19 25.09.2019
1314 Clouds 16 1005 87 10000 1 120 19:41 25.09.2019
1315 Clouds 16 1005 87 10000 1 120 19:41 25.09.2019
1316 Clouds 16 1005 87 10000 1 120 19:22 25.09.2019
1317 Clouds 16 1005 87 10000 1 120 18:57 25.09.2019
1318 Clouds 16 1005 82 10000 1.5 100 18:39 25.09.2019
1319 Clouds 16 1005 82 10000 1.5 100 18:21 25.09.2019
1320 Clouds 16 1005 82 10000 1.5 100 17:58 25.09.2019
1321 Clouds 16 1005 82 10000 1.5 70 17:37 25.09.2019
1322 Clouds 16 1005 82 10000 1.5 70 17:19 25.09.2019
1323 Clouds 16 1005 82 10000 1.5 70 16:45 25.09.2019
1324 Clouds 16 1005 82 10000 1 0 16:27 25.09.2019
1325 Clouds 16 1005 82 10000 1 0 15:58 25.09.2019
1326 Rain 15 1005 87 10000 1.5 120 15:40 25.09.2019
1327 Rain 15 1005 87 10000 1.5 120 15:21 25.09.2019
1328 Rain 15 1005 87 10000 1.5 120 14:55 25.09.2019
1329 Rain 15 1005 87 7000 1 0 14:36 25.09.2019
1330 Rain 15 1005 87 7000 1 0 14:18 25.09.2019
1331 Rain 14 1005 93 5000 1.5 130 13:41 25.09.2019
1332 Rain 14 1005 93 5000 1.5 130 13:20 25.09.2019
1333 Mist 14 1005 93 4500 1.5 110 12:58 25.09.2019
1334 Drizzle 14 1005 93 3700 1.5 120 12:39 25.09.2019
1335 Drizzle 14 1005 93 3700 1.5 120 12:21 25.09.2019
1336 Drizzle 14 1005 93 3000 0.5 320 11:42 25.09.2019
1337 Drizzle 14 1005 93 3000 0.5 320 11:22 25.09.2019
1338 Drizzle 14 1005 93 3000 0.5 320 10:59 25.09.2019
1339 Drizzle 13 1004 100 3500 0.5 290 10:41 25.09.2019
1340 Drizzle 13 1004 100 3500 0.5 290 10:21 25.09.2019
1341 Drizzle 13 1004 100 3500 0.5 290 09:56 25.09.2019
1342 Drizzle 13 1004 100 2500 0.5 0 09:36 25.09.2019
1343 Drizzle 13 1004 100 2500 0.5 0 09:18 25.09.2019
1344 Drizzle 13 1004 93 3500 1 250 08:41 25.09.2019
1345 Drizzle 13 1004 93 3500 1 250 08:21 25.09.2019
1346 Drizzle 13 1004 93 3500 1 250 07:56 25.09.2019
1347 Drizzle 13 1004 93 4000 0.5 260 07:37 25.09.2019
1348 Drizzle 13 1004 93 4000 0.5 260 07:19 25.09.2019
1349 Drizzle 13 1005 93 8000 1 230 06:38 25.09.2019
1350 Drizzle 13 1005 93 8000 1 230 06:18 25.09.2019
1351 Drizzle 13 1005 87 10000 1.5 230 05:27 25.09.2019
1352 Drizzle 14 1005 87 10000 1.5 230 04:49 25.09.2019
1353 Clouds 14 1005 76 10000 2.1 160 02:18 25.09.2019
1354 Clouds 15 1006 77 10000 2.6 140 00:44 25.09.2019
1355 Clouds 15 1006 77 10000 2.6 140 00:24 25.09.2019
1356 Clouds 15 1006 77 10000 2.6 140 23:55 24.09.2019
1357 Clouds 16 1006 77 10000 2.1 130 23:36 24.09.2019
1358 Clouds 16 1006 77 10000 2.1 130 23:36 24.09.2019
1359 Clouds 16 1006 77 10000 2.1 130 23:18 24.09.2019
1360 Clouds 17 1007 77 10000 2.6 120 22:39 24.09.2019
1361 Clouds 17 1007 77 10000 2.6 120 22:20 24.09.2019
1362 Clouds 17 1007 77 10000 2.6 120 21:56 24.09.2019
1363 Clouds 17 1007 77 10000 2.1 120 21:37 24.09.2019
1364 Clouds 17 1007 77 10000 2.1 120 21:19 24.09.2019
1365 Clouds 17 1007 72 10000 2.1 130 20:57 24.09.2019
1366 Clouds 18 1007 68 10000 1.5 120 20:39 24.09.2019
1367 Clouds 18 1007 68 10000 1.5 120 20:20 24.09.2019
1368 Clouds 18 1007 68 10000 2.1 130 19:44 24.09.2019
1369 Clouds 18 1007 68 10000 2.1 130 19:23 24.09.2019
1370 Clouds 18 1007 68 10000 2.1 130 18:59 24.09.2019
1371 Clouds 19 1008 63 10000 2.6 140 18:41 24.09.2019
1372 Clouds 19 1008 63 10000 2.6 140 18:41 24.09.2019
1373 Clouds 19 1008 63 10000 2.6 140 18:22 24.09.2019
1374 Clouds 19 1008 63 10000 2.6 140 17:58 24.09.2019
1375 Clouds 20 1008 56 10000 3.6 150 17:38 24.09.2019
1376 Clouds 20 1008 56 10000 3.6 150 17:38 24.09.2019
1377 Clouds 20 1008 56 10000 3.6 150 17:20 24.09.2019
1378 Clouds 20 1008 56 10000 3.6 150 16:58 24.09.2019
1379 Clouds 20 1009 52 10000 4.1 170 16:40 24.09.2019
1380 Clouds 20 1009 52 10000 4.1 170 16:19 24.09.2019
1381 Clouds 20 1009 60 10000 4.1 160 15:42 24.09.2019
1382 Clouds 20 1009 60 10000 4.1 160 15:23 24.09.2019
1383 Clouds 21 1009 60 10000 4.1 160 14:45 24.09.2019
1384 Clouds 20 1010 68 10000 3.6 160 14:21 24.09.2019
1385 Clouds 20 1010 68 10000 3.6 160 13:59 24.09.2019
1386 Clouds 19 1011 72 10000 3.6 150 13:40 24.09.2019
1387 Clouds 19 1011 72 10000 3.6 150 13:21 24.09.2019
1388 Clouds 17 1012 93 10000 3.6 170 12:40 24.09.2019
1389 Clouds 17 1012 93 10000 3.6 170 12:21 24.09.2019
1390 Clouds 17 1012 93 10000 3.6 170 11:57 24.09.2019
1391 Clouds 16 1012 93 8000 2.6 160 11:39 24.09.2019
1392 Clouds 16 1012 93 8000 2.6 160 11:19 24.09.2019
1393 Mist 15 1012 100 5000 2.1 180 10:40 24.09.2019
1394 Mist 15 1012 100 5000 2.1 180 10:21 24.09.2019
1395 Fog 15 1012 93 3000 2.1 190 09:57 24.09.2019
1396 Fog 13 1013 100 800 1.5 190 09:39 24.09.2019
1397 Fog 12 1013 100 800 1.5 190 09:19 24.09.2019
1398 Fog 12 1012 100 150 1 160 08:41 24.09.2019
1399 Fog 12 1012 100 150 1 160 08:23 24.09.2019
1400 Fog 12 1012 100 150 1 160 07:59 24.09.2019
1401 Fog 12 1013 100 300 1.5 190 07:41 24.09.2019
1402 Fog 12 1013 100 300 1.5 190 07:22 24.09.2019
1403 Fog 13 1013 93 400 2.1 200 06:46 24.09.2019
1404 Fog 13 1013 93 400 2.1 200 06:26 24.09.2019
1405 Fog 13 1013 93 600 2.1 210 05:25 24.09.2019
1406 Mist 14 1014 93 4500 2.1 220 04:19 24.09.2019
1407 Mist 14 1014 93 3000 2.1 220 03:34 24.09.2019
1408 Mist 15 1014 93 3500 2.1 210 02:45 24.09.2019
1409 Rain 14 1014 100 2500 1.5 170 01:43 24.09.2019
1410 Rain 15 1014 100 4500 2.1 170 00:42 24.09.2019
1411 Rain 15 1014 100 4500 2.1 170 00:23 24.09.2019
1412 Clouds 15 1015 100 10000 2.1 170 23:43 23.09.2019
1413 Clouds 15 1015 100 10000 2.1 170 23:23 23.09.2019
1414 Clouds 15 1015 100 10000 2.1 170 22:57 23.09.2019
1415 Clouds 15 1015 100 10000 1.5 140 22:38 23.09.2019
1416 Clouds 15 1015 100 10000 1.5 140 22:20 23.09.2019
1417 Clouds 15 1015 100 10000 1.5 140 21:56 23.09.2019
1418 Clouds 15 1014 100 10000 1 150 21:37 23.09.2019
1419 Clouds 15 1014 100 10000 1 150 21:18 23.09.2019
1420 Clouds 15 1014 93 10000 1.5 210 20:40 23.09.2019
1421 Clouds 15 1014 93 10000 1.5 210 20:20 23.09.2019
1422 Clouds 16 1014 93 10000 1.5 210 19:56 23.09.2019
1423 Drizzle 16 1014 93 6000 1 320 19:38 23.09.2019
1424 Drizzle 16 1014 93 6000 1 320 19:20 23.09.2019
1425 Drizzle 16 1014 93 4800 3.6 310 18:42 23.09.2019
1426 Drizzle 16 1014 93 4800 3.6 310 18:21 23.09.2019
1427 Drizzle 16 1014 93 5000 3.1 300 17:59 23.09.2019
1428 Drizzle 16 1014 93 2500 5.1 280 17:39 23.09.2019
1429 Drizzle 16 1014 93 2500 5.1 280 17:21 23.09.2019
1430 Drizzle 16 1014 93 2500 5.1 280 16:59 23.09.2019
1431 Drizzle 15 1013 87 4000 5.1 280 16:38 23.09.2019
1432 Drizzle 15 1013 87 4000 5.1 280 16:19 23.09.2019
1433 Mist 16 1013 87 4800 6.2 280 15:57 23.09.2019
1434 Clouds 16 1013 87 6000 5.7 280 15:39 23.09.2019
1435 Clouds 16 1013 87 6000 5.7 280 15:19 23.09.2019
1436 Drizzle 16 1013 93 3700 5.7 290 14:57 23.09.2019
1437 Drizzle 16 1013 93 2800 3.6 300 14:36 23.09.2019
1438 Drizzle 16 1013 93 2800 3.6 300 14:18 23.09.2019
1439 Drizzle 16 1013 88 7000 5.1 280 13:40 23.09.2019
1440 Drizzle 16 1013 88 7000 5.1 280 13:19 23.09.2019
1441 Clouds 16 1012 87 9000 2.6 280 12:59 23.09.2019
1442 Clouds 16 1012 77 10000 1.5 230 12:40 23.09.2019
1443 Clouds 16 1012 77 10000 1.5 230 12:21 23.09.2019
1444 Clouds 14 1012 76 10000 1.5 140 11:45 23.09.2019
1445 Clouds 14 1012 76 10000 1.5 140 11:27 23.09.2019
1446 Clouds 14 1012 76 10000 1.5 140 10:57 23.09.2019
1447 Clouds 15 1012 71 10000 2.1 130 10:39 23.09.2019
1448 Clouds 15 1012 71 10000 2.1 130 10:20 23.09.2019
1449 Clouds 15 1012 76 10000 1.5 140 09:40 23.09.2019
1450 Clouds 15 1012 76 10000 1.5 140 09:40 23.09.2019
1451 Clouds 15 1012 76 10000 1.5 140 09:40 23.09.2019
1452 Clouds 15 1012 76 10000 1.5 140 09:21 23.09.2019
1453 Clouds 14 1011 81 10000 1.5 110 08:58 23.09.2019
1454 Clouds 14 1011 76 10000 2.1 140 08:38 23.09.2019
1455 Clouds 14 1011 76 10000 2.1 140 08:18 23.09.2019
1456 Clouds 14 1011 76 10000 2.1 140 08:18 23.09.2019
1457 Clouds 14 1011 76 10000 2.1 140 08:18 23.09.2019
1458 Clouds 14 1010 76 10000 2.1 120 07:33 23.09.2019
1459 Clouds 14 1010 76 10000 2.1 120 06:53 23.09.2019
1460 Clouds 14 1010 76 10000 2.6 110 06:20 23.09.2019
1461 Clouds 14 1009 81 10000 3.6 90 05:28 23.09.2019
1462 Clouds 14 1009 81 10000 3.6 90 04:56 23.09.2019
1463 Clouds 14 1009 76 10000 2.6 100 03:59 23.09.2019
1464 Clouds 15 1009 67 10000 3.1 120 01:26 23.09.2019
1465 Clouds 16 1009 63 10000 3.1 120 00:38 23.09.2019
1466 Clouds 16 1009 63 10000 3.1 120 00:18 23.09.2019
1467 Clouds 17 1009 59 10000 2.6 120 23:41 22.09.2019
1468 Clouds 17 1009 59 10000 2.6 120 23:22 22.09.2019
1469 Clouds 18 1009 59 10000 2.6 120 22:55 22.09.2019
1470 Clouds 18 1009 59 10000 3.1 120 22:37 22.09.2019
1471 Clouds 18 1009 59 10000 3.1 120 22:19 22.09.2019
1472 Clouds 18 1009 55 10000 2.6 120 21:43 22.09.2019
1473 Clouds 18 1009 55 10000 2.6 120 21:21 22.09.2019
1474 Clouds 20 1009 55 10000 2.6 120 20:45 22.09.2019
1475 Clouds 20 1008 49 10000 3.1 120 20:27 22.09.2019
1476 Clouds 20 1008 49 10000 3.1 120 19:59 22.09.2019
1477 Clouds 20 1008 49 10000 3.1 120 19:59 22.09.2019
1478 Clouds 22 1009 49 10000 2.6 110 19:41 22.09.2019
1479 Clouds 22 1009 49 10000 2.6 110 19:21 22.09.2019
1480 Clouds 22 1009 49 10000 2.6 110 19:21 22.09.2019
1481 Clouds 22 1009 49 10000 2.6 110 18:57 22.09.2019
1482 Clouds 23 1009 46 10000 3.6 120 18:38 22.09.2019
1483 Clouds 23 1009 46 10000 3.6 120 18:18 22.09.2019
1484 Clouds 23 1009 46 10000 3.6 120 17:48 22.09.2019
1485 Clouds 23 1009 38 10000 4.1 130 17:27 22.09.2019
1486 Clouds 23 1009 38 10000 4.1 130 16:59 22.09.2019
1487 Clouds 23 1009 38 10000 4.1 130 16:59 22.09.2019
1488 Clouds 24 1009 38 10000 5.1 130 16:40 22.09.2019
1489 Clouds 24 1009 38 10000 5.1 130 16:40 22.09.2019
1490 Clouds 24 1009 38 10000 5.1 130 16:21 22.09.2019
1491 Clouds 23 1010 40 10000 4.6 130 15:46 22.09.2019
1492 Clouds 23 1010 40 10000 4.6 130 15:27 22.09.2019
1493 Clouds 23 1010 40 10000 4.6 130 14:58 22.09.2019
1494 Clouds 22 1010 46 10000 4.6 130 14:40 22.09.2019
1495 Clouds 22 1010 46 10000 4.6 130 14:21 22.09.2019
1496 Clouds 22 1010 46 10000 4.6 130 13:55 22.09.2019
1497 Clouds 21 1011 49 10000 3.6 130 13:36 22.09.2019
1498 Clouds 21 1011 49 10000 3.6 130 13:18 22.09.2019
1499 Clouds 19 1011 59 10000 3.6 130 12:42 22.09.2019
1500 Clouds 19 1011 59 10000 3.6 130 12:22 22.09.2019
1501 -273 0 0 0 0 0 11:56 22.09.2019
1502 Clouds 16 1012 67 10000 4.1 130 11:38 22.09.2019
1503 Clouds 16 1012 67 10000 4.1 130 11:19 22.09.2019
1504 Clouds 14 1013 71 10000 3.6 130 10:43 22.09.2019
1505 Clouds 14 1013 71 10000 3.6 130 10:20 22.09.2019
1506 Clouds 14 1013 71 10000 3.6 130 09:56 22.09.2019
1507 Clouds 12 1013 81 10000 3.6 120 09:37 22.09.2019
1508 Clouds 12 1013 81 10000 3.6 120 09:19 22.09.2019
1509 Fog 10 1013 87 10000 3.1 110 08:42 22.09.2019
1510 Fog 10 1013 87 10000 3.1 110 08:23 22.09.2019
1511 Fog 10 1013 87 10000 3.1 110 07:52 22.09.2019
1512 Fog 11 1013 87 10000 3.1 120 07:33 22.09.2019
1513 Fog 11 1013 87 10000 3.1 120 06:59 22.09.2019
1514 Clear 11 1014 87 10000 3.1 120 06:38 22.09.2019
1515 Clear 12 1014 87 10000 2.6 110 05:22 22.09.2019
1516 Clear 12 1015 93 10000 3.1 100 02:46 22.09.2019
1517 Fog 12 1016 93 10000 2.6 120 02:26 22.09.2019
1518 Fog 13 1016 93 10000 2.6 120 01:53 22.09.2019
1519 Fog 13 1016 87 10000 2.1 100 00:57 22.09.2019
1520 Clouds 13 1017 87 10000 1.5 110 00:33 22.09.2019
1521 Clouds 13 1017 87 10000 1.5 110 23:57 21.09.2019
1522 Clouds 14 1017 82 10000 2.1 110 23:39 21.09.2019
1523 Clouds 14 1017 82 10000 2.1 110 22:57 21.09.2019
1524 Clouds 14 1017 82 10000 2.6 100 22:38 21.09.2019
1525 Clouds 14 1017 82 10000 2.6 100 22:20 21.09.2019
1526 Clouds 14 1017 82 10000 2.6 100 22:20 21.09.2019
1527 Clouds 14 1018 82 10000 2.1 100 21:41 21.09.2019
1528 Clouds 14 1018 82 10000 2.1 100 21:20 21.09.2019
1529 Clouds 14 1018 82 10000 2.1 100 20:58 21.09.2019
1530 Clouds 16 1018 72 10000 2.6 100 20:38 21.09.2019
1531 Clouds 16 1018 72 10000 2.6 100 20:38 21.09.2019
1532 Clouds 16 1018 72 10000 2.6 100 20:19 21.09.2019
1533 Clouds 18 1018 72 10000 2.6 100 19:46 21.09.2019
1534 Clouds 18 1018 72 10000 3.6 70 19:22 21.09.2019
1535 Clouds 18 1019 68 10000 4.1 70 18:42 21.09.2019
1536 Clouds 18 1019 68 10000 4.1 70 18:22 21.09.2019
1537 Clouds 18 1019 68 10000 4.1 70 17:56 21.09.2019
1538 Clouds 20 1020 56 10000 2.6 140 17:38 21.09.2019
1539 Clouds 20 1020 56 10000 2.6 140 17:19 21.09.2019
1540 Clouds 20 1020 60 10000 2.1 140 16:42 21.09.2019
1541 Clouds 20 1020 60 10000 2.1 140 16:42 21.09.2019
1542 Clouds 20 1020 60 10000 2.1 140 16:24 21.09.2019
1543 Clouds 20 1020 60 10000 2.1 140 15:48 21.09.2019
1544 Clouds 20 1021 59 10000 2.6 70 15:25 21.09.2019
1545 Clouds 19 1021 59 10000 2.6 70 14:50 21.09.2019
1546 Clouds 19 1022 63 10000 2.6 60 14:32 21.09.2019
1547 Clouds 19 1022 63 10000 2.6 60 13:58 21.09.2019
1548 Clouds 18 1022 59 10000 1 0 13:40 21.09.2019
1549 Clouds 18 1022 59 10000 1 0 13:22 21.09.2019
1550 Clouds 18 1022 59 10000 1 0 12:56 21.09.2019
1551 Clouds 17 1023 63 10000 1.5 0 12:38 21.09.2019
1552 Clouds 17 1023 63 10000 1.5 0 12:20 21.09.2019
1553 Clouds 16 1023 67 10000 2.1 240 11:44 21.09.2019
1554 Clouds 16 1023 67 10000 2.1 240 11:24 21.09.2019
1555 Clouds 16 1023 67 10000 2.1 240 10:55 21.09.2019
1556 Clouds 15 1023 76 10000 2.1 220 10:37 21.09.2019
1557 Clouds 15 1023 76 10000 2.1 220 10:18 21.09.2019
1558 Clouds 12 1023 87 10000 2.1 220 09:40 21.09.2019
1559 Clouds 12 1023 87 10000 2.1 220 09:21 21.09.2019
1560 Clouds 12 1023 87 10000 2.1 220 08:59 21.09.2019
1561 Fog 9 1023 93 10000 2.1 220 08:40 21.09.2019
1562 Fog 9 1023 93 10000 2.1 220 07:55 21.09.2019
1563 Fog 10 1023 93 10000 1.5 230 07:37 21.09.2019
1564 Fog 10 1023 93 10000 1.5 230 07:18 21.09.2019
1565 Clouds 12 1023 93 10000 1.5 0 06:34 21.09.2019
1566 Clouds 11 1023 93 10000 1.5 0 05:51 21.09.2019
1567 Clouds 13 1024 87 10000 2.1 220 04:38 21.09.2019
1568 Clouds 13 1024 87 10000 2.1 220 03:25 21.09.2019
1569 Clouds 14 1024 82 10000 2.1 220 02:23 21.09.2019
1570 Clouds 14 1025 87 10000 2.1 240 01:47 21.09.2019
1571 Clouds 14 1025 87 10000 2.1 240 01:21 21.09.2019
1572 Clouds 14 1025 82 10000 1.5 260 00:23 21.09.2019
1573 Clouds 14 1025 82 10000 1.5 260 23:48 20.09.2019
1574 Clouds 14 1026 82 10000 2.6 260 23:30 20.09.2019
1575 Clouds 14 1026 82 10000 2.6 260 22:46 20.09.2019
1576 Clouds 14 1026 87 10000 1.5 240 22:26 20.09.2019
1577 Clouds 14 1026 87 10000 1.5 240 21:58 20.09.2019
1578 Clouds 14 1026 82 10000 2.1 260 21:39 20.09.2019
1579 Clouds 14 1026 82 10000 2.1 260 21:21 20.09.2019
1580 Clouds 14 1026 82 10000 2.1 260 20:59 20.09.2019
1581 Clouds 15 1026 82 10000 2.1 270 20:41 20.09.2019
1582 Clouds 15 1026 82 10000 2.1 270 20:20 20.09.2019
1583 Clouds 15 1026 82 10000 2.1 270 19:56 20.09.2019
1584 Clouds 15 1026 82 10000 2.6 270 19:37 20.09.2019
1585 Clouds 15 1026 82 10000 2.6 270 19:18 20.09.2019
1586 Clouds 15 1027 72 10000 3.6 270 18:39 20.09.2019
1587 Clouds 15 1027 72 10000 3.6 270 18:20 20.09.2019
1588 Clouds 15 1027 72 10000 3.6 270 17:56 20.09.2019
1589 Rain 15 1027 77 10000 4.6 290 17:38 20.09.2019
1590 Rain 15 1027 77 10000 4.6 290 17:18 20.09.2019
1591 Clouds 15 1028 72 10000 4.6 270 16:38 20.09.2019
1592 Clouds 15 1028 72 10000 4.6 270 16:19 20.09.2019
1593 Clouds 16 1028 72 10000 4.6 270 15:42 20.09.2019
1594 Clouds 16 1028 72 10000 4.6 270 15:23 20.09.2019
1595 Clouds 16 1028 72 10000 4.6 270 15:23 20.09.2019
1596 Clouds 15 1028 72 10000 4.6 270 14:56 20.09.2019
1597 Clouds 15 1028 72 10000 4.6 270 14:38 20.09.2019
1598 Clouds 15 1028 72 10000 4.6 270 14:18 20.09.2019
1599 Clouds 15 1028 72 10000 4.6 260 13:45 20.09.2019
1600 Clouds 15 1028 72 10000 4.6 260 13:27 20.09.2019
1601 Clouds 15 1028 72 10000 4.6 260 12:56 20.09.2019
1602 Clouds 14 1029 76 10000 2.6 250 12:36 20.09.2019
1603 Clouds 14 1029 76 10000 2.6 250 12:18 20.09.2019
1604 Clouds 13 1029 82 10000 2.6 250 11:44 20.09.2019
1605 Clouds 13 1029 82 10000 2.6 250 11:19 20.09.2019
1606 Clouds 12 1029 93 10000 2.6 230 10:43 20.09.2019
1607 Clouds 12 1029 93 10000 2.6 230 10:43 20.09.2019
1608 Clouds 12 1029 93 10000 2.6 230 10:23 20.09.2019
1609 Clouds 11 1028 93 10000 2.6 220 09:39 20.09.2019
1610 Clouds 11 1028 93 10000 2.6 220 09:19 20.09.2019
1611 Clouds 11 1028 93 10000 2.6 220 08:59 20.09.2019
1612 Clouds 11 1028 93 10000 2.6 220 08:59 20.09.2019
1613 Clouds 10 1028 93 10000 2.6 220 08:40 20.09.2019
1614 Clouds 10 1028 93 10000 2.6 220 08:40 20.09.2019
1615 Clouds 10 1028 93 10000 2.6 220 08:21 20.09.2019
1616 Clouds 10 1028 87 10000 2.1 210 07:43 20.09.2019
1617 Clouds 10 1028 87 10000 2.1 210 07:24 20.09.2019
1618 Clouds 11 1029 87 10000 1 260 06:44 20.09.2019
1619 Clouds 11 1029 87 10000 1 260 06:44 20.09.2019
1620 Clouds 11 1029 87 10000 1 260 06:20 20.09.2019
1621 Clouds 9 1029 87 10000 1 260 05:42 20.09.2019
1622 Clouds 10 1029 93 10000 1.5 280 03:30 20.09.2019
1623 Clouds 11 1029 93 10000 1.5 280 02:50 20.09.2019
1624 Clouds 10 1030 87 10000 1 270 01:44 20.09.2019
1625 Clouds 11 1030 81 10000 1.5 290 00:46 20.09.2019
1626 Clouds 11 1030 81 10000 1.5 290 00:21 20.09.2019
1627 Clouds 11 1030 81 10000 1 310 23:41 19.09.2019
1628 Clouds 11 1030 81 10000 1 310 23:19 19.09.2019
1629 Clouds 11 1030 81 10000 1 310 22:54 19.09.2019
1630 Clouds 11 1030 76 10000 2.1 310 22:36 19.09.2019
1631 Clouds 11 1030 76 10000 2.1 310 22:18 19.09.2019
1632 Clouds 11 1030 76 10000 2.1 310 21:55 19.09.2019
1633 Clouds 12 1029 76 10000 1.5 310 21:36 19.09.2019
1634 Clouds 12 1029 76 10000 1.5 310 21:18 19.09.2019
1635 Clouds 12 1029 71 10000 2.6 320 20:43 19.09.2019
1636 Clouds 12 1029 71 10000 2.6 320 20:20 19.09.2019
1637 Clouds 12 1029 71 10000 2.6 320 19:55 19.09.2019
1638 Clouds 13 1029 71 10000 2.6 320 19:37 19.09.2019
1639 Clouds 13 1029 62 10000 4.6 330 19:18 19.09.2019
1640 Clouds 15 1029 54 10000 5.1 330 18:42 19.09.2019
1641 Clouds 15 1029 54 10000 5.1 330 18:42 19.09.2019
1642 Clouds 15 1029 54 10000 5.1 330 18:23 19.09.2019
1643 Clouds 15 1029 51 10000 5.7 330 17:44 19.09.2019
1644 Clouds 15 1029 51 10000 5.7 330 17:25 19.09.2019
1645 Clouds 15 1029 51 10000 5.7 330 16:59 19.09.2019
1646 Clouds 15 1029 54 10000 5.7 330 16:40 19.09.2019
1647 Clouds 15 1029 54 10000 5.7 330 16:20 19.09.2019
1648 Clouds 15 1029 51 10000 5.7 340 15:41 19.09.2019
1649 Clouds 15 1029 51 10000 5.7 340 15:22 19.09.2019
1650 Clouds 15 1029 51 10000 5.7 340 14:58 19.09.2019
1651 Clouds 15 1030 54 10000 7.2 330 14:39 19.09.2019
1652 Clouds 15 1030 54 10000 7.2 330 14:21 19.09.2019
1653 Clouds 15 1030 54 10000 7.2 330 13:57 19.09.2019
1654 Clouds 15 1029 51 10000 6.2 330 13:37 19.09.2019
1655 Clouds 15 1029 51 10000 6.2 330 13:37 19.09.2019
1656 Clouds 15 1029 51 10000 6.2 330 13:18 19.09.2019
1657 Clouds 14 1029 54 10000 6.2 330 12:37 19.09.2019
1658 Clouds 14 1029 54 10000 6.2 330 12:18 19.09.2019
1659 Clouds 14 1029 54 10000 5.1 330 11:41 19.09.2019
1660 Clouds 14 1029 54 10000 5.1 330 11:22 19.09.2019
1661 Clouds 14 1029 54 10000 5.1 330 11:22 19.09.2019
1662 Clouds 14 1029 54 10000 5.1 330 10:59 19.09.2019
1663 Clouds 13 1028 58 10000 4.6 330 10:39 19.09.2019
1664 Clouds 13 1028 58 10000 4.6 330 10:21 19.09.2019
1665 Clouds 13 1028 58 10000 4.6 330 09:58 19.09.2019
1666 Clouds 13 1028 62 10000 3.6 330 09:40 19.09.2019
1667 Clouds 13 1028 62 10000 3.6 330 09:40 19.09.2019
1668 Clouds 13 1028 62 10000 3.6 330 09:40 19.09.2019
1669 Clouds 13 1028 62 10000 3.6 330 09:19 19.09.2019
1670 Clouds 13 1028 62 10000 3.6 330 08:51 19.09.2019
1671 Clouds 12 1027 66 10000 4.1 330 08:24 19.09.2019
1672 Clouds 12 1027 66 10000 4.1 330 07:45 19.09.2019
1673 Clouds 12 1027 66 10000 4.1 330 07:23 19.09.2019
1674 Clouds 12 1027 66 10000 4.1 330 06:58 19.09.2019
1675 Clouds 11 1026 66 10000 2.6 320 06:38 19.09.2019
1676 Clouds 11 1026 66 10000 2.6 320 06:19 19.09.2019
1677 Clouds 12 1026 66 10000 2.6 320 05:48 19.09.2019
1678 Clouds 12 1026 71 10000 0.5 340 04:19 19.09.2019
1679 Clouds 11 1026 76 10000 2.6 330 03:20 19.09.2019
1680 Clouds 12 1026 66 10000 3.6 320 01:40 19.09.2019
1681 Clouds 12 1026 66 10000 3.6 320 01:19 19.09.2019
1682 Clouds 12 1026 66 10000 4.6 330 00:43 19.09.2019
1683 Clouds 12 1026 66 10000 4.6 330 00:19 19.09.2019
1684 Clouds 12 1026 62 10000 4.1 340 23:38 18.09.2019
1685 Clouds 12 1026 62 10000 4.1 340 23:19 18.09.2019
1686 Clouds 12 1025 58 10000 4.6 330 22:41 18.09.2019
1687 Clouds 12 1025 58 10000 4.6 330 22:19 18.09.2019
1688 Clouds 12 1025 58 10000 4.6 330 21:57 18.09.2019
1689 Clouds 13 1025 62 10000 3.6 330 21:39 18.09.2019
1690 Clouds 13 1025 62 10000 3.6 330 21:18 18.09.2019
1691 Clouds 13 1025 62 10000 5.7 330 20:57 18.09.2019
1692 Clouds 13 1025 54 10000 6.7 330 20:39 18.09.2019
1693 Clouds 13 1025 54 10000 6.7 330 20:21 18.09.2019
1694 Clouds 13 1025 54 10000 6.7 330 19:57 18.09.2019
1695 Clouds 13 1025 54 10000 7.2 330 19:38 18.09.2019
1696 Clouds 13 1025 54 10000 7.2 330 19:19 18.09.2019
1697 Clouds 13 1025 54 10000 7.2 330 18:55 18.09.2019
1698 Clouds 14 1024 58 10000 7.2 340 18:36 18.09.2019
1699 Clouds 14 1024 58 10000 7.2 340 18:36 18.09.2019
1700 Clouds 14 1024 58 10000 7.2 340 18:18 18.09.2019
1701 Clouds 14 1024 58 10000 7.2 340 17:56 18.09.2019
1702 Clouds 14 1024 58 10000 7.2 340 17:56 18.09.2019
1703 Clouds 14 1024 47 10000 9.3 320 17:38 18.09.2019
1704 Clouds 14 1024 47 10000 9.3 320 17:18 18.09.2019
1705 Clouds 14 1024 47 10000 9.3 320 17:18 18.09.2019
1706 Clouds 15 1025 54 10000 9.3 330 16:43 18.09.2019
1707 Clouds 15 1025 54 10000 9.3 330 16:23 18.09.2019
1708 Clouds 15 1025 54 10000 9.3 330 15:59 18.09.2019
1709 Clouds 14 1024 50 10000 8.2 340 15:41 18.09.2019
1710 Clouds 14 1024 50 10000 8.2 340 15:21 18.09.2019
1711 Clouds 14 1024 50 10000 8.2 340 14:59 18.09.2019
1712 Clouds 14 1024 50 10000 8.7 340 14:40 18.09.2019
1713 Clouds 14 1024 50 10000 8.7 340 14:22 18.09.2019
1714 Clouds 14 1024 50 10000 8.7 340 13:59 18.09.2019
1715 Clouds 15 1024 54 10000 8.7 330 13:40 18.09.2019
1716 Clouds 15 1024 54 10000 8.7 330 13:19 18.09.2019
1717 Clouds 15 1024 54 10000 8.7 330 12:53 18.09.2019
1718 Clouds 14 1024 50 10000 7.7 330 12:30 18.09.2019
1719 Clouds 14 1024 50 10000 7.7 330 11:57 18.09.2019
1720 Rain 14 1024 62 10000 7.7 330 11:38 18.09.2019
1721 Rain 14 1024 62 10000 7.7 330 11:19 18.09.2019
1722 Clouds 13 1023 54 10000 6.7 340 10:40 18.09.2019
1723 Clouds 13 1023 54 10000 6.7 340 10:21 18.09.2019
1724 Clouds 13 1023 54 10000 6.7 340 09:58 18.09.2019
1725 Clouds 13 1022 62 10000 5.1 350 09:38 18.09.2019
1726 Clouds 13 1022 62 10000 5.1 350 09:20 18.09.2019
1727 Rain 13 1022 62 10000 6.2 340 08:44 18.09.2019
1728 Rain 13 1022 62 10000 6.2 340 08:25 18.09.2019
1729 Rain 13 1022 62 10000 6.2 340 07:59 18.09.2019
1730 Clouds 12 1022 76 10000 6.7 330 07:40 18.09.2019
1731 Clouds 12 1022 76 10000 6.7 330 07:22 18.09.2019
1732 Clouds 13 1021 62 10000 7.2 330 06:40 18.09.2019
1733 Clouds 13 1021 66 10000 6.2 340 05:50 18.09.2019
1734 Clouds 13 1021 66 10000 6.2 340 05:21 18.09.2019
1735 Clouds 13 1020 66 10000 7.7 330 03:21 18.09.2019
1736 Clouds 13 1020 62 10000 8.7 330 02:39 18.09.2019
1737 Clouds 13 1019 62 10000 7.7 340 01:25 18.09.2019
1738 Clouds 14 1019 62 10000 7.7 340 00:49 18.09.2019
1739 Clouds 13 1019 62 10000 7.2 340 00:22 18.09.2019
1740 Clouds 13 1018 62 10000 8.7 330 23:46 17.09.2019
1741 Clouds 13 1018 62 10000 8.7 330 23:23 17.09.2019
1742 Clouds 13 1018 62 10000 8.7 330 22:44 17.09.2019
1743 Clouds 12 1018 76 10000 9.8 330 22:24 17.09.2019
1744 Clouds 12 1018 76 10000 9.8 330 21:56 17.09.2019
1745 Clouds 14 1017 66 10000 10.3 330 21:37 17.09.2019
1746 Clouds 14 1017 66 10000 10.3 330 21:37 17.09.2019
1747 Clouds 14 1017 66 10000 10.3 330 21:19 17.09.2019
1748 Clouds 14 1017 66 10000 10.3 330 21:19 17.09.2019
1749 Rain 13 1017 58 10000 10.8 320 20:58 17.09.2019
1750 Rain 13 1016 71 10000 8.2 320 20:40 17.09.2019
1751 Rain 13 1016 71 10000 8.2 320 20:40 17.09.2019
1752 Rain 13 1016 71 10000 8.2 320 20:22 17.09.2019
1753 Rain 13 1016 71 10000 8.2 320 20:22 17.09.2019
1754 Rain 13 1016 71 10000 8.2 320 19:59 17.09.2019
1755 Rain 13 1016 62 10000 10.3 310 19:39 17.09.2019
1756 Rain 13 1016 62 10000 10.3 310 19:20 17.09.2019
1757 Rain 13 1016 62 10000 10.3 310 19:20 17.09.2019
1758 Rain 13 1016 62 10000 10.3 310 18:57 17.09.2019
1759 Rain 13 1016 62 10000 10.3 310 18:57 17.09.2019
1760 Clouds 13 1016 66 10000 10.8 320 18:39 17.09.2019
1761 -273 0 0 0 0 0 18:21 17.09.2019
1762 Rain 14 1015 58 10000 11.8 320 17:46 17.09.2019
1763 Rain 14 1015 58 10000 11.8 320 17:20 17.09.2019
1764 Rain 14 1015 58 10000 11.8 320 16:59 17.09.2019
1765 Rain 14 1015 54 10000 12.9 320 16:40 17.09.2019
1766 Rain 14 1015 54 10000 12.9 320 16:22 17.09.2019
1767 Rain 14 1015 54 10000 12.9 320 16:22 17.09.2019
1768 Rain 14 1015 54 10000 12.9 320 15:54 17.09.2019
1769 Rain 13 1015 71 10000 12.9 310 15:36 17.09.2019
1770 Rain 13 1015 71 10000 12.9 310 15:18 17.09.2019
1771 Rain 13 1015 66 10000 10.8 330 14:54 17.09.2019
1772 Rain 13 1015 76 10000 9.8 300 14:36 17.09.2019
1773 Rain 13 1015 76 10000 9.8 300 14:18 17.09.2019
1774 Clouds 13 1015 81 10000 12.9 320 13:41 17.09.2019
1775 Clouds 13 1015 81 10000 12.9 320 13:22 17.09.2019
1776 Clouds 15 1014 58 10000 11.8 310 12:43 17.09.2019
1777 Clouds 15 1014 58 10000 11.8 310 12:20 17.09.2019
1778 Clouds 15 1014 67 10000 11.8 310 11:58 17.09.2019
1779 Clouds 15 1014 67 10000 11.8 310 11:58 17.09.2019
1780 Rain 14 1014 81 10000 10.3 310 11:40 17.09.2019
1781 Rain 14 1014 81 10000 10.3 310 11:18 17.09.2019
1782 Rain 13 1014 87 10000 5.7 310 10:42 17.09.2019
1783 Rain 13 1014 87 10000 5.7 310 10:22 17.09.2019
1784 Rain 13 1014 87 10000 5.7 310 09:59 17.09.2019
1785 Rain 13 1015 87 10000 5.7 290 09:40 17.09.2019
1786 Rain 12 1015 87 10000 5.7 290 09:20 17.09.2019
1787 Rain 13 1014 81 10000 6.7 300 08:44 17.09.2019
1788 Rain 12 1015 87 10000 6.7 320 08:25 17.09.2019
1789 Rain 12 1015 87 10000 6.7 320 07:55 17.09.2019
1790 Rain 14 1015 81 8000 8.7 330 07:36 17.09.2019
1791 Clouds 14 1014 66 10000 7.7 300 07:18 17.09.2019
1792 Clouds 14 1015 66 10000 6.7 300 06:45 17.09.2019
1793 Clouds 14 1015 66 10000 6.7 300 06:19 17.09.2019
1794 Clouds 14 1016 76 10000 5.1 280 05:35 17.09.2019
1795 Clouds 14 1016 58 10000 7.7 300 04:26 17.09.2019
1796 Clouds 14 1016 66 10000 7.2 310 02:55 17.09.2019
1797 Rain 14 1017 76 10000 5.1 320 02:35 17.09.2019
1798 Clouds 14 1017 82 10000 4.1 260 01:24 17.09.2019
1799 Clouds 14 1017 71 10000 2.1 230 00:32 17.09.2019
1800 Clouds 14 1017 71 10000 2.1 290 23:38 16.09.2019
1801 Clouds 14 1017 71 10000 2.1 290 23:18 16.09.2019
1802 Clouds 14 1018 76 10000 2.6 320 22:43 16.09.2019
1803 Clouds 14 1018 76 10000 2.6 320 22:25 16.09.2019
1804 Clouds 14 1018 76 10000 2.6 320 21:59 16.09.2019
1805 Clouds 14 1018 71 10000 4.1 330 21:40 16.09.2019
1806 Clouds 14 1018 71 10000 4.1 330 21:21 16.09.2019
1807 Clouds 15 1018 71 10000 3.6 320 20:59 16.09.2019
1808 Rain 15 1018 71 10000 3.6 310 20:40 16.09.2019
1809 Rain 15 1018 71 10000 3.6 310 20:20 16.09.2019
1810 Rain 15 1018 71 10000 3.6 310 19:57 16.09.2019
1811 Clouds 15 1018 76 10000 6.7 340 19:38 16.09.2019
1812 Clouds 15 1018 76 10000 6.7 340 19:18 16.09.2019
1813 Clouds 16 1018 67 10000 4.6 290 18:45 16.09.2019
1814 Clouds 16 1018 67 10000 4.6 290 18:27 16.09.2019
1815 Clouds 16 1018 67 10000 4.6 290 17:57 16.09.2019
1816 Clouds 16 1018 55 10000 6.2 310 17:38 16.09.2019
1817 Clouds 16 1018 55 10000 6.2 310 17:19 16.09.2019
1818 Clouds 16 1018 55 10000 6.2 310 16:44 16.09.2019
1819 Clouds 16 1018 55 10000 6.2 310 16:22 16.09.2019
1820 Clouds 16 1018 55 10000 6.2 310 15:58 16.09.2019
1821 Clouds 16 1018 54 10000 5.7 320 15:39 16.09.2019
1822 Clouds 16 1018 54 10000 5.7 320 15:21 16.09.2019
1823 Clouds 16 1018 54 10000 5.7 320 14:58 16.09.2019
1824 Clouds 16 1019 58 10000 4.1 280 14:40 16.09.2019
1825 Clouds 16 1019 58 10000 4.1 280 14:21 16.09.2019
1826 Clouds 16 1019 58 10000 4.1 280 13:55 16.09.2019
1827 Rain 15 1019 58 10000 5.1 310 13:37 16.09.2019
1828 Rain 15 1019 58 10000 5.1 310 13:18 16.09.2019
1829 Rain 15 1019 58 10000 5.1 310 13:18 16.09.2019
1830 Clouds 16 1019 51 10000 5.7 300 12:40 16.09.2019
1831 Clouds 16 1019 51 10000 5.7 300 12:22 16.09.2019
1832 Clouds 15 1019 58 10000 5.7 300 11:46 16.09.2019
1833 Clouds 15 1019 58 10000 5.7 300 11:23 16.09.2019
1834 Clouds 15 1019 58 10000 5.7 300 10:58 16.09.2019
1835 Clouds 16 1019 62 10000 2.1 300 10:38 16.09.2019
1836 Clouds 16 1019 62 10000 2.1 300 10:19 16.09.2019
1837 Clouds 16 1019 62 10000 2.1 300 09:57 16.09.2019
1838 Clouds 14 1018 76 10000 1 300 09:38 16.09.2019
1839 Clouds 14 1018 76 10000 1 300 09:18 16.09.2019
1840 Clouds 12 1018 87 10000 0.5 270 08:42 16.09.2019
1841 Clouds 12 1018 87 10000 0.5 270 08:24 16.09.2019
1842 Clouds 13 1019 76 10000 2.6 320 07:44 16.09.2019
1843 Clouds 13 1019 76 10000 2.6 320 07:25 16.09.2019
1844 Clouds 13 1019 76 10000 2.6 320 06:59 16.09.2019
1845 Clouds 13 1019 76 10000 2.6 320 06:40 16.09.2019
1846 Clouds 13 1019 76 10000 2.6 320 06:22 16.09.2019
1847 Clouds 14 1019 71 10000 3.1 310 05:43 16.09.2019
1848 Clouds 14 1019 71 10000 3.1 310 05:23 16.09.2019
1849 Clouds 14 1020 76 10000 3.1 310 03:51 16.09.2019
1850 Clouds 14 1020 71 10000 5.1 310 01:40 16.09.2019
1851 Clouds 14 1019 82 10000 4.1 320 00:39 16.09.2019
1852 Clouds 14 1019 82 10000 4.1 320 00:21 16.09.2019
1853 Clouds 15 1019 76 10000 6.2 310 23:39 15.09.2019
1854 Clouds 15 1019 76 10000 6.2 310 23:20 15.09.2019
1855 Clouds 15 1019 76 10000 6.7 300 22:40 15.09.2019
1856 Clouds 15 1019 76 10000 6.7 300 22:21 15.09.2019
1857 Clouds 15 1019 76 10000 6.7 300 21:58 15.09.2019
1858 Clouds 15 1019 76 10000 5.7 300 21:39 15.09.2019
1859 Clouds 15 1019 76 10000 5.7 300 21:39 15.09.2019
1860 Clouds 15 1019 76 10000 5.7 300 21:39 15.09.2019
1861 Clouds 15 1019 76 10000 5.7 300 21:21 15.09.2019
1862 Clouds 15 1019 76 10000 5.7 300 20:57 15.09.2019
1863 Clouds 15 1019 72 10000 7.2 310 20:39 15.09.2019
1864 Clouds 15 1019 72 10000 7.2 310 20:21 15.09.2019
1865 Clouds 16 1019 72 10000 7.2 310 19:44 15.09.2019
1866 Clouds 16 1019 77 10000 6.2 310 19:23 15.09.2019
1867 Clouds 16 1019 77 10000 7.7 310 18:43 15.09.2019
1868 Clouds 16 1019 77 10000 7.7 310 18:24 15.09.2019
1869 Clouds 16 1019 77 10000 7.7 310 17:58 15.09.2019
1870 Drizzle 16 1019 93 9000 7.7 300 17:39 15.09.2019
1871 Drizzle 16 1019 93 9000 7.7 300 17:20 15.09.2019
1872 Drizzle 16 1019 93 9000 7.7 300 16:44 15.09.2019
1873 Drizzle 16 1018 93 3000 7.2 290 16:26 15.09.2019
1874 Drizzle 17 1018 82 3000 6.7 280 15:59 15.09.2019
1875 Clouds 17 1018 93 9000 6.7 270 15:41 15.09.2019
1876 Clouds 17 1018 93 9000 6.7 270 15:21 15.09.2019
1877 Drizzle 17 1018 93 6000 7.2 280 14:58 15.09.2019
1878 Clouds 18 1018 82 7000 7.2 270 14:40 15.09.2019
1879 Clouds 17 1018 82 7000 7.2 270 14:20 15.09.2019
1880 Clouds 18 1018 82 10000 7.7 270 13:47 15.09.2019
1881 Clouds 17 1018 82 10000 7.7 270 13:24 15.09.2019
1882 Clouds 17 1018 82 10000 7.7 270 12:56 15.09.2019
1883 Clouds 17 1018 77 10000 8.7 260 12:38 15.09.2019
1884 Clouds 17 1018 77 10000 8.7 260 12:18 15.09.2019
1885 Clouds 16 1018 77 10000 8.2 260 11:42 15.09.2019
1886 Clouds 16 1018 77 10000 8.2 260 11:22 15.09.2019
1887 Clouds 16 1018 77 10000 7.2 260 10:58 15.09.2019
1888 Clouds 15 1018 76 10000 5.7 240 10:39 15.09.2019
1889 Clouds 15 1018 76 10000 5.7 240 10:21 15.09.2019
1890 Clouds 14 1019 71 10000 5.7 250 09:40 15.09.2019
1891 Clouds 14 1019 71 10000 5.7 250 09:20 15.09.2019
1892 Clouds 14 1019 71 10000 5.7 250 08:53 15.09.2019
1893 Clouds 13 1019 71 10000 5.1 240 08:30 15.09.2019
1894 Clouds 13 1019 71 10000 5.1 240 07:57 15.09.2019
1895 Clouds 11 1020 81 10000 4.6 230 07:39 15.09.2019
1896 Clouds 11 1021 81 10000 4.6 230 06:43 15.09.2019
1897 Clouds 12 1022 76 10000 4.6 220 04:38 15.09.2019
1898 Clouds 12 1023 76 9000 4.1 220 02:55 15.09.2019
1899 Clouds 12 1025 76 9000 3.6 220 01:58 15.09.2019
1900 Clouds 12 1025 76 9000 3.6 220 01:58 15.09.2019
1901 Clouds 12 1025 76 10000 2.6 210 01:35 15.09.2019
1902 Clouds 12 1025 76 10000 2.6 210 00:56 15.09.2019
1903 Clouds 12 1026 76 10000 3.1 190 00:36 15.09.2019
1904 Clouds 12 1026 76 10000 3.1 190 00:18 15.09.2019
1905 Clouds 12 1026 76 10000 3.1 190 23:54 14.09.2019
1906 Clouds 13 1026 76 10000 3.1 190 23:54 14.09.2019
1907 Clouds 12 1028 81 10000 2.1 210 23:36 14.09.2019
1908 Clouds 12 1028 81 10000 2.1 210 23:18 14.09.2019
1909 -273 0 0 0 0 0 22:55 14.09.2019
1910 Clouds 12 1028 87 10000 1.5 200 22:36 14.09.2019
1911 Clouds 12 1028 87 10000 1.5 200 22:18 14.09.2019
1912 Clouds 13 1029 81 10000 11.03 228.663 21:40 14.09.2019
1913 Clouds 13 1029 81 10000 8.35 235.448 21:20 14.09.2019
1914 Clouds 13 1029 81 10000 8.35 235.448 20:56 14.09.2019
1915 Clouds 16 1029 67 10000 1.5 290 20:38 14.09.2019
1916 Clouds 16 1029 67 10000 1.5 290 20:19 14.09.2019
1917 Clouds 17 1029 67 10000 1.5 290 19:45 14.09.2019
1918 Clouds 17 1029 59 10000 2.1 300 19:21 14.09.2019
1919 Clouds 17 1029 59 10000 2.1 300 18:57 14.09.2019
1920 Clouds 18 1030 55 10000 3.6 300 18:38 14.09.2019
1921 Clouds 18 1030 55 10000 3.6 300 18:19 14.09.2019
1922 Clouds 18 1031 52 10000 3.1 260 17:44 14.09.2019
1923 Clouds 18 1031 52 10000 3.1 260 17:23 14.09.2019
1924 Clouds 19 1031 52 10000 3.1 260 16:50 14.09.2019
1925 Clouds 18 1032 51 10000 4.1 280 16:29 14.09.2019
1926 Clouds 18 1032 51 10000 4.1 280 15:59 14.09.2019
1927 Clouds 18 1033 55 10000 4.1 270 15:40 14.09.2019
1928 Clouds 18 1033 55 10000 4.1 270 15:22 14.09.2019
1929 Clouds 18 1033 55 10000 4.1 270 15:22 14.09.2019
1930 Clouds 17 1033 55 10000 4.1 270 14:45 14.09.2019
1931 Clouds 17 1034 59 10000 4.1 290 14:19 14.09.2019
1932 Clouds 17 1034 59 10000 4.1 290 13:56 14.09.2019
1933 Clouds 17 1034 55 10000 4.1 280 13:37 14.09.2019
1934 Clouds 17 1034 55 10000 4.1 280 13:19 14.09.2019
1935 Clouds 17 1034 59 10000 3.1 260 12:43 14.09.2019
1936 Clouds 17 1034 59 10000 3.1 260 12:20 14.09.2019
1937 Clouds 16 1034 77 10000 2.6 250 11:41 14.09.2019
1938 Clouds 16 1034 77 10000 2.6 250 11:20 14.09.2019
1939 Clouds 15 1034 82 10000 1.5 230 10:40 14.09.2019
1940 Clouds 15 1034 82 10000 1.5 230 10:21 14.09.2019
1941 Clouds 15 1034 82 10000 1.5 230 09:58 14.09.2019
1942 Clouds 12 1034 87 10000 2.6 210 09:40 14.09.2019
1943 Clouds 12 1034 87 10000 2.6 210 09:20 14.09.2019
1944 Clouds 11 1034 87 10000 2.6 210 08:48 14.09.2019
1945 Clouds 10 1034 93 10000 0.5 0 08:26 14.09.2019
1946 Clouds 11 1034 93 10000 0.5 0 07:49 14.09.2019
1947 Clouds 10 1034 87 10000 0.5 240 07:29 14.09.2019
1948 Clouds 10 1034 87 10000 0.5 240 06:54 14.09.2019
1949 Clouds 11 1034 81 9000 0.5 320 06:31 14.09.2019
1950 Clouds 12 1034 87 8000 0.5 320 05:27 14.09.2019
1951 Clouds 11 1034 87 10000 1 270 03:53 14.09.2019
1952 Clouds 12 1034 81 8000 1 310 02:57 14.09.2019
1953 Clouds 12 1034 87 9000 1 300 02:23 14.09.2019
1954 Clouds 13 1035 81 9000 1.5 330 01:42 14.09.2019
1955 Clouds 13 1035 81 9000 1.5 330 01:18 14.09.2019
1956 Clouds 14 1034 81 10000 1 310 00:40 14.09.2019
1957 Clouds 14 1034 81 10000 1 310 00:21 14.09.2019
1958 Clouds 14 1034 81 10000 1 310 23:54 13.09.2019
1959 Clouds 13 1034 81 10000 1 300 23:36 13.09.2019
1960 Clouds 13 1034 81 10000 1 300 23:18 13.09.2019
1961 Clouds 14 1034 76 10000 2.1 330 22:40 13.09.2019
1962 Clouds 14 1034 76 10000 2.1 330 22:22 13.09.2019
1963 Clouds 14 1034 76 10000 2.1 330 21:58 13.09.2019
1964 Clouds 15 1034 71 10000 2.6 330 21:38 13.09.2019
1965 Clouds 15 1034 71 10000 2.6 330 21:19 13.09.2019
1966 Clouds 15 1034 71 10000 2.6 330 20:57 13.09.2019
1967 Clouds 15 1033 62 10000 3.6 320 20:37 13.09.2019
1968 Clouds 15 1033 62 10000 3.6 320 20:19 13.09.2019
1969 Clouds 16 1033 59 10000 5.1 330 19:44 13.09.2019
1970 Clouds 16 1033 59 10000 5.1 330 19:22 13.09.2019
1971 Clouds 16 1033 59 10000 5.1 330 18:59 13.09.2019
1972 Clouds 16 1032 55 10000 6.2 330 18:38 13.09.2019
1973 Clouds 16 1032 55 10000 6.2 330 18:19 13.09.2019
1974 Clouds 17 1032 51 10000 7.2 340 17:44 13.09.2019
1975 Clouds 17 1032 51 10000 7.2 340 17:22 13.09.2019
1976 Clouds 17 1032 51 10000 7.2 340 16:59 13.09.2019
1977 Clouds 17 1032 51 10000 7.2 340 16:59 13.09.2019
1978 Clouds 17 1032 59 10000 8.2 330 16:40 13.09.2019
1979 Clouds 17 1032 59 10000 8.2 330 16:19 13.09.2019
1980 Clouds 17 1032 55 10000 7.2 330 15:43 13.09.2019
1981 Clouds 17 1032 55 10000 7.2 330 15:24 13.09.2019
1982 Clouds 17 1032 55 10000 7.2 330 14:56 13.09.2019
1983 Clouds 18 1031 55 10000 7.7 350 14:37 13.09.2019
1984 Clouds 18 1031 55 10000 7.7 350 14:37 13.09.2019
1985 Clouds 18 1031 55 10000 7.7 350 14:19 13.09.2019
1986 Clouds 17 1030 55 10000 7.2 340 13:44 13.09.2019
1987 Clouds 17 1030 55 10000 7.2 340 13:22 13.09.2019
1988 Clouds 17 1030 63 10000 7.7 350 12:46 13.09.2019
1989 Clouds 17 1030 63 10000 7.7 350 12:26 13.09.2019
1990 Clouds 17 1030 63 10000 7.7 350 11:57 13.09.2019
1991 Clouds 17 1029 72 10000 7.2 350 11:21 13.09.2019
1992 Clouds 17 1029 72 10000 7.2 350 10:59 13.09.2019
1993 Rain 17 1027 82 10000 4.1 340 10:37 13.09.2019
1994 Rain 17 1027 82 10000 4.1 340 10:18 13.09.2019
1995 Clouds 16 1026 87 10000 5.7 350 09:43 13.09.2019
1996 Clouds 16 1026 87 10000 5.7 350 09:43 13.09.2019
1997 Clouds 16 1026 87 10000 5.7 350 09:23 13.09.2019
1998 Clouds 16 1026 87 10000 5.7 350 08:58 13.09.2019
1999 Clouds 16 1026 87 10000 5.1 350 08:39 13.09.2019
2000 Clouds 16 1026 87 10000 5.1 350 08:20 13.09.2019
2001 Drizzle 17 1024 93 2500 7.2 270 07:43 13.09.2019
2002 Drizzle 17 1024 93 2500 7.2 270 07:24 13.09.2019
2003 Drizzle 17 1024 93 7000 7.7 260 06:39 13.09.2019
2004 Clouds 18 1023 82 10000 6.2 260 05:39 13.09.2019
2005 Clouds 18 1023 82 10000 6.7 250 04:34 13.09.2019
2006 Clouds 17 1023 88 10000 4.6 240 03:37 13.09.2019
2007 Clouds 17 1024 82 10000 5.1 230 02:20 13.09.2019
2008 Clouds 17 1024 77 10000 4.1 230 01:38 13.09.2019
2009 Clouds 17 1024 77 10000 4.1 230 01:18 13.09.2019
2010 Clouds 17 1024 87 10000 3.6 220 00:36 13.09.2019
2011 Clouds 17 1024 87 10000 3.6 220 23:54 12.09.2019
2012 Clouds 17 1025 87 10000 2.6 230 23:30 12.09.2019
2013 Clouds 17 1025 87 10000 2.6 230 22:59 12.09.2019
2014 Clouds 16 1025 87 10000 1.5 250 22:40 12.09.2019
2015 Clouds 16 1025 87 10000 1.5 250 22:40 12.09.2019
2016 Clouds 16 1025 87 10000 1.5 250 22:22 12.09.2019
2017 Clouds 16 1025 87 10000 1.5 250 21:56 12.09.2019
2018 Clouds 16 1025 87 10000 1.5 250 21:56 12.09.2019
2019 Clouds 17 1025 82 10000 1.5 230 21:37 12.09.2019
2020 Clouds 17 1025 82 10000 1.5 230 21:19 12.09.2019
2021 Clouds 17 1025 82 10000 1 0 20:54 12.09.2019
2022 Clouds 18 1025 72 10000 2.6 280 20:36 12.09.2019
2023 Clouds 18 1025 72 10000 2.6 280 20:18 12.09.2019
2024 Clouds 18 1025 68 10000 4.6 290 19:41 12.09.2019
2025 Clouds 18 1025 68 10000 4.6 290 19:20 12.09.2019
2026 Clouds 18 1025 68 10000 4.6 290 18:57 12.09.2019
2027 Clouds 20 1025 59 10000 6.7 290 18:36 12.09.2019
2028 Clouds 20 1025 59 10000 6.7 290 18:18 12.09.2019
2029 Clouds 20 1025 59 10000 6.7 280 17:41 12.09.2019
2030 Clouds 20 1025 59 10000 6.7 280 17:21 12.09.2019
2031 Clouds 20 1025 59 10000 6.7 280 16:58 12.09.2019
2032 Clouds 20 1025 59 10000 7.7 290 16:40 12.09.2019
2033 Clouds 20 1025 59 10000 7.7 290 16:20 12.09.2019
2034 Clouds 20 1025 60 10000 6.2 280 15:42 12.09.2019
2035 Clouds 20 1025 60 10000 6.2 280 15:23 12.09.2019
2036 Clouds 20 1025 60 10000 6.2 280 15:23 12.09.2019
2037 Clouds 20 1025 60 10000 6.2 280 14:47 12.09.2019
2038 Clouds 20 1025 63 10000 6.2 270 14:23 12.09.2019
2039 Clouds 20 1025 63 10000 6.2 270 13:59 12.09.2019
2040 Clouds 19 1025 72 10000 6.2 260 13:39 12.09.2019
2041 Clouds 19 1025 72 10000 6.2 260 13:20 12.09.2019
2042 Clouds 18 1025 77 10000 4.6 250 12:48 12.09.2019
2043 Clouds 18 1025 77 10000 4.6 250 12:19 12.09.2019
2044 Clouds 18 1025 77 10000 4.6 250 11:58 12.09.2019
2045 Clouds 18 1024 82 10000 3.6 240 11:39 12.09.2019
2046 Clouds 18 1024 82 10000 3.6 240 11:39 12.09.2019
2047 Clouds 18 1024 82 10000 3.6 240 11:21 12.09.2019
2048 Clouds 18 1024 82 10000 3.6 240 11:21 12.09.2019
2049 Clouds 16 1024 82 10000 3.6 240 10:48 12.09.2019
2050 Clouds 15 1023 93 10000 3.6 230 10:26 12.09.2019
2051 Clouds 15 1023 93 8000 3.6 230 09:56 12.09.2019
2052 Clouds 15 1023 93 8000 3.6 230 09:38 12.09.2019
2053 Clouds 15 1023 93 8000 3.6 230 09:18 12.09.2019
2054 Mist 14 1023 100 5000 3.1 230 08:43 12.09.2019
2055 Mist 14 1023 100 5000 3.1 230 08:23 12.09.2019
2056 Mist 14 1023 100 3000 4.1 230 07:47 12.09.2019
2057 Mist 14 1022 100 2800 3.6 230 07:21 12.09.2019
2058 Mist 14 1022 100 2800 3.6 230 07:21 12.09.2019
2059 Mist 14 1022 100 2800 3.6 230 06:52 12.09.2019
2060 Mist 14 1021 100 2500 3.1 230 06:32 12.09.2019
2061 Mist 14 1021 100 2500 3.1 230 05:54 12.09.2019
2062 Mist 14 1021 100 3000 3.1 240 05:36 12.09.2019
2063 Mist 14 1021 100 3200 3.6 230 04:47 12.09.2019
2064 Mist 15 1020 93 5000 3.1 250 03:23 12.09.2019
2065 Clouds 15 1019 93 6000 4.6 230 01:43 12.09.2019
2066 Clouds 15 1019 93 6000 4.6 230 01:24 12.09.2019
2067 Clouds 15 1019 93 6000 4.6 230 00:48 12.09.2019
2068 Clouds 15 1019 93 7000 4.1 240 00:29 12.09.2019
2069 Clouds 16 1018 93 7000 5.1 230 23:44 11.09.2019
2070 Clouds 16 1018 93 7000 5.1 230 23:25 11.09.2019
2071 Clouds 16 1018 93 7000 5.1 230 22:58 11.09.2019
2072 Clouds 15 1018 93 7000 7.2 230 22:38 11.09.2019
2073 Clouds 15 1018 93 7000 7.2 230 22:20 11.09.2019
2074 Clouds 15 1018 93 7000 7.2 230 21:59 11.09.2019
2075 Mist 15 1017 93 4900 6.7 230 21:41 11.09.2019
2076 Mist 15 1017 93 4900 6.7 230 21:22 11.09.2019
2077 Mist 15 1017 93 4900 6.7 230 20:56 11.09.2019
2078 Clouds 14 1017 100 8000 7.2 220 20:37 11.09.2019
2079 Clouds 14 1017 100 8000 7.2 220 20:18 11.09.2019
2080 Clouds 14 1017 100 8000 7.2 220 19:56 11.09.2019
2081 Rain 14 1017 100 9000 6.2 220 19:37 11.09.2019
2082 Rain 14 1017 100 9000 6.2 220 19:37 11.09.2019
2083 Rain 14 1017 100 9000 6.2 220 19:19 11.09.2019
2084 Rain 14 1017 93 3000 6.7 220 18:43 11.09.2019
2085 Rain 14 1017 93 3000 6.7 220 18:24 11.09.2019
2086 Rain 14 1017 93 3000 6.7 220 17:59 11.09.2019
2087 Rain 14 1017 93 3500 8.2 220 17:41 11.09.2019
2088 Rain 14 1017 93 3500 8.2 220 17:21 11.09.2019
2089 Rain 14 1017 87 4500 5.7 230 16:56 11.09.2019
2090 Rain 14 1017 87 4500 6.2 240 16:38 11.09.2019
2091 Rain 14 1017 87 4500 6.2 240 16:19 11.09.2019
2092 Clouds 15 1017 77 10000 6.7 230 15:46 11.09.2019
2093 Rain 15 1017 77 10000 5.7 240 15:24 11.09.2019
2094 Rain 15 1017 77 10000 5.7 240 14:58 11.09.2019
2095 Clouds 15 1018 67 10000 7.2 230 14:39 11.09.2019
2096 Clouds 15 1018 67 10000 7.2 230 14:20 11.09.2019
2097 Clouds 15 1018 67 10000 7.2 230 14:20 11.09.2019
2098 Clouds 15 1018 67 10000 7.2 230 13:58 11.09.2019
2099 Clouds 16 1017 63 10000 8.2 220 13:37 11.09.2019
2100 Clouds 16 1017 63 10000 8.2 220 13:18 11.09.2019
2101 Clouds 17 1017 72 10000 6.7 220 12:42 11.09.2019
2102 Clouds 17 1017 72 10000 6.7 220 12:21 11.09.2019
2103 Clouds 17 1017 72 10000 6.7 220 11:58 11.09.2019
2104 Clouds 16 1018 72 10000 7.2 220 11:37 11.09.2019
2105 Clouds 16 1018 72 10000 7.2 220 11:19 11.09.2019
2106 Clouds 15 1018 82 10000 4.6 210 10:41 11.09.2019
2107 Clouds 15 1018 82 10000 4.6 210 10:22 11.09.2019
2108 Clouds 15 1018 82 10000 4.6 210 09:57 11.09.2019
2109 Clouds 13 1018 87 9000 5.1 220 09:37 11.09.2019
2110 Clouds 13 1018 87 9000 5.1 220 09:18 11.09.2019
2111 Clouds 12 1018 87 8000 4.6 220 08:40 11.09.2019
2112 Clouds 12 1018 87 8000 4.6 220 08:21 11.09.2019
2113 Clouds 11 1018 93 6000 3.6 210 07:53 11.09.2019
2114 Clouds 11 1018 93 6000 3.6 210 07:24 11.09.2019
2115 Clouds 11 1018 93 6000 3.6 210 06:59 11.09.2019
2116 Fog 11 1018 93 10000 3.6 210 06:38 11.09.2019
2117 Fog 11 1018 93 10000 3.6 210 06:19 11.09.2019
2118 Fog 11 1018 100 10000 3.1 200 05:33 11.09.2019
2119 Fog 11 1018 100 10000 3.1 200 04:52 11.09.2019
2120 Fog 11 1019 93 10000 3.1 220 03:59 11.09.2019
2121 Fog 12 1018 87 10000 3.1 220 03:26 11.09.2019
2122 Clouds 12 1018 87 10000 3.1 220 02:31 11.09.2019
2123 Clouds 12 1018 87 10000 2.6 240 01:31 11.09.2019
2124 Clouds 13 1018 82 10000 3.6 250 00:37 11.09.2019
2125 Clouds 13 1018 82 10000 3.6 250 00:19 11.09.2019
2126 Clouds 14 1018 82 10000 4.1 260 23:40 10.09.2019
2127 Clouds 14 1018 82 10000 4.1 260 23:21 10.09.2019
2128 Clouds 14 1018 82 10000 4.1 260 22:55 10.09.2019
2129 Clouds 15 1017 87 10000 2.1 270 22:37 10.09.2019
2130 Clouds 15 1017 87 10000 2.1 270 22:18 10.09.2019
2131 Clouds 15 1017 87 10000 2.1 270 22:18 10.09.2019
2132 Clouds 15 1017 87 10000 2.1 270 21:54 10.09.2019
2133 Rain 15 1017 82 9000 4.1 280 21:36 10.09.2019
2134 Rain 15 1017 82 9000 4.1 280 21:18 10.09.2019
2135 Rain 15 1017 82 9000 4.1 280 21:18 10.09.2019
2136 Rain 15 1017 82 9000 4.1 280 20:54 10.09.2019
2137 Rain 16 1017 82 10000 6.2 280 20:36 10.09.2019
2138 Rain 16 1017 82 10000 6.2 280 20:18 10.09.2019
2139 -273 0 0 0 0 0 19:55 10.09.2019
2140 Clouds 16 1017 82 10000 6.2 280 19:55 10.09.2019
2141 Clouds 17 1016 82 8000 6.7 280 19:36 10.09.2019
2142 Clouds 17 1016 82 8000 6.7 280 19:18 10.09.2019
2143 Clouds 18 1016 72 10000 9.3 280 18:43 10.09.2019
2144 Clouds 18 1016 72 10000 9.3 280 18:22 10.09.2019
2145 Clouds 18 1016 72 10000 9.3 280 17:57 10.09.2019
2146 Clouds 18 1015 63 10000 9.3 290 17:39 10.09.2019
2147 Clouds 18 1015 63 10000 9.3 290 17:20 10.09.2019
2148 Clouds 18 1015 63 10000 9.3 290 16:57 10.09.2019
2149 Clouds 18 1015 59 10000 9.3 280 16:38 10.09.2019
2150 Clouds 18 1015 59 10000 9.3 280 16:19 10.09.2019
2151 Clouds 18 1015 59 10000 10.3 280 15:44 10.09.2019
2152 Clouds 18 1015 59 10000 10.3 280 15:23 10.09.2019
2153 Clouds 18 1015 59 10000 10.3 280 14:58 10.09.2019
2154 Clouds 18 1015 63 10000 9.3 270 14:39 10.09.2019
2155 Clouds 18 1015 63 10000 9.3 270 14:21 10.09.2019
2156 -273 0 0 0 0 0 13:48 10.09.2019
2157 Clouds 17 1014 59 10000 9.3 280 13:23 10.09.2019
2158 Clouds 17 1014 59 10000 9.3 280 12:55 10.09.2019
2159 Clouds 18 1014 59 10000 9.3 280 12:36 10.09.2019
2160 Clouds 17 1014 59 10000 8.2 280 12:18 10.09.2019
2161 Clouds 16 1014 59 10000 8.7 290 11:42 10.09.2019
2162 Clouds 16 1014 59 10000 8.7 290 11:22 10.09.2019
2163 Clouds 16 1014 59 10000 8.7 290 10:59 10.09.2019
2164 Clouds 16 1014 62 10000 7.7 300 10:37 10.09.2019
2165 Clouds 16 1014 62 10000 7.7 300 10:18 10.09.2019
2166 Clouds 15 1013 67 10000 4.1 280 09:44 10.09.2019
2167 Clouds 15 1013 67 10000 4.1 280 09:20 10.09.2019
2168 Clouds 15 1013 67 10000 4.1 280 08:56 10.09.2019
2169 Rain 14 1013 76 10000 4.1 280 08:38 10.09.2019
2170 Rain 14 1013 76 10000 4.1 280 08:19 10.09.2019
2171 Clouds 15 1013 67 10000 5.7 300 07:43 10.09.2019
2172 Clouds 15 1013 67 10000 5.7 300 07:25 10.09.2019
2173 Clouds 14 1013 76 10000 6.2 300 06:46 10.09.2019
2174 Clouds 14 1013 76 10000 6.2 300 06:28 10.09.2019
2175 Clouds 15 1013 76 10000 6.2 300 04:25 10.09.2019
2176 Clouds 15 1013 82 10000 4.1 310 02:41 10.09.2019
2177 Clouds 15 1013 82 10000 4.1 310 02:21 10.09.2019
2178 Clouds 14 1013 82 10000 3.1 310 01:52 10.09.2019
2179 Clouds 14 1013 82 10000 3.1 310 01:23 10.09.2019
2180 Clouds 15 1013 76 10000 2.1 320 00:43 10.09.2019
2181 Clouds 15 1013 76 10000 2.1 320 00:23 10.09.2019
2182 Clouds 15 1013 82 10000 3.1 320 23:41 09.09.2019
2183 Clouds 15 1013 82 10000 3.1 320 23:19 09.09.2019
2184 Clouds 15 1013 82 10000 3.1 320 22:55 09.09.2019
2185 Clouds 14 1013 82 10000 2.6 330 22:37 09.09.2019
2186 Clouds 14 1013 82 10000 2.6 330 22:19 09.09.2019
2187 Clouds 15 1013 82 10000 2.6 330 21:55 09.09.2019
2188 Clouds 15 1013 82 10000 3.6 310 21:37 09.09.2019
2189 Clouds 15 1013 82 10000 3.6 310 21:18 09.09.2019
2190 Clouds 14 1013 82 10000 3.6 310 20:55 09.09.2019
2191 Clouds 16 1013 63 10000 5.7 320 20:36 09.09.2019
2192 Clouds 16 1013 63 10000 5.7 320 20:18 09.09.2019
2193 Clouds 16 1013 63 10000 5.7 320 19:56 09.09.2019
2194 Clouds 17 1013 63 10000 5.7 320 19:37 09.09.2019
2195 Clouds 17 1012 63 10000 5.7 320 19:19 09.09.2019
2196 Clouds 17 1012 63 10000 5.7 320 18:55 09.09.2019
2197 Clouds 18 1012 63 10000 5.7 320 18:37 09.09.2019
2198 Clouds 17 1013 63 10000 5.7 320 18:18 09.09.2019
2199 Clouds 18 1013 63 10000 5.7 320 17:56 09.09.2019
2200 Clouds 18 1012 63 10000 5.7 300 17:38 09.09.2019
2201 Clouds 18 1012 63 10000 5.7 300 17:20 09.09.2019
2202 Rain 18 1013 67 10000 5.1 310 16:41 09.09.2019
2203 Rain 18 1013 67 10000 5.1 310 16:21 09.09.2019
2204 Rain 18 1013 67 10000 5.1 310 15:57 09.09.2019
2205 Rain 18 1013 67 10000 5.1 310 15:57 09.09.2019
2206 Clouds 18 1013 72 10000 6.2 300 15:39 09.09.2019
2207 Clouds 18 1013 72 10000 6.2 300 15:21 09.09.2019
2208 Clouds 18 1013 72 10000 6.2 300 14:57 09.09.2019
2209 Clouds 18 1013 72 10000 6.2 300 14:57 09.09.2019
2210 Rain 18 1013 67 10000 3.6 330 14:39 09.09.2019
2211 Rain 18 1013 67 10000 3.6 330 14:21 09.09.2019
2212 Rain 18 1013 67 10000 3.6 330 13:55 09.09.2019
2213 Clouds 17 1014 77 10000 3.6 320 13:36 09.09.2019
2214 Clouds 17 1014 77 10000 3.6 320 13:18 09.09.2019
2215 Clouds 18 1014 77 10000 3.6 320 12:42 09.09.2019
2216 Clouds 17 1014 77 10000 2.6 330 12:22 09.09.2019
2217 Clouds 17 1014 77 10000 2.6 330 11:59 09.09.2019
2218 Clouds 17 1014 82 10000 2.6 320 11:40 09.09.2019
2219 Clouds 17 1014 82 10000 2.6 320 11:18 09.09.2019
2220 Clouds 14 1014 93 6000 0.96 257.233 10:42 09.09.2019
2221 Clouds 14 1014 93 6000 0.96 257.233 10:24 09.09.2019
2222 Clouds 14 1014 93 6000 0.96 257.233 10:24 09.09.2019
2223 Clouds 14 1014 93 6000 0.96 257.233 09:59 09.09.2019
2224 Clouds 14 1014 93 6000 0.96 257.233 09:59 09.09.2019
2225 Fog 12 1015 93 6000 0.96 257.233 09:40 09.09.2019
2226 Fog 12 1015 93 6000 1.04 305.164 09:22 09.09.2019
2227 Fog 12 1015 93 6000 1.04 305.164 08:56 09.09.2019
2228 Fog 10 1015 100 8000 0.5 180 08:37 09.09.2019
2229 Fog 10 1015 100 8000 0.5 180 08:18 09.09.2019
2230 Fog 9 1015 100 8000 0.48 261.245 07:41 09.09.2019
2231 Fog 9 1015 100 8000 0.48 261.245 07:20 09.09.2019
2232 Fog 11 1015 100 8000 0.48 261.245 06:53 09.09.2019
2233 Fog 11 1015 93 10000 0.48 261.245 06:27 09.09.2019
2234 Clouds 11 1016 93 10000 2.1 90 03:21 09.09.2019
2235 Clouds 12 1017 93 10000 2.1 90 02:42 09.09.2019
2236 Clouds 12 1017 93 10000 1 80 01:24 09.09.2019
2237 Clouds 12 1017 93 10000 1 80 00:24 09.09.2019
2238 Clouds 13 1017 93 10000 1.5 50 23:56 08.09.2019
2239 Clouds 13 1017 82 10000 1 10 23:38 08.09.2019
2240 Clouds 13 1017 82 10000 1 10 23:19 08.09.2019
2241 Clouds 14 1018 82 10000 0.5 350 22:41 08.09.2019
2242 Clouds 14 1018 82 10000 0.5 350 22:22 08.09.2019
2243 Clouds 14 1018 82 10000 0.5 350 21:58 08.09.2019
2244 Clouds 14 1018 82 10000 1.5 20 21:40 08.09.2019
2245 Clouds 14 1018 82 10000 1.5 20 21:22 08.09.2019
2246 Clouds 14 1018 82 10000 1.5 20 20:55 08.09.2019
2247 Clouds 16 1017 72 10000 1 360 20:37 08.09.2019
2248 Clouds 16 1017 72 10000 1 360 20:18 08.09.2019
2249 Clouds 16 1017 72 10000 1 360 19:39 08.09.2019
2250 Clouds 16 1017 67 10000 2.6 10 19:21 08.09.2019
2251 Clouds 16 1017 67 10000 2.6 10 18:59 08.09.2019
2252 Clouds 16 1017 67 10000 2.6 10 18:39 08.09.2019
2253 Clouds 17 1018 67 10000 2.6 40 18:20 08.09.2019
2254 Clouds 17 1018 67 10000 2.6 40 17:59 08.09.2019
2255 Clouds 18 1017 67 10000 3.1 50 17:37 08.09.2019
2256 Clouds 18 1017 67 10000 3.1 50 17:19 08.09.2019
2257 Clouds 18 1017 67 10000 3.1 50 16:58 08.09.2019
2258 Clouds 18 1017 59 10000 1.5 340 16:40 08.09.2019
2259 Clouds 18 1017 59 10000 1.5 340 16:20 08.09.2019
2260 Clouds 17 1018 72 10000 3.1 320 15:56 08.09.2019
2261 Clouds 17 1018 72 10000 3.1 320 15:36 08.09.2019
2262 Clouds 17 1018 72 10000 3.1 320 15:18 08.09.2019
2263 Rain 17 1018 72 10000 2.1 320 14:40 08.09.2019
2264 Rain 17 1018 72 10000 2.1 320 14:22 08.09.2019
2265 Rain 18 1018 72 10000 2.1 320 13:58 08.09.2019
2266 Clouds 18 1018 59 10000 2.1 190 13:40 08.09.2019
2267 Clouds 18 1018 59 10000 2.1 190 13:22 08.09.2019
2268 Clouds 18 1018 59 10000 2.1 190 13:21 08.09.2019
2269 Clouds 17 1018 59 10000 2.1 190 12:55 08.09.2019
2270 Clouds 17 1018 59 10000 2.1 190 12:37 08.09.2019
2271 Clouds 17 1018 77 10000 2.6 130 12:19 08.09.2019
2272 Clouds 17 1018 77 10000 2.6 130 12:19 08.09.2019
2273 Clouds 15 1018 77 10000 2.6 130 11:56 08.09.2019
2274 Clouds 15 1018 82 10000 2.1 90 11:37 08.09.2019
2275 Clouds 15 1018 82 10000 2.1 90 11:37 08.09.2019
2276 Clouds 15 1018 82 10000 2.1 90 11:19 08.09.2019
2277 Clouds 14 1018 87 10000 2.1 90 10:42 08.09.2019
2278 Clouds 14 1018 87 10000 2.1 90 10:23 08.09.2019
2279 Clouds 14 1018 87 10000 2.1 90 09:56 08.09.2019
2280 Fog 13 1018 93 8000 1.5 90 09:37 08.09.2019
2281 Fog 13 1018 93 8000 1.5 90 09:19 08.09.2019
2282 Fog 12 1018 93 10000 1 50 08:40 08.09.2019
2283 Fog 12 1018 93 10000 1 50 08:40 08.09.2019
2284 Fog 12 1018 93 10000 1 50 08:19 08.09.2019
2285 Fog 12 1018 93 10000 1 50 07:58 08.09.2019
2286 Fog 13 1018 100 10000 1 70 07:37 08.09.2019
2287 Fog 13 1018 100 10000 1 70 07:19 08.09.2019
2288 Fog 13 1018 100 10000 1 70 06:41 08.09.2019
2289 Clouds 13 1017 93 3400 2.1 20 05:44 08.09.2019
2290 Clouds 13 1017 93 3400 2.1 20 05:26 08.09.2019
2291 Clouds 13 1017 93 3700 3.33 353.995 03:29 08.09.2019
2292 Clear 13 1018 93 3400 1.5 310 02:51 08.09.2019
2293 Clear 13 1018 93 3400 1.5 310 01:54 08.09.2019
2294 Clouds 14 1018 87 3900 2.1 220 01:33 08.09.2019
2295 Clouds 14 1018 87 3900 2.6 210 00:50 08.09.2019
2296 Clouds 14 1018 87 3900 2.6 210 00:32 08.09.2019
2297 Rain 14 1018 87 3900 2.6 210 23:59 07.09.2019
2298 Rain 14 1018 81 4100 1.5 210 23:37 07.09.2019
2299 Rain 14 1018 81 4100 1.5 210 23:19 07.09.2019
2300 Rain 14 1018 81 4100 1.5 210 22:56 07.09.2019
2301 Rain 13 1017 81 4500 1.5 220 22:37 07.09.2019
2302 Rain 13 1017 81 4500 1.5 220 22:18 07.09.2019
2303 Rain 14 1017 82 4500 1 220 21:40 07.09.2019
2304 Rain 14 1017 82 4500 1 220 21:22 07.09.2019
2305 Rain 16 1017 67 4900 1 280 20:41 07.09.2019
2306 Rain 16 1017 67 4900 1 280 20:22 07.09.2019
2307 Rain 16 1017 67 4900 1 280 19:57 07.09.2019
2308 Rain 17 1017 67 4300 2.1 220 19:39 07.09.2019
2309 Rain 17 1017 67 4300 2.1 220 19:20 07.09.2019
2310 Rain 17 1017 67 4300 2.1 220 18:59 07.09.2019
2311 Rain 17 1017 72 4900 3.1 250 18:40 07.09.2019
2312 Rain 17 1017 72 4900 3.1 250 18:21 07.09.2019
2313 Rain 17 1017 72 4900 3.1 250 17:59 07.09.2019
2314 Rain 18 1016 59 5000 3.6 280 17:39 07.09.2019
2315 Rain 18 1016 59 5000 3.6 280 17:19 07.09.2019
2316 Rain 18 1016 59 5000 3.6 280 16:59 07.09.2019
2317 Rain 18 1016 63 5000 3.6 280 16:40 07.09.2019
2318 Rain 18 1016 63 5000 3.6 280 16:19 07.09.2019
2319 Rain 18 1016 59 5000 3.6 270 15:47 07.09.2019
2320 Rain 18 1016 59 5000 3.6 270 15:26 07.09.2019
2321 Clear 18 1016 59 5000 3.6 270 14:57 07.09.2019
2322 Clear 17 1016 63 4700 4.6 260 14:37 07.09.2019
2323 Clear 17 1016 63 4700 4.6 260 14:19 07.09.2019
2324 Clear 17 1016 63 4700 4.6 260 13:57 07.09.2019
2325 Clear 17 1016 72 4800 4.6 250 13:39 07.09.2019
2326 Clear 17 1016 72 4800 4.6 250 13:39 07.09.2019
2327 Clear 17 1016 72 4800 4.6 250 13:39 07.09.2019
2328 Clear 17 1016 72 4800 4.6 250 13:20 07.09.2019
2329 Clear 17 1016 72 4800 4.6 250 12:44 07.09.2019
2330 Clear 17 1016 72 4800 4.6 250 12:25 07.09.2019
2331 -273 0 0 0 0 0 11:55 07.09.2019
2332 Clear 15 1016 87 4300 4.6 230 11:36 07.09.2019
2333 Clear 15 1016 87 4300 4.6 230 11:18 07.09.2019
2334 Clear 14 1016 87 3700 3.6 220 10:38 07.09.2019
2335 Clear 14 1016 87 3700 3.6 220 10:20 07.09.2019
2336 Clear 12 1016 93 3100 4.1 230 09:43 07.09.2019
2337 Clouds 12 1016 93 3100 4.1 230 09:25 07.09.2019
2338 Clouds 12 1016 93 3100 4.1 230 08:59 07.09.2019
2339 Rain 12 1015 93 3100 3.6 220 08:41 07.09.2019
2340 Rain 12 1015 93 3100 3.6 220 08:23 07.09.2019
2341 Clouds 12 1015 93 10000 3.1 220 07:45 07.09.2019
2342 Clouds 12 1015 93 10000 3.1 220 07:26 07.09.2019
2343 Clouds 12 1015 87 10000 2.6 220 06:47 07.09.2019
2344 Clouds 12 1015 87 10000 2.6 220 06:20 07.09.2019
2345 Clouds 13 1015 82 10000 3.1 240 04:48 07.09.2019
2346 Clouds 13 1015 82 10000 3.1 240 04:20 07.09.2019
2347 Clouds 13 1015 76 10000 5.1 220 02:48 07.09.2019
2348 Clouds 13 1015 71 10000 5.7 220 01:46 07.09.2019
2349 Clouds 13 1015 71 10000 5.7 220 01:21 07.09.2019
2350 Rain 13 1016 71 10000 6.2 220 00:40 07.09.2019
2351 Rain 13 1016 71 10000 6.2 220 00:19 07.09.2019
2352 Clouds 13 1016 67 10000 4.6 220 23:40 06.09.2019
2353 Clouds 13 1016 67 10000 4.6 220 23:21 06.09.2019
2354 Clouds 13 1016 67 10000 4.6 220 22:57 06.09.2019
2355 Clouds 14 1016 58 10000 6.7 230 22:38 06.09.2019
2356 Clouds 14 1016 58 10000 6.7 230 22:19 06.09.2019
2357 Clouds 14 1016 58 10000 6.7 230 21:57 06.09.2019
2358 Clouds 14 1017 62 10000 6.7 220 21:39 06.09.2019
2359 Clouds 14 1017 62 10000 6.7 220 21:20 06.09.2019
2360 Clouds 14 1017 62 10000 6.7 220 20:57 06.09.2019
2361 Rain 15 1017 59 10000 5.1 210 20:38 06.09.2019
2362 Rain 15 1017 59 10000 5.1 210 20:19 06.09.2019
2363 Rain 15 1017 59 10000 5.1 210 19:55 06.09.2019
2364 Clouds 14 1017 67 10000 4.6 210 19:37 06.09.2019
2365 Clouds 14 1017 67 10000 4.6 210 19:18 06.09.2019
2366 Clouds 15 1017 67 10000 4.6 210 18:41 06.09.2019
2367 Clouds 15 1017 67 10000 4.6 210 18:23 06.09.2019
2368 Clouds 16 1018 63 10000 6.7 230 17:58 06.09.2019
2369 Clouds 16 1018 63 10000 6.7 230 17:58 06.09.2019
2370 Clouds 16 1018 63 10000 5.7 220 17:37 06.09.2019
2371 Clouds 16 1018 63 10000 5.7 220 17:19 06.09.2019
2372 Clouds 17 1019 63 10000 7.2 220 16:39 06.09.2019
2373 Clouds 17 1019 63 10000 7.2 220 16:19 06.09.2019
2374 Clouds 16 1019 67 10000 5.7 230 15:42 06.09.2019
2375 Clouds 16 1019 67 10000 5.7 230 15:24 06.09.2019
2376 Clouds 16 1019 67 10000 5.7 230 14:57 06.09.2019
2377 Clouds 16 1020 63 10000 6.7 230 14:39 06.09.2019
2378 Clouds 16 1020 63 10000 6.7 230 14:18 06.09.2019
2379 Clouds 15 1020 72 10000 6.2 230 13:42 06.09.2019
2380 Clouds 15 1020 72 10000 6.2 230 13:20 06.09.2019
2381 Clouds 15 1020 76 10000 6.7 230 12:38 06.09.2019
2382 Clouds 15 1020 76 10000 6.7 230 12:20 06.09.2019
2383 Clouds 15 1020 76 10000 6.7 230 11:55 06.09.2019
2384 Clouds 13 1020 76 10000 6.2 230 11:37 06.09.2019
2385 Clouds 13 1020 76 10000 6.2 230 11:18 06.09.2019
2386 Clouds 13 1020 76 10000 5.1 240 10:41 06.09.2019
2387 Clouds 13 1020 76 10000 5.1 240 10:22 06.09.2019
2388 Clouds 13 1020 76 10000 5.1 240 09:58 06.09.2019
2389 Clouds 12 1021 76 10000 4.1 230 09:37 06.09.2019
2390 Clouds 12 1021 76 10000 4.1 230 09:18 06.09.2019
2391 Clouds 12 1021 81 10000 5.1 220 08:44 06.09.2019
2392 Clouds 12 1021 81 10000 5.1 220 08:26 06.09.2019
2393 Clouds 12 1021 81 10000 5.7 230 07:50 06.09.2019
2394 Clouds 12 1021 81 10000 5.7 230 07:28 06.09.2019
2395 Clouds 12 1021 81 10000 5.7 230 06:58 06.09.2019
2396 Clouds 12 1021 81 10000 5.7 230 06:33 06.09.2019
2397 Clouds 12 1021 87 10000 4.1 230 05:45 06.09.2019
2398 Clouds 12 1021 87 10000 4.1 230 04:54 06.09.2019
2399 Clouds 11 1021 87 10000 4.1 220 04:23 06.09.2019
2400 Clouds 13 1021 76 10000 4.6 260 02:44 06.09.2019
2401 Clouds 13 1021 71 10000 4.6 290 00:57 06.09.2019
2402 Clouds 14 1021 66 10000 4.6 280 00:20 06.09.2019
2403 Clouds 14 1021 66 10000 4.6 280 00:20 06.09.2019
2404 Clouds 13 1021 76 10000 2.6 320 23:41 05.09.2019
2405 Clouds 13 1021 76 10000 2.6 320 23:22 05.09.2019
2406 Clouds 14 1020 58 10000 7.7 310 22:45 05.09.2019
2407 Clouds 14 1020 58 10000 7.7 310 22:25 05.09.2019
2408 Clouds 14 1020 58 10000 7.7 310 21:57 05.09.2019
2409 Clouds 15 1019 58 10000 9.8 310 21:39 05.09.2019
2410 Clouds 15 1019 58 10000 9.8 310 21:39 05.09.2019
2411 Clouds 15 1019 58 10000 9.8 310 21:20 05.09.2019
2412 Clouds 15 1019 58 10000 9.8 310 20:58 05.09.2019
2413 Rain 14 1019 71 10000 4.6 300 20:38 05.09.2019
2414 Rain 14 1019 71 10000 4.6 300 20:20 05.09.2019
2415 Rain 14 1019 71 10000 4.6 300 19:57 05.09.2019
2416 Rain 15 1019 71 10000 4.6 300 19:39 05.09.2019
2417 Clouds 16 1018 62 10000 9.3 310 19:20 05.09.2019
2418 Clouds 16 1018 62 10000 9.3 310 18:43 05.09.2019
2419 Clouds 16 1018 62 10000 9.3 310 18:43 05.09.2019
2420 Clouds 16 1018 62 10000 9.3 310 18:25 05.09.2019
2421 Rain 16 1017 62 10000 10.3 320 17:59 05.09.2019
2422 Rain 15 1016 82 10000 7.7 310 17:39 05.09.2019
2423 Rain 15 1016 82 10000 7.7 310 17:39 05.09.2019
2424 Rain 15 1016 82 10000 7.7 310 17:21 05.09.2019
2425 Rain 15 1016 82 10000 7.7 310 16:57 05.09.2019
2426 Rain 15 1016 82 10000 7.7 310 16:57 05.09.2019
2427 Rain 15 1016 82 10000 7.7 310 16:57 05.09.2019
2428 Rain 14 1016 82 9000 11.3 300 16:39 05.09.2019
2429 Rain 15 1016 71 8000 9.8 310 16:18 05.09.2019
2430 Rain 16 1015 59 4000 10.3 310 15:40 05.09.2019
2431 Rain 16 1015 59 4000 10.3 310 15:19 05.09.2019
2432 Rain 16 1015 59 4000 10.3 310 15:19 05.09.2019
2433 Clouds 16 1014 59 10000 10.8 300 14:58 05.09.2019
2434 Clouds 16 1013 67 10000 10.3 310 14:40 05.09.2019
2435 Clouds 16 1013 67 10000 10.3 310 14:19 05.09.2019
2436 Clouds 16 1013 77 10000 7.2 300 13:43 05.09.2019
2437 Clouds 16 1013 77 10000 7.2 300 13:21 05.09.2019
2438 Clouds 15 1013 77 10000 7.2 300 12:46 05.09.2019
2439 Clouds 15 1013 77 10000 7.2 300 12:27 05.09.2019
2440 Rain 16 1011 77 10000 7.7 320 11:58 05.09.2019
2441 Rain 15 1011 93 10000 10.3 320 11:40 05.09.2019
2442 Rain 14 1011 93 10000 10.3 320 11:19 05.09.2019
2443 Rain 14 1011 93 10000 10.3 320 11:19 05.09.2019
2444 Rain 15 1008 82 10000 7.7 260 10:42 05.09.2019
2445 Rain 15 1008 82 10000 7.7 260 10:23 05.09.2019
2446 Rain 15 1008 82 10000 7.7 260 09:58 05.09.2019
2447 Clouds 14 1008 87 10000 6.2 220 09:40 05.09.2019
2448 Clouds 14 1008 87 10000 6.2 220 09:18 05.09.2019
2449 Clouds 13 1008 87 10000 5.7 210 08:46 05.09.2019
2450 Clouds 13 1008 87 10000 5.7 210 08:46 05.09.2019
2451 Clouds 13 1008 87 10000 5.7 210 08:27 05.09.2019
2452 Clouds 13 1008 87 10000 5.7 210 08:27 05.09.2019
2453 Clouds 13 1009 82 10000 6.2 220 07:46 05.09.2019
2454 Clouds 13 1009 82 10000 6.2 220 07:28 05.09.2019
2455 Clouds 13 1009 82 10000 6.2 220 06:58 05.09.2019
2456 Clouds 13 1009 82 10000 6.2 220 06:32 05.09.2019
2457 Clouds 13 1010 82 10000 4.6 220 05:51 05.09.2019
2458 Clouds 13 1010 82 10000 4.6 220 05:32 05.09.2019
2459 Clouds 13 1010 82 10000 4.6 220 04:55 05.09.2019
2460 Clouds 13 1010 87 10000 3.1 210 04:29 05.09.2019
2461 Clouds 13 1010 87 10000 4.6 230 03:40 05.09.2019
2462 Clouds 13 1010 87 10000 4.6 230 02:54 05.09.2019
2463 Clouds 13 1010 87 10000 3.6 230 02:27 05.09.2019
2464 Clouds 14 1010 82 10000 5.7 260 01:41 05.09.2019
2465 Clouds 15 1010 82 10000 5.7 260 00:51 05.09.2019
2466 Clouds 15 1010 82 10000 5.7 260 00:23 05.09.2019
2467 Clouds 15 1010 82 10000 5.7 270 23:57 04.09.2019
2468 Rain 16 1009 87 10000 5.7 250 23:39 04.09.2019
2469 Rain 16 1009 87 10000 5.7 250 23:18 04.09.2019
2470 Rain 16 1009 87 10000 7.2 230 22:47 04.09.2019
2471 Rain 16 1009 87 10000 7.2 230 22:19 04.09.2019
2472 Clouds 16 1009 87 10000 6.7 230 21:41 04.09.2019
2473 Clouds 16 1009 87 10000 6.7 230 21:21 04.09.2019
2474 Clouds 16 1009 93 10000 6.2 220 20:59 04.09.2019
2475 Rain 16 1009 93 8000 5.7 230 20:40 04.09.2019
2476 Rain 16 1009 93 8000 5.7 230 20:20 04.09.2019
2477 Rain 16 1009 93 8000 5.7 230 19:59 04.09.2019
2478 Rain 16 1009 93 8000 5.7 230 19:39 04.09.2019
2479 Rain 16 1010 93 8000 6.7 230 19:21 04.09.2019
2480 Rain 16 1010 93 7000 6.2 230 18:42 04.09.2019
2481 Rain 16 1010 93 7000 6.2 230 18:24 04.09.2019
2482 Rain 16 1010 93 7000 5.1 230 17:58 04.09.2019
2483 Drizzle 16 1010 93 2500 5.1 240 17:40 04.09.2019
2484 Drizzle 16 1010 93 2500 5.1 240 17:21 04.09.2019
2485 Drizzle 16 1010 88 4000 3.6 240 16:54 04.09.2019
2486 Drizzle 17 1010 72 5000 6.7 230 16:36 04.09.2019
2487 Clouds 18 1010 68 10000 6.7 220 16:18 04.09.2019
2488 Clouds 18 1011 63 10000 6.7 210 15:39 04.09.2019
2489 Clouds 18 1011 63 10000 6.7 210 15:21 04.09.2019
2490 Clouds 18 1011 63 10000 6.7 210 14:58 04.09.2019
2491 Clouds 19 1012 59 10000 6.7 210 14:38 04.09.2019
2492 Clouds 19 1012 59 10000 6.7 210 14:38 04.09.2019
2493 Clouds 19 1012 59 10000 6.7 210 14:20 04.09.2019
2494 Clouds 19 1012 59 10000 6.7 210 13:57 04.09.2019
2495 Clouds 20 1012 59 10000 6.7 210 13:38 04.09.2019
2496 Clouds 20 1012 59 10000 6.7 210 13:38 04.09.2019
2497 Clouds 20 1012 60 10000 6.7 210 13:19 04.09.2019
2498 Clouds 20 1012 60 10000 6.7 210 12:43 04.09.2019
2499 Clouds 20 1012 60 10000 6.7 210 12:24 04.09.2019
2500 Clouds 19 1013 63 10000 5.1 210 11:56 04.09.2019
2501 Clouds 18 1014 72 10000 5.1 200 11:37 04.09.2019
2502 Clouds 18 1014 72 10000 5.1 200 11:19 04.09.2019
2503 -273 0 0 0 0 0 10:55 04.09.2019
2504 Clouds 17 1014 77 10000 3.6 200 10:36 04.09.2019
2505 Clouds 17 1014 77 10000 3.6 200 10:18 04.09.2019
2506 Clouds 15 1015 82 10000 3.1 190 09:42 04.09.2019
2507 Clouds 15 1015 82 10000 3.1 190 09:19 04.09.2019
2508 Clouds 14 1016 82 10000 2.6 190 08:42 04.09.2019
2509 Clouds 14 1016 82 10000 2.6 190 08:24 04.09.2019
2510 Clouds 14 1016 82 10000 2.6 190 07:58 04.09.2019
2511 Clouds 14 1016 82 10000 2.6 190 07:35 04.09.2019
2512 Clouds 14 1016 87 10000 3.1 200 06:49 04.09.2019
2513 Clouds 14 1016 87 10000 3.1 200 06:26 04.09.2019
2514 Clouds 15 1017 87 10000 2.6 220 04:54 04.09.2019
2515 Clouds 15 1018 87 10000 2.1 210 04:22 04.09.2019
2516 Clouds 16 1019 82 10000 2.6 230 02:36 04.09.2019
2517 Clouds 16 1019 82 10000 2.6 230 02:36 04.09.2019
2518 Clouds 16 1019 82 10000 2.6 240 00:56 04.09.2019
2519 Clouds 16 1019 82 10000 2.6 240 00:38 04.09.2019
2520 Clouds 16 1019 82 10000 3.1 250 00:18 04.09.2019
2521 Clouds 16 1020 87 10000 3.1 260 23:47 03.09.2019
2522 Clouds 16 1020 87 10000 3.1 260 23:23 03.09.2019
2523 Clouds 17 1020 87 10000 4.6 250 22:40 03.09.2019
2524 Clouds 17 1020 87 10000 4.6 250 22:22 03.09.2019
2525 Clouds 17 1020 87 10000 4.6 250 21:57 03.09.2019
2526 Clouds 17 1020 82 10000 5.7 260 21:38 03.09.2019
2527 Clouds 17 1020 82 10000 5.7 260 21:20 03.09.2019
2528 Clouds 17 1020 82 10000 5.7 260 20:55 03.09.2019
2529 Rain 18 1020 88 10000 3.6 250 20:36 03.09.2019
2530 Rain 17 1019 82 10000 6.7 260 20:18 03.09.2019
2531 Rain 18 1019 82 10000 6.7 260 19:43 03.09.2019
2532 Clouds 18 1020 82 10000 6.2 260 19:19 03.09.2019
2533 Clouds 18 1020 82 10000 6.2 260 18:57 03.09.2019
2534 Clouds 18 1020 82 10000 6.2 260 18:38 03.09.2019
2535 Rain 18 1020 77 10000 8.2 260 18:19 03.09.2019
2536 Rain 18 1020 77 10000 8.2 260 17:55 03.09.2019
2537 -273 0 0 0 0 0 17:55 03.09.2019
2538 Clouds 18 1020 77 10000 7.7 270 17:36 03.09.2019
2539 Clouds 18 1020 77 10000 7.7 270 17:18 03.09.2019
2540 Rain 19 1019 82 9000 7.2 270 16:42 03.09.2019
2541 Rain 19 1019 82 9000 7.2 270 16:22 03.09.2019
2542 Clouds 19 1019 77 10000 8.7 280 15:55 03.09.2019
2543 Rain 18 1019 88 9000 7.7 280 15:37 03.09.2019
2544 Rain 18 1019 88 9000 7.7 280 15:19 03.09.2019
2545 Rain 17 1019 88 9000 7.7 280 14:55 03.09.2019
2546 Rain 18 1019 82 10000 8.2 260 14:36 03.09.2019
2547 Rain 18 1019 82 10000 8.2 260 14:18 03.09.2019
2548 Rain 18 1019 82 10000 8.2 260 13:55 03.09.2019
2549 Rain 18 1019 82 10000 8.2 260 13:55 03.09.2019
2550 Rain 18 1019 82 10000 8.2 260 13:37 03.09.2019
2551 Clouds 18 1019 88 9000 8.2 260 13:18 03.09.2019
2552 Rain 18 1019 82 8000 7.7 270 12:46 03.09.2019
2553 Rain 18 1019 82 8000 7.7 270 12:28 03.09.2019
2554 Clouds 17 1018 87 10000 5.7 250 11:43 03.09.2019
2555 Clouds 17 1018 87 10000 5.7 250 11:25 03.09.2019
2556 Clouds 17 1018 87 10000 5.7 250 10:59 03.09.2019
2557 Clouds 17 1018 87 10000 5.7 250 10:59 03.09.2019
2558 Rain 15 1018 93 8000 5.1 240 10:40 03.09.2019
2559 Rain 15 1018 93 8000 5.1 240 10:21 03.09.2019
2560 Clouds 15 1018 100 8000 5.7 230 09:51 03.09.2019
2561 Rain 15 1018 93 5000 6.2 230 09:33 03.09.2019
2562 Rain 15 1018 93 5000 6.2 230 08:57 03.09.2019
2563 Clouds 15 1018 93 8000 5.7 220 08:38 03.09.2019
2564 Clouds 15 1018 93 8000 5.7 220 08:38 03.09.2019
2565 Rain 14 1018 93 5000 5.7 220 08:19 03.09.2019
2566 Clouds 13 1018 93 8000 5.7 220 07:43 03.09.2019
2567 Clouds 13 1018 93 8000 5.7 220 07:24 03.09.2019
2568 Drizzle 13 1018 93 8000 5.1 220 06:54 03.09.2019
2569 Drizzle 13 1018 93 6000 4.1 220 06:36 03.09.2019
2570 Rain 15 1020 71 10000 4.1 220 03:44 03.09.2019
2571 Clouds 15 1020 67 10000 3.6 230 02:49 03.09.2019
2572 Clouds 15 1020 67 10000 3.6 230 02:30 03.09.2019
2573 Clouds 15 1020 67 10000 3.6 230 01:58 03.09.2019
2574 Clouds 15 1020 67 10000 3.6 230 01:40 03.09.2019
2575 Clouds 15 1020 76 10000 3.1 210 01:21 03.09.2019
2576 Clouds 15 1020 76 10000 3.1 210 00:28 03.09.2019
2577 Clouds 15 1021 76 10000 3.1 220 23:56 02.09.2019
2578 Clouds 15 1021 82 10000 2.6 200 23:36 02.09.2019
2579 Clouds 15 1021 82 10000 2.6 200 23:18 02.09.2019
2580 Clouds 15 1021 82 10000 2.6 200 23:18 02.09.2019
2581 Clouds 15 1021 82 10000 2.6 200 23:18 02.09.2019
2582 Clouds 15 1021 82 10000 2.6 200 22:54 02.09.2019
2583 Clouds 15 1021 82 10000 2.6 200 22:54 02.09.2019
2584 Clouds 15 1021 82 10000 2.1 200 22:36 02.09.2019
2585 Clouds 15 1021 82 10000 2.1 200 22:18 02.09.2019
2586 Clouds 16 1021 72 10000 2.6 200 21:54 02.09.2019
2587 Clouds 16 1021 72 10000 2.6 200 21:36 02.09.2019
2588 Clouds 16 1021 72 10000 2.6 200 21:18 02.09.2019
2589 Clouds 16 1021 67 10000 2.1 220 20:41 02.09.2019
2590 Clouds 17 1021 63 10000 3.6 290 20:22 02.09.2019
2591 Clouds 17 1021 63 10000 3.6 290 20:22 02.09.2019
2592 Clouds 17 1021 63 10000 3.6 290 19:57 02.09.2019
2593 Clouds 17 1021 63 10000 3.6 290 19:39 02.09.2019
2594 Clouds 17 1021 63 10000 3.6 290 19:39 02.09.2019
2595 Clouds 17 1021 59 10000 5.7 290 19:21 02.09.2019
2596 Clouds 19 1021 59 10000 5.7 290 18:42 02.09.2019
2597 Clouds 19 1021 52 10000 7.2 300 18:23 02.09.2019
2598 Clouds 19 1021 52 10000 7.2 300 17:59 02.09.2019
2599 Clouds 18 1021 59 10000 5.1 280 17:40 02.09.2019
2600 Clouds 18 1021 59 10000 5.1 280 17:21 02.09.2019
2601 Clouds 18 1021 59 10000 5.1 280 16:59 02.09.2019
2602 Clouds 17 1021 51 10000 6.7 300 16:39 02.09.2019
2603 Clouds 17 1021 51 10000 6.7 300 16:20 02.09.2019
2604 Clouds 17 1021 52 10000 6.7 300 15:46 02.09.2019
2605 Clouds 17 1021 52 10000 6.7 300 15:27 02.09.2019
2606 Clouds 17 1021 52 10000 6.7 300 14:58 02.09.2019
2607 Clouds 17 1021 63 10000 5.7 320 14:39 02.09.2019
2608 Clouds 17 1021 63 10000 5.7 320 14:21 02.09.2019
2609 Clouds 18 1021 63 10000 5.7 320 13:56 02.09.2019
2610 Clouds 18 1021 63 10000 5.7 320 13:37 02.09.2019
2611 Rain 17 1020 72 10000 6.7 320 13:18 02.09.2019
2612 Rain 17 1020 72 10000 6.7 320 12:45 02.09.2019
2613 Rain 17 1020 72 10000 6.7 320 12:25 02.09.2019
2614 Rain 16 1020 87 10000 5.1 310 11:58 02.09.2019
2615 Rain 17 1020 77 8000 6.2 280 11:39 02.09.2019
2616 Rain 17 1020 77 8000 6.2 280 11:21 02.09.2019
2617 Rain 17 1019 72 10000 5.7 260 10:57 02.09.2019
2618 Rain 16 1019 82 10000 4.6 240 10:38 02.09.2019
2619 Rain 16 1019 82 10000 4.6 240 10:19 02.09.2019
2620 Clouds 14 1018 87 10000 3.6 230 09:46 02.09.2019
2621 Clouds 14 1018 87 10000 3.6 230 09:22 02.09.2019
2622 Clouds 14 1018 87 10000 3.6 230 08:58 02.09.2019
2623 Clouds 13 1018 87 10000 2.1 250 08:38 02.09.2019
2624 Clouds 13 1018 87 10000 2.1 250 08:18 02.09.2019
2625 Clouds 14 1018 87 10000 2.1 250 07:40 02.09.2019
2626 Clouds 12 1017 93 9000 2.1 220 07:21 02.09.2019
2627 Clouds 13 1017 93 9000 2.1 220 06:45 02.09.2019
2628 Clouds 13 1017 93 9000 2.1 220 06:25 02.09.2019
2629 Thunderstorm 13 1017 87 8000 4.6 300 05:48 02.09.2019
2630 Thunderstorm 14 1017 82 6000 6.7 270 05:18 02.09.2019
2631 Thunderstorm 13 1017 93 10000 3.6 230 04:20 02.09.2019
2632 Clouds 15 1016 82 10000 3.6 220 01:46 02.09.2019
2633 Clouds 14 1016 76 10000 5.1 260 00:49 02.09.2019
2634 Clouds 14 1016 76 10000 5.1 260 00:30 02.09.2019
2635 Clouds 14 1016 76 10000 4.1 260 23:45 01.09.2019
2636 Clouds 14 1016 76 10000 4.1 260 23:23 01.09.2019
2637 Clouds 14 1016 76 10000 4.1 260 23:23 01.09.2019
2638 Clouds 14 1016 76 10000 4.1 260 22:59 01.09.2019
2639 Clouds 14 1016 76 10000 4.1 260 22:59 01.09.2019
2640 Clouds 16 1015 63 10000 3.6 270 22:40 01.09.2019
2641 Clouds 16 1015 63 10000 3.6 270 22:19 01.09.2019
2642 Clouds 16 1015 63 10000 3.6 270 21:57 01.09.2019
2643 Clouds 16 1015 67 10000 3.1 280 21:38 01.09.2019
2644 Clouds 16 1015 67 10000 3.1 280 21:20 01.09.2019
2645 Clouds 16 1015 67 10000 3.1 280 20:57 01.09.2019
2646 Clouds 17 1015 67 10000 3.1 280 20:38 01.09.2019
2647 Clouds 17 1014 67 10000 4.1 300 20:18 01.09.2019
2648 Clouds 17 1014 67 10000 4.1 300 19:57 01.09.2019
2649 Clouds 18 1014 67 10000 4.1 300 19:37 01.09.2019
2650 Clouds 18 1014 72 10000 4.1 270 19:19 01.09.2019
2651 Clouds 18 1014 72 10000 4.1 270 18:43 01.09.2019
2652 Rain 17 1014 82 9000 4.1 280 18:25 01.09.2019
2653 Rain 17 1014 82 9000 4.1 280 17:56 01.09.2019
2654 Rain 18 1014 67 6000 6.7 280 17:38 01.09.2019
2655 Clouds 18 1014 59 10000 5.7 300 17:19 01.09.2019
2656 Clouds 18 1014 59 10000 5.7 300 17:19 01.09.2019
2657 Clouds 19 1013 55 10000 6.7 300 16:41 01.09.2019
2658 Clouds 19 1013 55 10000 6.7 300 16:19 01.09.2019
2659 Clouds 19 1013 59 10000 5.1 300 15:49 01.09.2019
2660 Clouds 19 1013 59 10000 5.1 300 15:31 01.09.2019
2661 Clouds 19 1013 59 10000 5.1 300 14:59 01.09.2019
2662 Clouds 18 1013 59 10000 5.7 320 14:40 01.09.2019
2663 Clouds 18 1013 59 10000 5.7 320 14:21 01.09.2019
2664 Clouds 18 1013 59 10000 5.7 320 13:54 01.09.2019
2665 Clouds 18 1013 59 10000 5.7 320 13:54 01.09.2019
2666 Clouds 19 1012 59 10000 6.2 330 13:36 01.09.2019
2667 Clouds 19 1012 59 10000 6.2 330 13:18 01.09.2019
2668 Clouds 18 1012 59 10000 6.2 330 12:41 01.09.2019
2669 Clouds 18 1012 59 10000 6.2 330 12:23 01.09.2019
2670 Clouds 17 1011 88 10000 4.6 330 11:41 01.09.2019
2671 Clouds 17 1011 88 10000 4.6 330 11:20 01.09.2019
2672 Clouds 17 1011 88 10000 4.6 330 10:59 01.09.2019
2673 Rain 17 1010 88 10000 6.2 320 10:41 01.09.2019
2674 Rain 17 1010 88 10000 6.2 320 10:23 01.09.2019
2675 Clouds 18 1009 82 10000 6.2 320 09:43 01.09.2019
2676 Clouds 18 1009 82 10000 6.2 320 09:25 01.09.2019
2677 Clouds 18 1008 93 8000 3.6 260 08:45 01.09.2019
2678 Clouds 18 1008 93 8000 3.6 260 08:24 01.09.2019
2679 Clouds 18 1008 93 8000 3.6 260 07:58 01.09.2019
2680 Clouds 17 1008 93 10000 1.5 260 07:40 01.09.2019
2681 Clouds 17 1008 93 10000 1.5 260 06:59 01.09.2019
2682 Clouds 18 1008 93 10000 1.5 260 06:34 01.09.2019
2683 Clouds 18 1008 100 10000 2.1 270 05:57 01.09.2019
2684 Clouds 18 1008 100 10000 2.1 270 05:57 01.09.2019
2685 Clouds 17 1007 100 9000 1.5 0 04:32 01.09.2019
2686 Clouds 17 1007 93 9000 1 10 03:43 01.09.2019
2687 Clouds 17 1007 93 9000 1 10 02:59 01.09.2019
2688 Rain 18 1007 93 6000 3.6 40 02:28 01.09.2019
2689 Rain 18 1006 93 4500 5.7 360 01:51 01.09.2019
2690 Thunderstorm 18 1007 93 3200 7.7 330 01:25 01.09.2019
2691 Thunderstorm 21 1006 64 10000 2.6 140 00:47 01.09.2019
2692 Thunderstorm 21 1006 64 10000 2.6 140 00:23 01.09.2019
2693 Clouds 21 1006 60 10000 3.6 130 23:56 31.08.2019
2694 Clouds 20 1007 68 10000 2.1 120 23:38 31.08.2019
2695 Clouds 20 1007 68 10000 2.1 120 23:18 31.08.2019
2696 Clouds 22 1008 60 10000 1.5 130 22:44 31.08.2019
2697 Clouds 22 1008 60 10000 1.5 130 22:26 31.08.2019
2698 Clouds 22 1008 60 10000 1.5 130 21:58 31.08.2019
2699 Clouds 23 1009 53 10000 1.5 170 21:39 31.08.2019
2700 Clouds 23 1009 53 10000 1.5 170 21:21 31.08.2019
2701 Clouds 27 1009 42 10000 2.1 190 20:50 31.08.2019
2702 Clouds 27 1009 42 10000 2.1 190 20:31 31.08.2019
2703 Clouds 27 1009 42 10000 2.1 190 19:57 31.08.2019
2704 Clouds 28 1009 42 10000 2.1 190 19:39 31.08.2019
2705 Clouds 29 1009 37 10000 4.1 190 19:21 31.08.2019
2706 Clouds 29 1009 37 10000 4.1 190 19:21 31.08.2019
2707 Clouds 29 1009 37 10000 4.1 190 18:40 31.08.2019
2708 Clouds 29 1010 37 10000 5.1 200 18:21 31.08.2019
2709 Clouds 29 1010 37 10000 5.1 200 17:58 31.08.2019
2710 Clouds 29 1011 37 10000 6.2 200 17:37 31.08.2019
2711 Clouds 29 1011 37 10000 6.2 200 17:19 31.08.2019
2712 Clouds 29 1011 37 10000 6.2 200 16:59 31.08.2019
2713 Clouds 29 1011 39 10000 5.7 180 16:41 31.08.2019
2714 Clouds 29 1011 39 10000 5.7 180 16:21 31.08.2019
2715 Clouds 29 1011 39 10000 5.7 180 15:59 31.08.2019
2716 Clouds 28 1012 42 10000 5.7 200 15:38 31.08.2019
2717 Clouds 28 1012 42 10000 5.7 200 15:18 31.08.2019
2718 Clouds 27 1013 54 10000 5.1 180 14:41 31.08.2019
2719 Clouds 27 1013 54 10000 5.1 180 14:22 31.08.2019
2720 Clouds 26 1013 54 10000 5.1 180 13:42 31.08.2019
2721 Clouds 26 1013 54 10000 5.1 180 13:23 31.08.2019
2722 Clouds 26 1013 54 10000 5.1 180 13:23 31.08.2019
2723 Clouds 26 1014 54 10000 4.6 140 12:59 31.08.2019
2724 Clouds 26 1014 54 10000 4.6 140 12:41 31.08.2019
2725 Clouds 24 1015 60 10000 3.6 140 12:21 31.08.2019
2726 Clouds 24 1015 60 10000 3.6 140 12:21 31.08.2019
2727 Clouds 24 1015 60 10000 3.6 140 11:58 31.08.2019
2728 Clouds 22 1016 68 10000 2.6 130 11:40 31.08.2019
2729 Clouds 22 1016 68 10000 2.6 130 11:22 31.08.2019
2730 Clouds 22 1016 68 10000 2.6 130 10:54 31.08.2019
2731 Clouds 20 1016 72 10000 2.6 140 10:36 31.08.2019
2732 Clouds 20 1016 72 10000 2.6 140 10:18 31.08.2019
2733 Clouds 16 1017 87 10000 1 0 09:39 31.08.2019
2734 Clouds 16 1017 87 10000 1 0 09:21 31.08.2019
2735 Fog 15 1017 77 10000 2.1 140 08:45 31.08.2019
2736 Fog 15 1017 77 10000 2.1 140 08:27 31.08.2019
2737 Fog 14 1017 82 10000 1.5 150 07:43 31.08.2019
2738 Fog 14 1017 82 10000 1.5 150 07:23 31.08.2019
2739 Fog 14 1017 82 10000 1.5 150 06:56 31.08.2019
2740 Fog 14 1017 82 10000 1.5 150 06:56 31.08.2019
2741 Clouds 13 1018 87 10000 1.5 170 06:21 31.08.2019
2742 Clouds 15 1018 67 10000 2.6 160 05:35 31.08.2019
2743 Clouds 14 1019 82 10000 2.1 150 04:45 31.08.2019
2744 Clouds 14 1019 82 10000 2.1 150 04:27 31.08.2019
2745 Clouds 14 1020 87 10000 1 140 03:42 31.08.2019
2746 Clouds 14 1020 82 10000 1.5 160 02:00 31.08.2019
2747 Clouds 15 1020 82 10000 1.5 160 01:41 31.08.2019
2748 Clouds 15 1020 82 10000 1.5 160 01:41 31.08.2019
2749 Clouds 15 1020 72 10000 5.31 181.791 01:22 31.08.2019
2750 Clouds 17 1020 63 10000 2.1 170 00:43 31.08.2019
2751 Clouds 17 1020 63 10000 2.1 170 00:43 31.08.2019
2752 Clouds 17 1020 63 10000 2.1 170 00:24 31.08.2019
2753 Clouds 16 1021 59 10000 2.6 170 23:48 30.08.2019
2754 Clouds 16 1021 59 10000 2.6 170 23:19 30.08.2019
2755 Clouds 16 1021 59 10000 2.6 170 22:56 30.08.2019
2756 Clouds 19 1021 59 10000 2.1 170 22:37 30.08.2019
2757 Clouds 19 1021 59 10000 2.1 170 22:19 30.08.2019
2758 Clouds 19 1021 59 10000 1.5 170 21:55 30.08.2019
2759 Clouds 19 1021 59 10000 1.5 170 21:36 30.08.2019
2760 Clouds 19 1021 59 10000 1.5 170 21:18 30.08.2019
2761 Clouds 21 1021 52 10000 1.5 190 20:43 30.08.2019
2762 Clouds 21 1021 52 10000 1.5 190 20:22 30.08.2019
2763 Clouds 21 1021 52 10000 1.5 190 20:22 30.08.2019
2764 Clouds 21 1021 52 10000 1.5 190 19:59 30.08.2019
2765 Clouds 21 1021 52 10000 1.5 190 19:41 30.08.2019
2766 Clouds 23 1021 46 10000 3.1 220 19:22 30.08.2019
2767 Clouds 23 1021 46 10000 3.1 220 18:59 30.08.2019
2768 Clouds 23 1021 46 10000 3.1 220 18:41 30.08.2019
2769 Clouds 23 1021 46 10000 3.1 220 18:41 30.08.2019
2770 Clouds 23 1021 46 10000 3.6 250 18:22 30.08.2019
2771 Clouds 23 1021 46 10000 3.6 260 17:56 30.08.2019
2772 Clouds 23 1021 46 10000 3.6 260 17:38 30.08.2019
2773 Clouds 23 1021 46 10000 3.6 260 17:18 30.08.2019
2774 Clouds 23 1021 46 10000 3.6 260 17:18 30.08.2019
2775 Clouds 23 1021 46 10000 3.6 230 16:46 30.08.2019
2776 Clouds 23 1021 46 10000 3.6 230 16:27 30.08.2019
2777 Clouds 23 1021 49 10000 3.6 230 15:57 30.08.2019
2778 Clouds 22 1022 53 10000 4.1 230 15:37 30.08.2019
2779 Clouds 22 1022 53 10000 4.1 230 15:37 30.08.2019
2780 Clouds 22 1022 53 10000 4.1 230 15:19 30.08.2019
2781 Clouds 22 1022 60 10000 4.1 220 14:42 30.08.2019
2782 Clouds 22 1022 60 10000 4.1 220 14:24 30.08.2019
2783 Clouds 22 1022 60 10000 4.1 220 13:56 30.08.2019
2784 Clouds 22 1022 60 10000 4.1 220 13:56 30.08.2019
2785 Clouds 21 1022 64 10000 4.1 240 13:36 30.08.2019
2786 Clouds 21 1022 64 10000 4.1 240 13:18 30.08.2019
2787 Clouds 20 1022 64 10000 4.1 240 12:42 30.08.2019
2788 Clouds 20 1022 64 10000 4.1 230 12:22 30.08.2019
2789 Clouds 20 1022 68 10000 4.1 260 11:43 30.08.2019
2790 Clouds 20 1022 68 10000 4.1 260 11:25 30.08.2019
2791 Clouds 20 1022 68 10000 4.1 260 10:59 30.08.2019
2792 Clouds 18 1022 82 10000 3.6 260 10:37 30.08.2019
2793 Clouds 18 1022 82 10000 3.6 260 10:18 30.08.2019
2794 Clouds 17 1022 93 8000 2.1 260 09:42 30.08.2019
2795 Clouds 17 1022 93 8000 2.1 260 09:20 30.08.2019
2796 Clouds 17 1022 93 8000 2.1 260 08:58 30.08.2019
2797 Fog 16 1022 93 8000 1.5 220 08:39 30.08.2019
2798 Fog 16 1022 93 8000 1.5 220 08:21 30.08.2019
2799 Fog 15 1021 93 8000 1.5 210 07:43 30.08.2019
2800 Fog 15 1021 93 8000 1.5 210 07:23 30.08.2019
2801 Fog 16 1021 93 8000 1.5 210 06:47 30.08.2019
2802 Fog 16 1021 93 8000 1.5 210 06:29 30.08.2019
2803 Fog 16 1021 93 7000 1.5 200 05:54 30.08.2019
2804 Fog 16 1021 93 7000 1.5 200 05:54 30.08.2019
2805 Fog 16 1021 93 8000 2.1 210 04:27 30.08.2019
2806 Fog 16 1021 93 8000 1.5 190 03:46 30.08.2019
2807 Fog 16 1021 93 8000 1.5 190 03:27 30.08.2019
2808 Clouds 16 1021 93 10000 1.5 210 02:32 30.08.2019
2809 Clouds 16 1021 100 10000 1 200 01:38 30.08.2019
2810 Clouds 17 1021 100 10000 1 200 00:45 30.08.2019
2811 Clouds 17 1020 93 10000 1 220 00:18 30.08.2019
2812 Clouds 17 1020 93 10000 0.5 290 23:41 29.08.2019
2813 Clouds 17 1020 93 10000 0.5 290 23:21 29.08.2019
2814 Clouds 18 1020 88 10000 4.18 251.7 22:44 29.08.2019
2815 Clouds 18 1020 88 10000 4.18 251.7 22:26 29.08.2019
2816 Clouds 18 1020 88 10000 4.68 246.541 21:58 29.08.2019
2817 Clouds 19 1020 82 10000 1 350 21:39 29.08.2019
2818 Clouds 18 1019 82 10000 2.1 330 21:21 29.08.2019
2819 Clouds 18 1019 82 10000 2.1 330 20:56 29.08.2019
2820 Clouds 20 1019 77 10000 2.6 330 20:38 29.08.2019
2821 Clouds 20 1019 77 10000 2.6 330 20:38 29.08.2019
2822 Clouds 20 1019 77 10000 2.6 330 20:18 29.08.2019
2823 Clouds 21 1019 77 10000 2.6 330 19:46 29.08.2019
2824 Clouds 21 1019 73 10000 4.1 320 19:25 29.08.2019
2825 Clouds 21 1019 73 10000 4.1 320 18:57 29.08.2019
2826 Clouds 21 1018 73 10000 4.6 330 18:38 29.08.2019
2827 Clouds 21 1018 73 10000 4.6 330 18:18 29.08.2019
2828 Clouds 21 1018 73 10000 4.6 330 17:54 29.08.2019
2829 Clouds 21 1018 73 10000 4.6 330 17:54 29.08.2019
2830 Clouds 22 1018 68 10000 5.1 310 17:36 29.08.2019
2831 Clouds 22 1018 68 10000 5.1 310 17:18 29.08.2019
2832 Clouds 22 1018 68 10000 5.1 310 17:18 29.08.2019
2833 Clouds 22 1018 68 10000 5.1 310 16:41 29.08.2019
2834 Clouds 22 1018 68 10000 5.1 310 16:41 29.08.2019
2835 Clouds 23 1018 60 10000 5.1 290 16:23 29.08.2019
2836 Clouds 23 1018 56 10000 5.1 270 15:41 29.08.2019
2837 Clouds 23 1018 56 10000 5.1 270 15:21 29.08.2019
2838 Clouds 23 1018 56 10000 5.1 270 14:58 29.08.2019
2839 Clouds 22 1017 64 10000 6.7 270 14:40 29.08.2019
2840 Clouds 22 1017 64 10000 6.7 270 14:20 29.08.2019
2841 Clouds 22 1017 64 10000 6.7 270 13:57 29.08.2019
2842 Clouds 22 1017 68 10000 6.7 260 13:38 29.08.2019
2843 Clouds 22 1017 68 10000 6.7 260 13:18 29.08.2019
2844 Clouds 22 1017 68 10000 6.7 260 12:56 29.08.2019
2845 Clouds 22 1017 68 10000 6.7 260 12:38 29.08.2019
2846 Clouds 22 1016 77 8000 5.1 260 12:19 29.08.2019
2847 Clouds 21 1016 77 8000 5.1 260 11:42 29.08.2019
2848 Clouds 21 1016 77 8000 5.1 260 11:21 29.08.2019
2849 Mist 21 1016 88 5000 5.7 260 10:59 29.08.2019
2850 Mist 20 1015 94 3000 3.6 240 10:40 29.08.2019
2851 Mist 20 1015 94 3000 3.6 240 10:22 29.08.2019
2852 Mist 19 1015 93 3000 3.1 250 09:41 29.08.2019
2853 Mist 19 1015 93 3000 3.1 250 09:19 29.08.2019
2854 Mist 19 1015 93 3500 3.1 210 08:56 29.08.2019
2855 Drizzle 19 1015 100 1800 2.6 210 08:36 29.08.2019
2856 Drizzle 19 1015 100 1800 2.6 210 08:18 29.08.2019
2857 Mist 19 1014 93 2000 2.1 210 07:41 29.08.2019
2858 Mist 19 1014 93 2000 2.1 210 07:23 29.08.2019
2859 Rain 19 1014 93 2700 2.6 220 06:41 29.08.2019
2860 Rain 19 1014 93 2700 2.6 220 06:18 29.08.2019
2861 Rain 19 1014 93 4500 2.6 260 05:34 29.08.2019
2862 Rain 20 1014 93 7000 4.1 230 04:50 29.08.2019
2863 Clouds 19 1014 93 10000 0.5 0 04:28 29.08.2019
2864 Clouds 19 1014 100 8000 1.5 170 02:27 29.08.2019
2865 Clouds 20 1014 100 7000 0.5 0 01:41 29.08.2019
2866 Clouds 20 1014 93 10000 0.5 0 00:56 29.08.2019
2867 Clouds 20 1014 93 10000 0.5 0 00:37 29.08.2019
2868 Clouds 20 1014 93 10000 1 0 00:18 29.08.2019
2869 Thunderstorm 20 1014 93 8000 1.5 260 23:41 28.08.2019
2870 Thunderstorm 20 1014 93 8000 1.5 260 23:22 28.08.2019
2871 Thunderstorm 20 1014 93 8000 1.5 260 22:57 28.08.2019
2872 Thunderstorm 22 1014 64 7000 3.1 190 22:38 28.08.2019
2873 Thunderstorm 22 1014 64 7000 3.1 190 22:18 28.08.2019
2874 Thunderstorm 22 1014 64 7000 3.1 190 21:57 28.08.2019
2875 Thunderstorm 22 1014 60 7000 2.6 180 21:38 28.08.2019
2876 Clouds 23 1013 61 7000 5.7 190 21:19 28.08.2019
2877 Clouds 23 1012 64 8000 4.1 320 20:41 28.08.2019
2878 Clouds 23 1012 64 8000 4.1 320 20:22 28.08.2019
2879 Clouds 24 1012 65 9000 4.6 320 19:55 28.08.2019
2880 Clouds 24 1012 65 9000 4.6 320 19:37 28.08.2019
2881 Clouds 26 1011 54 10000 5.7 300 19:18 28.08.2019
2882 Clouds 29 1011 54 10000 5.7 300 18:42 28.08.2019
2883 Clouds 31 1011 35 10000 3.1 240 18:21 28.08.2019
2884 Clouds 31 1011 40 10000 3.6 230 17:40 28.08.2019
2885 Clouds 31 1011 40 10000 3.6 230 17:21 28.08.2019
2886 Clouds 31 1011 40 10000 3.6 230 16:59 28.08.2019
2887 Clouds 32 1012 35 10000 4.6 220 16:41 28.08.2019
2888 Clouds 32 1012 35 10000 4.6 220 16:18 28.08.2019
2889 Clouds 32 1012 35 10000 4.6 220 15:54 28.08.2019
2890 Clouds 31 1012 38 10000 3.1 230 15:36 28.08.2019
2891 Clouds 31 1012 38 10000 3.1 230 15:36 28.08.2019
2892 Clouds 31 1012 38 10000 3.1 230 15:36 28.08.2019
2893 Clouds 31 1012 38 10000 3.1 230 15:18 28.08.2019
2894 Clouds 31 1012 38 10000 3.1 230 14:55 28.08.2019
2895 Clouds 29 1012 51 10000 2.6 230 14:36 28.08.2019
2896 Clouds 29 1012 51 10000 2.6 230 14:18 28.08.2019
2897 Clouds 27 1012 57 10000 2.6 210 13:39 28.08.2019
2898 Clouds 27 1012 57 10000 2.6 210 13:39 28.08.2019
2899 Clouds 27 1012 57 10000 2.6 210 13:20 28.08.2019
2900 Clouds 27 1012 57 10000 2.6 210 12:58 28.08.2019
2901 Clouds 26 1012 61 10000 3.6 220 12:40 28.08.2019
2902 Clouds 26 1012 61 10000 3.6 220 12:40 28.08.2019
2903 Clouds 26 1012 61 10000 3.6 220 12:21 28.08.2019
2904 Clouds 25 1012 65 10000 2.6 210 11:40 28.08.2019
2905 Clouds 25 1012 65 10000 2.6 210 11:22 28.08.2019
2906 Clouds 25 1012 65 10000 2.6 210 10:58 28.08.2019
2907 Clouds 22 1012 78 10000 2.1 160 10:40 28.08.2019
2908 Clouds 22 1012 78 10000 2.1 160 10:20 28.08.2019
2909 Clouds 21 1012 82 10000 1.5 150 09:42 28.08.2019
2910 Clouds 21 1012 82 10000 1.5 150 09:22 28.08.2019
2911 Clouds 21 1012 82 10000 1.5 150 08:59 28.08.2019
2912 Fog 20 1012 88 8000 2.1 150 08:38 28.08.2019
2913 Fog 20 1012 88 8000 2.1 150 08:19 28.08.2019
2914 Clouds 19 1012 82 8000 1.5 140 07:39 28.08.2019
2915 Clouds 19 1012 82 8000 1.5 140 07:20 28.08.2019
2916 Clouds 19 1012 82 8000 1.5 140 06:50 28.08.2019
2917 Clouds 19 1012 82 8000 1.5 140 06:31 28.08.2019
2918 Clouds 20 1013 88 10000 2.6 120 05:24 28.08.2019
2919 Clouds 21 1014 82 10000 2.6 110 02:24 28.08.2019
2920 Clouds 21 1014 77 10000 3.1 100 01:31 28.08.2019
2921 Clouds 21 1014 77 10000 3.1 100 00:54 28.08.2019
2922 Clouds 21 1014 77 10000 3.1 100 00:34 28.08.2019
2923 Clouds 21 1014 77 10000 2.1 100 23:58 27.08.2019
2924 Clouds 22 1014 64 10000 3.1 120 23:38 27.08.2019
2925 Clouds 22 1014 64 10000 3.1 120 23:19 27.08.2019
2926 Clouds 23 1014 64 10000 2.6 90 22:42 27.08.2019
2927 Clouds 23 1014 64 10000 2.6 90 22:23 27.08.2019
2928 Clouds 23 1014 64 10000 2.6 90 21:57 27.08.2019
2929 Clouds 24 1014 64 10000 3.6 90 21:38 27.08.2019
2930 Clouds 24 1014 64 10000 3.6 90 21:38 27.08.2019
2931 Clouds 24 1014 64 10000 3.6 90 21:20 27.08.2019
2932 Clouds 24 1014 64 10000 3.6 90 20:59 27.08.2019
2933 Clouds 26 1015 54 10000 3.1 80 20:40 27.08.2019
2934 Clouds 26 1015 54 10000 3.1 80 20:19 27.08.2019
2935 Clouds 26 1015 54 10000 3.1 80 19:46 27.08.2019
2936 Clouds 26 1015 54 10000 3.1 80 19:28 27.08.2019
2937 Clouds 27 1015 48 10000 4.6 60 18:59 27.08.2019
2938 Clouds 30 1015 48 10000 4.6 60 18:41 27.08.2019
2939 Clouds 30 1015 45 10000 2.1 70 18:18 27.08.2019
2940 Clouds 30 1015 42 10000 2.1 90 17:56 27.08.2019
2941 Clouds 30 1015 45 10000 2.1 70 17:56 27.08.2019
2942 Clouds 30 1015 42 10000 2.1 90 17:37 27.08.2019
2943 Clouds 30 1015 42 10000 2.1 90 17:18 27.08.2019
2944 Clouds 30 1016 48 10000 4.1 80 16:43 27.08.2019
2945 Clouds 30 1016 48 10000 4.1 80 16:24 27.08.2019
2946 Clouds 28 1016 48 10000 4.1 80 15:57 27.08.2019
2947 Clouds 28 1016 48 10000 3.6 90 15:38 27.08.2019
2948 Clouds 28 1016 48 10000 3.6 90 15:19 27.08.2019
2949 Clouds 29 1017 48 10000 3.1 70 14:43 27.08.2019
2950 Clouds 29 1017 48 10000 3.1 70 14:24 27.08.2019
2951 Clouds 29 1017 48 10000 3.1 70 14:24 27.08.2019
2952 Clouds 29 1017 48 10000 3.1 70 13:56 27.08.2019
2953 Clouds 28 1017 51 10000 3.6 110 13:36 27.08.2019
2954 Clouds 28 1017 51 10000 3.6 110 13:18 27.08.2019
2955 Clouds 27 1018 54 10000 2.6 140 12:41 27.08.2019
2956 Clouds 27 1018 54 10000 2.6 140 12:20 27.08.2019
2957 Clouds 26 1018 54 10000 2.6 140 11:56 27.08.2019
2958 Clouds 25 1018 61 10000 2.6 130 11:37 27.08.2019
2959 Clouds 25 1018 61 10000 2.6 130 11:18 27.08.2019
2960 Clouds 22 1018 73 10000 3.6 110 10:40 27.08.2019
2961 Clouds 22 1018 73 10000 3.6 110 10:19 27.08.2019
2962 Clouds 22 1018 73 10000 3.6 110 09:54 27.08.2019
2963 Clouds 20 1018 82 10000 3.1 100 09:36 27.08.2019
2964 Clouds 20 1018 82 10000 3.1 100 09:18 27.08.2019
2965 Clouds 19 1017 82 10000 3.1 90 08:41 27.08.2019
2966 Clouds 19 1017 82 10000 3.1 90 08:41 27.08.2019
2967 Clouds 19 1017 82 10000 3.1 90 08:23 27.08.2019
2968 Clouds 18 1017 88 10000 3.1 80 07:42 27.08.2019
2969 Clouds 18 1017 88 10000 3.1 80 07:20 27.08.2019
2970 Clouds 18 1017 88 10000 3.1 80 06:58 27.08.2019
2971 Clouds 19 1017 88 10000 3.1 80 06:37 27.08.2019
2972 Clouds 19 1017 82 10000 2.6 90 06:18 27.08.2019
2973 Clouds 19 1018 77 10000 2.1 90 05:24 27.08.2019
2974 Rain 20 1018 68 10000 2.6 90 03:42 27.08.2019
2975 Rain 20 1018 68 10000 2.6 90 02:26 27.08.2019
2976 Rain 20 1018 68 10000 2.6 90 01:45 27.08.2019
2977 Rain 20 1018 68 10000 2.6 90 01:23 27.08.2019
2978 Clouds 20 1018 64 10000 3.6 90 00:46 27.08.2019
2979 Clouds 21 1018 56 10000 3.6 90 00:25 27.08.2019
2980 Clouds 21 1018 64 10000 2.6 80 23:40 26.08.2019
2981 Clouds 21 1018 64 10000 2.6 80 23:21 26.08.2019
2982 Clouds 21 1018 64 10000 2.6 80 22:54 26.08.2019
2983 Clouds 22 1018 69 10000 2.1 70 22:36 26.08.2019
2984 Clouds 22 1018 69 10000 2.1 70 22:18 26.08.2019
2985 Clouds 22 1018 65 10000 2.1 60 21:39 26.08.2019
2986 Clouds 22 1018 65 10000 2.1 60 21:20 26.08.2019
2987 Clouds 23 1018 61 10000 1.5 60 20:57 26.08.2019
2988 Clouds 25 1018 54 10000 2.1 50 20:39 26.08.2019
2989 Clouds 25 1018 54 10000 2.1 50 20:19 26.08.2019
2990 Clouds 24 1018 54 10000 2.1 50 19:54 26.08.2019
2991 Clouds 26 1018 51 10000 3.1 50 19:36 26.08.2019
2992 Clouds 26 1018 51 10000 3.1 50 19:18 26.08.2019
2993 Clouds 27 1018 45 10000 4.1 60 18:39 26.08.2019
2994 Clouds 27 1018 45 10000 4.1 60 18:20 26.08.2019
2995 Clouds 27 1018 45 10000 4.1 60 17:56 26.08.2019
2996 Clouds 27 1018 43 10000 1.5 160 17:37 26.08.2019
2997 Clouds 27 1018 43 10000 1.5 160 17:18 26.08.2019
2998 Clouds 27 1018 43 10000 1.5 160 16:55 26.08.2019
2999 Clouds 27 1019 43 10000 3.1 140 16:37 26.08.2019
3000 Clouds 27 1019 43 10000 3.1 140 16:18 26.08.2019
3001 Clouds 26 1019 43 10000 3.1 140 15:41 26.08.2019
3002 Clouds 27 1019 48 10000 3.1 130 15:21 26.08.2019
3003 Clouds 26 1019 48 10000 3.1 130 14:46 26.08.2019
3004 Clouds 26 1019 51 10000 2.1 120 14:23 26.08.2019
3005 Clouds 26 1019 51 10000 2.1 120 13:59 26.08.2019
3006 Clouds 26 1020 54 10000 2.6 80 13:38 26.08.2019
3007 Clouds 26 1020 54 10000 2.6 80 13:19 26.08.2019
3008 Clouds 26 1020 57 10000 2.6 90 12:43 26.08.2019
3009 Clouds 26 1020 57 10000 2.6 90 12:43 26.08.2019
3010 Clouds 26 1020 57 10000 2.6 90 12:25 26.08.2019
3011 Clouds 26 1020 57 10000 2.6 90 11:56 26.08.2019
3012 Clear 24 1020 64 10000 1.5 100 11:36 26.08.2019
3013 Clear 24 1020 64 10000 1.5 100 11:18 26.08.2019
3014 Clear 23 1020 64 10000 1.5 100 10:42 26.08.2019
3015 Clouds 22 1020 77 10000 2.1 80 10:21 26.08.2019
3016 Clouds 22 1020 77 10000 2.1 80 09:57 26.08.2019
3017 Clouds 20 1020 88 8000 1.5 80 09:38 26.08.2019
3018 Clouds 20 1020 88 8000 1.5 80 09:19 26.08.2019
3019 Clouds 19 1020 88 8000 1.5 80 08:42 26.08.2019
3020 Fog 18 1020 93 7000 1.5 80 08:23 26.08.2019
3021 Fog 18 1020 93 7000 1.5 80 07:59 26.08.2019
3022 Fog 18 1019 88 7000 2.6 70 07:40 26.08.2019
3023 Fog 18 1019 88 7000 2.6 70 07:21 26.08.2019
3024 Fog 17 1019 88 7000 2.6 70 06:42 26.08.2019
3025 Clear 17 1019 93 10000 2.6 80 06:22 26.08.2019
3026 Clear 18 1019 93 10000 2.6 80 05:49 26.08.2019
3027 Clear 18 1020 88 10000 2.1 70 04:28 26.08.2019
3028 Clear 19 1020 82 10000 2.1 70 02:55 26.08.2019
3029 Clouds 20 1020 77 10000 2.1 70 01:39 26.08.2019
3030 Clouds 20 1020 77 10000 2.1 70 01:18 26.08.2019
3031 Clouds 20 1020 77 10000 2.1 70 00:29 26.08.2019
3032 Clouds 20 1020 77 10000 2.1 70 23:59 25.08.2019
3033 Clouds 21 1020 73 10000 2.1 70 23:40 25.08.2019
3034 Clouds 21 1020 73 10000 2.1 70 23:18 25.08.2019
3035 Clouds 21 1020 73 10000 2.1 70 23:18 25.08.2019
3036 Clouds 21 1020 73 10000 2.1 70 22:56 25.08.2019
3037 Clouds 21 1020 73 10000 2.6 40 22:38 25.08.2019
3038 Clouds 21 1020 73 10000 2.6 40 22:19 25.08.2019
3039 Clouds 21 1020 73 10000 2.6 40 21:56 25.08.2019
3040 Clouds 22 1020 64 10000 3.1 30 21:37 25.08.2019
3041 Clouds 22 1020 64 10000 3.1 30 21:18 25.08.2019
3042 Clouds 23 1020 64 10000 3.1 30 20:40 25.08.2019
3043 Clouds 24 1020 50 10000 4.1 20 20:20 25.08.2019
3044 Clouds 24 1020 50 10000 4.1 20 19:56 25.08.2019
3045 Clouds 26 1020 47 10000 4.1 30 19:38 25.08.2019
3046 Clouds 26 1020 47 10000 4.1 30 19:18 25.08.2019
3047 Clouds 26 1020 47 10000 4.1 30 18:57 25.08.2019
3048 Clouds 28 1020 45 10000 4.1 60 18:39 25.08.2019
3049 Clouds 28 1020 45 10000 4.1 60 18:19 25.08.2019
3050 Clouds 28 1020 45 10000 4.1 60 17:42 25.08.2019
3051 Clouds 28 1020 42 10000 3.6 80 17:24 25.08.2019
3052 Clouds 28 1020 42 10000 3.6 80 16:45 25.08.2019
3053 Clouds 28 1020 39 10000 2.1 80 16:25 25.08.2019
3054 Clouds 28 1020 39 10000 2.1 80 15:59 25.08.2019
3055 Clouds 28 1020 39 10000 2.1 80 15:41 25.08.2019
3056 Clouds 28 1020 39 10000 2.6 100 15:23 25.08.2019
3057 Clouds 28 1020 39 10000 2.6 100 14:42 25.08.2019
3058 Clouds 28 1020 39 10000 3.1 120 14:24 25.08.2019
3059 Clouds 28 1020 39 10000 3.1 120 13:56 25.08.2019
3060 Clouds 27 1021 51 10000 3.1 140 13:37 25.08.2019
3061 Clouds 27 1021 51 10000 3.1 140 13:18 25.08.2019
3062 Clouds 27 1021 51 10000 3.1 140 12:42 25.08.2019
3063 Clouds 25 1021 57 10000 3.1 100 12:24 25.08.2019
3064 Clouds 25 1021 57 10000 3.1 100 11:58 25.08.2019
3065 Clouds 23 1021 60 10000 2.6 110 11:38 25.08.2019
3066 Clouds 23 1021 60 10000 2.6 110 11:20 25.08.2019
3067 Clouds 23 1021 60 10000 2.6 110 10:57 25.08.2019
3068 Clouds 21 1021 72 10000 3.1 100 10:38 25.08.2019
3069 Clouds 21 1021 72 10000 3.1 100 10:19 25.08.2019
3070 Clouds 20 1021 72 10000 3.1 100 09:44 25.08.2019
3071 Clouds 19 1021 82 10000 3.6 90 09:24 25.08.2019
3072 Clouds 18 1021 82 10000 3.6 90 08:48 25.08.2019
3073 Fog 17 1021 87 10000 2.6 100 08:29 25.08.2019
3074 Fog 17 1021 87 10000 2.6 100 07:55 25.08.2019
3075 Fog 17 1021 87 10000 3.1 100 07:33 25.08.2019
3076 Fog 17 1021 87 10000 3.1 100 06:39 25.08.2019
3077 Clear 16 1021 93 10000 3.1 90 05:35 25.08.2019
3078 Clear 18 1021 87 10000 3.1 90 03:51 25.08.2019
3079 Clear 18 1021 82 10000 3.1 90 02:55 25.08.2019
3080 Clear 18 1021 77 10000 3.6 90 02:36 25.08.2019
3081 Clear 18 1021 77 10000 2.6 100 00:58 25.08.2019
3082 Clear 19 1021 77 10000 2.6 90 00:24 25.08.2019
3083 Clear 19 1021 77 10000 2.6 90 23:59 24.08.2019
3084 Clear 20 1021 72 10000 1.5 90 23:40 24.08.2019
3085 Clear 20 1021 72 10000 1.5 90 23:22 24.08.2019
3086 Clear 20 1021 72 10000 1.5 90 22:54 24.08.2019
3087 Clouds 21 1021 64 10000 1.5 90 22:36 24.08.2019
3088 Clouds 21 1021 64 10000 1.5 90 22:18 24.08.2019
3089 Clouds 22 1021 64 10000 1.5 90 21:42 24.08.2019
3090 Clouds 22 1021 64 10000 2.6 70 21:24 24.08.2019
3091 Clouds 22 1021 64 10000 2.6 70 20:59 24.08.2019
3092 Clouds 22 1021 64 10000 2.6 70 20:41 24.08.2019
3093 Clear 25 1021 53 10000 4.6 70 20:20 24.08.2019
3094 Clear 25 1021 53 10000 4.6 70 19:59 24.08.2019
3095 Clear 25 1021 53 10000 4.6 70 19:40 24.08.2019
3096 Clear 27 1021 39 10000 3.6 100 19:22 24.08.2019
3097 Clear 27 1021 39 10000 3.6 100 18:57 24.08.2019
3098 Clouds 28 1022 34 10000 3.6 110 18:37 24.08.2019
3099 Clouds 28 1022 34 10000 3.6 110 18:19 24.08.2019
3100 Clouds 28 1022 34 10000 3.6 110 17:43 24.08.2019
3101 Clouds 28 1022 32 10000 4.1 110 17:24 24.08.2019
3102 Clouds 28 1022 32 10000 4.1 110 16:44 24.08.2019
3103 Clouds 28 1022 34 10000 4.6 120 16:20 24.08.2019
3104 Clouds 28 1022 34 10000 4.6 120 15:57 24.08.2019
3105 Clouds 27 1023 39 10000 4.6 110 15:38 24.08.2019
3106 Clouds 27 1023 39 10000 4.6 110 15:20 24.08.2019
3107 Clouds 26 1023 39 10000 4.6 110 14:42 24.08.2019
3108 Clouds 26 1023 44 10000 3.6 110 14:21 24.08.2019
3109 Clouds 26 1023 44 10000 3.6 110 13:56 24.08.2019
3110 Clouds 25 1024 47 10000 3.6 120 13:37 24.08.2019
3111 Clouds 25 1024 47 10000 3.6 120 13:18 24.08.2019
3112 Clouds 25 1024 47 10000 3.6 120 12:42 24.08.2019
3113 Clouds 23 1024 56 10000 4.1 110 12:24 24.08.2019
3114 Clouds 23 1024 56 10000 4.1 110 11:57 24.08.2019
3115 Clouds 21 1024 64 10000 5.7 90 11:38 24.08.2019
3116 Clouds 21 1024 64 10000 5.7 90 11:18 24.08.2019
3117 Clouds 20 1024 64 10000 5.7 90 10:43 24.08.2019
3118 Clouds 20 1024 64 10000 5.7 90 10:43 24.08.2019
3119 Clouds 20 1024 77 10000 5.1 90 10:22 24.08.2019
3120 Clouds 19 1024 77 10000 5.1 90 09:44 24.08.2019
3121 Clouds 17 1024 93 10000 3.6 80 09:20 24.08.2019
3122 Clouds 17 1024 93 10000 3.6 80 08:56 24.08.2019
3123 Fog 16 1024 93 10000 3.1 100 08:37 24.08.2019
3124 Fog 16 1024 93 10000 3.1 100 08:18 24.08.2019
3125 Fog 15 1024 93 10000 3.1 100 07:44 24.08.2019
3126 Fog 15 1024 93 10000 3.6 90 07:24 24.08.2019
3127 Clear 15 1025 100 2200 3.6 70 06:24 24.08.2019
3128 Clear 16 1025 100 2200 3.6 70 05:40 24.08.2019
3129 Clear 15 1025 100 50 2.1 90 03:56 24.08.2019
3130 Clear 15 1025 93 50 2.1 80 03:35 24.08.2019
3131 Clouds 16 1025 93 50 2.1 90 02:25 24.08.2019
3132 Clear 16 1025 88 4100 2.1 80 01:31 24.08.2019
3133 Clear 16 1025 88 4100 2.1 80 00:52 24.08.2019
3134 Clear 16 1025 88 5000 2.1 70 00:25 24.08.2019
3135 Clouds 16 1025 88 5000 2.1 70 23:57 23.08.2019
3136 Clouds 17 1025 88 7000 2.1 50 23:37 23.08.2019
3137 Clouds 17 1025 88 7000 2.1 50 23:18 23.08.2019
3138 Clouds 18 1026 82 10000 2.1 50 22:42 23.08.2019
3139 Clouds 18 1026 82 10000 2.1 50 22:23 23.08.2019
3140 Clouds 19 1026 82 10000 2.1 50 21:40 23.08.2019
3141 Clouds 19 1025 72 10000 2.6 20 21:21 23.08.2019
3142 Clouds 19 1025 72 10000 2.6 20 20:56 23.08.2019
3143 Clouds 21 1025 64 10000 2.6 10 20:38 23.08.2019
3144 Clouds 21 1025 64 10000 2.6 10 20:19 23.08.2019
3145 Clouds 21 1025 64 10000 2.6 10 19:43 23.08.2019
3146 Clouds 22 1025 60 10000 3.6 340 19:18 23.08.2019
3147 Clouds 21 1025 60 10000 3.6 340 18:46 23.08.2019
3148 Clouds 22 1025 56 10000 2.6 320 18:28 23.08.2019
3149 Clouds 22 1025 56 10000 2.6 320 17:56 23.08.2019
3150 Clouds 23 1026 56 10000 3.1 290 17:38 23.08.2019
3151 Clouds 23 1026 56 10000 3.1 290 17:20 23.08.2019
3152 Clouds 22 1026 56 10000 3.1 290 16:47 23.08.2019
3153 Clouds 22 1026 53 10000 2.6 250 16:29 23.08.2019
3154 Clouds 22 1026 53 10000 2.6 250 15:56 23.08.2019
3155 Clouds 22 1026 49 10000 3.1 260 15:37 23.08.2019
3156 Clouds 22 1026 49 10000 3.1 260 15:19 23.08.2019
3157 Clouds 23 1026 49 10000 3.6 240 14:41 23.08.2019
3158 Clouds 23 1026 49 10000 3.6 240 14:21 23.08.2019
3159 Clouds 23 1026 49 10000 3.6 240 13:57 23.08.2019
3160 Clouds 22 1026 46 10000 3.1 250 13:39 23.08.2019
3161 Clouds 22 1026 46 10000 3.1 250 13:21 23.08.2019
3162 Clouds 22 1026 46 10000 3.1 250 12:57 23.08.2019
3163 Clouds 20 1026 49 10000 3.6 240 12:39 23.08.2019
3164 Clouds 20 1026 49 10000 3.6 240 12:20 23.08.2019
3165 Clouds 20 1026 49 10000 3.6 240 11:56 23.08.2019
3166 Clouds 20 1026 55 10000 3.6 250 11:37 23.08.2019
3167 Clouds 20 1026 55 10000 3.6 250 11:18 23.08.2019
3168 Clouds 18 1026 55 10000 3.6 250 10:43 23.08.2019
3169 Clouds 18 1026 68 8000 3.1 250 10:22 23.08.2019
3170 Clouds 18 1026 68 8000 3.1 250 09:57 23.08.2019
3171 Clouds 16 1025 77 7000 3.1 220 09:38 23.08.2019
3172 Clouds 16 1025 77 7000 3.1 220 09:18 23.08.2019
3173 Clouds 15 1025 77 7000 3.1 220 08:41 23.08.2019
3174 Fog 15 1025 87 5000 3.1 220 08:19 23.08.2019
3175 Fog 14 1025 87 5000 3.1 220 07:43 23.08.2019
3176 Fog 13 1025 87 6000 2.1 210 07:24 23.08.2019
3177 Fog 13 1025 87 6000 2.1 210 07:24 23.08.2019
3178 Fog 13 1025 87 6000 2.1 210 06:57 23.08.2019
3179 Fog 14 1025 82 6000 2.6 210 06:39 23.08.2019
3180 Fog 14 1025 82 6000 2.6 210 06:38 23.08.2019
3181 Fog 14 1025 82 6000 2.6 210 06:20 23.08.2019
3182 Clouds 14 1025 82 10000 1.5 180 05:34 23.08.2019
3183 Clouds 14 1025 82 10000 1.5 180 04:52 23.08.2019
3184 Clouds 14 1025 87 10000 1 180 03:22 23.08.2019
3185 Clouds 14 1025 93 10000 1 180 02:23 23.08.2019
3186 Clouds 14 1025 93 10000 1 180 01:47 23.08.2019
3187 Clouds 15 1025 93 10000 1 180 00:46 23.08.2019
3188 Clouds 15 1025 87 10000 1 180 00:21 23.08.2019
3189 Clouds 17 1025 87 10000 1 180 23:50 22.08.2019
3190 Clouds 16 1025 87 10000 6.14 240.654 23:32 22.08.2019
3191 Clouds 16 1025 87 10000 6.14 240.654 22:58 22.08.2019
3192 Clouds 16 1025 87 10000 6.14 240.654 22:58 22.08.2019
3193 Clouds 17 1025 87 10000 6.14 240.654 22:40 22.08.2019
3194 Clouds 17 1025 82 10000 0.5 160 22:21 22.08.2019
3195 Clouds 17 1025 82 10000 0.5 160 21:57 22.08.2019
3196 Clouds 19 1024 72 10000 0.5 340 21:39 22.08.2019
3197 Clouds 19 1024 72 10000 0.5 340 21:19 22.08.2019
3198 Clouds 19 1024 68 10000 2.1 330 20:57 22.08.2019
3199 Clouds 21 1024 64 10000 4.1 330 20:38 22.08.2019
3200 Clouds 21 1024 64 10000 4.1 330 20:18 22.08.2019
3201 Clouds 21 1024 64 10000 4.1 330 20:18 22.08.2019
3202 Clouds 21 1024 64 10000 4.1 330 19:56 22.08.2019
3203 Clouds 21 1024 49 10000 5.1 330 19:37 22.08.2019
3204 Clouds 21 1024 49 10000 5.1 330 19:19 22.08.2019
3205 Clouds 21 1024 49 10000 5.1 330 18:56 22.08.2019
3206 Clouds 23 1023 38 10000 5.1 240 18:37 22.08.2019
3207 Clouds 23 1023 38 10000 5.1 240 18:18 22.08.2019
3208 Clouds 23 1023 38 10000 5.1 240 17:42 22.08.2019
3209 Clouds 23 1024 41 10000 6.2 260 17:23 22.08.2019
3210 Clouds 23 1024 41 10000 6.2 260 16:58 22.08.2019
3211 Clouds 24 1024 38 10000 6.2 240 16:40 22.08.2019
3212 Clouds 24 1024 38 10000 6.2 240 16:21 22.08.2019
3213 Clouds 24 1024 38 10000 6.2 240 15:59 22.08.2019
3214 Clouds 24 1024 38 10000 6.2 240 15:59 22.08.2019
3215 Clouds 24 1024 41 10000 5.7 210 15:38 22.08.2019
3216 Clouds 24 1024 41 10000 5.7 210 15:38 22.08.2019
3217 Clouds 24 1024 41 10000 5.7 210 15:38 22.08.2019
3218 Clouds 24 1024 41 10000 5.7 210 15:38 22.08.2019
3219 Clouds 24 1024 41 10000 5.7 210 15:19 22.08.2019
3220 Clouds 24 1024 41 10000 5.7 210 15:19 22.08.2019
3221 Clouds 24 1024 41 10000 5.7 210 15:19 22.08.2019
3222 Clouds 24 1024 41 10000 5.7 210 15:19 22.08.2019
3223 Clouds 24 1024 41 10000 5.7 210 14:41 22.08.2019
3224 Clouds 24 1024 38 10000 4.6 210 14:22 22.08.2019
3225 Clouds 24 1024 38 10000 4.6 210 13:59 22.08.2019
3226 Clouds 23 1025 43 10000 4.1 200 13:41 22.08.2019
3227 Clouds 23 1025 43 10000 4.1 200 13:41 22.08.2019
3228 Clouds 23 1025 43 10000 4.1 200 13:22 22.08.2019
3229 Clouds 23 1025 43 10000 4.1 200 12:59 22.08.2019
3230 Clouds 21 1025 49 10000 3.1 200 12:39 22.08.2019
3231 Clouds 21 1025 49 10000 3.1 200 12:20 22.08.2019
3232 Clouds 21 1025 49 10000 3.1 200 12:20 22.08.2019
3233 Clouds 21 1025 49 10000 3.1 200 11:43 22.08.2019
3234 Clouds 20 1025 55 10000 3.1 180 11:22 22.08.2019
3235 Clouds 20 1025 55 10000 3.1 180 10:59 22.08.2019
3236 Clouds 19 1025 55 10000 3.1 180 10:41 22.08.2019
3237 Clouds 19 1025 55 10000 3.1 180 10:41 22.08.2019
3238 Clouds 17 1025 67 10000 2.6 160 10:23 22.08.2019
3239 Clouds 17 1025 67 10000 2.6 160 10:00 22.08.2019
3240 Clouds 16 1025 67 10000 2.6 160 09:39 22.08.2019
3241 Clouds 15 1026 67 10000 2.6 150 09:21 22.08.2019
3242 Clouds 15 1026 67 10000 2.6 150 08:58 22.08.2019
3243 Clouds 14 1026 67 10000 2.6 150 08:39 22.08.2019
3244 Fog 14 1026 71 10000 3.1 150 08:20 22.08.2019
3245 Fog 13 1026 71 10000 3.6 160 07:41 22.08.2019
3246 Fog 13 1026 71 10000 3.6 160 07:23 22.08.2019
3247 Fog 13 1026 71 10000 3.6 160 06:55 22.08.2019
3248 Fog 13 1026 71 10000 3.6 150 06:25 22.08.2019
3249 Fog 13 1026 71 10000 3.6 150 05:59 22.08.2019
3250 Clouds 14 1026 67 10000 3.1 150 04:39 22.08.2019
3251 Clouds 14 1027 76 10000 3.6 160 02:52 22.08.2019
3252 Clouds 14 1027 76 10000 4.1 150 02:34 22.08.2019
3253 Clouds 14 1027 76 10000 2.6 150 01:25 22.08.2019
3254 Clouds 15 1027 76 10000 2.6 150 00:45 22.08.2019
3255 Clouds 15 1027 72 10000 2.6 130 00:27 22.08.2019
3256 Clouds 15 1027 72 10000 2.6 130 23:55 21.08.2019
3257 Clouds 15 1027 77 10000 2.6 120 23:37 21.08.2019
3258 Clouds 15 1027 77 10000 2.6 120 23:18 21.08.2019
3259 Clouds 15 1027 77 10000 2.6 120 22:55 21.08.2019
3260 Clouds 15 1027 77 10000 1.5 90 22:36 21.08.2019
3261 Clouds 15 1027 77 10000 1.5 90 22:18 21.08.2019
3262 Clouds 15 1027 77 10000 1.5 90 21:55 21.08.2019
3263 Clouds 15 1027 77 10000 1.5 90 21:55 21.08.2019
3264 Clouds 17 1027 72 10000 1.5 100 21:36 21.08.2019
3265 Clouds 17 1027 72 10000 1.5 100 21:18 21.08.2019
3266 Clouds 19 1027 67 10000 0.5 30 20:42 21.08.2019
3267 Clouds 19 1027 67 10000 0.5 30 20:42 21.08.2019
3268 Clouds 19 1027 59 10000 1 330 20:23 21.08.2019
3269 Clouds 19 1027 59 10000 1 330 19:56 21.08.2019
3270 Clouds 20 1027 52 10000 2.6 320 19:38 21.08.2019
3271 Clouds 20 1027 52 10000 2.6 320 19:20 21.08.2019
3272 Clouds 20 1027 49 10000 2.1 300 18:43 21.08.2019
3273 Clouds 20 1027 49 10000 2.1 300 18:23 21.08.2019
3274 Clouds 20 1027 49 10000 2.1 300 17:57 21.08.2019
3275 Clouds 21 1027 49 10000 3.1 290 17:38 21.08.2019
3276 Clouds 21 1027 49 10000 3.1 290 17:20 21.08.2019
3277 Clouds 20 1027 49 10000 3.1 290 16:45 21.08.2019
3278 Clouds 20 1027 52 10000 3.6 300 16:24 21.08.2019
3279 Clouds 20 1027 52 10000 3.6 300 15:59 21.08.2019
3280 Clouds 21 1027 52 10000 3.6 300 15:41 21.08.2019
3281 Clouds 21 1027 52 10000 3.6 300 15:41 21.08.2019
3282 Clouds 20 1027 59 10000 3.6 300 15:22 21.08.2019
3283 Clouds 20 1027 59 10000 3.6 300 14:58 21.08.2019
3284 Clouds 20 1027 52 10000 4.6 260 14:39 21.08.2019
3285 Clouds 20 1027 52 10000 4.6 260 14:20 21.08.2019
3286 Clouds 20 1027 52 10000 4.6 260 13:58 21.08.2019
3287 Clouds 20 1027 52 10000 4.6 260 13:40 21.08.2019
3288 Clouds 19 1028 68 10000 3.6 260 13:19 21.08.2019
3289 Clouds 18 1028 68 10000 3.6 260 12:43 21.08.2019
3290 Clouds 17 1028 72 10000 2.6 240 12:25 21.08.2019
3291 Clouds 17 1028 72 10000 2.6 240 11:59 21.08.2019
3292 Clouds 19 1028 72 10000 2.6 240 11:41 21.08.2019
3293 Clouds 18 1027 82 10000 2.6 240 11:22 21.08.2019
3294 Clouds 18 1027 82 10000 2.6 240 10:57 21.08.2019
3295 Clouds 16 1027 82 10000 4.6 260 10:38 21.08.2019
3296 Clouds 16 1027 82 10000 4.6 260 10:20 21.08.2019
3297 Clouds 16 1027 82 10000 4.6 260 09:57 21.08.2019
3298 Rain 15 1027 93 10000 2.1 240 09:37 21.08.2019
3299 Rain 15 1027 93 10000 2.1 240 09:18 21.08.2019
3300 Rain 15 1027 93 10000 2.1 240 09:18 21.08.2019
3301 Rain 14 1027 93 10000 2.1 240 08:46 21.08.2019
3302 Rain 13 1026 93 10000 3.1 220 08:24 21.08.2019
3303 Rain 13 1026 93 10000 3.1 220 07:44 21.08.2019
3304 Fog 12 1025 93 10000 4.1 220 07:24 21.08.2019
3305 Fog 13 1025 93 10000 4.1 220 06:50 21.08.2019
3306 Clouds 13 1025 93 10000 3.1 220 06:32 21.08.2019
3307 Clouds 13 1025 93 10000 3.1 220 05:56 21.08.2019
3308 Clouds 13 1025 93 10000 3.1 220 05:28 21.08.2019
3309 Clouds 13 1025 93 10000 2.6 220 04:26 21.08.2019
3310 Clouds 14 1024 93 10000 2.6 220 01:55 21.08.2019
3311 Clouds 14 1024 93 10000 3.1 220 01:24 21.08.2019
3312 Clouds 14 1024 93 10000 2.6 210 00:39 21.08.2019
3313 Clouds 14 1024 93 10000 2.6 210 00:20 21.08.2019
3314 Clouds 15 1024 93 10000 2.6 210 23:44 20.08.2019
3315 Clouds 15 1023 87 10000 2.1 250 23:20 20.08.2019
3316 Clouds 15 1023 87 10000 2.1 250 22:59 20.08.2019
3317 Clouds 15 1023 87 10000 2.1 250 22:40 20.08.2019
3318 Clouds 16 1023 87 10000 1.5 280 22:21 20.08.2019
3319 Clouds 16 1023 87 10000 1.5 280 21:58 20.08.2019
3320 Clouds 16 1023 87 10000 1 0 21:39 20.08.2019
3321 Clouds 16 1023 87 10000 1 0 21:19 20.08.2019
3322 Clouds 17 1023 82 10000 2.1 230 20:58 20.08.2019
3323 Clouds 18 1023 82 10000 2.1 230 20:40 20.08.2019
3324 Clouds 17 1022 82 10000 1 300 20:21 20.08.2019
3325 Clouds 18 1022 87 10000 3.1 310 19:39 20.08.2019
3326 Clouds 18 1022 87 10000 3.1 310 19:21 20.08.2019
3327 Rain 18 1022 77 4000 3.1 260 18:57 20.08.2019
3328 Rain 17 1022 72 10000 1.5 340 18:39 20.08.2019
3329 Rain 17 1022 72 10000 1.5 340 18:39 20.08.2019
3330 Rain 17 1022 72 10000 1.5 340 18:39 20.08.2019
3331 Rain 17 1022 72 10000 1.5 340 18:19 20.08.2019
3332 Rain 17 1022 72 10000 1.5 340 17:57 20.08.2019
3333 Rain 19 1022 72 4000 2.6 260 17:38 20.08.2019
3334 Rain 20 1021 59 10000 5.1 310 17:19 20.08.2019
3335 Clouds 20 1021 52 10000 5.7 310 16:45 20.08.2019
3336 Clouds 20 1021 52 10000 5.7 310 16:26 20.08.2019
3337 Clouds 20 1021 52 10000 5.7 310 15:56 20.08.2019
3338 Clouds 18 1021 59 10000 4.6 290 15:38 20.08.2019
3339 Clouds 18 1021 59 10000 4.6 290 15:18 20.08.2019
3340 Clouds 21 1020 56 10000 5.7 260 14:43 20.08.2019
3341 Clouds 21 1020 56 10000 5.7 260 14:22 20.08.2019
3342 Clouds 21 1020 56 10000 5.7 260 14:22 20.08.2019
3343 Clouds 21 1020 56 10000 5.7 260 13:57 20.08.2019
3344 Clouds 21 1020 56 10000 5.7 260 13:57 20.08.2019
3345 Clouds 20 1020 59 10000 6.2 260 13:39 20.08.2019
3346 Clouds 20 1020 59 10000 6.2 260 13:20 20.08.2019
3347 Clouds 20 1020 63 10000 4.6 250 12:51 20.08.2019
3348 Clouds 20 1020 63 10000 4.6 250 12:31 20.08.2019
3349 Clouds 20 1020 63 10000 4.6 250 11:59 20.08.2019
3350 Clouds 18 1019 77 10000 4.1 240 11:40 20.08.2019
3351 Clouds 18 1019 77 10000 4.1 240 11:21 20.08.2019
3352 Clouds 18 1019 77 10000 4.1 240 10:57 20.08.2019
3353 Clouds 16 1019 82 10000 4.1 240 10:38 20.08.2019
3354 Clouds 16 1019 82 10000 4.1 240 10:20 20.08.2019
3355 Clouds 16 1019 82 10000 4.1 240 09:56 20.08.2019
3356 Clouds 15 1018 87 10000 4.1 230 09:38 20.08.2019
3357 Clouds 15 1018 87 10000 4.1 230 09:20 20.08.2019
3358 Clouds 14 1018 87 10000 3.6 220 08:41 20.08.2019
3359 Clouds 14 1018 87 10000 3.6 220 08:23 20.08.2019
3360 Clouds 13 1018 87 10000 3.6 220 07:57 20.08.2019
3361 Clouds 13 1018 87 10000 4.1 220 07:38 20.08.2019
3362 Clouds 13 1018 87 10000 4.1 220 07:20 20.08.2019
3363 Clouds 14 1017 82 10000 3.6 210 06:43 20.08.2019
3364 Clouds 14 1017 82 10000 3.6 210 06:19 20.08.2019
3365 Clouds 13 1017 87 10000 3.6 210 05:41 20.08.2019
3366 Clouds 13 1017 87 10000 3.1 210 04:23 20.08.2019
3367 Clouds 14 1017 82 10000 3.6 220 02:48 20.08.2019
3368 Clouds 14 1017 82 10000 3.6 220 01:53 20.08.2019
3369 Clouds 14 1017 93 10000 3.1 210 01:20 20.08.2019
3370 Fog 14 1016 100 10000 2.1 200 00:44 20.08.2019
3371 Fog 14 1016 100 10000 2.1 200 00:24 20.08.2019
3372 Clouds 14 1016 93 10000 1.5 210 23:44 19.08.2019
3373 Clouds 14 1016 93 10000 1.5 210 23:19 19.08.2019
3374 Clouds 14 1016 93 10000 1.5 210 22:58 19.08.2019
3375 Clouds 15 1016 93 10000 1.5 220 22:40 19.08.2019
3376 Clouds 15 1016 93 10000 1.5 220 22:20 19.08.2019
3377 Clouds 15 1016 93 10000 1.5 220 21:57 19.08.2019
3378 Clouds 16 1016 93 10000 3.1 290 21:38 19.08.2019
3379 Clouds 16 1016 93 10000 3.1 290 21:19 19.08.2019
3380 Clouds 16 1016 93 10000 3.1 290 20:54 19.08.2019
3381 Rain 18 1015 59 10000 4.1 240 20:36 19.08.2019
3382 Rain 18 1015 59 10000 4.1 240 20:18 19.08.2019
3383 Rain 18 1015 59 10000 4.1 240 19:54 19.08.2019
3384 Rain 19 1015 59 10000 4.1 240 19:36 19.08.2019
3385 Rain 19 1014 63 10000 5.1 230 19:18 19.08.2019
3386 Rain 20 1014 63 10000 5.1 230 18:41 19.08.2019
3387 Rain 20 1014 68 10000 5.1 220 18:22 19.08.2019
3388 Rain 20 1014 68 10000 5.1 220 17:56 19.08.2019
3389 Rain 20 1014 63 10000 2.6 260 17:38 19.08.2019
3390 Rain 20 1014 63 10000 2.6 260 17:19 19.08.2019
3391 Rain 20 1014 63 10000 2.6 260 16:54 19.08.2019
3392 Clouds 21 1014 53 10000 6.7 250 16:36 19.08.2019
3393 Clouds 21 1014 53 10000 6.7 250 16:18 19.08.2019
3394 Clouds 21 1014 53 10000 6.7 250 15:44 19.08.2019
3395 Clouds 20 1013 56 10000 7.2 230 15:19 19.08.2019
3396 Clouds 20 1013 56 10000 7.2 230 14:54 19.08.2019
3397 Clouds 19 1013 56 10000 7.2 240 14:36 19.08.2019
3398 Clouds 19 1013 56 10000 7.2 240 14:18 19.08.2019
3399 Clouds 19 1013 56 10000 7.2 240 13:54 19.08.2019
3400 Clouds 19 1012 68 10000 6.2 230 13:36 19.08.2019
3401 Clouds 19 1012 68 10000 6.2 230 13:18 19.08.2019
3402 Clouds 19 1012 68 10000 6.2 230 12:41 19.08.2019
3403 Clouds 18 1012 72 10000 6.2 230 12:22 19.08.2019
3404 Clouds 18 1012 72 10000 6.2 230 11:55 19.08.2019
3405 Clouds 18 1011 77 10000 6.2 230 11:36 19.08.2019
3406 Clouds 18 1011 77 10000 6.2 230 11:18 19.08.2019
3407 Clouds 17 1011 82 10000 6.2 230 10:39 19.08.2019
3408 Clouds 17 1011 82 10000 6.2 230 10:19 19.08.2019
3409 Clouds 16 1011 87 10000 6.2 220 09:55 19.08.2019
3410 Clouds 15 1011 87 10000 6.2 220 09:37 19.08.2019
3411 Clouds 15 1011 87 10000 6.2 220 09:19 19.08.2019
3412 Clouds 14 1010 87 10000 6.7 220 08:45 19.08.2019
3413 Clouds 14 1010 87 10000 4.6 220 08:25 19.08.2019
3414 Clouds 14 1010 87 10000 4.6 220 07:57 19.08.2019
3415 Clouds 14 1009 87 10000 4.1 210 07:39 19.08.2019
3416 Clouds 14 1009 87 10000 4.1 210 07:19 19.08.2019
3417 Clouds 15 1009 93 10000 3.6 220 06:36 19.08.2019
3418 Rain 15 1009 87 10000 4.1 220 05:28 19.08.2019
3419 Clouds 15 1008 87 10000 3.6 220 04:34 19.08.2019
3420 Clouds 15 1008 93 10000 4.1 220 03:28 19.08.2019
3421 Clouds 15 1008 93 10000 4.1 220 02:53 19.08.2019
3422 Clouds 15 1008 87 10000 3.1 220 01:37 19.08.2019
3423 Clouds 15 1008 87 10000 3.1 220 00:59 19.08.2019
3424 Clouds 15 1007 87 10000 3.1 220 00:37 19.08.2019
3425 Clouds 15 1007 87 10000 3.1 220 00:18 19.08.2019
3426 Clouds 16 1007 82 10000 3.1 230 23:39 18.08.2019
3427 Clouds 16 1007 82 10000 3.1 230 23:20 18.08.2019
3428 Clouds 16 1007 82 10000 3.1 230 22:40 18.08.2019
3429 Clouds 16 1007 93 10000 1.5 200 22:21 18.08.2019
3430 Clouds 16 1007 93 10000 1.5 200 21:57 18.08.2019
3431 Clouds 15 1007 93 10000 1.5 200 21:39 18.08.2019
3432 Clouds 17 1006 82 10000 2.6 270 21:20 18.08.2019
3433 Clouds 17 1006 82 10000 2.6 270 20:58 18.08.2019
3434 Clouds 17 1006 82 10000 2.6 270 20:40 18.08.2019
3435 Clouds 17 1006 82 10000 2.6 270 20:40 18.08.2019
3436 Rain 17 1005 82 10000 4.6 300 20:22 18.08.2019
3437 Rain 17 1005 82 10000 4.6 300 19:42 18.08.2019
3438 Clouds 18 1005 77 10000 3.6 250 19:23 18.08.2019
3439 Clouds 18 1005 77 10000 3.6 250 18:57 18.08.2019
3440 Clouds 19 1004 72 10000 3.6 240 18:39 18.08.2019
3441 Clouds 19 1004 72 10000 3.6 240 18:21 18.08.2019
3442 Clouds 19 1004 72 10000 3.6 240 18:21 18.08.2019
3443 Clouds 19 1004 72 10000 3.6 240 17:55 18.08.2019
3444 Clouds 18 1004 72 10000 4.6 240 17:36 18.08.2019
3445 Clouds 18 1004 72 10000 4.6 240 17:18 18.08.2019
3446 Clouds 19 1004 72 10000 4.6 240 16:55 18.08.2019
3447 Clouds 18 1004 77 10000 5.7 230 16:36 18.08.2019
3448 Clouds 18 1004 77 10000 5.7 230 16:18 18.08.2019
3449 Clouds 17 1004 82 10000 3.6 230 15:40 18.08.2019
3450 Clouds 17 1004 82 10000 3.6 230 15:20 18.08.2019
3451 Clouds 17 1004 82 10000 3.6 230 14:58 18.08.2019
3452 Rain 16 1004 87 10000 2.6 210 14:39 18.08.2019
3453 Rain 16 1004 87 10000 2.6 210 14:19 18.08.2019
3454 Rain 16 1004 87 10000 2.6 210 13:56 18.08.2019
3455 Clouds 15 1004 87 10000 3.1 220 13:38 18.08.2019
3456 Clouds 15 1004 87 10000 3.1 220 13:20 18.08.2019
3457 Clouds 15 1004 87 10000 3.1 220 12:45 18.08.2019
3458 Clouds 16 1004 87 10000 3.1 210 12:23 18.08.2019
3459 Clouds 16 1004 87 10000 3.1 210 11:59 18.08.2019
3460 Clouds 16 1004 87 10000 3.1 210 11:40 18.08.2019
3461 Rain 16 1004 93 4000 3.6 210 11:21 18.08.2019
3462 Rain 16 1004 93 4000 3.6 210 10:41 18.08.2019
3463 Rain 16 1005 93 4500 3.6 230 10:22 18.08.2019
3464 Rain 16 1005 93 5000 3.1 200 09:56 18.08.2019
3465 Rain 16 1004 93 6000 2.1 200 09:37 18.08.2019
3466 Rain 16 1004 93 6000 2.1 200 09:18 18.08.2019
3467 Rain 16 1004 93 6000 2.1 200 08:42 18.08.2019
3468 Clouds 15 1005 100 6000 2.1 220 08:24 18.08.2019
3469 Clouds 15 1005 100 6000 2.1 220 07:49 18.08.2019
3470 Mist 15 1005 100 5000 2.6 210 07:29 18.08.2019
3471 Clouds 16 1005 93 6000 3.1 200 05:50 18.08.2019
3472 Clouds 16 1005 93 7000 2.6 220 04:59 18.08.2019
3473 Clouds 16 1005 100 10000 2.6 230 03:46 18.08.2019
3474 Clouds 17 1006 93 10000 2.1 230 02:50 18.08.2019
3475 Clouds 17 1006 93 10000 2.6 210 02:32 18.08.2019
3476 Clouds 17 1006 93 10000 2.6 210 01:53 18.08.2019
3477 Clouds 16 1005 100 10000 2.6 190 01:26 18.08.2019
3478 Clouds 16 1005 100 10000 2.6 190 01:26 18.08.2019
3479 Clouds 16 1005 100 10000 2.6 190 00:41 18.08.2019
3480 Clouds 16 1006 100 10000 2.6 200 00:20 18.08.2019
3481 Clouds 16 1006 100 10000 2.6 200 23:58 17.08.2019
3482 Clouds 16 1005 100 10000 3.6 210 23:38 17.08.2019
3483 Clouds 16 1005 100 10000 3.6 210 23:38 17.08.2019
3484 Clouds 16 1005 100 10000 3.6 210 23:19 17.08.2019
3485 Clouds 16 1005 100 10000 3.6 210 22:57 17.08.2019
3486 Rain 17 1005 93 8000 6.2 180 22:39 17.08.2019
3487 Rain 17 1005 93 8000 6.2 180 22:20 17.08.2019
3488 Rain 17 1005 93 4000 5.1 210 21:54 17.08.2019
3489 Rain 17 1005 93 8000 4.1 210 21:36 17.08.2019
3490 Rain 17 1005 93 8000 4.1 210 21:18 17.08.2019
3491 Rain 19 1005 82 7000 4.1 210 20:38 17.08.2019
3492 Rain 20 1005 82 7000 4.1 210 20:19 17.08.2019
3493 Clouds 21 1005 73 10000 5.1 220 19:43 17.08.2019
3494 Clouds 21 1005 73 10000 5.1 220 19:24 17.08.2019
3495 Clouds 21 1005 73 10000 5.1 220 18:59 17.08.2019
3496 Clouds 20 1005 77 10000 5.1 210 18:39 17.08.2019
3497 Clouds 20 1005 77 10000 5.1 210 18:18 17.08.2019
3498 Clouds 20 1005 77 10000 5.1 210 17:55 17.08.2019
3499 Clouds 19 1005 77 10000 6.2 220 17:37 17.08.2019
3500 Clouds 19 1005 77 10000 6.2 220 17:18 17.08.2019
3501 Clouds 20 1005 77 10000 6.2 220 16:41 17.08.2019
3502 Clouds 20 1006 82 10000 4.6 230 16:22 17.08.2019
3503 Clouds 20 1006 82 10000 4.6 230 15:57 17.08.2019
3504 Clouds 20 1005 82 10000 5.7 230 15:38 17.08.2019
3505 Clouds 20 1005 82 10000 5.7 230 15:20 17.08.2019
3506 Clouds 20 1005 82 10000 5.7 230 15:20 17.08.2019
3507 Clouds 19 1005 82 10000 5.7 230 14:41 17.08.2019
3508 Clouds 19 1005 88 10000 5.1 220 14:22 17.08.2019
3509 Clouds 18 1005 88 10000 5.1 220 13:47 17.08.2019
3510 Clouds 18 1006 88 8000 5.1 220 13:22 17.08.2019
3511 Drizzle 18 1005 88 4500 4.1 210 12:57 17.08.2019
3512 Drizzle 18 1005 93 4500 5.7 220 12:39 17.08.2019
3513 Drizzle 17 1005 93 4500 5.7 220 12:18 17.08.2019
3514 Clouds 18 1005 82 10000 5.7 210 11:43 17.08.2019
3515 Clouds 17 1005 88 10000 5.7 200 11:21 17.08.2019
3516 Clouds 17 1005 88 10000 5.7 200 10:56 17.08.2019
3517 Drizzle 16 1006 93 10000 4.6 190 10:38 17.08.2019
3518 Drizzle 16 1006 93 10000 4.6 190 10:18 17.08.2019
3519 Drizzle 16 1006 93 10000 4.6 190 09:44 17.08.2019
3520 Drizzle 16 1006 87 6000 3.6 180 09:26 17.08.2019
3521 Drizzle 16 1006 87 6000 3.6 180 08:54 17.08.2019
3522 Clouds 16 1006 87 10000 4.1 180 08:25 17.08.2019
3523 Drizzle 16 1006 87 7000 3.6 190 07:46 17.08.2019
3524 Drizzle 15 1006 93 6000 3.1 190 07:21 17.08.2019
3525 Rain 15 1006 93 9000 4.1 180 06:42 17.08.2019
3526 Rain 16 1007 82 10000 4.1 200 05:31 17.08.2019
3527 Clouds 17 1008 77 10000 3.6 190 04:29 17.08.2019
3528 Clouds 17 1009 72 10000 3.6 180 03:20 17.08.2019
3529 Clouds 17 1010 68 10000 3.6 180 01:46 17.08.2019
3530 Clouds 18 1010 68 10000 3.1 180 01:27 17.08.2019
3531 Clouds 18 1010 68 10000 3.1 180 00:55 17.08.2019
3532 Clouds 18 1011 68 10000 2.6 180 00:28 17.08.2019
3533 Clouds 18 1011 68 10000 2.6 180 23:50 16.08.2019
3534 Clouds 18 1011 63 10000 2.1 170 23:27 16.08.2019
3535 Clouds 18 1011 63 10000 2.1 170 22:56 16.08.2019
3536 Clouds 18 1012 68 10000 2.6 170 22:38 16.08.2019
3537 Clouds 18 1012 68 10000 2.6 170 22:19 16.08.2019
3538 Clouds 19 1012 68 10000 2.6 170 21:41 16.08.2019
3539 Clouds 19 1012 59 10000 1.5 170 21:20 16.08.2019
3540 Clouds 19 1012 59 10000 1.5 170 20:56 16.08.2019
3541 Clouds 20 1012 56 10000 2.1 210 20:38 16.08.2019
3542 Clouds 20 1012 56 10000 2.1 210 20:18 16.08.2019
3543 Clouds 20 1012 56 10000 2.1 210 19:43 16.08.2019
3544 Clouds 21 1012 52 10000 3.6 230 19:23 16.08.2019
3545 Clouds 21 1012 52 10000 3.6 230 18:54 16.08.2019
3546 Clouds 22 1013 49 10000 5.7 230 18:36 16.08.2019
3547 Clouds 22 1013 49 10000 5.7 230 18:18 16.08.2019
3548 Clouds 21 1013 49 10000 5.7 230 17:41 16.08.2019
3549 Clouds 21 1013 49 10000 5.7 230 17:41 16.08.2019
3550 Clouds 21 1013 52 10000 5.1 250 17:23 16.08.2019
3551 Clouds 21 1013 52 10000 5.1 250 17:23 16.08.2019
3552 Clouds 21 1013 56 10000 4.1 230 16:56 16.08.2019
3553 Clouds 21 1014 56 10000 4.1 240 16:37 16.08.2019
3554 Clouds 21 1014 56 10000 4.1 240 16:18 16.08.2019
3555 Clouds 21 1014 56 10000 4.1 240 15:40 16.08.2019
3556 Clouds 20 1014 63 10000 2.6 240 15:21 16.08.2019
3557 Clouds 20 1014 63 10000 2.6 240 15:21 16.08.2019
3558 Clouds 20 1014 63 10000 2.6 240 14:58 16.08.2019
3559 Clouds 19 1015 68 10000 3.6 290 14:39 16.08.2019
3560 Clouds 19 1015 68 10000 3.6 290 14:19 16.08.2019
3561 Clouds 19 1015 68 10000 3.6 290 13:57 16.08.2019
3562 Clouds 20 1015 59 10000 4.6 290 13:37 16.08.2019
3563 Clouds 20 1015 59 10000 4.6 290 13:19 16.08.2019
3564 Clouds 19 1014 59 10000 5.7 280 12:39 16.08.2019
3565 Clouds 19 1014 59 10000 5.7 280 12:20 16.08.2019
3566 Clouds 19 1014 63 10000 6.2 290 11:42 16.08.2019
3567 Clouds 19 1014 63 10000 6.2 290 11:24 16.08.2019
3568 Clouds 19 1014 63 10000 6.2 290 11:24 16.08.2019
3569 Clouds 19 1014 63 10000 6.2 290 10:54 16.08.2019
3570 Clouds 18 1014 63 10000 7.2 300 10:36 16.08.2019
3571 Clouds 18 1014 63 10000 7.2 300 10:36 16.08.2019
3572 Clouds 18 1014 63 10000 7.2 300 10:18 16.08.2019
3573 Clouds 17 1014 77 10000 5.7 300 09:38 16.08.2019
3574 Clouds 17 1014 77 10000 5.7 300 09:38 16.08.2019
3575 Clouds 17 1014 77 10000 5.7 300 09:19 16.08.2019
3576 Clouds 17 1014 77 10000 5.7 300 08:56 16.08.2019
3577 Rain 16 1013 93 10000 5.1 300 08:38 16.08.2019
3578 Rain 16 1013 93 10000 5.1 300 08:18 16.08.2019
3579 Rain 16 1013 93 10000 5.1 300 07:44 16.08.2019
3580 Clouds 16 1013 87 10000 3.1 280 07:24 16.08.2019
3581 Clouds 16 1012 87 10000 4.6 300 06:34 16.08.2019
3582 Clouds 16 1012 87 10000 4.6 300 05:58 16.08.2019
3583 Clouds 16 1012 93 10000 2.6 250 05:32 16.08.2019
3584 Clouds 17 1011 93 10000 5.7 260 03:19 16.08.2019
3585 Clouds 17 1011 93 10000 3.6 250 01:45 16.08.2019
3586 Rain 17 1011 93 10000 7.7 260 01:25 16.08.2019
3587 Rain 17 1011 93 10000 7.7 260 00:48 16.08.2019
3588 Clouds 17 1010 82 10000 4.6 250 00:22 16.08.2019
3589 Clouds 18 1010 82 10000 4.6 250 23:46 15.08.2019
3590 Clouds 17 1010 82 10000 4.6 250 23:25 15.08.2019
3591 Clouds 17 1010 82 10000 4.6 250 22:59 15.08.2019
3592 Clouds 18 1010 82 10000 4.6 250 22:41 15.08.2019
3593 Clouds 18 1009 77 10000 5.1 270 22:22 15.08.2019
3594 Clouds 18 1009 77 10000 5.1 270 21:58 15.08.2019
3595 Clouds 18 1009 77 10000 6.2 270 21:39 15.08.2019
3596 Clouds 18 1009 77 10000 6.2 270 21:19 15.08.2019
3597 Clouds 18 1009 77 10000 6.7 280 20:56 15.08.2019
3598 Rain 18 1008 82 10000 7.2 290 20:38 15.08.2019
3599 Rain 18 1008 82 10000 7.2 290 20:19 15.08.2019
3600 Clouds 19 1007 68 10000 8.2 280 19:39 15.08.2019
3601 Clouds 19 1007 68 10000 8.2 280 19:21 15.08.2019
3602 Clouds 20 1007 68 10000 8.2 280 18:48 15.08.2019
3603 Clouds 20 1007 72 10000 8.7 280 18:24 15.08.2019
3604 Clouds 20 1007 72 10000 8.7 280 17:59 15.08.2019
3605 Rain 19 1006 77 10000 8.7 270 17:39 15.08.2019
3606 Rain 19 1006 77 10000 8.7 270 17:20 15.08.2019
3607 Rain 19 1006 77 10000 8.7 270 16:58 15.08.2019
3608 Rain 19 1006 77 10000 8.7 270 16:40 15.08.2019
3609 Clouds 20 1006 82 10000 4.6 230 16:22 15.08.2019
3610 Clouds 19 1006 88 10000 5.7 220 15:39 15.08.2019
3611 Clouds 19 1006 88 10000 5.7 220 15:20 15.08.2019
3612 Clouds 19 1006 88 10000 5.7 220 14:57 15.08.2019
3613 Drizzle 18 1006 93 9000 5.1 210 14:38 15.08.2019
3614 Drizzle 18 1006 93 9000 5.1 210 14:20 15.08.2019
3615 Drizzle 18 1006 93 9000 5.1 210 13:56 15.08.2019
3616 Drizzle 18 1005 88 8000 4.1 200 13:38 15.08.2019
3617 Drizzle 18 1005 88 8000 4.1 200 13:19 15.08.2019
3618 Drizzle 17 1005 88 8000 4.1 200 12:40 15.08.2019
3619 Clouds 17 1006 93 9000 3.6 200 12:22 15.08.2019
3620 Clouds 17 1006 93 9000 3.6 200 12:22 15.08.2019
3621 Clouds 17 1006 93 9000 3.6 200 11:59 15.08.2019
3622 Clouds 17 1006 93 7000 4.6 200 11:39 15.08.2019
3623 Clouds 17 1006 93 7000 4.6 200 11:20 15.08.2019
3624 Drizzle 16 1006 93 5000 4.6 200 10:59 15.08.2019
3625 Drizzle 16 1006 93 5000 4.6 200 10:59 15.08.2019
3626 Drizzle 16 1006 93 5000 4.6 200 10:59 15.08.2019
3627 Drizzle 16 1006 93 6000 4.6 180 10:37 15.08.2019
3628 Drizzle 16 1006 93 6000 4.6 180 10:19 15.08.2019
3629 Drizzle 15 1006 93 3500 4.6 180 09:44 15.08.2019
3630 Drizzle 15 1006 93 6000 4.6 170 09:23 15.08.2019
3631 Drizzle 15 1006 93 5000 5.1 170 08:56 15.08.2019
3632 Drizzle 15 1006 93 5000 5.1 170 08:55 15.08.2019
3633 Clouds 14 1007 100 6000 4.6 170 08:36 15.08.2019
3634 Clouds 14 1007 100 6000 4.6 170 08:18 15.08.2019
3635 Drizzle 14 1007 93 3500 5.1 170 07:42 15.08.2019
3636 Drizzle 14 1007 93 3000 6.2 170 07:23 15.08.2019
3637 Drizzle 14 1007 93 3000 6.2 170 07:23 15.08.2019
3638 Drizzle 14 1008 93 4000 5.1 170 06:53 15.08.2019
3639 Rain 14 1008 93 4500 4.6 170 06:32 15.08.2019
3640 Rain 14 1008 93 4500 4.6 170 05:44 15.08.2019
3641 Rain 14 1009 82 10000 3.6 180 05:25 15.08.2019
3642 Clouds 13 1010 87 10000 2.1 140 04:32 15.08.2019
3643 Rain 14 1011 82 10000 1.5 160 03:37 15.08.2019
3644 Rain 15 1012 72 10000 2.1 200 02:37 15.08.2019
3645 Rain 15 1012 72 10000 2.1 200 01:50 15.08.2019
3646 Clouds 15 1012 77 10000 3.1 140 01:30 15.08.2019
3647 Clouds 15 1012 77 10000 3.1 140 00:41 15.08.2019
3648 Clouds 15 1013 77 10000 3.1 140 00:20 15.08.2019
3649 Clouds 15 1013 77 10000 3.1 140 23:57 14.08.2019
3650 Clouds 15 1013 77 10000 3.1 140 23:37 14.08.2019
3651 Clouds 15 1013 77 10000 3.1 140 23:19 14.08.2019
3652 Clouds 15 1013 77 10000 3.1 140 22:56 14.08.2019
3653 Clouds 16 1014 72 10000 2.6 130 22:38 14.08.2019
3654 Clouds 16 1014 72 10000 2.6 130 22:19 14.08.2019
3655 Clouds 16 1014 72 10000 2.6 130 21:55 14.08.2019
3656 Clouds 15 1014 77 10000 2.1 140 21:36 14.08.2019
3657 Clouds 15 1014 77 10000 2.1 140 21:18 14.08.2019
3658 Clouds 15 1014 82 10000 1.5 130 20:41 14.08.2019
3659 Clouds 16 1014 77 10000 1 70 20:21 14.08.2019
3660 Clouds 17 1014 77 10000 1 70 19:56 14.08.2019
3661 Clouds 16 1015 77 10000 2.1 340 19:37 14.08.2019
3662 Clouds 16 1015 77 10000 2.1 340 19:19 14.08.2019
3663 Clouds 16 1015 77 10000 2.1 340 18:56 14.08.2019
3664 Rain 17 1015 72 10000 2.1 320 18:38 14.08.2019
3665 Rain 17 1015 72 10000 2.1 320 18:19 14.08.2019
3666 Rain 17 1015 72 10000 2.1 320 17:56 14.08.2019
3667 Rain 17 1015 72 10000 2.1 320 17:56 14.08.2019
3668 Clouds 19 1015 52 10000 1.5 250 17:36 14.08.2019
3669 Clouds 19 1015 52 10000 1.5 250 17:18 14.08.2019
3670 Clouds 19 1015 52 10000 1.5 250 16:41 14.08.2019
3671 Clouds 18 1015 55 10000 2.6 290 16:20 14.08.2019
3672 Clouds 18 1015 55 10000 2.6 290 15:45 14.08.2019
3673 Clouds 20 1016 45 10000 5.7 270 15:24 14.08.2019
3674 Clouds 20 1016 45 10000 5.7 270 14:59 14.08.2019
3675 Clouds 20 1016 45 10000 5.7 270 14:39 14.08.2019
3676 Clouds 18 1016 59 10000 5.1 250 14:19 14.08.2019
3677 Clouds 18 1016 59 10000 5.1 250 13:56 14.08.2019
3678 Clouds 17 1016 63 10000 6.7 270 13:38 14.08.2019
3679 Clouds 17 1016 63 10000 6.7 270 13:20 14.08.2019
3680 Clouds 17 1016 63 10000 6.7 270 12:56 14.08.2019
3681 Clouds 17 1016 59 10000 6.2 260 12:37 14.08.2019
3682 Clouds 17 1016 59 10000 6.2 260 12:37 14.08.2019
3683 Clouds 17 1016 59 10000 6.2 260 12:19 14.08.2019
3684 Clouds 17 1016 59 10000 6.2 260 11:45 14.08.2019
3685 Clouds 16 1016 63 10000 7.2 270 11:23 14.08.2019
3686 Clouds 16 1016 63 10000 7.2 270 10:58 14.08.2019
3687 Clouds 15 1016 77 10000 5.1 250 10:38 14.08.2019
3688 Clouds 15 1016 77 10000 5.1 250 10:20 14.08.2019
3689 Clouds 15 1016 77 10000 5.1 250 09:42 14.08.2019
3690 Clouds 13 1016 87 8000 2.6 220 09:21 14.08.2019
3691 Clouds 13 1016 87 8000 2.6 220 09:21 14.08.2019
3692 Clouds 13 1016 87 8000 2.6 220 08:45 14.08.2019
3693 Mist 10 1015 100 5000 1.5 210 08:27 14.08.2019
3694 Mist 10 1015 100 5000 1.5 210 07:57 14.08.2019
3695 Thunderstorm 11 1015 93 4000 3.6 200 07:38 14.08.2019
3696 Thunderstorm 11 1015 93 4000 3.6 200 07:38 14.08.2019
3697 Thunderstorm 11 1015 93 4000 3.6 200 06:53 14.08.2019
3698 Thunderstorm 11 1015 93 4000 3.1 200 06:35 14.08.2019
3699 Thunderstorm 11 1015 93 9000 4.1 230 05:35 14.08.2019
3700 Thunderstorm 11 1015 93 9000 4.1 230 04:43 14.08.2019
3701 Clouds 11 1015 93 10000 2.6 210 02:44 14.08.2019
3702 Clouds 11 1015 93 10000 3.1 220 02:18 14.08.2019
3703 Clouds 11 1015 93 10000 3.1 220 01:30 14.08.2019
3704 Clouds 11 1015 93 10000 3.1 220 00:47 14.08.2019
3705 Clouds 11 1015 87 10000 2.1 210 23:46 13.08.2019
3706 Clouds 12 1015 82 10000 2.1 260 23:20 13.08.2019
3707 Clouds 12 1015 82 10000 2.1 260 22:57 13.08.2019
3708 Rain 13 1015 82 10000 5.1 260 22:38 13.08.2019
3709 Rain 13 1015 82 10000 5.1 260 22:20 13.08.2019
3710 Rain 13 1015 82 10000 5.1 260 21:56 13.08.2019
3711 Rain 13 1015 82 10000 5.1 260 21:56 13.08.2019
3712 Thunderstorm 13 1015 87 10000 3.1 210 21:36 13.08.2019
3713 Thunderstorm 13 1015 87 10000 3.1 210 21:18 13.08.2019
3714 Thunderstorm 16 1015 87 10000 3.1 210 20:44 13.08.2019
3715 Rain 15 1015 82 10000 2.6 200 20:20 13.08.2019
3716 Thunderstorm 15 1015 76 10000 2.1 210 19:57 13.08.2019
3717 Thunderstorm 15 1015 87 10000 4.1 230 19:39 13.08.2019
3718 Thunderstorm 15 1015 87 10000 4.1 230 19:20 13.08.2019
3719 Thunderstorm 16 1015 87 10000 4.1 230 18:42 13.08.2019
3720 Rain 16 1015 76 4500 4.1 240 18:22 13.08.2019
3721 Thunderstorm 17 1015 62 10000 7.2 290 17:58 13.08.2019
3722 Clouds 17 1015 63 10000 5.1 260 17:39 13.08.2019
3723 Clouds 17 1015 63 10000 5.1 260 17:19 13.08.2019
3724 Clouds 17 1015 63 10000 5.1 260 16:56 13.08.2019
3725 Clouds 16 1015 55 10000 6.7 270 16:37 13.08.2019
3726 Clouds 16 1015 55 10000 6.7 270 16:19 13.08.2019
3727 Clouds 16 1014 63 10000 6.2 270 15:39 13.08.2019
3728 Clouds 16 1014 63 10000 6.2 270 15:20 13.08.2019
3729 Clouds 16 1014 63 10000 6.2 270 15:20 13.08.2019
3730 Clouds 16 1014 63 10000 6.2 270 14:57 13.08.2019
3731 Clouds 16 1014 63 10000 6.2 270 14:57 13.08.2019
3732 Rain 16 1014 67 10000 6.2 260 14:38 13.08.2019
3733 Rain 16 1014 67 10000 6.2 260 14:38 13.08.2019
3734 Rain 16 1014 67 10000 6.2 260 14:18 13.08.2019
3735 Clouds 14 1014 82 10000 4.6 260 13:41 13.08.2019
3736 Clouds 14 1014 82 10000 4.6 260 13:21 13.08.2019
3737 Clouds 14 1014 82 10000 4.6 260 12:58 13.08.2019
3738 Rain 14 1014 82 10000 3.6 300 12:40 13.08.2019
3739 Rain 14 1014 82 10000 3.6 300 12:21 13.08.2019
3740 Rain 14 1014 82 10000 3.6 300 11:58 13.08.2019
3741 Rain 14 1013 77 10000 4.1 280 11:37 13.08.2019
3742 Rain 14 1013 77 10000 4.1 280 11:18 13.08.2019
3743 -273 0 0 0 0 0 10:55 13.08.2019
3744 Clouds 14 1012 82 10000 5.7 260 10:36 13.08.2019
3745 Clouds 14 1012 82 10000 5.7 260 10:18 13.08.2019
3746 Clouds 14 1012 82 10000 5.7 260 09:42 13.08.2019
3747 Clouds 14 1012 87 10000 3.1 240 09:23 13.08.2019
3748 Clouds 14 1012 87 10000 3.1 240 08:43 13.08.2019
3749 Clouds 14 1012 93 10000 3.6 240 08:22 13.08.2019
3750 Clouds 14 1012 93 10000 3.6 230 07:56 13.08.2019
3751 Clouds 14 1012 87 10000 3.1 240 07:34 13.08.2019
3752 Clouds 14 1012 87 10000 3.1 240 06:55 13.08.2019
3753 Clouds 13 1012 93 10000 2.6 260 06:34 13.08.2019
3754 Clouds 13 1012 93 10000 3.6 250 05:35 13.08.2019
3755 Clouds 14 1012 93 10000 3.6 230 02:38 13.08.2019
3756 Clouds 14 1012 93 10000 3.6 230 02:19 13.08.2019
3757 Rain 14 1013 93 10000 3.6 220 00:59 13.08.2019
3758 Rain 15 1013 93 10000 3.6 220 00:40 13.08.2019
3759 Rain 15 1013 93 9000 5.1 220 23:56 12.08.2019
3760 Rain 16 1013 87 7000 4.6 210 23:36 12.08.2019
3761 Rain 16 1013 87 7000 4.6 210 23:18 12.08.2019
3762 Clouds 16 1013 82 10000 2.1 230 22:40 12.08.2019
3763 Clouds 16 1012 77 10000 1.5 220 22:19 12.08.2019
3764 Clouds 16 1012 77 10000 1.5 220 21:55 12.08.2019
3765 Clouds 17 1012 72 10000 1.5 260 21:37 12.08.2019
3766 Clouds 17 1012 72 10000 1.5 260 21:18 12.08.2019
3767 Clouds 17 1012 72 10000 2.6 290 20:57 12.08.2019
3768 Clouds 18 1011 72 10000 2.6 290 20:38 12.08.2019
3769 Clouds 18 1011 72 10000 2.6 290 20:19 12.08.2019
3770 Clouds 18 1011 72 10000 2.6 290 19:55 12.08.2019
3771 Clouds 18 1012 72 10000 3.6 290 19:37 12.08.2019
3772 Clouds 18 1012 72 10000 3.6 290 19:18 12.08.2019
3773 Clouds 19 1012 72 10000 3.6 290 18:54 12.08.2019
3774 Rain 18 1013 88 10000 2.6 300 18:36 12.08.2019
3775 Rain 18 1013 88 10000 2.6 300 18:18 12.08.2019
3776 Rain 18 1013 88 10000 2.6 300 17:46 12.08.2019
3777 Clouds 18 1013 93 10000 2.6 290 17:28 12.08.2019
3778 Thunderstorm 19 1013 63 10000 4.6 280 16:56 12.08.2019
3779 Thunderstorm 19 1013 63 10000 4.6 280 16:56 12.08.2019
3780 Thunderstorm 19 1013 63 10000 4.6 280 16:56 12.08.2019
3781 Thunderstorm 19 1013 63 10000 4.6 280 16:56 12.08.2019
3782 Thunderstorm 20 1012 63 10000 4.1 310 16:37 12.08.2019
3783 Thunderstorm 20 1012 63 10000 4.1 310 16:19 12.08.2019
3784 Clouds 20 1012 56 10000 3.6 270 15:54 12.08.2019
3785 Clouds 20 1012 64 10000 5.7 280 15:36 12.08.2019
3786 Clouds 20 1012 64 10000 5.7 280 15:36 12.08.2019
3787 Clouds 20 1012 64 10000 5.7 280 15:18 12.08.2019
3788 -273 0 0 0 0 0 14:42 12.08.2019
3789 Clouds 21 1012 52 10000 8.2 290 14:23 12.08.2019
3790 Clouds 21 1012 52 10000 8.2 290 13:58 12.08.2019
3791 Clouds 20 1012 60 10000 6.7 260 13:40 12.08.2019
3792 Clouds 20 1012 60 10000 6.7 260 13:21 12.08.2019
3793 Clouds 20 1012 60 10000 6.7 260 12:43 12.08.2019
3794 Clouds 20 1012 60 10000 6.7 260 12:43 12.08.2019
3795 Clouds 20 1012 64 10000 6.7 250 12:21 12.08.2019
3796 Clouds 20 1012 64 10000 6.7 250 11:47 12.08.2019
3797 Clouds 20 1012 68 10000 6.2 230 11:29 12.08.2019
3798 Clouds 20 1012 68 10000 6.2 230 10:59 12.08.2019
3799 Clouds 19 1012 68 10000 6.2 230 10:40 12.08.2019
3800 Clouds 19 1012 68 10000 6.2 230 10:40 12.08.2019
3801 Clouds 18 1012 72 10000 5.1 240 10:21 12.08.2019
3802 Clouds 18 1012 72 10000 5.1 240 09:55 12.08.2019
3803 Clouds 16 1012 77 10000 5.7 230 09:37 12.08.2019
3804 Clouds 16 1012 77 10000 5.7 230 09:18 12.08.2019
3805 Clouds 15 1012 77 10000 5.1 220 08:40 12.08.2019
3806 Clouds 15 1012 77 10000 5.1 220 08:22 12.08.2019
3807 Clouds 15 1012 77 10000 5.1 220 07:56 12.08.2019
3808 Clouds 15 1011 77 10000 4.1 220 07:35 12.08.2019
3809 Clouds 15 1011 77 10000 4.1 220 06:54 12.08.2019
3810 Clouds 15 1011 77 10000 4.1 220 06:20 12.08.2019
3811 Clouds 16 1012 77 10000 2.1 220 04:29 12.08.2019
3812 Clouds 17 1012 72 10000 3.1 240 02:43 12.08.2019
3813 Clouds 18 1012 72 10000 2.6 240 01:48 12.08.2019
3814 Clouds 18 1012 68 10000 3.6 260 01:19 12.08.2019
3815 Clouds 18 1012 68 10000 3.6 260 00:55 12.08.2019
3816 Clouds 18 1012 68 10000 2.6 230 00:37 12.08.2019
3817 Clouds 18 1012 68 10000 2.6 230 00:18 12.08.2019
3818 Clouds 19 1012 68 10000 2.6 230 23:40 11.08.2019
3819 Clouds 19 1012 63 10000 2.1 230 23:20 11.08.2019
3820 Clouds 19 1012 63 10000 2.1 230 22:57 11.08.2019
3821 Clouds 19 1011 63 10000 1.5 220 22:38 11.08.2019
3822 Clouds 19 1011 63 10000 1.5 220 22:18 11.08.2019
3823 Clouds 20 1011 63 10000 1.5 220 21:56 11.08.2019
3824 Clouds 20 1011 56 10000 2.1 230 21:38 11.08.2019
3825 Clouds 20 1011 56 10000 2.1 230 21:19 11.08.2019
3826 Clouds 21 1011 56 10000 2.1 230 20:44 11.08.2019
3827 Clouds 22 1011 49 10000 4.1 230 20:23 11.08.2019
3828 Clouds 22 1011 49 10000 4.1 230 19:56 11.08.2019
3829 Clouds 22 1011 46 10000 4.1 250 19:37 11.08.2019
3830 Clouds 22 1011 46 10000 4.1 250 19:18 11.08.2019
3831 Clouds 22 1011 46 10000 4.1 250 18:41 11.08.2019
3832 Clouds 22 1011 46 10000 6.2 240 18:20 11.08.2019
3833 Clouds 22 1011 46 10000 6.2 240 17:56 11.08.2019
3834 Clouds 22 1012 46 10000 6.7 230 17:38 11.08.2019
3835 Clouds 22 1012 46 10000 6.7 230 17:20 11.08.2019
3836 Clouds 22 1012 46 10000 6.7 230 16:55 11.08.2019
3837 Clouds 21 1012 46 10000 6.7 240 16:37 11.08.2019
3838 Clouds 21 1012 46 10000 6.7 240 16:18 11.08.2019
3839 Clouds 21 1012 46 10000 6.7 240 16:18 11.08.2019
3840 Clouds 22 1012 46 10000 6.7 240 15:42 11.08.2019
3841 Clouds 22 1012 49 10000 7.2 240 15:23 11.08.2019
3842 Clouds 22 1012 49 10000 7.2 240 14:56 11.08.2019
3843 Clouds 21 1012 49 10000 6.2 240 14:38 11.08.2019
3844 Clouds 21 1012 49 10000 6.2 240 14:19 11.08.2019
3845 Clouds 21 1012 49 10000 6.2 240 13:44 11.08.2019
3846 Clouds 21 1012 52 10000 7.7 240 13:24 11.08.2019
3847 Clouds 21 1012 52 10000 7.7 240 12:48 11.08.2019
3848 Clouds 20 1012 59 10000 8.2 230 12:23 11.08.2019
3849 Clouds 20 1012 59 10000 8.2 230 11:56 11.08.2019
3850 Clouds 20 1012 63 10000 7.7 230 11:38 11.08.2019
3851 Clouds 20 1012 63 10000 7.7 230 11:20 11.08.2019
3852 Clouds 19 1012 63 10000 7.7 230 10:41 11.08.2019
3853 Clouds 18 1012 63 10000 7.2 230 10:22 11.08.2019
3854 Clouds 18 1012 63 10000 7.2 230 09:59 11.08.2019
3855 Clouds 17 1011 67 10000 7.2 230 09:38 11.08.2019
3856 Clouds 17 1011 67 10000 7.2 230 09:20 11.08.2019
3857 Clouds 16 1011 67 10000 7.2 230 08:47 11.08.2019
3858 Clouds 16 1011 67 10000 6.2 230 08:27 11.08.2019
3859 Clouds 16 1011 67 10000 6.2 230 07:55 11.08.2019
3860 Clouds 15 1011 72 10000 5.7 220 07:25 11.08.2019
3861 Clouds 15 1011 72 10000 5.7 220 06:45 11.08.2019
3862 Rain 16 1010 72 10000 5.7 230 05:39 11.08.2019
3863 Rain 17 1010 67 10000 5.1 240 03:56 11.08.2019
3864 Clouds 18 1010 63 10000 6.2 230 02:49 11.08.2019
3865 Clouds 19 1010 55 10000 6.7 240 01:43 11.08.2019
3866 Clouds 19 1009 55 10000 6.7 240 01:20 11.08.2019
3867 Clouds 19 1009 55 10000 6.7 240 00:48 11.08.2019
3868 Clouds 20 1009 56 10000 5.7 230 00:28 11.08.2019
3869 Clouds 20 1009 56 10000 5.7 230 23:47 10.08.2019
3870 Clouds 20 1009 60 10000 6.7 240 23:28 10.08.2019
3871 Clouds 20 1009 60 10000 6.7 240 22:44 10.08.2019
3872 Clouds 20 1009 60 10000 6.7 240 22:44 10.08.2019
3873 Clouds 20 1009 60 10000 4.1 230 22:26 10.08.2019
3874 Clouds 20 1009 60 10000 4.1 230 21:58 10.08.2019
3875 Clouds 21 1008 56 10000 6.7 240 21:39 10.08.2019
3876 Clouds 21 1008 56 10000 6.7 240 21:20 10.08.2019
3877 Clouds 21 1008 56 10000 6.7 240 20:56 10.08.2019
3878 Clouds 22 1008 56 10000 6.7 230 20:37 10.08.2019
3879 Clouds 22 1008 56 10000 6.7 230 20:18 10.08.2019
3880 Clouds 23 1008 56 10000 6.7 230 19:40 10.08.2019
3881 Clouds 23 1007 53 10000 8.2 240 19:21 10.08.2019
3882 Clouds 23 1007 53 10000 8.2 240 18:41 10.08.2019
3883 Clouds 24 1007 50 10000 6.7 240 18:23 10.08.2019
3884 Clouds 24 1007 50 10000 6.7 240 17:55 10.08.2019
3885 Clouds 23 1007 56 10000 7.7 250 17:36 10.08.2019
3886 Clouds 23 1007 56 10000 7.7 250 17:18 10.08.2019
3887 Clouds 21 1007 77 10000 8.7 260 16:42 10.08.2019
3888 Clouds 21 1007 77 10000 8.7 260 16:20 10.08.2019
3889 Clouds 19 1007 77 10000 8.7 260 15:43 10.08.2019
3890 Rain 20 1006 60 10000 8.7 240 15:21 10.08.2019
3891 Rain 21 1006 60 10000 8.7 240 14:44 10.08.2019
3892 Clouds 20 1006 88 10000 6.7 230 14:19 10.08.2019
3893 Clouds 20 1006 88 10000 6.7 230 13:41 10.08.2019
3894 Clouds 19 1006 82 9000 9.8 230 13:19 10.08.2019
3895 Clouds 22 1006 64 10000 7.7 230 12:44 10.08.2019
3896 Clouds 21 1006 68 10000 7.2 230 12:24 10.08.2019
3897 Clouds 21 1006 68 10000 7.2 230 11:59 10.08.2019
3898 Clouds 21 1006 68 10000 7.2 230 11:40 10.08.2019
3899 Clouds 21 1006 68 10000 7.2 230 11:21 10.08.2019
3900 Clouds 21 1006 68 10000 7.2 230 10:55 10.08.2019
3901 Clouds 21 1005 73 10000 7.2 230 10:36 10.08.2019
3902 Clouds 21 1005 73 10000 7.2 230 10:18 10.08.2019
3903 Clouds 20 1005 73 10000 7.2 230 09:40 10.08.2019
3904 Clouds 20 1005 77 10000 5.7 220 09:22 10.08.2019
3905 Clouds 20 1005 77 10000 5.7 220 08:41 10.08.2019
3906 Clouds 19 1005 82 10000 6.2 220 08:20 10.08.2019
3907 Clouds 19 1005 82 10000 6.2 220 07:54 10.08.2019
3908 Clouds 19 1005 82 10000 6.2 220 07:54 10.08.2019
3909 Clouds 19 1004 88 10000 4.6 210 07:29 10.08.2019
3910 Clouds 19 1004 88 10000 4.6 210 06:49 10.08.2019
3911 Clouds 19 1004 93 10000 5.1 220 06:26 10.08.2019
3912 Clouds 20 1004 88 10000 4.6 220 05:26 10.08.2019
3913 Clouds 19 1004 88 10000 4.6 220 04:35 10.08.2019
3914 Clouds 20 1004 88 10000 4.6 220 02:56 10.08.2019
3915 Clouds 20 1005 82 10000 3.1 190 02:27 10.08.2019
3916 Clouds 19 1005 82 10000 3.1 190 01:43 10.08.2019
3917 Clouds 19 1005 82 10000 3.6 170 01:23 10.08.2019
3918 Clouds 19 1005 82 10000 3.6 170 00:49 10.08.2019
3919 Clouds 19 1005 88 10000 3.1 140 00:25 10.08.2019
3920 Clouds 19 1005 88 10000 3.1 140 23:57 09.08.2019
3921 Clouds 19 1005 88 10000 3.6 120 23:36 09.08.2019
3922 Clouds 19 1005 88 10000 3.6 120 23:18 09.08.2019
3923 Clouds 19 1005 93 10000 4.1 120 22:40 09.08.2019
3924 Clouds 19 1005 93 10000 4.1 120 22:40 09.08.2019
3925 Clouds 19 1005 93 10000 4.1 120 22:22 09.08.2019
3926 Clouds 19 1005 93 10000 4.1 120 21:57 09.08.2019
3927 Clouds 19 1006 88 10000 4.1 120 21:39 09.08.2019
3928 Clouds 19 1006 88 10000 4.1 120 21:21 09.08.2019
3929 Clouds 19 1006 88 10000 4.1 120 21:21 09.08.2019
3930 Clouds 19 1006 88 10000 4.1 120 20:56 09.08.2019
3931 Clouds 19 1007 88 10000 3.1 110 20:38 09.08.2019
3932 Clouds 19 1007 88 10000 3.1 110 20:18 09.08.2019
3933 Clouds 19 1007 88 10000 3.1 110 19:41 09.08.2019
3934 Rain 19 1007 88 10000 4.6 130 19:22 09.08.2019
3935 Rain 19 1007 88 10000 4.6 130 18:42 09.08.2019
3936 Rain 19 1008 88 8000 3.1 130 18:23 09.08.2019
3937 Rain 19 1008 88 8000 3.1 130 17:59 09.08.2019
3938 Rain 19 1008 88 8000 3.1 130 17:41 09.08.2019
3939 Rain 19 1008 82 10000 2.6 110 17:23 09.08.2019
3940 Clouds 20 1009 64 10000 4.1 120 16:42 09.08.2019
3941 Clouds 20 1009 64 10000 4.1 120 16:41 09.08.2019
3942 -273 0 0 0 0 0 16:41 09.08.2019
3943 Clouds 20 1009 64 10000 4.1 120 16:22 09.08.2019
3944 Clouds 20 1009 64 10000 4.1 120 15:57 09.08.2019
3945 Clouds 20 1009 64 10000 4.1 120 15:57 09.08.2019
3946 Clouds 20 1009 64 10000 4.1 120 15:57 09.08.2019
3947 Clouds 20 1009 64 10000 4.1 120 15:38 09.08.2019
3948 Clouds 20 1009 64 10000 4.1 120 15:19 09.08.2019
3949 Clouds 21 1009 64 10000 4.1 120 14:44 09.08.2019
3950 Clouds 21 1009 64 10000 3.6 120 14:23 09.08.2019
3951 Clouds 21 1009 64 10000 3.6 120 13:59 09.08.2019
3952 Clouds 21 1009 64 10000 3.6 120 13:59 09.08.2019
3953 Clouds 20 1010 64 10000 4.1 140 13:40 09.08.2019
3954 Clouds 20 1010 64 10000 4.1 140 13:20 09.08.2019
3955 Clouds 19 1010 64 10000 4.1 140 12:46 09.08.2019
3956 Clouds 19 1010 64 10000 4.1 140 12:46 09.08.2019
3957 Clouds 19 1010 72 10000 3.6 140 12:24 09.08.2019
3958 Clouds 19 1010 72 10000 3.6 140 11:58 09.08.2019
3959 Clouds 18 1011 77 10000 3.1 140 11:37 09.08.2019
3960 Clouds 18 1011 77 10000 3.1 140 11:18 09.08.2019
3961 Clouds 17 1011 77 10000 3.1 140 10:40 09.08.2019
3962 Clouds 17 1011 82 10000 1.5 0 10:21 09.08.2019
3963 Clouds 17 1011 82 10000 1.5 0 09:46 09.08.2019
3964 Clouds 16 1011 87 8000 2.1 170 09:20 09.08.2019
3965 Clouds 16 1011 87 8000 2.1 170 08:58 09.08.2019
3966 Mist 15 1011 100 5000 3.1 210 08:39 09.08.2019
3967 Mist 15 1011 100 5000 3.1 210 08:19 09.08.2019
3968 Mist 15 1011 100 5000 3.1 210 07:44 09.08.2019
3969 Fog 15 1011 93 2000 2.6 200 07:23 09.08.2019
3970 Fog 15 1011 93 2000 2.6 200 06:56 09.08.2019
3971 Fog 15 1011 93 2000 2.6 200 06:56 09.08.2019
3972 Fog 15 1011 93 2000 2.6 200 06:56 09.08.2019
3973 Fog 13 1011 93 10000 2.6 210 06:30 09.08.2019
3974 Fog 13 1011 93 10000 2.6 210 05:57 09.08.2019
3975 Clouds 14 1011 100 10000 1.5 250 04:21 09.08.2019
3976 Clouds 17 1011 82 10000 3.1 260 01:58 09.08.2019
3977 Clouds 17 1011 82 10000 4.1 290 00:49 09.08.2019
3978 Clouds 17 1011 77 10000 5.1 300 00:26 09.08.2019
3979 Clouds 17 1011 77 10000 5.1 300 23:59 08.08.2019
3980 Clouds 18 1011 72 10000 5.7 280 23:38 08.08.2019
3981 Clouds 18 1011 72 10000 5.7 280 23:20 08.08.2019
3982 Clouds 18 1011 72 10000 5.7 280 22:59 08.08.2019
3983 Clouds 18 1010 77 10000 7.2 290 22:37 08.08.2019
3984 Clouds 18 1010 77 10000 7.2 290 22:37 08.08.2019
3985 Clouds 18 1010 77 10000 7.2 290 22:18 08.08.2019
3986 Clouds 18 1010 77 10000 7.2 290 21:58 08.08.2019
3987 Clouds 18 1010 77 10000 7.2 290 21:58 08.08.2019
3988 Clouds 19 1010 77 10000 7.2 290 21:40 08.08.2019
3989 Clouds 19 1010 72 10000 8.2 290 21:21 08.08.2019
3990 Clouds 18 1010 77 10000 9.3 300 20:55 08.08.2019
3991 Clouds 19 1010 72 10000 9.8 300 20:36 08.08.2019
3992 Clouds 19 1010 72 10000 9.8 300 20:18 08.08.2019
3993 Clouds 20 1010 72 10000 9.8 300 19:42 08.08.2019
3994 Clouds 20 1009 68 10000 10.3 300 19:21 08.08.2019
3995 Clouds 21 1009 64 10000 11.3 300 18:43 08.08.2019
3996 Clouds 21 1009 64 10000 11.3 300 18:23 08.08.2019
3997 Clouds 21 1009 64 10000 11.3 300 17:56 08.08.2019
3998 Clouds 21 1009 64 10000 11.3 300 17:37 08.08.2019
3999 Clouds 21 1009 64 10000 11.3 300 17:19 08.08.2019
4000 Clouds 21 1009 64 10000 11.3 300 16:43 08.08.2019
4001 Clouds 21 1009 64 10000 11.3 300 16:43 08.08.2019
4002 Clouds 21 1008 60 10000 12.3 300 16:25 08.08.2019
4003 Clouds 21 1008 60 10000 12.3 300 15:59 08.08.2019
4004 Clouds 21 1008 60 10000 12.3 300 15:41 08.08.2019
4005 Clouds 22 1008 56 10000 11.3 290 15:23 08.08.2019
4006 Clouds 22 1008 56 10000 11.3 290 14:56 08.08.2019
4007 Clouds 21 1008 60 10000 7.2 260 14:37 08.08.2019
4008 Clouds 21 1008 60 10000 7.2 260 14:18 08.08.2019
4009 Rain 21 1007 64 10000 8.7 260 13:39 08.08.2019
4010 Rain 21 1007 64 10000 8.7 260 13:20 08.08.2019
4011 Clouds 21 1007 72 10000 6.2 250 12:40 08.08.2019
4012 Clouds 21 1007 72 10000 6.2 250 12:21 08.08.2019
4013 Clouds 21 1007 72 10000 6.2 250 11:59 08.08.2019
4014 Clouds 20 1007 82 10000 5.1 240 11:39 08.08.2019
4015 -273 0 0 0 0 0 11:21 08.08.2019
4016 Clouds 18 1007 88 10000 4.1 230 10:41 08.08.2019
4017 Clouds 18 1007 88 10000 4.1 230 10:21 08.08.2019
4018 Clouds 18 1007 88 10000 4.1 230 09:52 08.08.2019
4019 Thunderstorm 17 1006 93 9000 3.6 220 09:30 08.08.2019
4020 Thunderstorm 17 1006 93 9000 3.6 220 08:57 08.08.2019
4021 Clouds 17 1006 93 9000 3.1 220 08:39 08.08.2019
4022 Clouds 17 1006 93 9000 3.1 220 08:19 08.08.2019
4023 Rain 16 1006 93 5000 3.6 220 07:40 08.08.2019
4024 Clouds 16 1006 87 10000 3.1 220 07:20 08.08.2019
4025 Clouds 16 1006 87 10000 3.1 220 06:49 08.08.2019
4026 Clouds 16 1006 87 10000 3.6 210 06:30 08.08.2019
4027 Clouds 16 1006 87 10000 3.6 210 05:53 08.08.2019
4028 Clouds 16 1006 93 10000 3.6 210 05:18 08.08.2019
4029 Clouds 16 1006 93 10000 3.1 210 03:53 08.08.2019
4030 Clouds 16 1006 100 10000 2.6 210 02:30 08.08.2019
4031 Fog 16 1007 93 10000 2.1 200 01:37 08.08.2019
4032 Clouds 17 1006 93 10000 1 190 00:26 08.08.2019
4033 Clouds 17 1006 93 10000 1 190 23:56 07.08.2019
4034 Thunderstorm 17 1006 93 10000 1 300 23:21 07.08.2019
4035 Thunderstorm 17 1006 87 10000 1.5 220 22:59 07.08.2019
4036 Thunderstorm 18 1006 87 10000 1.5 220 22:40 07.08.2019
4037 Thunderstorm 18 1006 93 1500 3.6 180 22:20 07.08.2019
4038 Thunderstorm 17 1006 93 10000 2.6 210 21:56 07.08.2019
4039 Thunderstorm 18 1006 93 10000 2.1 250 21:37 07.08.2019
4040 Thunderstorm 18 1006 93 10000 2.1 250 21:19 07.08.2019
4041 Thunderstorm 19 1006 72 3500 3.6 270 20:55 07.08.2019
4042 Thunderstorm 21 1006 72 10000 4.1 280 20:36 07.08.2019
4043 Thunderstorm 21 1006 72 10000 4.1 280 20:18 07.08.2019
4044 Clouds 19 1005 77 10000 4.1 300 19:40 07.08.2019
4045 Clouds 20 1005 77 10000 2.6 250 19:22 07.08.2019
4046 Clouds 21 1005 77 10000 2.6 250 18:55 07.08.2019
4047 Thunderstorm 21 1005 82 6000 4.1 280 18:37 07.08.2019
4048 Thunderstorm 21 1005 82 6000 4.1 280 18:19 07.08.2019
4049 Thunderstorm 21 1005 68 10000 4.6 310 17:54 07.08.2019
4050 Clouds 21 1005 60 10000 6.7 280 17:36 07.08.2019
4051 Clouds 21 1005 60 10000 6.7 280 17:18 07.08.2019
4052 Clouds 21 1005 60 10000 6.7 280 16:54 07.08.2019
4053 Clouds 21 1005 60 10000 6.2 260 16:36 07.08.2019
4054 Clouds 21 1005 60 10000 6.2 260 16:18 07.08.2019
4055 Clouds 21 1005 60 10000 6.2 260 15:41 07.08.2019
4056 Thunderstorm 20 1005 77 9000 7.2 310 15:19 07.08.2019
4057 Thunderstorm 21 1005 77 9000 7.2 310 14:49 07.08.2019
4058 Thunderstorm 21 1005 68 10000 7.2 320 14:30 07.08.2019
4059 Rain 22 1004 56 10000 6.7 260 13:57 07.08.2019
4060 Clouds 21 1004 60 10000 5.7 230 13:38 07.08.2019
4061 Clouds 21 1004 60 10000 5.7 230 13:18 07.08.2019
4062 Clouds 21 1004 60 10000 5.7 230 12:56 07.08.2019
4063 Clouds 21 1004 64 10000 5.1 240 12:37 07.08.2019
4064 Clouds 21 1004 64 10000 5.1 240 12:19 07.08.2019
4065 Clouds 19 1004 88 10000 2.6 210 11:43 07.08.2019
4066 Clouds 19 1004 88 10000 2.6 210 11:21 07.08.2019
4067 Clouds 19 1004 88 10000 2.6 210 10:58 07.08.2019
4068 Clouds 19 1004 88 10000 2.6 210 10:40 07.08.2019
4069 Clouds 19 1004 72 10000 4.1 220 10:19 07.08.2019
4070 Clouds 18 1004 72 10000 4.1 220 09:46 07.08.2019
4071 Clouds 18 1004 72 10000 4.1 220 09:46 07.08.2019
4072 Rain 17 1004 72 10000 3.6 220 09:23 07.08.2019
4073 Rain 17 1004 72 10000 3.6 220 08:59 07.08.2019
4074 Rain 17 1004 72 10000 3.6 220 08:41 07.08.2019
4075 Clouds 17 1004 72 10000 4.1 180 08:23 07.08.2019
4076 Clouds 17 1004 72 10000 4.1 180 07:45 07.08.2019
4077 Clouds 16 1005 77 10000 3.1 170 07:26 07.08.2019
4078 Clouds 16 1005 77 10000 3.1 170 06:41 07.08.2019
4079 Clouds 16 1005 77 10000 3.6 160 06:20 07.08.2019
4080 Clouds 16 1005 77 10000 3.6 160 05:40 07.08.2019
4081 Clouds 17 1006 77 10000 3.1 160 03:26 07.08.2019
4082 Clouds 17 1006 77 10000 3.1 160 02:51 07.08.2019
4083 Clouds 17 1007 82 10000 3.1 160 02:30 07.08.2019
4084 Clouds 17 1007 82 10000 3.1 160 01:49 07.08.2019
4085 Clouds 16 1007 82 10000 1.5 170 00:53 07.08.2019
4086 Clouds 17 1007 77 10000 1.5 160 00:23 07.08.2019
4087 Clouds 18 1007 77 10000 1.5 160 23:48 06.08.2019
4088 Clouds 18 1008 82 10000 1.5 160 23:23 06.08.2019
4089 Clouds 18 1008 82 10000 1.5 160 22:59 06.08.2019
4090 Clouds 19 1008 82 10000 1.5 160 22:40 06.08.2019
4091 Clouds 19 1008 82 10000 1.5 160 22:40 06.08.2019
4092 Clouds 18 1007 87 10000 0.5 0 22:21 06.08.2019
4093 Clouds 18 1007 87 10000 0.5 0 21:57 06.08.2019
4094 Clouds 19 1007 77 10000 0.5 40 21:38 06.08.2019
4095 Clouds 19 1007 77 10000 0.5 40 21:19 06.08.2019
4096 Clouds 20 1007 72 10000 2.1 330 20:43 06.08.2019
4097 Clouds 20 1008 64 10000 4.1 310 20:24 06.08.2019
4098 Clouds 21 1008 64 10000 4.1 310 19:49 06.08.2019
4099 Clouds 21 1008 64 10000 5.7 310 19:29 06.08.2019
4100 Clouds 21 1008 64 10000 5.7 310 18:57 06.08.2019
4101 Clouds 21 1008 64 10000 5.1 320 18:39 06.08.2019
4102 Clouds 21 1008 64 10000 5.1 320 18:20 06.08.2019
4103 Clouds 21 1008 64 10000 5.1 320 17:57 06.08.2019
4104 Clouds 21 1008 72 10000 5.1 310 17:37 06.08.2019
4105 Clouds 21 1008 72 10000 5.1 310 17:19 06.08.2019
4106 Clouds 22 1008 72 10000 5.1 310 16:44 06.08.2019
4107 Clouds 21 1008 88 9000 3.6 300 16:25 06.08.2019
4108 Clouds 21 1008 88 9000 3.6 300 15:59 06.08.2019
4109 Rain 21 1008 82 1600 7.7 300 15:40 06.08.2019
4110 Rain 21 1008 82 1600 7.7 300 15:21 06.08.2019
4111 Rain 23 1007 50 10000 5.1 240 14:59 06.08.2019
4112 Rain 23 1007 53 10000 4.1 230 14:37 06.08.2019
4113 Rain 23 1007 53 10000 4.1 230 14:19 06.08.2019
4114 Clouds 22 1008 56 10000 5.1 230 13:45 06.08.2019
4115 Clouds 22 1008 64 10000 4.6 250 13:27 06.08.2019
4116 Clouds 22 1008 64 10000 4.6 250 12:59 06.08.2019
4117 Clouds 21 1008 68 10000 4.1 240 12:40 06.08.2019
4118 Clouds 21 1008 68 10000 4.1 240 12:21 06.08.2019
4119 Clouds 22 1008 68 10000 4.1 240 11:45 06.08.2019
4120 Clouds 22 1008 68 10000 3.6 230 11:21 06.08.2019
4121 Clouds 22 1008 68 10000 3.6 230 10:59 06.08.2019
4122 Clouds 20 1008 68 10000 3.6 230 10:40 06.08.2019
4123 Clouds 20 1008 77 10000 3.6 230 10:21 06.08.2019
4124 Clouds 19 1008 77 10000 3.6 230 09:43 06.08.2019
4125 Clouds 18 1008 88 10000 3.6 220 09:22 06.08.2019
4126 Clouds 17 1008 88 10000 3.6 220 08:51 06.08.2019
4127 Clouds 17 1008 88 10000 2.1 220 08:30 06.08.2019
4128 Clouds 17 1008 88 10000 2.1 220 07:59 06.08.2019
4129 Clouds 16 1008 93 10000 3.1 220 07:31 06.08.2019
4130 Clouds 16 1008 93 10000 3.1 220 06:45 06.08.2019
4131 Clouds 16 1008 87 10000 2.6 230 06:24 06.08.2019
4132 Clouds 17 1008 87 10000 2.6 230 05:46 06.08.2019
4133 Clouds 17 1008 88 10000 2.6 240 02:58 06.08.2019
4134 Clouds 18 1009 88 10000 2.6 220 01:26 06.08.2019
4135 Clouds 18 1009 88 10000 2.6 220 00:55 06.08.2019
4136 Clouds 18 1009 88 10000 1.5 240 00:23 06.08.2019
4137 Clouds 19 1009 82 10000 3.1 280 23:21 05.08.2019
4138 Clouds 19 1009 82 10000 3.1 280 22:59 05.08.2019
4139 Clouds 20 1009 82 10000 3.1 280 22:39 05.08.2019
4140 Clouds 20 1009 82 7000 3.1 280 22:21 05.08.2019
4141 Clouds 20 1009 77 8000 3.6 280 21:42 05.08.2019
4142 Clouds 20 1008 77 10000 2.1 220 21:21 05.08.2019
4143 Clouds 20 1008 77 10000 2.1 220 20:58 05.08.2019
4144 Clouds 21 1008 77 10000 2.1 220 20:40 05.08.2019
4145 Clouds 21 1008 73 10000 1.5 130 20:22 05.08.2019
4146 Clouds 21 1008 73 10000 1.5 130 19:59 05.08.2019
4147 Thunderstorm 21 1008 77 10000 1.5 140 19:38 05.08.2019
4148 Thunderstorm 21 1008 77 10000 1.5 140 19:20 05.08.2019
4149 Thunderstorm 22 1008 77 10000 1.5 140 18:42 05.08.2019
4150 Clouds 22 1009 68 10000 2.6 100 18:21 05.08.2019
4151 Clouds 22 1009 68 10000 2.6 100 17:56 05.08.2019
4152 Clouds 21 1009 77 10000 3.1 90 17:38 05.08.2019
4153 Clouds 21 1009 77 10000 3.1 90 17:20 05.08.2019
4154 Clouds 21 1009 77 10000 3.1 90 16:42 05.08.2019
4155 Clouds 20 1009 82 10000 2.1 50 16:23 05.08.2019
4156 Clouds 20 1009 82 10000 2.1 50 15:43 05.08.2019
4157 Rain 20 1009 82 8000 1 50 15:20 05.08.2019
4158 Rain 21 1009 68 6000 1 290 14:43 05.08.2019
4159 Clouds 22 1009 60 10000 0.5 130 14:23 05.08.2019
4160 Clouds 22 1009 60 10000 0.5 130 13:57 05.08.2019
4161 Clouds 22 1009 53 10000 2.1 160 13:39 05.08.2019
4162 Clouds 22 1009 53 10000 2.1 160 13:18 05.08.2019
4163 Clouds 22 1009 60 10000 2.1 100 12:42 05.08.2019
4164 Clouds 22 1009 60 10000 2.1 100 12:19 05.08.2019
4165 Clouds 21 1009 60 10000 2.1 100 11:44 05.08.2019
4166 Clouds 21 1010 64 10000 2.6 140 11:25 05.08.2019
4167 Clouds 20 1010 64 10000 2.6 140 10:49 05.08.2019
4168 Clouds 19 1010 77 10000 2.1 110 10:31 05.08.2019
4169 Clouds 19 1010 77 10000 2.1 110 09:57 05.08.2019
4170 Clouds 17 1011 87 10000 2.6 110 09:38 05.08.2019
4171 Clouds 17 1011 87 10000 2.6 110 09:20 05.08.2019
4172 Clouds 17 1011 87 10000 2.6 110 08:44 05.08.2019
4173 Clouds 16 1011 93 10000 2.6 100 08:25 05.08.2019
4174 Clouds 17 1011 93 10000 2.6 100 07:49 05.08.2019
4175 Clouds 16 1011 93 10000 3.1 100 07:30 05.08.2019
4176 Clouds 16 1011 93 10000 3.1 100 06:57 05.08.2019
4177 Fog 16 1012 87 10000 2.1 120 06:24 05.08.2019
4178 Clouds 16 1012 87 10000 2.6 110 05:31 05.08.2019
4179 Clouds 16 1012 87 10000 2.6 110 04:51 05.08.2019
4180 Clouds 16 1013 87 10000 2.6 120 03:52 05.08.2019
4181 Clouds 15 1013 87 10000 2.6 110 02:47 05.08.2019
4182 Clouds 15 1013 82 10000 2.6 130 01:58 05.08.2019
4183 Clouds 15 1014 93 10000 1 120 01:25 05.08.2019
4184 Clouds 15 1014 93 10000 1 120 00:40 05.08.2019
4185 Clouds 17 1014 82 10000 0.5 150 00:20 05.08.2019
4186 Clouds 17 1014 82 10000 0.5 150 00:20 05.08.2019
4187 Clouds 16 1014 82 10000 0.5 150 23:43 04.08.2019
4188 Clouds 17 1014 77 10000 0.5 60 23:23 04.08.2019
4189 Clouds 17 1014 77 10000 0.5 60 22:57 04.08.2019
4190 Clouds 18 1014 77 10000 1.5 30 22:38 04.08.2019
4191 Clouds 18 1014 77 10000 1.5 30 22:20 04.08.2019
4192 Clouds 18 1014 77 10000 1.5 30 21:58 04.08.2019
4193 Clouds 19 1014 77 10000 1.5 30 21:40 04.08.2019
4194 Clouds 19 1014 72 10000 2.1 350 21:19 04.08.2019
4195 Clouds 20 1014 72 10000 2.1 350 20:42 04.08.2019
4196 Clouds 20 1014 64 10000 3.1 330 20:19 04.08.2019
4197 Clouds 20 1014 64 10000 3.1 330 19:55 04.08.2019
4198 Clouds 21 1015 56 10000 3.6 330 19:36 04.08.2019
4199 Clouds 21 1015 56 10000 3.6 330 19:18 04.08.2019
4200 Clouds 21 1015 56 10000 3.6 330 18:41 04.08.2019
4201 Clouds 21 1015 60 10000 4.6 330 18:20 04.08.2019
4202 Clouds 21 1015 60 10000 4.6 330 17:44 04.08.2019
4203 Clouds 21 1015 64 10000 4.6 320 17:24 04.08.2019
4204 Clouds 21 1015 64 10000 4.6 320 16:55 04.08.2019
4205 Clouds 21 1016 56 10000 4.6 290 16:36 04.08.2019
4206 Clouds 21 1016 56 10000 4.6 290 16:18 04.08.2019
4207 Clouds 21 1016 56 10000 4.6 290 15:39 04.08.2019
4208 Clouds 21 1016 56 10000 5.1 300 15:20 04.08.2019
4209 Clouds 21 1016 56 10000 5.1 300 14:44 04.08.2019
4210 Clouds 20 1016 68 10000 5.7 300 14:26 04.08.2019
4211 Clouds 20 1016 68 10000 5.7 300 13:47 04.08.2019
4212 Clouds 20 1016 64 10000 6.2 280 13:27 04.08.2019
4213 Clouds 20 1016 64 10000 6.2 280 13:27 04.08.2019
4214 Clouds 20 1016 64 10000 6.2 280 12:57 04.08.2019
4215 Clouds 20 1016 72 10000 6.2 260 12:39 04.08.2019
4216 Clouds 20 1016 72 10000 6.2 260 12:21 04.08.2019
4217 Clouds 20 1016 72 10000 6.2 260 11:49 04.08.2019
4218 Clouds 20 1016 72 10000 4.1 280 11:23 04.08.2019
4219 Clouds 19 1016 72 10000 4.1 280 10:51 04.08.2019
4220 Clouds 19 1016 72 10000 4.1 270 10:24 04.08.2019
4221 Clouds 19 1016 72 10000 4.1 270 09:55 04.08.2019
4222 Clouds 18 1016 77 10000 3.1 290 09:37 04.08.2019
4223 Clouds 18 1016 77 10000 3.1 290 09:18 04.08.2019
4224 Clouds 18 1016 82 10000 2.6 300 08:38 04.08.2019
4225 Clouds 18 1016 82 10000 2.6 300 08:18 04.08.2019
4226 Clouds 18 1016 82 10000 2.6 300 07:44 04.08.2019
4227 Rain 17 1016 93 10000 1 240 06:47 04.08.2019
4228 Clouds 17 1016 93 9000 1 210 06:24 04.08.2019
4229 Clouds 17 1016 93 9000 1 210 06:24 04.08.2019
4230 Clouds 18 1016 77 8000 1.5 290 03:44 04.08.2019
4231 Clouds 17 1016 82 8000 2.6 250 02:20 04.08.2019
4232 Clouds 17 1016 77 8000 1 270 01:33 04.08.2019
4233 Clouds 18 1016 77 8000 1 270 00:44 04.08.2019
4234 Clouds 17 1017 77 8000 2.6 310 00:26 04.08.2019
4235 Clear 17 1017 77 8000 2.6 310 23:56 03.08.2019
4236 Clear 17 1017 72 8000 3.1 330 23:38 03.08.2019
4237 Clear 17 1017 72 8000 3.1 330 23:18 03.08.2019
4238 Clear 18 1017 72 8000 3.1 330 22:42 03.08.2019
4239 Clear 18 1017 68 8000 3.1 320 22:20 03.08.2019
4240 Clear 18 1017 68 8000 3.1 320 21:40 03.08.2019
4241 Clouds 18 1016 72 10000 5.1 320 21:22 03.08.2019
4242 Clouds 18 1016 72 10000 5.1 320 20:46 03.08.2019
4243 Clouds 19 1016 63 10000 6.2 330 20:26 03.08.2019
4244 Clouds 19 1016 63 10000 6.2 330 19:58 03.08.2019
4245 Clouds 19 1016 63 10000 6.2 330 19:40 03.08.2019
4246 Clouds 19 1016 72 10000 6.2 330 19:21 03.08.2019
4247 Clouds 19 1016 72 10000 6.2 330 18:46 03.08.2019
4248 Clouds 19 1016 68 10000 6.2 340 18:26 03.08.2019
4249 Clouds 18 1016 68 10000 6.2 340 17:46 03.08.2019
4250 Clouds 19 1016 64 10000 6.2 330 17:20 03.08.2019
4251 Clouds 19 1016 64 10000 6.2 330 16:54 03.08.2019
4252 Clouds 20 1016 64 10000 7.2 320 16:36 03.08.2019
4253 Clouds 20 1016 64 10000 7.2 320 16:18 03.08.2019
4254 Clouds 20 1016 64 10000 7.2 320 15:42 03.08.2019
4255 Clouds 20 1016 64 10000 7.2 330 15:20 03.08.2019
4256 Clouds 20 1016 60 10000 6.2 320 14:38 03.08.2019
4257 Clouds 20 1016 60 10000 6.2 320 14:19 03.08.2019
4258 Clouds 20 1016 60 10000 6.2 320 13:49 03.08.2019
4259 Clouds 20 1016 64 10000 5.1 310 13:23 03.08.2019
4260 Clouds 20 1016 64 10000 5.1 310 12:56 03.08.2019
4261 Clouds 20 1015 64 10000 3.6 330 12:37 03.08.2019
4262 Clouds 20 1015 64 10000 3.6 330 12:19 03.08.2019
4263 Clouds 20 1015 64 10000 3.6 330 11:45 03.08.2019
4264 Clouds 20 1016 56 10000 2.6 330 11:25 03.08.2019
4265 Clouds 19 1016 56 10000 2.6 330 10:40 03.08.2019
4266 Clouds 19 1015 68 10000 1.5 320 10:21 03.08.2019
4267 Clouds 18 1015 68 10000 1.5 320 09:39 03.08.2019
4268 Clouds 18 1015 82 10000 2.6 320 09:19 03.08.2019
4269 Clouds 18 1015 82 10000 2.6 320 08:46 03.08.2019
4270 Fog 17 1015 93 10000 1 290 07:41 03.08.2019
4271 Fog 16 1015 93 10000 5.4 342.831 07:22 03.08.2019
4272 Fog 16 1015 93 10000 1.5 340 06:22 03.08.2019
4273 Rain 17 1015 93 10000 1 40 03:58 03.08.2019
4274 Clouds 16 1015 93 10000 1 20 02:28 03.08.2019
4275 Clouds 16 1015 100 9000 1.5 340 01:22 03.08.2019
4276 Clouds 16 1015 93 10000 1 310 00:32 03.08.2019
4277 Clouds 16 1015 93 10000 1 310 23:57 02.08.2019
4278 Clouds 16 1015 93 10000 1 310 23:57 02.08.2019
4279 Clouds 17 1015 93 10000 6.4 356.055 23:37 02.08.2019
4280 Clouds 17 1015 93 10000 6.4 356.055 23:18 02.08.2019
4281 Clouds 17 1015 93 10000 6.4 356.055 22:54 02.08.2019
4282 Clouds 18 1014 77 10000 2.1 10 22:36 02.08.2019
4283 Clouds 18 1014 77 10000 2.1 10 22:18 02.08.2019
4284 Clouds 19 1014 77 10000 2.1 30 21:41 02.08.2019
4285 Clouds 19 1014 77 10000 2.1 30 21:22 02.08.2019
4286 Clouds 20 1014 77 10000 2.1 30 20:45 02.08.2019
4287 Clouds 20 1014 77 10000 4.1 40 20:27 02.08.2019
4288 Clouds 20 1014 77 10000 4.1 40 19:56 02.08.2019
4289 Clouds 20 1014 77 10000 4.6 60 19:34 02.08.2019
4290 Clouds 20 1014 77 10000 4.6 60 18:57 02.08.2019
4291 Clouds 20 1014 82 10000 4.1 40 18:39 02.08.2019
4292 Clouds 20 1014 82 10000 4.1 40 18:20 02.08.2019
4293 Clouds 21 1014 82 10000 4.1 40 17:42 02.08.2019
4294 Clouds 20 1014 88 7000 2.6 20 17:22 02.08.2019
4295 Clouds 20 1014 88 8000 1.5 20 16:40 02.08.2019
4296 Clouds 20 1014 88 7000 2.6 20 16:40 02.08.2019
4297 Clouds 20 1014 88 8000 1.5 20 16:21 02.08.2019
4298 Clouds 20 1015 82 9000 2.6 10 15:58 02.08.2019
4299 Clouds 20 1014 77 10000 1.5 360 15:38 02.08.2019
4300 Clouds 20 1014 77 10000 1.5 360 15:18 02.08.2019
4301 Clouds 20 1014 77 10000 1.5 360 14:45 02.08.2019
4302 Rain 19 1015 93 7000 2.6 30 14:18 02.08.2019
4303 Rain 20 1015 93 7000 2.6 30 13:47 02.08.2019
4304 Thunderstorm 19 1015 93 5000 0.5 220 13:23 02.08.2019
4305 Thunderstorm 17 1015 82 3500 3.1 20 12:44 02.08.2019
4306 Thunderstorm 17 1015 82 3500 3.1 20 12:21 02.08.2019
4307 Thunderstorm 20 1014 72 5000 3.6 290 11:46 02.08.2019
4308 Clouds 20 1014 77 10000 2.1 240 11:26 02.08.2019
4309 Clouds 20 1014 77 10000 2.1 240 10:55 02.08.2019
4310 Clouds 20 1014 82 10000 2.6 260 10:37 02.08.2019
4311 Clouds 20 1014 82 10000 2.6 260 10:18 02.08.2019
4312 Clouds 19 1014 82 10000 2.6 260 09:44 02.08.2019
4313 Clouds 19 1014 82 10000 2.1 250 09:24 02.08.2019
4314 Clouds 17 1014 82 10000 2.1 250 08:44 02.08.2019
4315 Clouds 17 1014 88 8000 2.1 260 08:21 02.08.2019
4316 Clouds 16 1014 93 7000 2.1 230 07:48 02.08.2019
4317 Fog 16 1014 93 5000 2.6 230 07:28 02.08.2019
4318 Fog 16 1014 93 5000 2.6 230 06:42 02.08.2019
4319 Fog 15 1014 93 5000 2.1 230 05:50 02.08.2019
4320 Clouds 17 1015 82 10000 2.1 210 03:55 02.08.2019
4321 Clouds 17 1015 77 10000 1.5 210 03:25 02.08.2019
4322 Clouds 17 1015 72 10000 4.92 84.464 01:44 02.08.2019
4323 Clouds 18 1015 68 10000 0.5 170 00:35 02.08.2019
4324 Clouds 18 1015 68 10000 0.5 170 23:46 01.08.2019
4325 Clouds 18 1015 68 10000 5.93 77.925 23:28 01.08.2019
4326 Clouds 18 1015 68 10000 5.93 77.925 22:56 01.08.2019
4327 Clouds 19 1015 68 10000 0.5 110 22:37 01.08.2019
4328 Clouds 19 1015 68 10000 0.5 110 22:19 01.08.2019
4329 Clouds 21 1015 68 10000 0.5 110 21:42 01.08.2019
4330 Clouds 21 1015 64 10000 1.5 80 21:23 01.08.2019
4331 Clouds 20 1015 60 10000 2.1 60 20:48 01.08.2019
4332 Clouds 20 1015 60 10000 1.5 360 20:24 01.08.2019
4333 Clouds 20 1015 60 10000 1.5 360 20:00 01.08.2019
4334 Clouds 20 1015 60 10000 1.5 360 20:00 01.08.2019
4335 Clouds 20 1015 56 10000 3.1 30 19:38 01.08.2019
4336 Clouds 20 1015 56 10000 3.1 30 19:19 01.08.2019
4337 Rain 21 1015 44 10000 3.6 230 18:43 01.08.2019
4338 Rain 21 1015 44 10000 3.6 230 18:24 01.08.2019
4339 Rain 21 1015 44 10000 3.6 230 17:51 01.08.2019
4340 Clouds 22 1015 44 10000 3.1 210 17:32 01.08.2019
4341 Clouds 22 1015 44 10000 3.1 210 16:57 01.08.2019
4342 Clouds 22 1015 46 10000 2.6 240 16:39 01.08.2019
4343 Clouds 22 1015 46 10000 2.6 240 16:19 01.08.2019
4344 Clouds 23 1015 46 10000 2.6 240 15:41 01.08.2019
4345 Clouds 23 1015 46 10000 5.1 230 15:19 01.08.2019
4346 Clouds 23 1015 46 10000 5.1 230 14:42 01.08.2019
4347 Clouds 23 1015 46 10000 5.1 230 14:42 01.08.2019
4348 Clouds 22 1016 53 10000 3.6 230 14:19 01.08.2019
4349 Clouds 22 1016 53 10000 3.6 230 14:19 01.08.2019
4350 Clouds 22 1016 53 10000 3.6 230 13:58 01.08.2019
4351 Clouds 23 1016 46 10000 4.1 220 13:39 01.08.2019
4352 Clouds 23 1016 46 10000 4.1 220 13:20 01.08.2019
4353 Clouds 21 1016 46 10000 4.1 220 12:46 01.08.2019
4354 Clouds 21 1016 49 10000 4.6 190 12:27 01.08.2019
4355 Clouds 21 1016 49 10000 4.6 190 11:43 01.08.2019
4356 Clouds 21 1016 60 10000 3.1 250 11:24 01.08.2019
4357 Clouds 21 1016 60 10000 3.1 250 10:56 01.08.2019
4358 Clouds 19 1016 68 10000 2.1 220 10:38 01.08.2019
4359 Clouds 19 1016 68 10000 2.1 220 10:20 01.08.2019
4360 Clouds 17 1016 77 10000 3.1 220 09:44 01.08.2019
4361 Clouds 17 1016 77 10000 3.1 220 09:23 01.08.2019
4362 Clouds 16 1016 77 10000 3.1 220 08:47 01.08.2019
4363 Clouds 16 1016 82 10000 3.1 210 08:21 01.08.2019
4364 Clouds 15 1016 82 10000 3.1 210 07:52 01.08.2019
4365 Clouds 15 1016 82 10000 3.1 210 07:52 01.08.2019
4366 Fog 15 1016 87 9000 2.1 180 07:28 01.08.2019
4367 Fog 15 1016 87 9000 2.1 180 06:49 01.08.2019
4368 Fog 15 1016 87 9000 2.1 180 06:49 01.08.2019
4369 Clouds 15 1016 87 7000 2.6 200 06:29 01.08.2019
4370 Clouds 15 1016 87 10000 2.6 210 05:31 01.08.2019
4371 Clouds 16 1016 87 10000 2.1 180 02:35 01.08.2019
4372 Clouds 17 1016 87 10000 2.1 210 00:51 01.08.2019
4373 Clouds 17 1016 87 10000 2.1 220 00:26 01.08.2019
4374 Clouds 17 1016 87 10000 2.1 220 00:26 01.08.2019
4375 Clouds 17 1016 87 10000 2.1 220 23:55 31.07.2019
4376 Clouds 17 1016 87 10000 2.1 220 23:36 31.07.2019
4377 Clouds 17 1016 87 10000 2.1 220 23:18 31.07.2019
4378 Clouds 17 1016 87 10000 2.1 220 22:42 31.07.2019
4379 Clouds 18 1015 77 10000 1 0 22:23 31.07.2019
4380 Clouds 19 1015 77 10000 1 0 21:40 31.07.2019
4381 Clouds 19 1015 72 10000 2.1 270 21:22 31.07.2019
4382 Clouds 19 1015 72 10000 4.1 260 20:49 31.07.2019
4383 Clouds 19 1014 72 10000 4.1 270 20:24 31.07.2019
4384 Clouds 19 1014 72 10000 4.1 270 19:49 31.07.2019
4385 Clouds 20 1014 60 10000 4.1 240 19:31 31.07.2019
4386 Clouds 18 1014 60 10000 4.1 240 18:57 31.07.2019
4387 Clouds 20 1014 56 10000 5.7 270 18:37 31.07.2019
4388 Clouds 20 1014 56 10000 5.7 270 18:18 31.07.2019
4389 Clouds 22 1014 56 10000 5.7 270 17:44 31.07.2019
4390 Rain 20 1013 72 10000 3.6 230 17:20 31.07.2019
4391 Rain 20 1013 72 10000 3.6 230 16:52 31.07.2019
4392 Clouds 24 1013 44 10000 5.1 250 16:27 31.07.2019
4393 Clouds 24 1013 44 10000 5.1 250 15:58 31.07.2019
4394 Clouds 25 1013 44 10000 4.6 240 15:38 31.07.2019
4395 Clouds 25 1013 44 10000 4.6 240 15:38 31.07.2019
4396 Clouds 25 1013 44 10000 4.6 240 15:20 31.07.2019
4397 Clouds 25 1013 44 10000 4.6 240 14:42 31.07.2019
4398 Clouds 25 1014 44 10000 4.1 240 14:19 31.07.2019
4399 Clouds 25 1014 44 10000 4.1 240 13:55 31.07.2019
4400 Clouds 24 1013 47 10000 4.6 240 13:37 31.07.2019
4401 Clouds 24 1013 47 10000 4.6 240 13:18 31.07.2019
4402 Clouds 23 1013 56 10000 4.1 240 12:40 31.07.2019
4403 Clouds 23 1013 56 10000 4.1 240 12:22 31.07.2019
4404 Clouds 22 1013 60 10000 4.6 270 11:39 31.07.2019
4405 Clouds 22 1013 60 10000 4.6 270 11:21 31.07.2019
4406 Clouds 22 1013 60 10000 4.6 270 10:55 31.07.2019
4407 Clouds 21 1013 77 10000 2.6 210 10:37 31.07.2019
4408 Clouds 21 1013 77 10000 2.6 210 10:18 31.07.2019
4409 Clouds 20 1013 77 10000 2.6 210 09:42 31.07.2019
4410 Clouds 19 1013 88 10000 2.6 150 09:23 31.07.2019
4411 Clouds 19 1013 88 10000 2.6 150 08:43 31.07.2019
4412 Clouds 19 1012 93 10000 2.1 130 08:23 31.07.2019
4413 Clouds 18 1012 93 10000 2.1 130 07:47 31.07.2019
4414 Clouds 17 1012 93 10000 2.1 120 07:27 31.07.2019
4415 Clouds 18 1012 93 10000 3.6 130 05:20 31.07.2019
4416 Thunderstorm 19 1011 88 10000 2.1 70 03:56 31.07.2019
4417 Clouds 20 1011 72 10000 2.6 90 00:37 31.07.2019
4418 Clouds 20 1011 72 10000 2.6 90 23:49 30.07.2019
4419 Clouds 20 1011 68 10000 2.6 80 23:27 30.07.2019
4420 Clouds 20 1011 68 10000 2.6 80 22:49 30.07.2019
4421 Clouds 21 1011 60 10000 3.1 80 22:26 30.07.2019
4422 Clouds 21 1011 60 10000 3.1 80 21:59 30.07.2019
4423 Clouds 21 1010 60 10000 2.6 80 21:37 30.07.2019
4424 Clouds 21 1010 60 10000 2.6 80 21:19 30.07.2019
4425 Clouds 22 1010 53 10000 3.6 70 20:55 30.07.2019
4426 Clouds 24 1011 50 10000 4.6 70 20:36 30.07.2019
4427 Clouds 24 1011 50 10000 4.6 70 20:18 30.07.2019
4428 Clouds 23 1011 50 10000 4.6 70 19:42 30.07.2019
4429 Clouds 23 1011 50 10000 4.6 60 19:24 30.07.2019
4430 Clouds 23 1011 50 10000 4.6 60 18:45 30.07.2019
4431 Clouds 23 1011 47 10000 4.6 50 18:21 30.07.2019
4432 Clouds 23 1011 47 10000 4.6 50 17:57 30.07.2019
4433 Clouds 23 1011 44 10000 5.1 40 17:39 30.07.2019
4434 Clouds 23 1011 44 10000 5.1 40 17:18 30.07.2019
4435 Clouds 23 1012 38 10000 5.1 60 16:41 30.07.2019
4436 Clouds 23 1012 38 10000 5.1 60 16:19 30.07.2019
4437 Clouds 23 1012 50 10000 4.6 50 15:39 30.07.2019
4438 Clouds 23 1012 50 10000 4.6 50 15:19 30.07.2019
4439 Clouds 22 1012 50 10000 4.6 50 14:43 30.07.2019
4440 Clouds 23 1012 53 10000 4.1 40 14:22 30.07.2019
4441 Clouds 23 1012 53 10000 4.1 40 13:55 30.07.2019
4442 Clouds 23 1012 53 10000 3.1 60 13:36 30.07.2019
4443 Clouds 23 1012 53 10000 3.1 60 13:18 30.07.2019
4444 Clouds 24 1012 53 10000 3.1 60 12:43 30.07.2019
4445 Clouds 24 1012 50 10000 2.1 360 12:24 30.07.2019
4446 Clouds 24 1012 50 10000 2.1 360 11:46 30.07.2019
4447 Clouds 23 1012 53 10000 1.5 240 11:23 30.07.2019
4448 Clouds 23 1012 53 10000 1.5 240 10:56 30.07.2019
4449 Clouds 21 1012 60 10000 1 0 10:38 30.07.2019
4450 Clouds 21 1012 60 10000 1 0 10:20 30.07.2019
4451 Clouds 20 1012 60 10000 1 0 09:46 30.07.2019
4452 Clouds 20 1012 68 10000 0.5 330 09:27 30.07.2019
4453 Clouds 18 1012 82 10000 0.5 280 08:39 30.07.2019
4454 Clouds 18 1012 82 10000 0.5 280 08:18 30.07.2019
4455 Clouds 17 1012 82 10000 0.5 280 07:40 30.07.2019
4456 Clouds 17 1012 82 10000 1.5 320 07:22 30.07.2019
4457 Clouds 17 1012 82 10000 1.5 320 06:43 30.07.2019
4458 Clouds 16 1012 88 10000 2.6 350 05:35 30.07.2019
4459 Clouds 16 1012 88 10000 2.6 350 04:42 30.07.2019
4460 Clouds 18 1012 77 10000 2.6 340 01:23 30.07.2019
4461 Clouds 18 1012 77 10000 2.1 350 00:28 30.07.2019
4462 Clouds 18 1012 77 10000 2.1 350 23:59 29.07.2019
4463 Clouds 18 1012 77 10000 2.1 20 23:40 29.07.2019
4464 Clouds 18 1012 77 10000 2.1 20 23:21 29.07.2019
4465 Clouds 18 1012 77 10000 2.1 20 22:55 29.07.2019
4466 Clouds 18 1012 77 10000 2.1 20 22:55 29.07.2019
4467 Clouds 18 1011 72 10000 3.1 350 22:37 29.07.2019
4468 Clouds 18 1011 72 10000 3.1 350 22:18 29.07.2019
4469 Clouds 19 1011 72 10000 3.1 350 21:42 29.07.2019
4470 Clouds 20 1011 64 10000 4.1 360 21:23 29.07.2019
4471 Clouds 20 1011 64 10000 4.1 360 20:58 29.07.2019
4472 Clouds 20 1011 60 10000 4.1 10 20:39 29.07.2019
4473 Clouds 20 1011 60 10000 4.1 10 20:19 29.07.2019
4474 Clouds 21 1011 60 10000 4.1 10 19:47 29.07.2019
4475 Clouds 21 1011 60 10000 6.7 340 19:23 29.07.2019
4476 Clouds 21 1011 60 10000 6.7 340 18:58 29.07.2019
4477 Clouds 22 1011 60 10000 6.2 340 18:38 29.07.2019
4478 Clouds 22 1011 60 10000 6.2 340 18:19 29.07.2019
4479 Clouds 21 1011 60 10000 6.2 340 17:47 29.07.2019
4480 Clouds 21 1011 68 10000 6.2 320 17:28 29.07.2019
4481 Clouds 21 1011 68 10000 6.2 320 16:55 29.07.2019
4482 Clouds 21 1011 73 10000 5.1 320 16:37 29.07.2019
4483 Clouds 21 1011 73 10000 5.1 320 16:18 29.07.2019
4484 Clouds 21 1011 77 10000 4.6 320 15:45 29.07.2019
4485 Clouds 21 1011 73 10000 5.1 330 15:27 29.07.2019
4486 Clouds 20 1011 68 10000 5.7 320 14:42 29.07.2019
4487 Clouds 21 1011 68 10000 5.7 310 14:21 29.07.2019
4488 Clouds 21 1011 68 10000 5.7 300 13:46 29.07.2019
4489 Clouds 20 1010 73 10000 6.2 310 13:24 29.07.2019
4490 Clouds 20 1010 73 10000 6.2 310 12:57 29.07.2019
4491 Clouds 20 1010 73 10000 6.7 300 12:38 29.07.2019
4492 Clouds 20 1010 73 10000 6.7 300 12:20 29.07.2019
4493 Clouds 20 1010 73 10000 6.7 300 11:41 29.07.2019
4494 Clouds 20 1010 82 9000 7.2 300 11:19 29.07.2019
4495 Clouds 20 1010 82 9000 7.2 300 10:43 29.07.2019
4496 Clouds 20 1009 82 8000 6.7 300 10:21 29.07.2019
4497 Clouds 19 1009 82 8000 6.7 300 09:44 29.07.2019
4498 Clouds 19 1009 82 7000 7.7 300 09:21 29.07.2019
4499 Mist 19 1009 82 5000 6.7 300 08:47 29.07.2019
4500 Mist 19 1008 93 5000 7.2 290 08:26 29.07.2019
4501 Mist 19 1008 93 5000 7.2 290 07:46 29.07.2019
4502 Mist 19 1008 93 4000 6.7 280 07:27 29.07.2019
4503 Mist 19 1007 93 3500 4.6 280 06:40 29.07.2019
4504 Clouds 19 1007 88 10000 1 230 05:37 29.07.2019
4505 Clouds 20 1006 83 10000 1.5 90 03:57 29.07.2019
4506 Clouds 21 1006 83 10000 1.5 70 01:52 29.07.2019
4507 Clouds 21 1006 83 10000 2.1 80 01:33 29.07.2019
4508 Clouds 21 1006 83 10000 2.1 80 00:58 29.07.2019
4509 Clouds 22 1005 78 10000 2.6 70 00:29 29.07.2019
4510 Clouds 21 1005 78 10000 2.6 70 23:43 28.07.2019
4511 Rain 21 1005 78 10000 2.6 70 23:24 28.07.2019
4512 Rain 21 1005 78 10000 2.6 70 22:46 28.07.2019
4513 Clouds 22 1005 73 10000 3.6 60 22:28 28.07.2019
4514 Clouds 22 1005 73 10000 3.6 60 21:54 28.07.2019
4515 Clouds 23 1004 64 10000 6.2 40 21:36 28.07.2019
4516 Clouds 23 1004 64 10000 6.2 40 21:18 28.07.2019
4517 Clouds 22 1004 64 10000 6.2 40 20:42 28.07.2019
4518 Clouds 24 1003 51 10000 4.6 60 20:23 28.07.2019
4519 Clouds 24 1003 51 10000 4.6 60 19:40 28.07.2019
4520 Clouds 26 1002 42 10000 2.6 120 19:21 28.07.2019
4521 Clouds 25 1002 42 10000 2.6 120 18:46 28.07.2019
4522 Clouds 26 1002 42 10000 3.1 110 18:27 28.07.2019
4523 Clouds 26 1002 42 10000 3.1 110 17:56 28.07.2019
4524 Clouds 25 1002 44 10000 3.6 110 17:38 28.07.2019
4525 Clouds 25 1002 44 10000 3.6 110 17:19 28.07.2019
4526 Clouds 25 1002 44 10000 3.6 110 16:45 28.07.2019
4527 Clouds 26 1002 39 10000 3.6 120 16:25 28.07.2019
4528 Clouds 25 1002 39 10000 3.6 120 15:48 28.07.2019
4529 Clouds 25 1002 47 10000 5.1 90 15:27 28.07.2019
4530 Clouds 25 1002 47 10000 5.1 90 14:56 28.07.2019
4531 Clouds 24 1003 50 10000 7.7 80 14:36 28.07.2019
4532 Clouds 24 1003 50 10000 7.7 80 14:18 28.07.2019
4533 Clouds 24 1003 50 10000 7.7 80 14:18 28.07.2019
4534 Clouds 24 1003 50 10000 7.7 80 13:39 28.07.2019
4535 Clouds 24 1003 57 10000 7.2 80 13:20 28.07.2019
4536 Clouds 22 1003 57 10000 7.2 80 12:45 28.07.2019
4537 Clouds 23 1003 60 10000 7.2 60 12:27 28.07.2019
4538 Clouds 22 1003 60 10000 7.2 60 11:50 28.07.2019
4539 Clouds 22 1003 64 10000 7.2 70 11:29 28.07.2019
4540 Clouds 22 1003 64 10000 7.2 70 10:59 28.07.2019
4541 Clouds 22 1003 68 10000 5.7 80 10:38 28.07.2019
4542 Clouds 22 1003 68 10000 5.7 80 10:18 28.07.2019
4543 Clouds 21 1003 68 10000 5.7 80 09:40 28.07.2019
4544 Clouds 20 1003 82 10000 6.2 80 09:22 28.07.2019
4545 Clouds 20 1003 82 10000 6.2 80 08:42 28.07.2019
4546 Clouds 19 1003 93 10000 4.6 80 08:22 28.07.2019
4547 Clouds 19 1003 93 10000 4.6 80 07:44 28.07.2019
4548 Clouds 18 1004 88 10000 4.6 90 07:25 28.07.2019
4549 Clouds 18 1004 88 5000 4.1 90 06:36 28.07.2019
4550 Clouds 18 1004 93 5000 4.1 80 05:21 28.07.2019
4551 Clouds 19 1004 88 6000 5.1 80 02:43 28.07.2019
4552 Clouds 19 1005 82 7000 5.1 80 02:00 28.07.2019
4553 Clouds 20 1005 82 6000 4.1 90 01:18 28.07.2019
4554 Clouds 20 1005 82 6000 4.1 90 00:43 28.07.2019
4555 Clouds 20 1005 72 6000 5.7 80 23:54 27.07.2019
4556 Clouds 20 1005 68 6000 5.7 80 23:29 27.07.2019
4557 Clouds 21 1005 68 6000 5.7 80 22:47 27.07.2019
4558 Clouds 22 1005 60 7000 6.7 80 22:29 27.07.2019
4559 Clouds 22 1005 60 7000 6.7 80 21:59 27.07.2019
4560 Clouds 23 1005 57 10000 9.3 70 21:38 27.07.2019
4561 Clouds 23 1005 57 10000 9.3 70 21:19 27.07.2019
4562 Clouds 24 1005 57 10000 9.3 70 20:45 27.07.2019
4563 Clouds 25 1005 47 10000 9.8 80 20:22 27.07.2019
4564 Clouds 26 1005 47 10000 9.8 80 19:42 27.07.2019
4565 Clouds 27 1005 44 10000 9.3 90 19:22 27.07.2019
4566 Clouds 27 1005 44 10000 9.3 90 18:49 27.07.2019
4567 Clouds 27 1005 42 10000 9.8 90 18:31 27.07.2019
4568 Clouds 27 1005 42 10000 9.8 90 17:52 27.07.2019
4569 Clouds 28 1006 39 10000 8.7 90 17:32 27.07.2019
4570 Clouds 28 1006 39 10000 8.7 90 16:58 27.07.2019
4571 Clouds 28 1006 42 10000 8.7 90 16:39 27.07.2019
4572 Clouds 28 1006 42 10000 8.7 90 16:19 27.07.2019
4573 Clouds 28 1006 42 10000 8.7 90 15:44 27.07.2019
4574 Clouds 27 1007 42 10000 8.7 90 15:19 27.07.2019
4575 Clouds 26 1007 42 10000 8.7 90 14:48 27.07.2019
4576 Clouds 26 1007 42 10000 8.2 100 14:29 27.07.2019
4577 Clouds 26 1007 42 10000 8.2 100 13:52 27.07.2019
4578 Clouds 25 1008 47 10000 8.2 90 13:25 27.07.2019
4579 Clouds 25 1008 47 10000 8.2 90 12:56 27.07.2019
4580 Clouds 25 1008 47 10000 6.7 110 12:37 27.07.2019
4581 Clouds 25 1008 47 10000 6.7 110 12:19 27.07.2019
4582 Clouds 24 1008 47 10000 6.7 110 11:40 27.07.2019
4583 Clouds 23 1008 57 10000 6.2 100 11:21 27.07.2019
4584 Clouds 22 1008 57 10000 6.2 100 10:41 27.07.2019
4585 Clouds 22 1008 64 10000 6.7 100 10:22 27.07.2019
4586 Clouds 21 1008 64 10000 6.7 100 09:42 27.07.2019
4587 Clouds 20 1008 72 10000 5.1 110 09:23 27.07.2019
4588 Clouds 20 1008 72 10000 5.1 110 08:50 27.07.2019
4589 Clouds 20 1008 72 10000 5.1 110 08:50 27.07.2019
4590 Clouds 20 1008 77 10000 5.1 90 08:31 27.07.2019
4591 Clouds 20 1008 77 10000 5.1 90 07:56 27.07.2019
4592 Clouds 20 1008 77 10000 5.1 90 07:56 27.07.2019
4593 Clouds 18 1008 82 10000 3.6 90 07:33 27.07.2019
4594 Clouds 18 1008 82 10000 3.6 90 06:58 27.07.2019
4595 Clouds 18 1009 82 10000 3.6 90 06:32 27.07.2019
4596 Clouds 18 1009 82 10000 3.6 90 05:54 27.07.2019
4597 Clouds 18 1009 82 10000 3.6 100 05:32 27.07.2019
4598 Clear 18 1009 77 10000 4.6 90 04:35 27.07.2019
4599 Clear 19 1010 77 10000 5.7 80 03:37 27.07.2019
4600 Clouds 20 1010 77 10000 5.7 80 02:42 27.07.2019
4601 Clouds 21 1010 72 10000 5.7 80 01:52 27.07.2019
4602 Clouds 21 1011 64 10000 6.2 90 01:28 27.07.2019
4603 Clouds 22 1011 53 10000 5.7 90 00:33 27.07.2019
4604 Clouds 22 1011 53 10000 5.7 90 23:58 26.07.2019
4605 Clouds 23 1011 53 10000 5.7 90 23:40 26.07.2019
4606 Clouds 23 1011 53 10000 5.7 90 23:22 26.07.2019
4607 Clouds 23 1011 53 10000 5.7 90 22:42 26.07.2019
4608 Clouds 25 1011 47 10000 5.7 90 22:24 26.07.2019
4609 Clouds 25 1011 47 10000 5.7 90 21:49 26.07.2019
4610 Clouds 27 1011 42 10000 7.2 90 21:20 26.07.2019
4611 Clouds 27 1011 42 10000 7.2 90 20:48 26.07.2019
4612 Clouds 29 1011 35 10000 7.7 100 20:30 26.07.2019
4613 Clouds 29 1011 35 10000 7.7 100 19:45 26.07.2019
4614 Clouds 30 1011 40 10000 7.7 90 19:26 26.07.2019
4615 Clouds 30 1011 40 10000 7.7 90 18:59 26.07.2019
4616 Clouds 30 1011 40 10000 7.7 90 18:41 26.07.2019
4617 Clouds 31 1012 38 10000 7.2 90 18:20 26.07.2019
4618 Clouds 31 1012 38 10000 7.2 90 17:56 26.07.2019
4619 Clouds 31 1012 33 10000 7.2 110 17:37 26.07.2019
4620 Clouds 31 1012 33 10000 7.2 110 17:18 26.07.2019
4621 Clouds 31 1012 33 10000 7.2 110 16:41 26.07.2019
4622 Clouds 31 1013 35 10000 7.2 110 16:21 26.07.2019
4623 Clouds 31 1013 35 10000 7.2 110 15:59 26.07.2019
4624 Clouds 31 1013 35 10000 7.2 110 15:40 26.07.2019
4625 Clouds 30 1013 37 10000 6.7 110 15:20 26.07.2019
4626 Clouds 30 1013 37 10000 6.7 110 14:44 26.07.2019
4627 Clouds 29 1013 42 10000 7.7 100 14:25 26.07.2019
4628 Clouds 27 1013 42 10000 7.7 100 13:47 26.07.2019
4629 Clouds 27 1014 47 10000 5.7 110 13:28 26.07.2019
4630 Clouds 25 1014 47 10000 5.7 110 12:50 26.07.2019
4631 Clouds 25 1015 54 10000 4.1 130 12:24 26.07.2019
4632 Clouds 25 1015 54 10000 4.1 130 11:58 26.07.2019
4633 Clouds 24 1015 57 10000 5.7 110 11:37 26.07.2019
4634 Clouds 24 1015 57 10000 5.7 110 11:18 26.07.2019
4635 Clouds 23 1015 57 10000 5.7 110 10:42 26.07.2019
4636 Clouds 23 1015 56 10000 6.7 100 10:24 26.07.2019
4637 Clouds 23 1015 56 10000 6.7 100 09:50 26.07.2019
4638 Clouds 22 1015 64 10000 4.1 110 09:30 26.07.2019
4639 Clouds 22 1015 64 10000 4.1 110 08:41 26.07.2019
4640 Clouds 21 1015 68 10000 4.6 100 08:21 26.07.2019
4641 Clouds 21 1015 68 10000 4.6 100 07:43 26.07.2019
4642 Clouds 20 1015 72 10000 3.6 100 07:24 26.07.2019
4643 Clouds 20 1015 77 10000 4.1 90 06:31 26.07.2019
4644 Clouds 21 1015 72 10000 3.6 100 04:30 26.07.2019
4645 Clouds 22 1015 72 10000 3.6 100 03:55 26.07.2019
4646 Clouds 23 1015 73 10000 3.1 90 01:50 26.07.2019
4647 Clouds 23 1015 64 10000 3.6 90 01:26 26.07.2019
4648 Clouds 24 1015 60 10000 3.6 90 00:33 26.07.2019
4649 Clouds 24 1015 60 10000 3.6 90 23:55 25.07.2019
4650 Clouds 25 1015 61 10000 3.1 90 23:23 25.07.2019
4651 Clouds 26 1015 61 10000 2.6 80 22:42 25.07.2019
4652 Clouds 27 1015 51 10000 3.6 90 22:23 25.07.2019
4653 Clouds 27 1015 51 10000 3.6 90 21:58 25.07.2019
4654 Clouds 27 1015 51 10000 3.6 90 21:58 25.07.2019
4655 Clouds 28 1015 51 10000 3.6 90 21:40 25.07.2019
4656 Clouds 30 1015 40 10000 4.1 100 21:20 25.07.2019
4657 Clouds 30 1015 40 10000 4.1 100 21:20 25.07.2019
4658 Clouds 32 1015 40 10000 4.1 100 20:41 25.07.2019
4659 Clouds 33 1015 36 10000 4.6 90 20:21 25.07.2019
4660 Clouds 33 1015 36 10000 4.6 90 19:42 25.07.2019
4661 Clouds 35 1015 30 10000 4.6 100 19:23 25.07.2019
4662 Clouds 35 1015 32 10000 4.6 110 18:45 25.07.2019
4663 Clouds 35 1015 32 10000 4.6 110 18:27 25.07.2019
4664 Clouds 35 1015 32 10000 4.6 110 17:52 25.07.2019
4665 Clouds 34 1015 36 10000 4.1 110 17:34 25.07.2019
4666 Clouds 34 1015 36 10000 4.1 110 16:59 25.07.2019
4667 Clouds 34 1015 36 10000 4.1 110 16:41 25.07.2019
4668 Clouds 35 1016 36 10000 3.6 110 16:22 25.07.2019
4669 Clouds 35 1016 36 10000 3.6 110 15:51 25.07.2019
4670 Clouds 34 1016 36 10000 4.1 110 15:21 25.07.2019
4671 Clouds 34 1016 36 10000 4.1 110 14:43 25.07.2019
4672 Clouds 34 1016 36 10000 3.6 120 14:25 25.07.2019
4673 Clouds 34 1016 36 10000 3.6 120 13:59 25.07.2019
4674 Clouds 31 1016 43 10000 4.6 120 13:37 25.07.2019
4675 Clouds 31 1016 43 10000 4.6 120 13:19 25.07.2019
4676 Clouds 29 1016 45 10000 4.1 110 12:35 25.07.2019
4677 Clouds 29 1016 45 10000 4.1 110 11:59 25.07.2019
4678 Clouds 29 1016 45 10000 3.1 140 11:40 25.07.2019
4679 Clouds 29 1016 45 10000 4.1 110 11:40 25.07.2019
4680 Clouds 29 1016 45 10000 3.1 140 11:22 25.07.2019
4681 Clouds 29 1016 45 10000 3.1 140 10:45 25.07.2019
4682 Clouds 26 1016 50 10000 3.6 140 10:24 25.07.2019
4683 Clouds 26 1016 50 10000 3.6 140 09:46 25.07.2019
4684 Clouds 24 1016 53 10000 4.6 130 09:27 25.07.2019
4685 Clouds 24 1016 53 10000 4.6 130 09:27 25.07.2019
4686 Clouds 24 1016 53 10000 4.6 130 08:53 25.07.2019
4687 Clouds 22 1016 60 10000 3.1 130 08:32 25.07.2019
4688 Clouds 23 1016 60 10000 3.1 130 07:40 25.07.2019
4689 Clouds 21 1016 68 10000 3.6 120 06:46 25.07.2019
4690 Clouds 21 1016 77 10000 2.6 110 06:20 25.07.2019
4691 Clouds 21 1015 73 10000 3.1 120 05:36 25.07.2019
4692 Clouds 22 1015 73 10000 3.1 120 04:45 25.07.2019
4693 Clouds 22 1016 73 10000 2.6 120 03:24 25.07.2019
4694 Clouds 24 1016 64 10000 3.1 110 01:21 25.07.2019
4695 Clouds 24 1015 69 10000 3.1 100 00:34 25.07.2019
4696 Clouds 24 1015 69 10000 3.1 100 23:56 24.07.2019
4697 Clouds 25 1015 57 10000 3.6 100 23:38 24.07.2019
4698 Clouds 25 1015 57 10000 3.6 100 23:20 24.07.2019
4699 Clouds 26 1015 57 10000 3.6 100 22:44 24.07.2019
4700 Clouds 29 1015 45 10000 2.6 100 22:22 24.07.2019
4701 Clouds 29 1015 45 10000 2.6 100 21:55 24.07.2019
4702 Clouds 31 1015 43 10000 3.1 100 21:37 24.07.2019
4703 Clouds 31 1015 43 10000 3.1 100 21:18 24.07.2019
4704 Clouds 31 1015 43 10000 3.1 100 20:45 24.07.2019
4705 Clouds 33 1015 31 10000 3.1 130 20:26 24.07.2019
4706 Clouds 33 1015 31 10000 3.1 130 19:58 24.07.2019
4707 Clouds 33 1014 29 10000 4.1 150 19:39 24.07.2019
4708 Clouds 33 1014 29 10000 4.1 150 19:19 24.07.2019
4709 Clouds 33 1014 29 10000 4.1 150 18:42 24.07.2019
4710 Clouds 34 1015 30 10000 5.1 130 18:24 24.07.2019
4711 Clouds 34 1015 30 10000 5.1 130 17:47 24.07.2019
4712 Clouds 33 1015 31 10000 4.6 150 17:21 24.07.2019
4713 Clouds 33 1015 31 10000 4.6 150 16:44 24.07.2019
4714 Clouds 33 1015 31 10000 4.6 160 16:23 24.07.2019
4715 Clouds 33 1015 31 10000 4.6 160 15:59 24.07.2019
4716 Clouds 33 1016 31 10000 4.6 140 15:36 24.07.2019
4717 Clouds 33 1016 31 10000 4.6 140 15:18 24.07.2019
4718 Clouds 33 1016 31 10000 4.6 140 14:43 24.07.2019
4719 Clouds 32 1016 35 10000 4.6 130 14:20 24.07.2019
4720 Clouds 31 1016 40 10000 5.1 140 13:40 24.07.2019
4721 Clouds 31 1016 40 10000 5.1 140 13:19 24.07.2019
4722 Clouds 31 1016 40 10000 5.1 140 12:52 24.07.2019
4723 Clouds 29 1016 45 10000 5.1 120 12:34 24.07.2019
4724 Clouds 29 1016 45 10000 5.1 120 11:41 24.07.2019
4725 Clouds 27 1017 51 10000 4.6 140 11:21 24.07.2019
4726 Clouds 26 1017 51 10000 4.6 140 10:49 24.07.2019
4727 Clouds 26 1017 57 10000 4.1 130 10:27 24.07.2019
4728 Clouds 26 1017 57 10000 4.1 130 09:59 24.07.2019
4729 Clouds 25 1017 57 10000 4.1 130 09:41 24.07.2019
4730 Clouds 22 1017 68 10000 4.1 130 09:21 24.07.2019
4731 Clouds 22 1017 68 10000 4.1 130 08:42 24.07.2019
4732 Clouds 21 1017 77 10000 3.6 120 07:52 24.07.2019
4733 Fog 20 1017 88 10000 2.6 110 07:31 24.07.2019
4734 Fog 19 1017 88 10000 2.6 110 06:51 24.07.2019
4735 Fog 19 1017 88 10000 2.6 100 06:27 24.07.2019
4736 Fog 19 1018 88 10000 2.6 100 04:56 24.07.2019
4737 Clear 19 1019 82 10000 2.6 100 01:48 24.07.2019
4738 Clear 20 1019 77 10000 3.1 90 00:57 24.07.2019
4739 Clear 20 1019 77 10000 3.1 80 00:30 24.07.2019
4740 Clear 19 1019 77 10000 3.1 80 23:52 23.07.2019
4741 Clouds 20 1019 77 10000 2.6 70 23:26 23.07.2019
4742 Clouds 20 1019 77 10000 2.6 70 22:58 23.07.2019
4743 Clear 22 1019 69 10000 3.1 70 22:37 23.07.2019
4744 Clear 22 1019 69 10000 3.1 70 22:18 23.07.2019
4745 Clear 22 1019 69 10000 3.1 70 22:18 23.07.2019
4746 Clear 22 1019 69 10000 3.1 70 21:44 23.07.2019
4747 Clear 22 1019 69 10000 3.1 70 21:44 23.07.2019
4748 Clear 23 1019 61 10000 3.6 60 21:26 23.07.2019
4749 Clear 25 1019 61 10000 3.6 60 20:49 23.07.2019
4750 Clear 26 1020 57 10000 4.1 60 20:29 23.07.2019
4751 Clear 26 1020 57 10000 4.1 60 19:44 23.07.2019
4752 Clouds 27 1020 54 10000 5.1 50 19:24 23.07.2019
4753 Clouds 27 1020 54 10000 5.1 50 19:24 23.07.2019
4754 Clouds 27 1020 54 10000 5.1 50 18:58 23.07.2019
4755 Clouds 28 1020 51 10000 3.1 10 18:39 23.07.2019
4756 Clouds 28 1020 51 10000 3.1 10 18:20 23.07.2019
4757 Clouds 28 1020 51 10000 3.1 10 17:43 23.07.2019
4758 Clouds 29 1020 45 10000 2.6 310 17:22 23.07.2019
4759 Clouds 25 1020 45 10000 2.6 310 16:44 23.07.2019
4760 Clouds 25 1020 48 10000 2.6 320 16:26 23.07.2019
4761 Clouds 25 1020 48 10000 2.6 320 15:52 23.07.2019
4762 Clouds 26 1021 48 10000 3.1 320 15:34 23.07.2019
4763 Clouds 26 1021 48 10000 3.1 320 14:56 23.07.2019
4764 Clouds 25 1021 51 10000 2.1 240 14:36 23.07.2019
4765 Clouds 25 1021 51 10000 2.1 240 14:18 23.07.2019
4766 Clouds 25 1021 51 10000 2.1 240 14:18 23.07.2019
4767 Clouds 25 1021 51 10000 2.1 240 13:55 23.07.2019
4768 Clouds 25 1021 57 10000 2.1 270 13:36 23.07.2019
4769 Clouds 25 1021 57 10000 2.1 270 13:18 23.07.2019
4770 Clouds 26 1021 57 10000 2.1 270 12:42 23.07.2019
4771 Clouds 25 1022 65 10000 2.6 280 12:22 23.07.2019
4772 Clouds 24 1022 65 10000 2.6 280 11:41 23.07.2019
4773 Clouds 24 1022 64 10000 1.5 270 11:21 23.07.2019
4774 Clouds 24 1022 64 10000 1.5 270 10:49 23.07.2019
4775 Clear 23 1021 78 10000 2.1 270 10:23 23.07.2019
4776 Clear 22 1021 78 10000 2.1 270 09:43 23.07.2019
4777 Clear 22 1021 78 10000 2.1 270 09:43 23.07.2019
4778 Clear 20 1021 82 10000 2.1 250 09:22 23.07.2019
4779 Clouds 20 1021 82 10000 2.1 250 08:54 23.07.2019
4780 Clouds 19 1021 93 10000 2.1 260 08:36 23.07.2019
4781 Clouds 19 1021 93 10000 2.1 260 08:36 23.07.2019
4782 Clouds 19 1021 93 10000 2.1 260 08:18 23.07.2019
4783 Fog 17 1021 100 8000 2.1 230 07:38 23.07.2019
4784 Fog 17 1021 100 8000 2.1 230 06:57 23.07.2019
4785 Fog 17 1021 100 400 2.1 260 06:36 23.07.2019
4786 Clear 17 1021 93 10000 3.1 230 04:28 23.07.2019
4787 Clouds 18 1021 93 10000 1.5 240 01:46 23.07.2019
4788 Clouds 19 1021 93 10000 2.1 270 00:46 23.07.2019
4789 Clouds 19 1021 93 10000 2.1 270 00:20 23.07.2019
4790 Clouds 20 1021 77 10000 3.1 280 23:39 22.07.2019
4791 Clouds 20 1021 77 10000 3.1 280 23:20 22.07.2019
4792 Clouds 20 1021 77 10000 3.1 280 22:45 22.07.2019
4793 Clouds 20 1021 77 10000 5.7 290 22:24 22.07.2019
4794 Clouds 20 1021 77 10000 5.7 290 21:56 22.07.2019
4795 Clouds 22 1021 73 10000 8.2 300 21:36 22.07.2019
4796 Clouds 22 1021 73 10000 8.2 300 21:18 22.07.2019
4797 Clouds 22 1021 73 10000 8.2 300 21:18 22.07.2019
4798 Clouds 21 1021 73 10000 8.2 300 20:41 22.07.2019
4799 Clouds 20 1020 77 10000 7.7 300 20:22 22.07.2019
4800 Clouds 20 1020 77 10000 7.7 300 19:42 22.07.2019
4801 Clouds 22 1020 68 10000 9.3 300 19:23 22.07.2019
4802 Clouds 22 1020 68 10000 9.3 300 18:48 22.07.2019
4803 Clouds 22 1020 68 10000 6.2 290 18:28 22.07.2019
4804 Clouds 22 1020 68 10000 6.2 290 17:59 22.07.2019
4805 Clouds 22 1020 60 10000 6.2 260 17:38 22.07.2019
4806 Clouds 22 1020 60 10000 6.2 260 17:20 22.07.2019
4807 Clouds 21 1020 64 10000 5.7 260 16:41 22.07.2019
4808 Clouds 21 1020 64 10000 5.7 260 16:21 22.07.2019
4809 Clouds 21 1020 64 10000 5.7 260 15:55 22.07.2019
4810 Rain 21 1020 64 10000 5.1 230 15:36 22.07.2019
4811 Rain 21 1020 64 10000 5.1 230 15:18 22.07.2019
4812 Clouds 21 1021 56 10000 6.2 230 14:41 22.07.2019
4813 Clouds 21 1021 56 10000 6.2 230 14:19 22.07.2019
4814 Clouds 20 1021 56 10000 6.2 230 13:45 22.07.2019
4815 Clouds 20 1021 60 10000 4.6 220 13:22 22.07.2019
4816 Clouds 20 1021 60 10000 4.6 220 12:44 22.07.2019
4817 Clouds 20 1021 63 10000 4.6 210 12:23 22.07.2019
4818 Clouds 19 1021 63 10000 4.6 210 11:44 22.07.2019
4819 Rain 18 1022 72 10000 3.1 210 11:20 22.07.2019
4820 Rain 18 1022 72 10000 3.1 210 10:43 22.07.2019
4821 Rain 17 1022 77 10000 2.6 210 10:25 22.07.2019
4822 Rain 16 1022 77 10000 2.6 210 09:43 22.07.2019
4823 Clouds 16 1021 77 10000 2.1 210 09:24 22.07.2019
4824 Clouds 15 1021 77 10000 2.1 210 08:44 22.07.2019
4825 Clouds 15 1021 77 10000 3.1 210 08:25 22.07.2019
4826 Clouds 15 1021 77 10000 3.1 210 07:55 22.07.2019
4827 Clouds 15 1021 82 10000 2.6 210 07:32 22.07.2019
4828 Clouds 14 1021 82 10000 2.6 210 06:44 22.07.2019
4829 Clouds 13 1022 93 10000 2.1 210 03:57 22.07.2019
4830 Clouds 14 1022 93 10000 2.1 230 02:24 22.07.2019
4831 Clouds 14 1022 93 10000 1.5 220 00:56 22.07.2019
4832 Clouds 15 1022 93 10000 0.5 230 00:25 22.07.2019
4833 Clouds 15 1022 93 10000 0.5 230 23:55 21.07.2019
4834 Clouds 15 1022 93 10000 0.5 230 23:55 21.07.2019
4835 Clouds 16 1022 87 10000 2.1 280 23:31 21.07.2019
4836 Clouds 16 1022 87 10000 2.1 280 22:42 21.07.2019
4837 Clouds 16 1022 82 10000 3.1 300 22:23 21.07.2019
4838 Clouds 16 1022 82 10000 3.1 300 21:58 21.07.2019
4839 Clouds 18 1021 72 10000 5.7 300 21:38 21.07.2019
4840 Clouds 18 1021 72 10000 5.7 300 21:20 21.07.2019
4841 Clouds 18 1021 72 10000 5.7 300 20:54 21.07.2019
4842 Clouds 19 1021 72 10000 5.7 300 20:36 21.07.2019
4843 Clouds 19 1021 72 10000 5.7 300 20:18 21.07.2019
4844 Clouds 18 1021 72 10000 5.7 300 19:41 21.07.2019
4845 Clouds 19 1021 68 10000 6.7 300 19:21 21.07.2019
4846 Clouds 19 1021 68 10000 6.7 300 18:46 21.07.2019
4847 Clouds 20 1020 64 10000 8.7 300 18:26 21.07.2019
4848 Clouds 20 1020 64 10000 8.7 300 17:42 21.07.2019
4849 Clouds 20 1020 64 10000 9.3 300 17:20 21.07.2019
4850 Clouds 20 1020 64 10000 9.3 300 17:20 21.07.2019
4851 Clouds 20 1020 64 10000 9.3 300 16:47 21.07.2019
4852 Clouds 20 1020 64 10000 10.8 300 16:25 21.07.2019
4853 Clouds 20 1020 64 10000 10.8 300 15:57 21.07.2019
4854 Clouds 20 1019 64 10000 10.8 300 15:37 21.07.2019
4855 Clouds 20 1019 64 10000 10.8 300 15:18 21.07.2019
4856 Clouds 20 1019 64 10000 10.8 300 14:41 21.07.2019
4857 Clouds 20 1018 72 10000 10.3 300 14:22 21.07.2019
4858 Clouds 20 1018 72 10000 10.3 300 13:49 21.07.2019
4859 Clouds 20 1017 72 10000 9.8 290 13:29 21.07.2019
4860 Clouds 19 1017 72 10000 9.8 290 12:43 21.07.2019
4861 Clouds 19 1017 68 10000 8.2 280 12:24 21.07.2019
4862 Clouds 20 1017 68 10000 8.2 280 11:49 21.07.2019
4863 Clouds 20 1016 72 10000 7.7 260 11:30 21.07.2019
4864 Clouds 20 1016 72 10000 7.7 260 10:58 21.07.2019
4865 Clouds 20 1016 72 10000 7.7 260 10:40 21.07.2019
4866 Clouds 19 1015 72 10000 8.2 260 10:22 21.07.2019
4867 Clouds 18 1014 77 10000 6.2 260 09:38 21.07.2019
4868 Clouds 18 1014 77 10000 6.2 260 09:20 21.07.2019
4869 Clouds 19 1014 77 10000 6.2 260 08:43 21.07.2019
4870 Clouds 18 1014 88 10000 5.7 260 08:25 21.07.2019
4871 Clouds 17 1013 93 10000 4.1 250 07:37 21.07.2019
4872 Clouds 16 1013 93 10000 4.1 250 06:45 21.07.2019
4873 Clouds 16 1012 93 10000 3.6 250 05:41 21.07.2019
4874 Clouds 17 1012 88 10000 4.1 220 02:43 21.07.2019
4875 Clouds 18 1011 82 10000 3.1 200 00:58 21.07.2019
4876 Clouds 18 1011 88 10000 4.1 200 00:39 21.07.2019
4877 Clouds 18 1011 88 10000 4.1 200 00:18 21.07.2019
4878 Clouds 18 1011 88 10000 4.1 200 23:39 20.07.2019
4879 Clouds 18 1011 88 10000 4.1 200 23:19 20.07.2019
4880 Clouds 19 1011 88 10000 4.1 200 22:44 20.07.2019
4881 Clouds 20 1010 77 10000 3.1 180 22:21 20.07.2019
4882 Clouds 20 1010 77 10000 3.1 180 21:45 20.07.2019
4883 Clouds 21 1010 77 10000 2.1 170 21:26 20.07.2019
4884 Clouds 21 1010 77 10000 2.1 170 20:57 20.07.2019
4885 Clouds 21 1010 72 10000 1.5 170 20:38 20.07.2019
4886 Clouds 21 1010 72 10000 1.5 170 20:18 20.07.2019
4887 Clouds 21 1010 72 10000 1.5 170 20:18 20.07.2019
4888 Clouds 20 1010 72 10000 1.5 170 19:44 20.07.2019
4889 Clouds 21 1010 73 10000 1.5 230 19:19 20.07.2019
4890 Clouds 21 1010 73 10000 1.5 230 18:41 20.07.2019
4891 Clouds 19 1010 77 10000 1.5 0 18:20 20.07.2019
4892 Clouds 21 1010 77 10000 1.5 0 17:51 20.07.2019
4893 Rain 20 1009 82 8000 2.6 130 17:23 20.07.2019
4894 Rain 19 1009 82 8000 2.6 130 16:44 20.07.2019
4895 Rain 19 1010 88 5000 2.6 260 16:26 20.07.2019
4896 Thunderstorm 19 1010 82 8000 7.7 270 15:58 20.07.2019
4897 Thunderstorm 20 1009 68 5000 8.2 250 15:38 20.07.2019
4898 Thunderstorm 20 1009 68 5000 8.2 250 15:20 20.07.2019
4899 Clouds 23 1009 42 10000 5.7 220 14:47 20.07.2019
4900 Clouds 24 1009 42 10000 5.7 190 14:24 20.07.2019
4901 Clouds 26 1009 44 10000 6.7 180 13:39 20.07.2019
4902 Clouds 26 1009 44 10000 6.7 180 13:20 20.07.2019
4903 Clouds 26 1009 44 10000 6.7 180 13:20 20.07.2019
4904 Clouds 26 1009 44 10000 6.7 180 12:54 20.07.2019
4905 Clouds 25 1010 44 10000 5.7 180 12:24 20.07.2019
4906 Clouds 25 1010 44 10000 5.7 180 11:57 20.07.2019
4907 Clouds 24 1010 49 10000 5.1 180 11:24 20.07.2019
4908 Clouds 24 1010 49 10000 5.1 180 10:58 20.07.2019
4909 Clouds 22 1011 53 10000 4.1 160 10:37 20.07.2019
4910 Clouds 22 1011 53 10000 4.1 160 10:18 20.07.2019
4911 Clouds 22 1011 53 10000 4.1 160 10:18 20.07.2019
4912 Clouds 21 1011 53 10000 4.1 160 09:45 20.07.2019
4913 Clouds 20 1011 63 10000 4.1 150 09:22 20.07.2019
4914 Clouds 19 1011 63 10000 4.1 150 08:45 20.07.2019
4915 Clouds 18 1011 67 10000 3.1 150 08:20 20.07.2019
4916 Clouds 17 1011 63 10000 4.1 150 07:21 20.07.2019
4917 Clouds 17 1011 63 10000 4.1 150 06:42 20.07.2019
4918 Clouds 17 1012 67 10000 4.1 140 04:57 20.07.2019
4919 Clouds 17 1012 67 10000 3.6 130 04:29 20.07.2019
4920 Clouds 17 1013 72 10000 3.1 120 01:21 20.07.2019
4921 Clouds 17 1013 72 10000 3.1 120 00:47 20.07.2019
4922 Clouds 17 1014 72 10000 2.1 110 00:23 20.07.2019
4923 Clouds 17 1014 72 10000 2.1 110 23:45 19.07.2019
4924 Clouds 17 1014 72 10000 2.6 110 23:26 19.07.2019
4925 Clouds 18 1014 72 10000 2.6 110 22:51 19.07.2019
4926 Clouds 18 1014 63 10000 1.5 100 22:26 19.07.2019
4927 Clouds 18 1014 63 10000 1.5 100 21:59 19.07.2019
4928 Clouds 18 1013 63 10000 2.6 60 21:39 19.07.2019
4929 Clouds 18 1013 63 10000 2.6 60 21:21 19.07.2019
4930 Clouds 19 1013 63 10000 2.6 60 20:42 19.07.2019
4931 Clouds 19 1014 55 10000 3.1 70 20:23 19.07.2019
4932 Clouds 19 1013 49 10000 3.6 50 19:39 19.07.2019
4933 Clouds 19 1013 49 10000 3.6 50 18:55 19.07.2019
4934 Clouds 20 1014 43 10000 3.6 330 18:36 19.07.2019
4935 Clouds 20 1014 43 10000 3.6 330 18:18 19.07.2019
4936 Clouds 21 1014 43 10000 3.6 340 17:41 19.07.2019
4937 Clouds 21 1014 43 10000 3.6 340 17:23 19.07.2019
4938 Clouds 21 1014 46 10000 3.6 340 16:47 19.07.2019
4939 Clouds 21 1014 43 10000 3.6 310 16:25 19.07.2019
4940 Clouds 21 1014 43 10000 3.6 310 15:47 19.07.2019
4941 Clouds 21 1014 49 10000 4.6 300 15:29 19.07.2019
4942 Clouds 21 1014 49 10000 4.6 300 14:55 19.07.2019
4943 Clouds 20 1013 56 10000 4.6 300 14:37 19.07.2019
4944 Clouds 20 1013 56 10000 4.6 300 14:19 19.07.2019
4945 Clouds 20 1013 56 10000 4.6 300 13:43 19.07.2019
4946 Clouds 20 1013 68 10000 4.6 300 13:22 19.07.2019
4947 Clouds 19 1013 68 10000 4.6 300 12:49 19.07.2019
4948 Clouds 19 1013 68 10000 5.1 300 12:29 19.07.2019
4949 Clouds 19 1013 68 10000 5.1 300 11:47 19.07.2019
4950 Clouds 18 1012 77 10000 5.7 300 11:20 19.07.2019
4951 Clouds 18 1012 77 10000 5.7 300 10:58 19.07.2019
4952 Clouds 18 1012 82 10000 6.2 300 10:39 19.07.2019
4953 Clouds 18 1012 82 10000 6.2 300 10:18 19.07.2019
4954 Clouds 17 1012 88 10000 5.7 300 09:43 19.07.2019
4955 Clouds 17 1011 88 10000 5.7 300 09:22 19.07.2019
4956 Clouds 17 1011 88 10000 5.1 300 08:50 19.07.2019
4957 Mist 17 1011 93 5000 2.6 240 08:32 19.07.2019
4958 Mist 16 1011 93 3500 2.1 210 07:34 19.07.2019
4959 Mist 16 1011 93 4000 2.6 200 06:47 19.07.2019
4960 Clouds 16 1010 93 7000 1 180 05:39 19.07.2019
4961 Rain 16 1010 87 10000 2.6 310 01:45 19.07.2019
4962 Rain 17 1010 88 10000 5.7 320 00:58 19.07.2019
4963 Clouds 17 1010 82 10000 4.1 310 00:21 19.07.2019
4964 Clouds 18 1010 64 10000 5.1 270 23:41 18.07.2019
4965 Clouds 18 1010 64 10000 5.1 270 23:23 18.07.2019
4966 Clouds 18 1010 64 10000 5.1 270 22:57 18.07.2019
4967 Clouds 19 1009 68 10000 2.1 110 22:39 18.07.2019
4968 Clouds 19 1009 68 10000 2.1 110 22:18 18.07.2019
4969 Clouds 19 1009 60 10000 2.1 100 21:39 18.07.2019
4970 Clouds 19 1009 60 10000 2.1 100 21:20 18.07.2019
4971 Clouds 20 1009 60 10000 2.1 100 20:48 18.07.2019
4972 Clouds 20 1009 60 10000 2.6 90 20:27 18.07.2019
4973 Clouds 22 1009 60 10000 2.6 90 19:51 18.07.2019
4974 Clouds 23 1010 53 10000 3.1 50 19:28 18.07.2019
4975 Clouds 23 1010 53 10000 3.1 50 18:52 18.07.2019
4976 Clouds 23 1010 49 10000 3.6 70 18:23 18.07.2019
4977 Clouds 23 1010 49 10000 3.6 70 17:57 18.07.2019
4978 Clouds 23 1010 46 10000 2.6 190 17:38 18.07.2019
4979 Clouds 23 1010 46 10000 2.6 190 17:38 18.07.2019
4980 Clouds 23 1010 46 10000 2.6 190 17:19 18.07.2019
4981 Clouds 23 1010 46 10000 2.6 190 16:53 18.07.2019
4982 Clouds 24 1011 44 10000 1.5 220 16:29 18.07.2019
4983 Clouds 24 1011 44 10000 1.5 220 15:58 18.07.2019
4984 Clouds 23 1011 46 10000 2.6 200 15:36 18.07.2019
4985 Clouds 23 1011 46 10000 2.6 200 14:57 18.07.2019
4986 Clouds 23 1011 46 10000 4.1 160 14:38 18.07.2019
4987 Clouds 23 1011 46 10000 4.1 160 14:20 18.07.2019
4988 Clouds 22 1011 49 10000 2.6 200 13:43 18.07.2019
4989 Clouds 22 1011 49 10000 2.6 200 13:22 18.07.2019
4990 Clouds 21 1011 52 10000 1.5 180 12:48 18.07.2019
4991 Clouds 21 1011 52 10000 1.5 180 12:21 18.07.2019
4992 Clouds 22 1011 52 10000 1.5 180 11:52 18.07.2019
4993 Clouds 21 1011 60 10000 2.6 150 11:33 18.07.2019
4994 Clouds 21 1011 60 10000 2.6 150 11:33 18.07.2019
4995 Clouds 20 1011 60 10000 2.6 150 10:53 18.07.2019
4996 Clouds 20 1012 68 10000 2.1 170 10:35 18.07.2019
4997 Clouds 18 1012 68 10000 2.1 170 09:47 18.07.2019
4998 Clouds 17 1012 82 10000 2.1 130 09:24 18.07.2019
4999 Clouds 16 1012 82 10000 2.1 130 08:50 18.07.2019
5000 Clouds 15 1012 93 8000 2.6 140 08:20 18.07.2019
5001 Mist 14 1012 100 3700 2.6 150 07:48 18.07.2019
5002 Mist 14 1012 100 3700 2.6 150 07:27 18.07.2019
5003 Fog 13 1012 100 50 2.1 140 06:40 18.07.2019
5004 Fog 13 1013 100 50 2.1 120 05:36 18.07.2019
5005 Fog 13 1013 93 800 0.5 120 03:23 18.07.2019
5006 Clouds 14 1014 93 10000 0.5 60 01:52 18.07.2019
5007 Clouds 13 1014 93 10000 3.69 166.212 01:20 18.07.2019
5008 Clouds 13 1014 87 10000 1.5 80 23:55 17.07.2019
5009 Clouds 14 1014 87 10000 1.5 70 23:20 17.07.2019
5010 Clouds 14 1014 87 10000 1.5 70 22:58 17.07.2019
5011 Clouds 15 1014 82 10000 2.6 50 22:39 17.07.2019
5012 Clouds 15 1014 82 10000 2.6 50 22:20 17.07.2019
5013 Clouds 17 1014 82 10000 2.6 50 21:45 17.07.2019
5014 Clouds 17 1014 72 10000 1 360 21:27 17.07.2019
5015 Clouds 17 1014 72 10000 2.1 360 20:58 17.07.2019
5016 Clouds 18 1014 72 10000 3.1 330 20:40 17.07.2019
5017 Clouds 18 1014 72 10000 3.1 330 20:21 17.07.2019
5018 Clouds 18 1014 72 10000 3.1 330 19:56 17.07.2019
5019 Clouds 18 1014 72 10000 3.1 330 19:37 17.07.2019
5020 Clouds 18 1014 68 10000 3.1 330 19:18 17.07.2019
5021 Clouds 18 1015 68 10000 3.6 310 18:41 17.07.2019
5022 Clouds 18 1012 74 0 1.98 248.586 18:20 17.07.2019
5023 Clouds 18 1015 63 10000 4.1 320 17:50 17.07.2019
5024 Clouds 18 1015 63 10000 4.1 320 17:27 17.07.2019
5025 Clouds 18 1015 63 10000 4.1 320 16:55 17.07.2019
5026 Clouds 18 1015 59 10000 4.1 320 16:37 17.07.2019
5027 Clouds 18 1015 59 10000 4.1 320 16:18 17.07.2019
5028 Clouds 18 1015 63 10000 3.1 320 15:47 17.07.2019
5029 Clouds 18 1015 63 10000 3.1 320 15:25 17.07.2019
5030 Clouds 18 1015 63 10000 3.1 320 14:54 17.07.2019
5031 Clouds 18 1016 67 10000 4.1 340 14:36 17.07.2019
5032 Clouds 18 1016 67 10000 4.1 340 14:18 17.07.2019
5033 Clouds 17 1015 67 10000 3.1 320 13:41 17.07.2019
5034 Clouds 17 1015 67 10000 3.1 320 13:20 17.07.2019
5035 Clouds 16 1015 72 10000 3.1 320 12:40 17.07.2019
5036 Clouds 16 1015 72 10000 3.1 320 12:21 17.07.2019
5037 Clouds 16 1016 77 10000 3.1 320 11:45 17.07.2019
5038 Clouds 16 1016 77 10000 3.1 320 11:45 17.07.2019
5039 Clouds 16 1016 77 10000 3.1 320 11:21 17.07.2019
5040 Clouds 15 1016 77 10000 3.1 320 10:51 17.07.2019
5041 Clouds 15 1015 77 10000 4.1 310 10:30 17.07.2019
5042 Clouds 15 1015 77 10000 4.1 310 09:58 17.07.2019
5043 Clouds 15 1015 76 10000 3.6 320 09:40 17.07.2019
5044 Clouds 15 1015 76 10000 3.6 320 09:20 17.07.2019
5045 Clouds 15 1015 76 10000 2.6 320 08:42 17.07.2019
5046 Clouds 15 1015 76 10000 2.6 320 08:22 17.07.2019
5047 Clouds 14 1015 76 10000 2.6 320 07:50 17.07.2019
5048 Clouds 14 1015 76 10000 3.1 320 07:24 17.07.2019
5049 Clouds 14 1015 76 10000 3.1 320 06:56 17.07.2019
5050 Clouds 13 1016 82 10000 2.6 310 06:30 17.07.2019
5051 Clouds 13 1016 82 10000 1.5 310 05:49 17.07.2019
5052 Clouds 13 1016 82 10000 1.5 310 05:28 17.07.2019
5053 Clouds 13 1016 82 10000 1.5 330 04:42 17.07.2019
5054 Clouds 14 1016 76 10000 3.1 330 03:19 17.07.2019
5055 Clouds 14 1016 76 10000 2.6 330 01:59 17.07.2019
5056 Clouds 14 1016 76 10000 3.6 320 01:26 17.07.2019
5057 Clouds 14 1016 76 10000 3.6 320 00:55 17.07.2019
5058 Clouds 14 1016 82 10000 3.6 310 00:36 17.07.2019
5059 Clouds 14 1016 82 10000 3.6 310 00:18 17.07.2019
5060 Clouds 14 1016 82 10000 4.1 310 23:36 16.07.2019
5061 Clouds 14 1016 82 10000 4.1 310 23:18 16.07.2019
5062 Clouds 15 1016 76 10000 6.2 300 22:42 16.07.2019
5063 Clouds 15 1016 76 10000 6.2 300 22:20 16.07.2019
5064 Clouds 15 1016 77 10000 5.1 290 21:46 16.07.2019
5065 Clouds 15 1016 77 10000 5.1 290 21:22 16.07.2019
5066 Clouds 15 1016 77 10000 5.1 290 20:58 16.07.2019
5067 Clouds 15 1016 77 10000 5.1 310 20:39 16.07.2019
5068 Clouds 15 1016 77 10000 5.1 310 20:21 16.07.2019
5069 Clouds 15 1016 77 10000 5.1 310 19:52 16.07.2019
5070 Clouds 15 1016 77 10000 6.7 320 19:29 16.07.2019
5071 Clouds 15 1016 77 10000 6.7 320 18:58 16.07.2019
5072 Clouds 16 1016 72 10000 6.7 310 18:39 16.07.2019
5073 Clouds 16 1016 72 10000 6.7 310 18:20 16.07.2019
5074 Clouds 16 1016 72 10000 7.7 310 17:42 16.07.2019
5075 Clouds 16 1016 72 10000 7.7 310 17:21 16.07.2019
5076 Clouds 16 1016 77 10000 8.7 310 16:45 16.07.2019
5077 Clouds 16 1016 77 10000 8.7 310 16:23 16.07.2019
5078 Clouds 16 1016 77 10000 8.7 310 15:56 16.07.2019
5079 Clouds 16 1016 77 10000 8.2 310 15:37 16.07.2019
5080 Clouds 16 1014 78 0 8.86 312.446 15:18 16.07.2019
5081 Clouds 17 1014 78 0 8.86 312.446 14:43 16.07.2019
5082 Clouds 17 1014 78 0 8.86 312.446 14:25 16.07.2019
5083 Drizzle 16 1016 82 10000 8.2 310 13:46 16.07.2019
5084 Drizzle 16 1016 82 10000 8.2 310 13:27 16.07.2019
5085 Drizzle 16 1016 82 10000 8.2 310 12:57 16.07.2019
5086 Clouds 16 1016 87 10000 8.2 300 12:38 16.07.2019
5087 Clouds 16 1016 87 10000 8.2 300 12:38 16.07.2019
5088 Clouds 16 1016 87 10000 8.2 300 12:19 16.07.2019
5089 Clouds 15 1015 93 9000 8.2 310 11:44 16.07.2019
5090 Clouds 15 1015 93 9000 8.2 310 11:24 16.07.2019
5091 Clouds 15 1015 93 9000 8.2 310 10:57 16.07.2019
5092 Drizzle 15 1015 87 6000 7.2 310 10:39 16.07.2019
5093 Drizzle 15 1015 87 6000 7.2 310 10:19 16.07.2019
5094 Clouds 15 1015 93 6000 7.7 310 09:43 16.07.2019
5095 Clouds 15 1015 93 6000 7.7 310 09:20 16.07.2019
5096 Drizzle 14 1015 93 6000 6.2 310 08:47 16.07.2019
5097 Drizzle 14 1015 93 6000 6.2 310 08:27 16.07.2019
5098 Drizzle 14 1015 93 6000 6.2 310 08:27 16.07.2019
5099 Drizzle 14 1015 93 6000 6.2 310 07:51 16.07.2019
5100 Drizzle 14 1015 93 4000 6.2 300 07:32 16.07.2019
5101 Drizzle 14 1015 93 4000 6.2 300 06:58 16.07.2019
5102 Clouds 14 1015 93 8000 7.7 300 06:37 16.07.2019
5103 Clouds 14 1015 93 8000 7.7 300 05:52 16.07.2019
5104 Drizzle 14 1015 93 6000 6.7 310 05:27 16.07.2019
5105 Drizzle 14 1016 87 8000 5.1 310 04:34 16.07.2019
5106 Drizzle 14 1016 87 10000 5.7 310 03:43 16.07.2019
5107 Clouds 14 1016 82 10000 6.2 320 02:44 16.07.2019
5108 Clouds 14 1016 82 10000 6.2 320 02:24 16.07.2019
5109 Clouds 14 1016 82 10000 6.7 310 01:26 16.07.2019
5110 Clouds 14 1016 76 10000 6.2 320 00:24 16.07.2019
5111 Clouds 14 1016 76 10000 6.2 320 23:58 15.07.2019
5112 Clouds 14 1016 82 10000 6.2 310 23:38 15.07.2019
5113 Clouds 14 1016 82 10000 6.2 310 23:18 15.07.2019
5114 Clouds 15 1016 77 10000 6.7 310 22:43 15.07.2019
5115 Clouds 15 1016 77 10000 6.7 310 22:20 15.07.2019
5116 Clouds 15 1016 77 10000 6.7 310 21:57 15.07.2019
5117 Clouds 14 1016 82 10000 7.2 300 21:38 15.07.2019
5118 Clouds 14 1016 82 10000 7.2 300 21:19 15.07.2019
5119 Clouds 15 1016 72 10000 7.7 300 20:44 15.07.2019
5120 Clouds 15 1016 72 10000 7.7 300 20:23 15.07.2019
5121 Clouds 15 1016 72 10000 7.7 300 19:56 15.07.2019
5122 Clouds 15 1016 77 10000 7.7 310 19:38 15.07.2019
5123 Clouds 15 1016 77 10000 7.7 310 19:18 15.07.2019
5124 Clouds 16 1017 72 10000 9.3 300 18:44 15.07.2019
5125 Clouds 16 1017 72 10000 9.3 300 18:21 15.07.2019
5126 -273 0 0 0 0 0 17:56 15.07.2019
5127 Clouds 16 1017 67 10000 8.7 300 17:38 15.07.2019
5128 Clouds 16 1017 67 10000 8.7 300 17:20 15.07.2019
5129 Clouds 16 1017 67 10000 8.7 300 16:57 15.07.2019
5130 Clouds 16 1017 72 10000 8.2 300 16:36 15.07.2019
5131 Clouds 16 1017 72 10000 8.2 300 16:18 15.07.2019
5132 Clouds 16 1017 67 10000 8.2 300 15:39 15.07.2019
5133 Clouds 16 1017 67 10000 8.2 300 15:21 15.07.2019
5134 Clouds 16 1017 67 10000 8.2 300 14:57 15.07.2019
5135 Clouds 16 1017 63 10000 8.7 300 14:37 15.07.2019
5136 Clouds 16 1017 63 10000 8.7 300 14:19 15.07.2019
5137 Clouds 15 1017 67 10000 6.2 280 13:45 15.07.2019
5138 Clouds 15 1017 67 10000 6.2 280 13:18 15.07.2019
5139 Clouds 15 1017 71 10000 6.7 310 12:43 15.07.2019
5140 Clouds 15 1017 71 10000 6.7 310 12:24 15.07.2019
5141 Clouds 14 1017 67 10000 5.1 310 11:44 15.07.2019
5142 Clouds 14 1017 67 10000 5.1 310 11:26 15.07.2019
5143 Clouds 14 1017 67 10000 5.1 310 10:59 15.07.2019
5144 Clouds 14 1017 71 10000 5.7 300 10:40 15.07.2019
5145 Clouds 14 1017 71 10000 5.7 300 10:22 15.07.2019
5146 Clouds 14 1017 71 10000 4.6 310 09:42 15.07.2019
5147 Clouds 14 1017 71 10000 4.6 310 09:19 15.07.2019
5148 Clouds 13 1017 76 10000 4.6 300 08:45 15.07.2019
5149 Clouds 13 1017 76 10000 4.6 300 08:24 15.07.2019
5150 Clouds 13 1017 76 10000 4.1 300 07:43 15.07.2019
5151 Clouds 13 1017 76 10000 4.1 300 07:21 15.07.2019
5152 Clouds 13 1017 82 10000 5.1 300 06:40 15.07.2019
5153 Clouds 13 1017 82 10000 5.1 300 06:18 15.07.2019
5154 Clouds 13 1017 82 10000 5.1 300 06:18 15.07.2019
5155 Clouds 13 1017 82 10000 3.1 320 05:38 15.07.2019
5156 Clouds 13 1018 76 10000 4.6 320 04:45 15.07.2019
5157 Clouds 13 1018 76 10000 4.6 320 04:23 15.07.2019
5158 Clouds 14 1018 82 10000 4.6 320 02:51 15.07.2019
5159 Drizzle 14 1018 76 10000 4.1 340 01:55 15.07.2019
5160 Clouds 14 1018 76 10000 2.6 330 01:33 15.07.2019
5161 Clouds 14 1018 76 10000 2.6 330 00:53 15.07.2019
5162 Clouds 14 1018 76 10000 2.6 330 00:53 15.07.2019
5163 Clouds 14 1018 76 10000 2.6 330 00:53 15.07.2019
5164 Clouds 14 1018 71 10000 3.6 320 00:28 15.07.2019
5165 Clouds 14 1018 71 10000 3.6 320 23:58 14.07.2019
5166 Clouds 14 1018 71 10000 4.1 320 23:39 14.07.2019
5167 Clouds 14 1018 71 10000 4.1 320 23:19 14.07.2019
5168 Clouds 14 1018 71 10000 4.1 320 22:57 14.07.2019
5169 Clouds 14 1018 76 10000 5.1 330 22:38 14.07.2019
5170 Clouds 14 1018 76 10000 5.1 330 22:19 14.07.2019
5171 Clouds 15 1018 72 10000 5.1 320 21:42 14.07.2019
5172 Clouds 15 1018 72 10000 5.1 320 21:42 14.07.2019
5173 Clouds 15 1018 72 10000 5.1 320 21:19 14.07.2019
5174 Clouds 15 1018 72 10000 5.1 320 20:57 14.07.2019
5175 Clouds 15 1018 77 10000 6.2 320 20:38 14.07.2019
5176 Clouds 15 1018 77 10000 6.2 320 20:19 14.07.2019
5177 Drizzle 15 1018 77 10000 5.1 300 19:46 14.07.2019
5178 Drizzle 15 1018 77 10000 5.1 300 19:28 14.07.2019
5179 Drizzle 15 1018 77 10000 5.1 300 18:58 14.07.2019
5180 Drizzle 15 1018 77 10000 5.1 300 18:58 14.07.2019
5181 Clouds 15 1018 87 8000 4.1 310 18:39 14.07.2019
5182 Drizzle 15 1018 87 5000 6.7 310 18:21 14.07.2019
5183 Drizzle 15 1018 87 5000 6.7 310 18:21 14.07.2019
5184 Drizzle 15 1018 87 5000 6.7 310 17:53 14.07.2019
5185 Drizzle 15 1018 77 6000 6.7 300 17:22 14.07.2019
5186 Drizzle 15 1018 77 6000 6.7 300 17:22 14.07.2019
5187 Drizzle 15 1018 77 6000 6.7 300 17:22 14.07.2019
5188 Clouds 16 1018 77 10000 5.7 310 16:52 14.07.2019
5189 Clouds 16 1018 77 10000 5.1 310 16:24 14.07.2019
5190 Clouds 16 1018 77 10000 5.1 310 15:57 14.07.2019
5191 Clouds 16 1019 77 10000 5.7 310 15:35 14.07.2019
5192 Clouds 16 1019 77 10000 5.7 310 14:56 14.07.2019
5193 Drizzle 16 1018 77 10000 5.1 300 14:37 14.07.2019
5194 Drizzle 16 1018 77 10000 5.1 300 14:18 14.07.2019
5195 Clouds 15 1018 72 10000 4.1 320 13:44 14.07.2019
5196 Clouds 15 1018 72 10000 4.1 320 13:21 14.07.2019
5197 Clouds 15 1018 77 10000 3.6 320 12:43 14.07.2019
5198 Clouds 15 1018 77 10000 3.6 320 12:22 14.07.2019
5199 Clouds 15 1018 77 10000 3.6 320 11:57 14.07.2019
5200 Clouds 14 1018 82 10000 3.1 330 11:38 14.07.2019
5201 Clouds 14 1018 82 10000 3.1 330 11:19 14.07.2019
5202 Clouds 14 1018 82 10000 4.1 340 10:42 14.07.2019
5203 Clouds 14 1018 82 10000 4.1 340 10:19 14.07.2019
5204 Clouds 14 1017 82 10000 3.1 330 09:44 14.07.2019
5205 Clouds 14 1017 82 10000 3.1 330 09:24 14.07.2019
5206 Clouds 13 1017 87 10000 3.6 310 08:45 14.07.2019
5207 Clouds 13 1017 87 10000 3.6 310 08:20 14.07.2019
5208 Drizzle 13 1017 87 10000 3.6 320 07:39 14.07.2019
5209 Drizzle 13 1017 87 10000 3.6 320 06:58 14.07.2019
5210 Rain 14 1014 71 0 7.57 325.361 05:45 14.07.2019
5211 Rain 14 1015 77 0 7.57 325.361 03:48 14.07.2019
5212 Rain 14 1015 77 0 7.57 325.361 03:30 14.07.2019
5213 Rain 14 1015 79 0 8.23 326.522 02:41 14.07.2019
5214 Rain 14 1015 79 0 8.23 326.522 02:22 14.07.2019
5215 Rain 14 1015 75 0 7.99 327.646 01:34 14.07.2019
5216 Rain 14 1015 75 0 7.99 327.646 00:58 14.07.2019
5217 Rain 14 1015 81 0 7.99 327.646 00:39 14.07.2019
5218 Rain 14 1015 81 0 7.94 330.549 00:20 14.07.2019
5219 Rain 14 1015 81 0 7.94 330.549 23:45 13.07.2019
5220 Rain 14 1015 81 0 7.94 330.549 23:25 13.07.2019
5221 Rain 14 1015 81 0 7.94 330.549 22:56 13.07.2019
5222 Rain 14 1015 83 0 7.94 330.549 22:37 13.07.2019
5223 Rain 14 1015 83 0 7.94 330.549 22:19 13.07.2019
5224 Clouds 14 1017 87 10000 5.7 310 21:42 13.07.2019
5225 Clouds 14 1017 87 10000 5.7 310 21:19 13.07.2019
5226 Clouds 14 1017 87 10000 5.7 310 21:19 13.07.2019
5227 Clouds 15 1016 77 10000 5.7 320 20:45 13.07.2019
5228 Clouds 15 1016 77 10000 5.7 320 20:26 13.07.2019
5229 Clouds 15 1016 67 10000 6.2 320 19:46 13.07.2019
5230 Clouds 15 1016 67 10000 6.2 320 19:27 13.07.2019
5231 Clouds 15 1017 72 10000 6.7 320 18:44 13.07.2019
5232 Clouds 15 1017 72 10000 6.7 320 18:21 13.07.2019
5233 Clouds 17 1016 77 10000 6.7 320 17:39 13.07.2019
5234 Clouds 17 1016 77 10000 6.7 320 17:20 13.07.2019
5235 Clouds 17 1016 77 10000 6.7 320 16:57 13.07.2019
5236 Clouds 16 1016 82 10000 6.2 330 16:37 13.07.2019
5237 Clouds 16 1016 82 10000 6.2 330 16:19 13.07.2019
5238 Clouds 16 1016 82 10000 6.7 340 15:43 13.07.2019
5239 Clouds 16 1016 82 10000 6.7 340 15:21 13.07.2019
5240 Clouds 16 1016 82 10000 8.2 330 14:44 13.07.2019
5241 Clouds 16 1016 82 10000 8.2 330 14:22 13.07.2019
5242 Clouds 16 1015 82 10000 6.2 340 13:46 13.07.2019
5243 Clouds 16 1015 82 10000 6.2 340 13:24 13.07.2019
5244 Clouds 16 1015 82 10000 6.2 340 12:59 13.07.2019
5245 Clouds 16 1015 82 10000 6.2 360 12:36 13.07.2019
5246 Clouds 16 1015 82 10000 6.2 360 12:18 13.07.2019
5247 Clouds 15 1015 88 9000 6.2 350 11:40 13.07.2019
5248 Clouds 15 1015 88 9000 6.2 350 11:19 13.07.2019
5249 Clouds 15 1015 88 9000 6.2 350 11:19 13.07.2019
5250 Clouds 16 1014 88 9000 5.7 340 10:44 13.07.2019
5251 Clouds 16 1014 88 9000 5.7 340 10:23 13.07.2019
5252 Clouds 16 1014 88 9000 5.7 340 09:54 13.07.2019
5253 Clouds 16 1014 88 9000 4.1 360 09:31 13.07.2019
5254 Clouds 16 1014 88 9000 4.1 360 08:58 13.07.2019
5255 Clouds 16 1013 88 9000 3.1 360 08:33 13.07.2019
5256 Clouds 16 1013 93 7000 3.6 340 07:58 13.07.2019
5257 Clouds 16 1013 93 6000 4.1 340 07:30 13.07.2019
5258 Clouds 16 1013 93 6000 4.1 340 06:39 13.07.2019
5259 Clouds 16 1013 93 6000 4.1 340 05:57 13.07.2019
5260 Clouds 16 1012 93 6000 5.7 350 04:49 13.07.2019
5261 Clouds 16 1012 93 6000 5.7 350 04:22 13.07.2019
5262 Clouds 16 1012 93 6000 5.7 350 03:55 13.07.2019
5263 Clouds 16 1012 93 6000 4.6 340 03:37 13.07.2019
5264 Mist 16 1012 93 5000 5.7 320 01:55 13.07.2019
5265 Mist 16 1012 93 5000 5.7 320 01:55 13.07.2019
5266 Mist 16 1011 93 5000 5.7 330 01:36 13.07.2019
5267 Mist 16 1011 93 5000 5.7 330 01:18 13.07.2019
5268 Rain 16 1011 93 5000 5.7 320 00:50 13.07.2019
5269 Rain 16 1011 93 5000 5.7 320 00:18 13.07.2019
5270 Rain 16 1011 87 7000 4.6 320 23:43 12.07.2019
5271 Rain 16 1011 87 7000 4.6 320 23:24 12.07.2019
5272 Clouds 16 1011 87 9000 3.6 330 22:43 12.07.2019
5273 Clouds 16 1011 87 9000 3.6 330 22:24 12.07.2019
5274 Clouds 16 1010 87 10000 4.6 340 21:43 12.07.2019
5275 Clouds 16 1010 87 10000 4.6 340 21:22 12.07.2019
5276 Clouds 16 1010 87 10000 4.6 340 20:54 12.07.2019
5277 Rain 17 1010 82 10000 5.7 340 20:24 12.07.2019
5278 Rain 17 1010 82 10000 5.7 340 19:59 12.07.2019
5279 Clouds 17 1010 77 10000 5.7 340 19:41 12.07.2019
5280 Clouds 17 1010 77 10000 5.7 340 19:23 12.07.2019
5281 Clouds 17 1010 82 10000 7.2 320 18:41 12.07.2019
5282 Clouds 17 1010 82 10000 7.2 320 18:21 12.07.2019
5283 Clouds 18 1010 72 10000 6.2 310 17:49 12.07.2019
5284 Clouds 18 1010 72 10000 6.2 310 17:28 12.07.2019
5285 Clouds 19 1010 68 10000 6.2 310 16:48 12.07.2019
5286 Clouds 19 1010 68 10000 6.2 310 16:22 12.07.2019
5287 Clouds 19 1010 68 10000 5.7 310 15:42 12.07.2019
5288 Clouds 19 1010 68 10000 5.7 310 15:22 12.07.2019
5289 Clouds 19 1010 68 10000 5.7 310 14:58 12.07.2019
5290 Clouds 19 1010 72 10000 5.1 300 14:39 12.07.2019
5291 Clouds 19 1010 72 10000 5.1 300 14:20 12.07.2019
5292 Clouds 19 1010 77 10000 5.1 300 13:42 12.07.2019
5293 Clouds 19 1010 77 10000 5.1 300 13:20 12.07.2019
5294 Clouds 18 1010 77 10000 5.1 300 12:40 12.07.2019
5295 Clouds 18 1010 77 10000 5.1 300 12:21 12.07.2019
5296 Clouds 17 1010 82 10000 4.6 300 11:45 12.07.2019
5297 Clouds 17 1010 82 10000 4.6 300 11:23 12.07.2019
5298 Clouds 17 1010 82 10000 4.6 300 10:55 12.07.2019
5299 Clouds 17 1010 87 10000 4.1 300 10:37 12.07.2019
5300 Clouds 17 1010 87 10000 4.1 300 10:18 12.07.2019
5301 Clouds 17 1010 87 10000 4.1 310 09:46 12.07.2019
5302 Clouds 17 1010 87 10000 4.1 310 09:23 12.07.2019
5303 Clouds 16 1010 93 8000 3.6 300 08:42 12.07.2019
5304 Clouds 16 1010 93 8000 3.6 300 08:21 12.07.2019
5305 Mist 16 1009 100 4000 3.1 290 07:47 12.07.2019
5306 Mist 16 1009 100 4000 3.1 290 07:28 12.07.2019
5307 Mist 15 1009 93 5000 2.1 290 06:29 12.07.2019
5308 Mist 15 1009 93 5000 2.6 280 05:50 12.07.2019
5309 Clouds 15 1010 93 10000 2.1 200 03:46 12.07.2019
5310 Clouds 15 1010 93 10000 3.6 170 01:50 12.07.2019
5311 Rain 15 1011 93 10000 2.1 160 01:32 12.07.2019
5312 Rain 15 1011 100 6000 1 160 00:34 12.07.2019
5313 Mist 16 1011 100 3800 1.5 0 23:56 11.07.2019
5314 Mist 16 1011 100 3800 1.5 0 23:37 11.07.2019
5315 Mist 16 1011 100 3800 1.5 0 23:18 11.07.2019
5316 Rain 17 1011 93 2800 2.1 290 22:42 11.07.2019
5317 Rain 17 1011 93 2800 2.1 290 22:23 11.07.2019
5318 Rain 17 1011 93 2800 2.1 290 22:23 11.07.2019
5319 Mist 17 1011 88 5000 2.6 300 21:43 11.07.2019
5320 Mist 17 1011 88 5000 2.6 300 21:20 11.07.2019
5321 Mist 17 1011 88 5000 2.6 300 21:20 11.07.2019
5322 Mist 17 1011 88 5000 2.6 300 21:20 11.07.2019
5323 Mist 17 1011 88 5000 2.6 300 20:58 11.07.2019
5324 Mist 17 1011 88 5000 2.1 260 20:40 11.07.2019
5325 Mist 17 1011 88 5000 2.1 260 20:22 11.07.2019
5326 Mist 17 1011 88 5000 2.1 260 19:54 11.07.2019
5327 Rain 18 1011 88 5000 3.6 260 19:36 11.07.2019
5328 Rain 18 1011 88 5000 3.6 260 19:18 11.07.2019
5329 Rain 19 1011 82 5000 3.1 210 18:39 11.07.2019
5330 Rain 19 1011 82 5000 3.1 210 18:21 11.07.2019
5331 Clouds 20 1011 72 10000 3.6 220 17:46 11.07.2019
5332 Clouds 20 1011 72 10000 3.6 220 17:28 11.07.2019
5333 Clouds 20 1011 72 10000 3.6 220 16:52 11.07.2019
5334 Clouds 19 1011 77 10000 3.6 220 16:24 11.07.2019
5335 Clouds 19 1011 77 10000 3.6 220 15:57 11.07.2019
5336 Clouds 20 1012 77 9000 3.1 200 15:38 11.07.2019
5337 Clouds 20 1012 77 9000 3.1 200 15:19 11.07.2019
5338 Clouds 19 1012 72 10000 3.1 220 14:43 11.07.2019
5339 Clouds 19 1012 72 10000 3.1 220 14:23 11.07.2019
5340 Clouds 19 1012 77 10000 3.6 190 13:47 11.07.2019
5341 Clouds 19 1012 77 10000 3.6 190 13:29 11.07.2019
5342 Clouds 19 1012 77 10000 3.6 190 12:56 11.07.2019
5343 Clouds 17 1013 82 7000 2.6 190 12:37 11.07.2019
5344 Clouds 17 1013 82 7000 2.6 190 12:18 11.07.2019
5345 Clouds 17 1013 82 7000 2.6 190 12:18 11.07.2019
5346 Mist 18 1013 87 5000 3.1 210 11:41 11.07.2019
5347 Mist 17 1013 87 5000 3.1 210 11:22 11.07.2019
5348 Mist 16 1013 93 3800 3.1 170 10:46 11.07.2019
5349 Mist 16 1013 93 3800 3.1 170 10:19 11.07.2019
5350 Drizzle 15 1013 100 3000 3.1 180 09:49 11.07.2019
5351 Drizzle 15 1013 100 3000 3.1 180 09:30 11.07.2019
5352 Drizzle 15 1013 100 3000 3.1 180 09:30 11.07.2019
5353 Drizzle 14 1013 93 2800 2.1 170 08:56 11.07.2019
5354 Mist 14 1013 93 2500 2.1 180 08:36 11.07.2019
5355 Mist 14 1013 93 2000 2.1 180 08:18 11.07.2019
5356 Drizzle 13 1014 100 2000 2.1 190 07:41 11.07.2019
5357 Drizzle 13 1014 100 2000 2.1 170 06:42 11.07.2019
5358 Drizzle 13 1014 100 2000 2.1 170 06:18 11.07.2019
5359 Drizzle 13 1014 100 6000 3.1 200 05:30 11.07.2019
5360 Drizzle 13 1014 93 8000 2.6 210 04:55 11.07.2019
5361 Rain 13 1016 87 10000 1.5 200 02:43 11.07.2019
5362 Rain 13 1016 87 10000 1.5 200 01:53 11.07.2019
5363 Rain 14 1016 76 10000 2.1 240 00:32 11.07.2019
5364 Clouds 14 1016 67 10000 1.5 220 23:49 10.07.2019
5365 Clouds 14 1016 67 10000 1.5 220 23:21 10.07.2019
5366 Clouds 14 1016 67 10000 1.5 220 22:53 10.07.2019
5367 Clouds 15 1016 59 10000 1 200 22:22 10.07.2019
5368 Clouds 15 1016 59 10000 1 200 21:55 10.07.2019
5369 Clouds 15 1017 59 10000 1 0 21:37 10.07.2019
5370 Clouds 15 1017 59 10000 2.6 230 21:19 10.07.2019
5371 Clouds 17 1017 51 10000 2.1 220 20:41 10.07.2019
5372 Clouds 17 1017 51 10000 2.1 220 20:21 10.07.2019
5373 Clouds 17 1017 51 10000 2.1 220 19:55 10.07.2019
5374 Clouds 17 1018 51 10000 2.6 280 19:36 10.07.2019
5375 Clouds 17 1018 51 10000 2.6 280 19:18 10.07.2019
5376 Clouds 17 1018 51 10000 2.1 290 18:42 10.07.2019
5377 Clouds 17 1018 51 10000 2.1 290 18:22 10.07.2019
5378 Clouds 18 1018 55 10000 3.6 300 17:44 10.07.2019
5379 Clouds 18 1018 55 10000 3.6 300 17:25 10.07.2019
5380 Clouds 18 1019 42 10000 4.6 290 16:41 10.07.2019
5381 Clouds 18 1019 42 10000 4.6 290 16:21 10.07.2019
5382 Rain 17 1019 63 10000 4.1 310 15:47 10.07.2019
5383 Rain 17 1019 63 10000 4.1 310 15:25 10.07.2019
5384 Rain 17 1019 59 10000 4.6 300 14:48 10.07.2019
5385 Rain 17 1019 59 10000 4.6 300 14:28 10.07.2019
5386 Rain 17 1019 59 10000 4.6 300 13:56 10.07.2019
5387 Clouds 17 1019 59 10000 4.1 300 13:36 10.07.2019
5388 Clouds 17 1019 59 10000 4.1 300 13:18 10.07.2019
5389 Clouds 16 1019 63 10000 4.1 310 12:40 10.07.2019
5390 Clouds 16 1019 63 10000 4.1 310 12:21 10.07.2019
5391 Clouds 16 1020 63 10000 4.6 310 11:48 10.07.2019
5392 Clouds 16 1020 63 10000 4.6 310 11:22 10.07.2019
5393 Clouds 16 1020 63 10000 4.6 310 10:58 10.07.2019
5394 Clouds 16 1019 67 10000 4.1 330 10:24 10.07.2019
5395 Clouds 16 1019 67 10000 4.1 330 09:56 10.07.2019
5396 Clouds 15 1019 67 10000 3.6 330 09:37 10.07.2019
5397 Clouds 15 1019 67 10000 3.6 330 09:19 10.07.2019
5398 Clouds 15 1019 71 10000 2.1 330 08:48 10.07.2019
5399 Clouds 15 1019 71 10000 2.1 330 08:23 10.07.2019
5400 Clouds 14 1019 76 10000 3.6 310 07:46 10.07.2019
5401 Clouds 14 1019 76 10000 3.6 310 07:23 10.07.2019
5402 Clouds 13 1019 82 10000 3.1 330 06:36 10.07.2019
5403 Clouds 13 1019 76 10000 3.1 340 05:40 10.07.2019
5404 Clouds 13 1019 82 10000 4.1 330 04:30 10.07.2019
5405 Clouds 13 1019 76 10000 3.6 320 01:59 10.07.2019
5406 Clouds 14 1019 71 10000 4.6 320 00:44 10.07.2019
5407 Clouds 14 1019 67 10000 4.6 330 23:42 09.07.2019
5408 Clouds 14 1019 67 10000 4.6 330 23:23 09.07.2019
5409 Clouds 14 1019 67 10000 4.6 330 22:57 09.07.2019
5410 Clouds 14 1019 67 10000 4.6 330 22:37 09.07.2019
5411 Clouds 14 1019 67 10000 4.6 330 22:19 09.07.2019
5412 Clouds 14 1019 67 10000 5.7 320 21:45 09.07.2019
5413 Clouds 14 1019 67 10000 5.7 320 21:25 09.07.2019
5414 Clouds 15 1019 71 10000 6.7 330 20:45 09.07.2019
5415 Clouds 15 1019 71 10000 6.7 330 20:26 09.07.2019
5416 Clouds 15 1019 67 10000 6.2 330 19:45 09.07.2019
5417 Clouds 15 1019 67 10000 6.2 330 19:26 09.07.2019
5418 Clouds 15 1019 67 10000 6.2 330 18:58 09.07.2019
5419 Clouds 16 1019 62 10000 7.7 330 18:38 09.07.2019
5420 Clouds 16 1019 62 10000 7.7 330 18:19 09.07.2019
5421 Clouds 16 1019 62 10000 8.2 320 17:43 09.07.2019
5422 Clouds 16 1019 62 10000 8.2 320 17:21 09.07.2019
5423 Clouds 16 1019 62 10000 8.2 320 16:54 09.07.2019
5424 Clouds 16 1019 62 10000 7.7 320 16:36 09.07.2019
5425 Clouds 16 1019 62 10000 7.7 320 16:18 09.07.2019
5426 Clouds 15 1019 67 10000 8.2 310 15:40 09.07.2019
5427 Clouds 15 1019 67 10000 8.2 310 15:22 09.07.2019
5428 Clouds 15 1019 59 10000 7.7 310 14:43 09.07.2019
5429 Clouds 15 1019 59 10000 7.7 310 14:22 09.07.2019
5430 Clouds 15 1018 71 10000 7.7 330 13:47 09.07.2019
5431 Clouds 15 1018 71 10000 7.7 330 13:28 09.07.2019
5432 Clouds 15 1018 71 10000 7.7 330 12:59 09.07.2019
5433 Rain 15 1018 71 10000 6.7 330 12:38 09.07.2019
5434 Rain 15 1018 71 10000 6.7 330 12:18 09.07.2019
5435 Clouds 15 1018 62 10000 5.1 330 11:41 09.07.2019
5436 Clouds 15 1018 62 10000 5.1 330 11:22 09.07.2019
5437 Clouds 15 1018 62 10000 5.1 330 10:58 09.07.2019
5438 Clouds 14 1018 71 10000 3.6 330 10:35 09.07.2019
5439 Clouds 14 1018 71 10000 3.6 330 09:59 09.07.2019
5440 Clouds 14 1018 71 10000 5.1 320 09:38 09.07.2019
5441 Clouds 14 1018 71 10000 5.1 320 09:20 09.07.2019
5442 Clouds 13 1018 66 10000 7.2 330 08:44 09.07.2019
5443 Clouds 13 1018 66 10000 7.2 330 08:18 09.07.2019
5444 Clouds 15 1016 77 10000 8.2 300 03:45 05.07.2019
5445 Clouds 15 1016 77 10000 8.2 300 03:21 05.07.2019
5446 Clouds 15 1016 77 10000 8.2 300 02:52 05.07.2019
5447 Rain 15 1016 77 10000 8.2 300 02:20 05.07.2019
5448 Rain 16 1016 77 10000 10.8 290 01:34 05.07.2019
5449 Rain 16 1016 77 10000 10.8 290 00:52 05.07.2019
5450 Rain 16 1017 77 10000 7.2 280 00:31 05.07.2019
5451 Clouds 17 1017 72 10000 6.7 280 23:44 04.07.2019
5452 Clouds 17 1017 72 10000 6.7 280 23:19 04.07.2019
5453 Clouds 17 1017 72 10000 6.7 280 23:19 04.07.2019
5454 Clouds 17 1017 67 10000 6.7 270 22:42 04.07.2019
5455 Clouds 17 1017 67 10000 6.7 270 22:23 04.07.2019
5456 Clouds 17 1018 72 10000 6.7 270 21:45 04.07.2019
5457 Clouds 17 1018 72 10000 6.7 270 21:26 04.07.2019
5458 Clouds 17 1018 67 10000 7.7 280 20:59 04.07.2019
5459 Clouds 18 1019 59 10000 9.8 280 20:38 04.07.2019
5460 Clouds 18 1019 59 10000 9.8 280 20:20 04.07.2019
5461 Clouds 19 1019 59 10000 9.3 290 19:42 04.07.2019
5462 Clouds 19 1019 59 10000 9.3 290 19:22 04.07.2019
5463 Clouds 19 1019 59 10000 9.3 290 18:56 04.07.2019
5464 Clouds 19 1020 55 10000 10.3 290 18:37 04.07.2019
5465 Clouds 19 1020 55 10000 10.3 290 18:18 04.07.2019
5466 Clouds 19 1021 55 10000 9.3 290 17:43 04.07.2019
5467 Clouds 19 1021 55 10000 9.3 290 17:19 04.07.2019
5468 Clouds 19 1021 63 10000 9.3 290 15:57 04.07.2019
5469 Clouds 19 1022 59 10000 9.8 290 15:39 04.07.2019
5470 Clouds 19 1022 59 10000 9.8 290 15:18 04.07.2019
5471 Clouds 19 1022 59 10000 9.3 290 14:44 04.07.2019
5472 Clouds 19 1022 59 10000 9.3 290 14:25 04.07.2019
5473 Clouds 19 1022 59 10000 9.3 290 13:59 04.07.2019
5474 Clouds 18 1023 67 10000 8.2 280 13:41 04.07.2019
5475 Clouds 18 1023 67 10000 8.2 280 13:22 04.07.2019
5476 Clouds 18 1023 59 10000 8.2 290 12:40 04.07.2019
5477 Clouds 18 1023 59 10000 8.2 290 12:21 04.07.2019
5478 Clouds 18 1023 59 10000 8.2 290 11:59 04.07.2019
5479 Clouds 16 1023 67 10000 9.3 290 11:38 04.07.2019
5480 Clouds 16 1023 67 10000 9.3 290 11:19 04.07.2019
5481 Clouds 16 1023 67 10000 9.3 290 11:19 04.07.2019
5482 Clouds 15 1024 67 10000 6.7 270 10:40 04.07.2019
5483 Clouds 15 1024 67 10000 6.7 270 10:20 04.07.2019
5484 Clouds 15 1023 71 10000 5.7 270 09:44 04.07.2019
5485 Clouds 15 1023 71 10000 5.7 270 09:25 04.07.2019
5486 Clouds 15 1023 71 10000 5.7 270 08:56 04.07.2019
5487 Clouds 15 1023 67 10000 5.7 290 08:23 04.07.2019
5488 Clouds 13 1024 71 10000 5.1 300 07:45 04.07.2019
5489 Clouds 13 1024 71 10000 5.1 300 07:22 04.07.2019
5490 Clouds 14 1024 71 10000 5.1 300 06:51 04.07.2019
5491 Clouds 13 1024 76 10000 3.6 290 05:52 04.07.2019
5492 Clouds 13 1024 66 10000 3.6 300 05:33 04.07.2019
5493 Clouds 12 1024 71 10000 2.1 300 02:43 04.07.2019
5494 Clouds 12 1025 76 10000 2.6 310 01:42 04.07.2019
5495 Clouds 12 1025 76 10000 2.6 310 01:21 04.07.2019
5496 Clouds 12 1025 71 10000 3.1 310 23:58 03.07.2019
5497 Clouds 13 1024 66 10000 4.6 330 23:40 03.07.2019
5498 Clouds 13 1024 66 10000 4.6 330 23:20 03.07.2019
5499 Clouds 13 1024 66 10000 5.7 320 22:44 03.07.2019
5500 Clouds 13 1024 66 10000 5.7 320 22:25 03.07.2019
5501 Clouds 13 1024 66 10000 5.7 320 21:59 03.07.2019
5502 Clouds 14 1024 62 10000 6.7 330 21:41 03.07.2019
5503 Clouds 14 1024 62 10000 6.7 330 21:23 03.07.2019
5504 Clouds 15 1024 59 10000 5.7 320 20:46 03.07.2019
5505 Clouds 15 1024 59 10000 5.7 320 20:24 03.07.2019
5506 Clouds 16 1024 55 10000 7.2 320 19:51 03.07.2019
5507 Clouds 16 1024 55 10000 7.2 320 19:32 03.07.2019
5508 Clouds 16 1024 51 10000 8.2 320 18:50 03.07.2019
5509 Clouds 16 1024 51 10000 8.2 320 18:30 03.07.2019
5510 Clouds 16 1024 51 10000 8.2 320 17:58 03.07.2019
5511 Clouds 17 1024 51 10000 9.3 310 17:39 03.07.2019
5512 Clouds 17 1024 51 10000 9.3 310 17:18 03.07.2019
5513 Clouds 16 1024 51 10000 8.2 330 16:43 03.07.2019
5514 Clouds 16 1024 51 10000 8.2 330 16:22 03.07.2019
5515 Clouds 17 1024 51 10000 8.2 330 15:50 03.07.2019
5516 Clouds 17 1024 48 10000 8.2 310 15:31 03.07.2019
5517 Clouds 17 1024 48 10000 8.2 310 14:58 03.07.2019
5518 Clouds 16 1024 55 10000 8.2 330 14:38 03.07.2019
5519 Clouds 16 1024 55 10000 8.2 330 14:19 03.07.2019
5520 Clouds 16 1024 62 10000 7.7 320 13:42 03.07.2019
5521 Clouds 16 1024 62 10000 7.7 320 13:23 03.07.2019
5522 Clouds 15 1024 76 10000 4.6 340 12:45 03.07.2019
5523 Clouds 15 1024 76 10000 4.6 340 12:18 03.07.2019
5524 Rain 15 1024 82 10000 6.7 330 11:43 03.07.2019
5525 Rain 15 1024 82 10000 6.7 330 11:22 03.07.2019
5526 Clouds 16 1023 67 10000 4.1 310 10:43 03.07.2019
5527 Clouds 16 1023 67 10000 4.1 310 10:24 03.07.2019
5528 Clouds 16 1023 67 10000 4.1 310 09:56 03.07.2019
5529 Rain 14 1023 87 10000 6.7 330 09:38 03.07.2019
5530 Rain 14 1023 87 10000 6.7 330 09:19 03.07.2019
5531 Clouds 15 1022 71 10000 5.1 310 08:47 03.07.2019
5532 Clouds 15 1022 71 10000 5.1 310 08:25 03.07.2019
5533 Clouds 14 1022 71 10000 5.7 310 07:39 03.07.2019
5534 Clouds 14 1022 71 10000 5.7 310 07:19 03.07.2019
5535 Clouds 14 1022 67 10000 4.1 300 06:20 03.07.2019
5536 Rain 13 1022 71 10000 5.7 300 05:30 03.07.2019
5537 Clouds 13 1022 71 10000 4.1 300 04:28 03.07.2019
5538 Clouds 13 1022 71 10000 3.6 300 03:22 03.07.2019
5539 Clouds 14 1022 66 10000 3.1 300 01:46 03.07.2019
5540 Clouds 13 1022 66 10000 2.6 310 01:21 03.07.2019
5541 Clouds 13 1022 66 10000 2.6 310 00:42 03.07.2019
5542 Clouds 13 1022 76 10000 2.6 320 23:59 02.07.2019
5543 Clouds 13 1022 76 10000 2.6 320 23:37 02.07.2019
5544 Clouds 13 1022 71 10000 4.1 310 23:19 02.07.2019
5545 Clouds 13 1022 71 10000 4.1 310 22:55 02.07.2019
5546 Clouds 14 1022 71 10000 4.1 310 22:37 02.07.2019
5547 Clouds 13 1022 66 10000 4.6 310 22:18 02.07.2019
5548 Clouds 15 1022 66 10000 4.6 310 21:42 02.07.2019
5549 Clouds 15 1022 58 10000 6.7 320 21:22 02.07.2019
5550 Clouds 15 1022 58 10000 6.7 320 20:58 02.07.2019
5551 Clouds 15 1022 58 10000 6.2 310 20:39 02.07.2019
5552 Clouds 15 1022 55 10000 7.7 310 20:20 02.07.2019
5553 Clouds 16 1022 55 10000 7.7 310 19:42 02.07.2019
5554 Clouds 16 1022 55 10000 7.7 310 19:23 02.07.2019
5555 Clouds 16 1022 55 10000 7.7 310 18:50 02.07.2019
5556 Clouds 17 1022 51 10000 8.7 320 18:19 02.07.2019
5557 Clouds 16 1022 63 10000 8.7 300 17:45 02.07.2019
5558 Clouds 16 1022 63 10000 8.7 300 17:24 02.07.2019
5559 Clouds 16 1022 63 10000 8.7 300 16:55 02.07.2019
5560 Clouds 17 1022 59 10000 8.7 310 16:36 02.07.2019
5561 Clouds 17 1022 59 10000 8.7 310 15:59 02.07.2019
5562 Clouds 17 1021 48 10000 10.8 310 15:40 02.07.2019
5563 Clouds 17 1021 48 10000 10.8 310 15:20 02.07.2019
5564 Clouds 16 1021 48 10000 10.8 310 14:45 02.07.2019
5565 Clouds 16 1021 48 10000 10.8 310 14:25 02.07.2019
5566 Clouds 16 1021 51 10000 10.3 310 13:43 02.07.2019
5567 Clouds 16 1021 55 10000 10.8 310 13:19 02.07.2019
5568 Clouds 16 1021 55 10000 10.8 310 12:45 02.07.2019
5569 Clouds 16 1021 51 10000 10.3 310 12:23 02.07.2019
5570 Rain 15 1020 67 10000 9.8 320 11:45 02.07.2019
5571 Rain 15 1020 67 10000 9.8 320 11:25 02.07.2019
5572 Rain 15 1020 67 10000 9.8 320 10:59 02.07.2019
5573 Clouds 16 1020 51 10000 11.3 310 10:39 02.07.2019
5574 Clouds 16 1020 51 10000 11.3 310 10:21 02.07.2019
5575 Clouds 15 1020 51 10000 11.3 310 09:42 02.07.2019
5576 Clouds 15 1019 62 10000 8.2 310 09:19 02.07.2019
5577 Clouds 15 1019 62 10000 8.2 310 08:40 02.07.2019
5578 Rain 15 1019 67 10000 8.7 310 08:20 02.07.2019
5579 Rain 14 1019 67 10000 8.7 310 07:52 02.07.2019
5580 Clouds 14 1018 67 10000 10.3 310 07:20 02.07.2019
5581 Clouds 14 1018 67 10000 10.3 310 06:42 02.07.2019
5582 Rain 14 1016 63 0 11.54 300.017 05:58 02.07.2019
5583 Clouds 15 1017 72 10000 7.7 310 03:53 02.07.2019
5584 Rain 16 1017 77 10000 8.2 290 00:56 02.07.2019
5585 Clouds 17 1016 72 10000 9.8 290 23:46 01.07.2019
5586 Clouds 17 1016 72 10000 9.8 290 23:20 01.07.2019
5587 Clouds 17 1015 72 10000 9.8 290 22:45 01.07.2019
5588 Clouds 17 1015 72 10000 9.8 290 22:26 01.07.2019
5589 Clouds 16 1015 77 10000 10.8 290 21:47 01.07.2019
5590 Clouds 16 1015 77 10000 10.8 290 21:26 01.07.2019
5591 Rain 17 1016 72 10000 9.3 290 20:51 01.07.2019
5592 Clouds 17 1016 67 10000 8.2 280 20:22 01.07.2019
5593 Clouds 17 1015 67 10000 10.3 280 19:58 01.07.2019
5594 Clouds 17 1015 67 10000 10.3 280 19:40 01.07.2019
5595 Clouds 18 1015 63 10000 11.8 290 19:22 01.07.2019
5596 Clouds 18 1015 59 10000 11.8 290 18:52 01.07.2019
5597 Clouds 18 1015 59 10000 11.8 290 18:31 01.07.2019
5598 Clouds 18 1015 59 10000 11.8 290 17:58 01.07.2019
5599 Clouds 20 1015 45 10000 12.9 300 17:40 01.07.2019
5600 Clouds 20 1015 45 10000 12.9 300 17:21 01.07.2019
5601 Clouds 20 1015 45 10000 12.9 300 16:46 01.07.2019
5602 Clouds 20 1014 60 10000 12.3 290 16:25 01.07.2019
5603 Clouds 20 1014 60 10000 12.3 290 15:47 01.07.2019
5604 Clouds 20 1014 52 10000 10.8 300 15:28 01.07.2019
5605 Clouds 20 1014 52 10000 10.8 300 14:59 01.07.2019
5606 Clouds 19 1014 72 10000 10.8 300 14:39 01.07.2019
5607 Clouds 19 1014 72 10000 10.8 300 14:19 01.07.2019
5608 Clouds 21 1013 64 10000 9.3 280 13:40 01.07.2019
5609 Clouds 21 1013 64 10000 9.3 280 13:21 01.07.2019
5610 Clouds 21 1013 64 10000 9.3 280 12:44 01.07.2019
5611 Clouds 18 1013 82 10000 5.7 280 12:23 01.07.2019
5612 Clouds 18 1013 82 10000 5.7 280 11:58 01.07.2019
5613 Clouds 20 1013 68 10000 6.7 260 11:38 01.07.2019
5614 Clouds 20 1013 68 10000 6.7 260 11:18 01.07.2019
5615 Clouds 20 1013 68 10000 6.7 260 10:45 01.07.2019
5616 Clouds 19 1013 72 10000 4.6 250 10:21 01.07.2019
5617 Clouds 19 1013 72 10000 4.6 250 09:45 01.07.2019
5618 Clouds 18 1013 77 10000 5.7 260 09:27 01.07.2019
5619 Clouds 18 1013 77 10000 5.7 260 09:27 01.07.2019
5620 Clouds 18 1013 77 10000 5.7 260 08:58 01.07.2019
5621 Clouds 17 1013 82 10000 3.6 230 08:35 01.07.2019
5622 Clouds 16 1013 82 10000 3.6 230 07:37 01.07.2019
5623 Clouds 16 1013 82 10000 3.6 230 06:51 01.07.2019
5624 Clouds 15 1013 87 10000 3.6 230 05:23 01.07.2019
5625 Clouds 17 1014 77 10000 3.1 270 01:26 01.07.2019
5626 Clouds 17 1014 77 10000 3.1 270 00:44 01.07.2019
5627 Clouds 17 1014 77 10000 3.1 270 00:22 01.07.2019
5628 Clouds 17 1014 82 10000 3.6 280 23:39 30.06.2019
5629 Clouds 17 1014 82 10000 3.6 280 23:18 30.06.2019
5630 Clouds 17 1014 82 10000 3.6 280 22:43 30.06.2019
5631 Clouds 17 1014 82 10000 6.2 290 22:20 30.06.2019
5632 Clouds 18 1014 77 10000 6.2 300 21:41 30.06.2019
5633 Clouds 18 1014 77 10000 6.2 300 21:19 30.06.2019
5634 Clouds 18 1014 77 10000 6.2 300 20:55 30.06.2019
5635 Clouds 19 1014 77 10000 7.7 290 20:36 30.06.2019
5636 Clouds 19 1014 77 10000 7.7 290 20:18 30.06.2019
5637 Clouds 19 1014 77 10000 7.7 290 19:43 30.06.2019
5638 Clouds 20 1013 72 10000 6.2 300 19:24 30.06.2019
5639 Clouds 21 1013 68 10000 7.2 300 18:26 30.06.2019
5640 Clouds 21 1013 68 10000 7.2 300 17:59 30.06.2019
5641 Clouds 21 1013 68 10000 9.3 300 17:39 30.06.2019
5642 Clouds 21 1013 68 10000 9.3 300 17:18 30.06.2019
5643 Clouds 21 1013 68 10000 9.3 300 16:48 30.06.2019
5644 Clouds 21 1013 73 10000 8.7 300 16:26 30.06.2019
5645 Clouds 22 1012 68 10000 10.8 300 15:38 30.06.2019
5646 Clouds 22 1012 68 10000 10.8 300 15:19 30.06.2019
5647 Clouds 22 1012 68 10000 10.8 300 14:53 30.06.2019
5648 Clouds 24 1010 64 10000 11.8 290 14:35 30.06.2019
5649 Clouds 24 1010 64 10000 11.8 290 13:49 30.06.2019
5650 Clouds 30 1009 40 10000 7.7 260 13:29 30.06.2019
5651 Clouds 30 1009 40 10000 7.7 260 12:57 30.06.2019
5652 Clouds 30 1008 35 10000 7.2 230 12:39 30.06.2019
5653 Clouds 30 1008 35 10000 7.2 230 12:19 30.06.2019
5654 Clouds 30 1008 35 10000 7.2 230 11:45 30.06.2019
5655 Clouds 29 1009 35 10000 5.7 220 11:21 30.06.2019
5656 Clouds 29 1009 35 10000 5.7 220 10:55 30.06.2019
5657 Clouds 27 1009 42 10000 5.7 220 10:36 30.06.2019
5658 Clouds 27 1009 42 10000 5.7 220 10:18 30.06.2019
5659 Clouds 27 1009 42 10000 5.7 220 09:43 30.06.2019
5660 Clouds 25 1009 44 10000 5.1 210 09:20 30.06.2019
5661 Clouds 24 1010 44 10000 4.1 200 08:40 30.06.2019
5662 Clouds 24 1010 44 10000 4.1 200 08:21 30.06.2019
5663 Clouds 24 1010 44 10000 4.1 200 07:51 30.06.2019
5664 Clouds 21 1010 52 10000 2.6 190 07:26 30.06.2019
5665 Fog 19 1011 59 10000 3.1 170 06:37 30.06.2019
5666 Clouds 17 1013 77 10000 2.1 130 03:34 30.06.2019
5667 Clouds 19 1013 68 10000 2.1 110 02:27 30.06.2019
5668 Clouds 20 1014 68 10000 2.6 100 01:23 30.06.2019
5669 Clouds 21 1014 64 10000 2.1 100 00:24 30.06.2019
5670 Clouds 21 1014 64 10000 2.1 100 23:53 29.06.2019
5671 Clouds 22 1015 60 10000 2.1 120 23:23 29.06.2019
5672 Clouds 22 1015 60 10000 2.1 120 22:52 29.06.2019
5673 Clear 24 1015 60 10000 2.1 110 22:25 29.06.2019
5674 Clear 24 1015 60 10000 2.1 110 21:57 29.06.2019
5675 Clear 25 1016 50 10000 3.6 80 21:39 29.06.2019
5676 Clear 25 1016 50 10000 3.6 80 21:20 29.06.2019
5677 Clear 26 1017 44 10000 3.1 60 20:40 29.06.2019
5678 Clear 26 1017 44 10000 3.1 60 20:21 29.06.2019
5679 Clear 26 1017 41 10000 2.6 50 19:43 29.06.2019
5680 Clear 26 1017 41 10000 2.6 50 19:23 29.06.2019
5681 Clear 26 1017 41 10000 2.6 50 18:48 29.06.2019
5682 Clear 26 1018 44 10000 2.6 70 18:25 29.06.2019
5683 Clear 26 1019 44 10000 2.6 60 17:42 29.06.2019
5684 Clear 26 1019 44 10000 2.6 60 17:22 29.06.2019
5685 Clear 26 1019 44 10000 2.6 60 16:54 29.06.2019
5686 Clear 26 1019 44 10000 1.5 130 16:29 29.06.2019
5687 Clear 25 1020 41 10000 1.5 310 15:42 29.06.2019
5688 Clear 25 1020 41 10000 1.5 310 15:23 29.06.2019
5689 Clear 25 1020 41 10000 1.5 310 14:43 29.06.2019
5690 Clear 24 1020 41 10000 3.1 290 14:25 29.06.2019
5691 Clear 24 1020 41 10000 3.1 290 13:46 29.06.2019
5692 Clear 24 1021 36 10000 1.5 210 13:26 29.06.2019
5693 Clear 24 1021 36 10000 1.5 210 12:49 29.06.2019
5694 Clouds 22 1021 43 10000 1.5 200 12:31 29.06.2019
5695 Clouds 22 1021 43 10000 1.5 200 11:53 29.06.2019
5696 Clouds 20 1022 56 10000 1.5 180 11:31 29.06.2019
5697 Clouds 20 1022 56 10000 1.5 180 10:53 29.06.2019
5698 Clouds 18 1022 63 10000 1 190 10:32 29.06.2019
5699 Clouds 18 1022 63 10000 1 190 09:59 29.06.2019
5700 Clouds 16 1022 82 8000 2.1 150 09:38 29.06.2019
5701 Mist 15 1022 93 5000 1 130 08:42 29.06.2019
5702 Fog 14 1022 100 3000 1.5 180 07:59 29.06.2019
5703 Fog 13 1022 100 2500 0.5 190 07:36 29.06.2019
5704 Fog 11 1022 100 1000 1 150 06:45 29.06.2019
5705 Fog 11 1023 100 50 0.5 0 06:23 29.06.2019
5706 Fog 11 1024 100 10000 0.5 290 02:51 29.06.2019
5707 Fog 11 1024 93 10000 1 310 01:21 29.06.2019
5708 Fog 11 1024 93 10000 0.5 350 00:24 29.06.2019
5709 Clouds 14 1025 82 10000 1 340 23:36 28.06.2019
5710 Clouds 14 1025 82 10000 1 340 23:18 28.06.2019
5711 Clouds 14 1025 82 10000 1 340 22:44 28.06.2019
5712 Clouds 15 1024 77 10000 2.6 360 21:53 28.06.2019
5713 Clouds 16 1025 72 10000 3.1 350 21:26 28.06.2019
5714 Clouds 16 1025 72 10000 3.1 350 20:49 28.06.2019
5715 Clouds 17 1025 67 10000 4.1 340 20:29 28.06.2019
5716 Clouds 17 1025 67 10000 4.1 340 19:57 28.06.2019
5717 Clouds 18 1025 63 10000 4.6 320 19:37 28.06.2019
5718 Clouds 18 1025 63 10000 4.6 320 19:18 28.06.2019
5719 Clouds 18 1025 63 10000 4.6 310 18:41 28.06.2019
5720 Clouds 18 1025 63 10000 4.6 310 18:20 28.06.2019
5721 Clouds 18 1026 63 10000 5.1 330 17:37 28.06.2019
5722 Clouds 18 1026 63 10000 5.1 330 17:18 28.06.2019
5723 Clouds 18 1026 63 10000 5.1 320 16:41 28.06.2019
5724 Clouds 18 1026 63 10000 5.1 320 16:18 28.06.2019
5725 Clouds 18 1026 63 10000 5.1 310 15:39 28.06.2019
5726 Clouds 18 1026 63 10000 5.1 310 15:18 28.06.2019
5727 Clouds 18 1026 63 10000 4.6 320 14:39 28.06.2019
5728 Clouds 15 1026 63 10000 4.6 320 14:20 28.06.2019
5729 Clouds 16 1026 63 10000 4.6 320 13:45 28.06.2019
5730 Clouds 16 1026 63 10000 5.1 320 13:25 28.06.2019
5731 Clouds 16 1026 63 10000 5.1 320 12:50 28.06.2019
5732 Clouds 15 1026 72 10000 3.6 340 12:31 28.06.2019
5733 Clouds 15 1026 72 10000 4.1 340 11:29 28.06.2019
5734 Clouds 15 1026 72 10000 4.1 340 10:58 28.06.2019
5735 Clouds 15 1026 72 10000 4.6 350 10:38 28.06.2019
5736 Clouds 15 1026 72 10000 4.6 350 10:18 28.06.2019
5737 Clouds 14 1026 72 10000 4.6 350 09:43 28.06.2019
5738 Clouds 14 1026 72 10000 4.1 350 09:24 28.06.2019
5739 Clouds 14 1026 76 10000 3.1 330 08:42 28.06.2019
5740 Clouds 14 1026 76 10000 3.1 330 08:23 28.06.2019
5741 Clouds 14 1026 76 10000 3.1 330 07:42 28.06.2019
5742 Clouds 14 1026 76 10000 3.1 330 06:52 28.06.2019
5743 Clouds 14 1026 76 10000 3.6 330 03:57 28.06.2019
5744 Clouds 14 1026 76 10000 4.1 320 00:47 28.06.2019
5745 Clouds 14 1027 76 10000 5.1 330 00:19 28.06.2019
5746 Clouds 14 1027 76 10000 5.1 330 23:46 27.06.2019
5747 Clouds 14 1027 76 10000 4.6 330 23:24 27.06.2019
5748 Clouds 14 1027 76 10000 4.6 330 22:43 27.06.2019
5749 Clouds 14 1026 76 10000 4.6 340 22:25 27.06.2019
5750 Clouds 14 1026 76 10000 4.6 340 21:58 27.06.2019
5751 Clouds 15 1027 77 10000 5.7 330 21:39 27.06.2019
5752 Clouds 15 1027 77 10000 5.7 330 21:20 27.06.2019
5753 Clouds 15 1027 77 10000 5.7 330 20:48 27.06.2019
5754 Clouds 15 1027 72 10000 5.7 350 20:30 27.06.2019
5755 Clouds 15 1027 72 10000 5.7 350 19:50 27.06.2019
5756 Clouds 15 1027 72 10000 6.7 330 19:29 27.06.2019
5757 Clouds 15 1027 72 10000 6.7 330 18:53 27.06.2019
5758 Clouds 16 1027 72 10000 6.2 320 18:32 27.06.2019
5759 Clouds 16 1027 72 10000 6.2 320 17:58 27.06.2019
5760 Clouds 15 1027 77 10000 6.7 320 17:37 27.06.2019
5761 Clouds 15 1027 77 10000 6.7 320 17:19 27.06.2019
5762 Drizzle 15 1027 72 10000 6.7 330 16:39 27.06.2019
5763 Drizzle 15 1027 72 10000 6.7 330 16:19 27.06.2019
5764 Drizzle 16 1027 72 10000 6.7 330 15:45 27.06.2019
5765 Clouds 16 1027 67 10000 6.7 320 15:24 27.06.2019
5766 Clouds 16 1027 67 10000 6.7 320 14:52 27.06.2019
5767 Clouds 16 1027 67 10000 6.7 320 14:52 27.06.2019
5768 Clouds 16 1027 67 10000 6.7 310 14:30 27.06.2019
5769 Drizzle 15 1027 77 10000 7.2 310 13:56 27.06.2019
5770 Clouds 16 1028 77 10000 7.2 320 13:36 27.06.2019
5771 Clouds 16 1028 77 10000 7.2 320 13:18 27.06.2019
5772 Drizzle 15 1028 82 10000 7.2 320 12:40 27.06.2019
5773 Drizzle 15 1028 82 10000 7.2 320 12:21 27.06.2019
5774 Clouds 15 1027 87 10000 6.7 320 11:42 27.06.2019
5775 Clouds 15 1027 87 10000 6.7 320 11:21 27.06.2019
5776 Clouds 15 1027 87 10000 6.7 320 10:56 27.06.2019
5777 Drizzle 14 1027 87 4000 6.7 320 10:36 27.06.2019
5778 Drizzle 14 1027 87 4000 6.7 320 10:18 27.06.2019
5779 Clouds 14 1027 76 10000 7.2 330 09:37 27.06.2019
5780 Clouds 14 1027 76 10000 7.2 330 09:19 27.06.2019
5781 Clouds 14 1027 76 10000 7.2 330 08:45 27.06.2019
5782 Clouds 14 1027 76 10000 5.1 330 08:23 27.06.2019
5783 Clouds 14 1027 71 10000 6.2 330 07:39 27.06.2019
5784 Clouds 14 1027 71 10000 6.2 330 06:55 27.06.2019
5785 Clouds 14 1027 76 10000 6.2 330 06:29 27.06.2019
5786 Clouds 13 1026 76 10000 6.2 320 03:50 27.06.2019
5787 Clouds 14 1027 76 10000 6.7 320 02:41 27.06.2019
5788 Clouds 14 1026 76 10000 5.1 320 01:18 27.06.2019
5789 Clouds 14 1026 77 10000 5.1 330 00:47 27.06.2019
5790 Clouds 14 1026 77 10000 5.1 330 00:25 27.06.2019
5791 Clouds 15 1026 77 10000 5.1 330 23:48 26.06.2019
5792 Clouds 15 1026 82 10000 6.2 320 23:22 26.06.2019
5793 Clouds 15 1026 82 10000 6.2 320 22:57 26.06.2019
5794 Clouds 15 1026 77 10000 5.7 330 22:38 26.06.2019
5795 Clouds 15 1026 77 10000 5.7 330 22:18 26.06.2019
5796 Clouds 15 1026 77 10000 5.7 330 21:41 26.06.2019
5797 Clouds 15 1026 77 10000 5.7 330 21:20 26.06.2019
5798 Clouds 15 1025 82 10000 5.1 330 20:55 26.06.2019
5799 Clouds 15 1025 82 10000 7.2 340 20:37 26.06.2019
5800 Clouds 15 1025 82 10000 7.2 340 20:18 26.06.2019
5801 Clouds 16 1025 77 10000 7.2 340 19:41 26.06.2019
5802 Clouds 16 1025 77 10000 7.2 340 19:22 26.06.2019
5803 Clouds 16 1025 77 10000 7.2 340 18:45 26.06.2019
5804 Clouds 17 1025 82 10000 7.7 330 18:22 26.06.2019
5805 Clouds 17 1025 82 10000 7.7 330 17:57 26.06.2019
5806 Clouds 17 1025 82 9000 7.7 320 17:28 26.06.2019
5807 Clouds 17 1025 82 9000 7.7 320 16:53 26.06.2019
5808 Clouds 17 1024 82 9000 7.2 310 16:31 26.06.2019
5809 Clouds 17 1024 82 9000 7.2 310 15:58 26.06.2019
5810 Clouds 18 1024 77 9000 7.2 310 15:30 26.06.2019
5811 Clouds 18 1024 77 9000 7.2 310 14:58 26.06.2019
5812 Clouds 18 1024 82 9000 7.7 320 14:37 26.06.2019
5813 Clouds 18 1024 82 9000 7.7 320 14:37 26.06.2019
5814 Clouds 18 1024 82 9000 7.7 320 14:19 26.06.2019
5815 Clouds 18 1023 82 9000 7.7 320 13:41 26.06.2019
5816 Clouds 18 1023 82 9000 7.7 320 13:19 26.06.2019
5817 Clouds 18 1023 77 10000 7.7 320 12:41 26.06.2019
5818 Clouds 18 1023 77 10000 7.7 320 12:22 26.06.2019
5819 Clouds 18 1023 77 10000 7.7 320 11:44 26.06.2019
5820 Clouds 19 1021 73 10000 7.7 310 11:19 26.06.2019
5821 Clouds 19 1021 73 10000 5.1 310 10:41 26.06.2019
5822 Clouds 19 1021 73 10000 5.1 310 10:21 26.06.2019
5823 Clouds 20 1020 73 10000 5.7 320 09:42 26.06.2019
5824 Clouds 20 1020 73 10000 5.7 320 09:18 26.06.2019
5825 Clouds 19 1019 82 10000 4.1 310 08:41 26.06.2019
5826 Clouds 19 1019 82 10000 4.1 310 08:19 26.06.2019
5827 Clouds 19 1019 82 10000 4.1 310 07:45 26.06.2019
5828 Clouds 20 1018 73 10000 2.6 250 06:38 26.06.2019
5829 Clouds 20 1018 73 10000 2.6 250 06:20 26.06.2019
5830 Clouds 24 1018 54 10000 2.1 170 00:59 26.06.2019
5831 Clouds 25 1018 57 10000 1.5 150 00:24 26.06.2019
5832 Clouds 26 1018 57 10000 1.5 150 23:45 25.06.2019
5833 Clouds 26 1018 54 10000 1.5 140 23:27 25.06.2019
5834 Clouds 26 1018 54 10000 1.5 140 22:56 25.06.2019
5835 Clouds 29 1017 48 10000 1.5 150 22:37 25.06.2019
5836 Clouds 29 1017 48 10000 1.5 150 22:19 25.06.2019
5837 Clouds 30 1017 42 10000 1.5 150 21:41 25.06.2019
5838 Clouds 30 1017 42 10000 1.5 150 21:21 25.06.2019
5839 Clouds 31 1017 40 10000 2.6 160 20:45 25.06.2019
5840 Clouds 31 1017 40 10000 2.6 160 20:45 25.06.2019
5841 Clouds 32 1017 33 10000 4.1 180 20:22 25.06.2019
5842 Clouds 32 1017 33 10000 4.1 180 19:46 25.06.2019
5843 Clouds 33 1017 29 10000 5.1 170 19:23 25.06.2019
5844 Clouds 33 1017 29 10000 4.6 170 18:47 25.06.2019
5845 Clouds 33 1017 29 10000 4.6 170 18:29 25.06.2019
5846 Clouds 33 1017 29 10000 4.6 170 18:01 25.06.2019
5847 Clouds 33 1017 29 10000 4.6 170 18:01 25.06.2019
5848 -273 0 0 0 0 0 17:30 25.06.2019
5849 Clouds 33 1017 33 10000 5.1 160 16:58 25.06.2019
5850 Clouds 32 1018 35 10000 5.7 150 16:39 25.06.2019
5851 Clouds 32 1018 35 10000 5.7 150 16:21 25.06.2019
5852 Clouds 31 1018 38 10000 4.1 150 15:42 25.06.2019
5853 Clouds 31 1018 38 10000 4.1 150 15:24 25.06.2019
5854 Clouds 31 1018 38 10000 4.1 150 15:24 25.06.2019
5855 Clouds 31 1018 38 10000 4.1 150 14:54 25.06.2019
5856 Clouds 30 1019 40 10000 4.1 140 14:35 25.06.2019
5857 Clouds 30 1019 40 10000 4.1 140 13:47 25.06.2019
5858 Clouds 29 1019 45 10000 4.1 130 13:29 25.06.2019
5859 Clouds 28 1019 45 10000 4.1 130 12:55 25.06.2019
5860 Clouds 26 1019 50 10000 3.1 130 12:36 25.06.2019
5861 Clouds 26 1019 50 10000 3.1 130 12:18 25.06.2019
5862 Clouds 25 1019 53 10000 3.6 120 11:41 25.06.2019
5863 Clouds 25 1019 53 10000 3.6 120 11:20 25.06.2019
5864 Clouds 23 1019 56 10000 3.6 120 10:43 25.06.2019
5865 Clouds 23 1019 56 10000 3.6 120 10:22 25.06.2019
5866 Clouds 23 1019 56 10000 3.6 120 09:55 25.06.2019
5867 Clouds 22 1019 60 10000 4.1 130 09:37 25.06.2019
5868 Clouds 22 1019 60 10000 4.1 130 09:18 25.06.2019
5869 Clouds 20 1019 63 10000 3.6 120 08:42 25.06.2019
5870 Clouds 20 1019 63 10000 3.6 120 08:23 25.06.2019
5871 Clouds 19 1020 72 10000 3.1 110 07:39 25.06.2019
5872 Clouds 19 1020 72 10000 3.1 110 06:54 25.06.2019
5873 Clouds 19 1020 72 10000 3.6 110 06:36 25.06.2019
5874 Clouds 19 1021 88 10000 3.6 90 02:46 25.06.2019
5875 Clouds 19 1021 82 10000 3.6 80 01:40 25.06.2019
5876 Clouds 21 1021 72 10000 2.6 100 00:36 25.06.2019
5877 Clouds 21 1021 72 10000 2.6 100 23:56 24.06.2019
5878 Clouds 21 1021 68 10000 3.6 90 23:37 24.06.2019
5879 Clouds 21 1021 68 10000 3.6 90 23:37 24.06.2019
5880 Clouds 21 1021 68 10000 3.6 90 23:37 24.06.2019
5881 Clouds 21 1021 68 10000 3.6 90 23:19 24.06.2019
5882 Clouds 23 1020 64 10000 3.6 100 22:40 24.06.2019
5883 Clouds 23 1020 64 10000 3.6 100 22:19 24.06.2019
5884 Clouds 25 1020 60 10000 3.1 110 21:39 24.06.2019
5885 Clouds 25 1020 60 10000 3.1 110 21:19 24.06.2019
5886 Clouds 25 1020 57 10000 4.6 100 20:56 24.06.2019
5887 Clouds 26 1021 50 10000 6.2 90 20:37 24.06.2019
5888 Clouds 26 1021 50 10000 6.2 90 20:19 24.06.2019
5889 Clouds 27 1021 42 10000 4.6 100 19:43 24.06.2019
5890 Clouds 27 1021 42 10000 4.6 100 19:21 24.06.2019
5891 Clouds 27 1021 42 10000 4.6 100 18:45 24.06.2019
5892 Clouds 28 1021 34 10000 6.2 90 18:26 24.06.2019
5893 Clouds 27 1021 34 10000 6.2 90 17:47 24.06.2019
5894 Clouds 28 1021 30 10000 6.2 120 17:25 24.06.2019
5895 Clouds 28 1021 30 10000 6.2 120 16:48 24.06.2019
5896 Clouds 28 1021 30 10000 5.7 110 16:20 24.06.2019
5897 Clouds 28 1021 30 10000 5.7 110 15:49 24.06.2019
5898 Clouds 28 1022 32 10000 4.6 120 15:30 24.06.2019
5899 Clouds 28 1022 32 10000 4.6 120 14:55 24.06.2019
5900 Clouds 27 1022 36 10000 5.1 130 14:31 24.06.2019
5901 Clouds 27 1022 36 10000 5.1 130 13:49 24.06.2019
5902 Clouds 27 1022 36 10000 6.2 110 13:24 24.06.2019
5903 Clouds 26 1022 36 10000 6.2 110 12:44 24.06.2019
5904 Clouds 25 1023 38 10000 5.1 110 12:22 24.06.2019
5905 Clouds 25 1023 38 10000 5.1 110 11:55 24.06.2019
5906 Clouds 24 1023 43 10000 6.2 120 11:37 24.06.2019
5907 Clouds 24 1023 43 10000 6.2 120 11:18 24.06.2019
5908 Clouds 22 1023 49 10000 4.6 120 10:41 24.06.2019
5909 Clouds 22 1023 49 10000 4.6 120 10:20 24.06.2019
5910 Clouds 21 1023 49 10000 4.6 120 09:48 24.06.2019
5911 Clouds 20 1023 63 10000 3.6 110 09:19 24.06.2019
5912 Clouds 19 1023 63 10000 3.6 110 08:51 24.06.2019
5913 Clouds 18 1023 72 10000 3.6 90 08:22 24.06.2019
5914 Clouds 18 1023 72 10000 3.6 90 07:44 24.06.2019
5915 Clouds 17 1023 93 10000 3.6 100 07:24 24.06.2019
5916 Clouds 16 1023 93 10000 3.6 90 06:27 24.06.2019
5917 Clouds 16 1023 93 10000 3.6 90 05:56 24.06.2019
5918 Clouds 16 1023 93 10000 3.6 90 04:59 24.06.2019
5919 Clouds 16 1023 87 10000 3.6 90 03:57 24.06.2019
5920 Clouds 17 1023 82 10000 3.6 90 02:53 24.06.2019
5921 Clouds 17 1023 77 10000 4.1 100 01:58 24.06.2019
5922 Clouds 18 1023 72 10000 4.1 100 01:40 24.06.2019
5923 Clouds 18 1023 72 10000 4.1 100 01:21 24.06.2019
5924 Clouds 19 1022 63 10000 4.6 100 00:38 24.06.2019
5925 Clouds 19 1022 63 10000 4.6 100 00:18 24.06.2019
5926 Clouds 20 1022 64 10000 3.6 100 23:42 23.06.2019
5927 Clouds 20 1022 64 10000 3.6 100 23:21 23.06.2019
5928 Clouds 21 1022 68 10000 3.6 80 22:42 23.06.2019
5929 Clouds 21 1022 68 10000 3.6 80 22:20 23.06.2019
5930 Clouds 22 1022 68 10000 3.6 80 21:43 23.06.2019
5931 Clouds 23 1021 60 10000 4.6 90 21:25 23.06.2019
5932 Clouds 24 1021 60 10000 4.6 90 20:57 23.06.2019
5933 Clouds 24 1021 53 10000 6.7 90 20:38 23.06.2019
5934 Clouds 24 1021 53 10000 6.7 90 20:19 23.06.2019
5935 Clouds 24 1021 50 10000 6.7 80 19:43 23.06.2019
5936 Clouds 24 1021 50 10000 6.7 80 19:20 23.06.2019
5937 Clouds 24 1021 50 10000 6.7 80 18:47 23.06.2019
5938 Clouds 25 1021 41 10000 5.7 100 18:20 23.06.2019
5939 Clouds 24 1021 41 10000 5.7 100 17:45 23.06.2019
5940 Clouds 24 1021 41 10000 5.1 120 17:25 23.06.2019
5941 Clouds 24 1021 41 10000 5.1 120 16:47 23.06.2019
5942 Clouds 25 1022 41 10000 5.7 110 16:26 23.06.2019
5943 Clouds 25 1022 41 10000 5.7 110 15:58 23.06.2019
5944 Clouds 24 1022 44 10000 5.7 120 15:37 23.06.2019
5945 Clouds 24 1022 44 10000 5.7 120 15:18 23.06.2019
5946 Clouds 23 1022 47 10000 6.2 110 14:39 23.06.2019
5947 Clouds 23 1022 47 10000 6.2 110 14:21 23.06.2019
5948 Clouds 23 1022 47 10000 6.2 110 13:54 23.06.2019
5949 Clouds 23 1022 49 10000 5.7 110 13:36 23.06.2019
5950 Clouds 23 1022 49 10000 5.7 110 13:18 23.06.2019
5951 Clouds 22 1023 49 10000 5.1 110 12:42 23.06.2019
5952 Clouds 22 1023 49 10000 5.1 110 12:20 23.06.2019
5953 Clouds 21 1023 49 10000 5.1 110 11:49 23.06.2019
5954 Clouds 20 1022 52 10000 5.1 120 11:28 23.06.2019
5955 Clouds 20 1022 52 10000 5.1 120 11:28 23.06.2019
5956 Clouds 20 1022 52 10000 5.1 120 10:51 23.06.2019
5957 Clouds 19 1023 55 10000 5.7 110 10:22 23.06.2019
5958 Clouds 19 1023 55 10000 5.7 110 09:59 23.06.2019
5959 Clouds 17 1023 63 10000 4.1 90 09:25 23.06.2019
5960 Clouds 17 1023 63 10000 4.1 90 08:55 23.06.2019
5961 Clouds 16 1023 67 10000 4.1 90 08:36 23.06.2019
5962 Clouds 16 1023 67 10000 4.1 90 08:18 23.06.2019
5963 Clouds 16 1023 67 10000 4.1 90 07:48 23.06.2019
5964 Clouds 15 1023 76 10000 4.1 90 07:19 23.06.2019
5965 Clouds 15 1023 76 10000 4.1 90 06:53 23.06.2019
5966 Clouds 13 1023 81 10000 3.6 90 05:53 23.06.2019
5967 Clouds 14 1023 81 10000 3.1 90 02:52 23.06.2019
5968 Clouds 15 1023 76 10000 3.6 90 01:43 23.06.2019
5969 Clouds 14 1023 82 10000 3.6 90 01:24 23.06.2019
5970 Clouds 16 1023 72 10000 3.1 90 00:34 23.06.2019
5971 Clouds 15 1023 72 10000 3.1 90 23:52 22.06.2019
5972 Clouds 16 1023 72 10000 4.6 90 23:26 22.06.2019
5973 Clouds 16 1023 72 10000 4.6 90 23:26 22.06.2019
5974 Clouds 16 1023 72 10000 4.6 90 22:47 22.06.2019
5975 Clouds 17 1022 63 10000 5.1 70 22:29 22.06.2019
5976 Clouds 17 1022 63 10000 5.1 70 21:59 22.06.2019
5977 Clouds 18 1022 59 10000 4.1 40 21:36 22.06.2019
5978 Clouds 18 1022 59 10000 4.1 40 21:18 22.06.2019
5979 Clouds 17 1022 59 10000 4.1 40 20:46 22.06.2019
5980 Clouds 18 1022 59 10000 5.1 40 20:25 22.06.2019
5981 Clouds 18 1022 59 10000 5.1 40 19:44 22.06.2019
5982 Clouds 18 1023 55 10000 5.1 40 19:22 22.06.2019
5983 Clouds 18 1023 55 10000 5.1 40 18:47 22.06.2019
5984 Clouds 19 1023 52 10000 5.7 40 18:29 22.06.2019
5985 Clouds 18 1023 52 10000 5.7 40 17:52 22.06.2019
5986 Clouds 19 1023 49 10000 6.2 50 17:31 22.06.2019
5987 Clouds 18 1023 49 10000 6.2 50 16:50 22.06.2019
5988 Clouds 19 1023 49 10000 4.6 40 16:24 22.06.2019
5989 Clouds 18 1023 49 10000 4.6 40 15:54 22.06.2019
5990 Clouds 18 1024 45 10000 3.6 80 15:33 22.06.2019
5991 Clouds 18 1024 45 10000 3.6 80 14:58 22.06.2019
5992 Clouds 18 1024 48 10000 4.1 60 14:34 22.06.2019
5993 Clouds 18 1024 48 10000 4.1 60 13:59 22.06.2019
5994 Clouds 17 1024 52 10000 3.1 70 13:40 22.06.2019
5995 Clouds 17 1024 52 10000 3.1 70 13:19 22.06.2019
5996 Clouds 17 1024 52 10000 3.1 70 12:50 22.06.2019
5997 Clouds 17 1024 55 10000 3.6 50 12:31 22.06.2019
5998 Clouds 17 1024 55 10000 3.6 50 11:57 22.06.2019
5999 Clouds 16 1025 59 10000 2.6 80 11:31 22.06.2019
6000 Clouds 16 1025 59 10000 2.6 80 10:48 22.06.2019
6001 Clouds 16 1024 63 10000 1 0 10:19 22.06.2019
6002 Clouds 16 1024 63 10000 1 0 09:46 22.06.2019
6003 Clouds 16 1024 63 10000 1.5 50 09:18 22.06.2019
6004 Clouds 16 1024 72 10000 1.5 360 08:41 22.06.2019
6005 Clouds 16 1024 72 10000 1.5 360 08:19 22.06.2019
6006 Clouds 14 1024 93 10000 1 350 07:30 22.06.2019
6007 Fog 11 1023 93 10000 2.28 352.713 06:47 22.06.2019
6008 Clouds 12 1023 100 10000 0.5 330 04:53 22.06.2019
6009 Clouds 12 1023 93 10000 0.5 330 02:32 22.06.2019
6010 Clouds 12 1022 87 10000 1.5 340 01:18 22.06.2019
6011 Clouds 13 1022 81 10000 1 320 00:38 22.06.2019
6012 Clouds 13 1022 81 10000 1 320 23:59 21.06.2019
6013 Clouds 13 1021 76 10000 1.5 300 23:39 21.06.2019
6014 Clouds 13 1021 76 10000 1.5 300 23:19 21.06.2019
6015 Clouds 13 1021 76 10000 1.5 300 23:19 21.06.2019
6016 Clouds 14 1021 76 10000 1.5 300 22:43 21.06.2019
6017 Clouds 15 1020 63 10000 3.6 330 22:23 21.06.2019
6018 Clouds 17 1020 67 10000 3.6 340 21:40 21.06.2019
6019 Clouds 17 1020 67 10000 3.6 340 21:22 21.06.2019
6020 Clouds 17 1020 67 10000 3.6 340 20:53 21.06.2019
6021 Clouds 17 1020 63 10000 4.6 330 20:27 21.06.2019
6022 Clouds 17 1020 63 10000 4.6 330 19:58 21.06.2019
6023 Clouds 17 1019 63 10000 4.1 330 19:31 21.06.2019
6024 Clouds 18 1019 63 10000 4.1 330 18:48 21.06.2019
6025 Clouds 17 1019 59 10000 4.6 320 18:28 21.06.2019
6026 Clouds 17 1019 59 10000 4.6 320 17:46 21.06.2019
6027 Clouds 16 1018 72 10000 3.6 310 17:27 21.06.2019
6028 Clouds 17 1018 77 10000 3.1 320 16:40 21.06.2019
6029 Clouds 17 1018 77 10000 3.1 320 16:21 21.06.2019
6030 Rain 16 1018 87 10000 5.7 310 15:39 21.06.2019
6031 Rain 16 1018 87 10000 5.7 310 15:20 21.06.2019
6032 Rain 17 1018 87 10000 5.7 310 14:49 21.06.2019
6033 Rain 18 1017 68 10000 4.1 300 14:30 21.06.2019
6034 Rain 17 1017 68 10000 4.1 300 13:53 21.06.2019
6035 Clouds 18 1017 59 10000 5.1 270 13:33 21.06.2019
6036 Clouds 18 1017 59 10000 5.1 270 12:59 21.06.2019
6037 Clouds 18 1017 63 10000 5.1 260 12:39 21.06.2019
6038 Clouds 18 1017 63 10000 5.1 260 12:18 21.06.2019
6039 Clouds 18 1017 63 10000 5.1 260 12:18 21.06.2019
6040 Clouds 18 1017 63 10000 5.1 260 12:18 21.06.2019
6041 Clouds 19 1017 63 10000 5.1 260 11:46 21.06.2019
6042 Clouds 18 1017 68 10000 5.1 260 11:24 21.06.2019
6043 Clouds 18 1017 68 10000 5.1 260 10:51 21.06.2019
6044 Clouds 18 1016 72 10000 4.6 240 10:21 21.06.2019
6045 Clouds 18 1016 72 10000 4.6 240 09:57 21.06.2019
6046 Clouds 17 1016 82 10000 3.6 220 09:39 21.06.2019
6047 Clouds 17 1016 82 10000 3.6 220 09:19 21.06.2019
6048 Clouds 16 1015 87 10000 3.6 220 08:42 21.06.2019
6049 Clouds 16 1015 87 10000 3.6 220 08:22 21.06.2019
6050 Clouds 15 1015 87 10000 3.6 220 07:51 21.06.2019
6051 Fog 14 1015 93 10000 2.6 220 07:29 21.06.2019
6052 Fog 13 1015 93 10000 2.6 220 06:53 21.06.2019
6053 Fog 13 1015 93 10000 3.1 220 06:21 21.06.2019
6054 Clouds 12 1015 100 10000 2.6 220 05:25 21.06.2019
6055 Clouds 12 1015 100 10000 1.5 230 04:26 21.06.2019
6056 Clouds 12 1014 93 10000 0.5 350 03:33 21.06.2019
6057 Clouds 13 1014 93 10000 0.5 350 02:52 21.06.2019
6058 Clouds 14 1014 100 10000 1 280 01:49 21.06.2019
6059 Clouds 14 1015 93 10000 0.5 240 00:55 21.06.2019
6060 Clouds 14 1014 87 10000 1.5 310 00:23 21.06.2019
6061 Clouds 15 1014 87 10000 1.5 310 23:49 20.06.2019
6062 Clouds 15 1013 87 10000 2.6 310 23:23 20.06.2019
6063 Clouds 15 1013 87 10000 2.6 310 22:58 20.06.2019
6064 Clouds 15 1012 82 10000 3.6 320 22:39 20.06.2019
6065 Clouds 15 1012 82 10000 3.6 320 22:20 20.06.2019
6066 Clouds 17 1012 82 10000 3.6 320 21:49 20.06.2019
6067 Clouds 17 1012 82 10000 5.7 320 21:19 20.06.2019
6068 Clouds 17 1012 82 10000 5.7 320 20:50 20.06.2019
6069 Clouds 17 1011 82 10000 2.6 350 20:27 20.06.2019
6070 Clouds 17 1011 82 10000 2.6 350 19:59 20.06.2019
6071 Clouds 17 1011 82 10000 4.6 330 19:39 20.06.2019
6072 Clouds 17 1011 82 10000 4.6 330 19:18 20.06.2019
6073 Clouds 17 1011 82 10000 4.1 330 18:43 20.06.2019
6074 Clouds 17 1011 82 10000 4.1 330 18:23 20.06.2019
6075 Clouds 17 1011 82 10000 4.1 330 17:56 20.06.2019
6076 Clouds 17 1011 82 10000 3.1 310 17:38 20.06.2019
6077 Clouds 17 1011 82 10000 3.1 310 16:57 20.06.2019
6078 Clouds 18 1011 77 10000 3.6 280 16:39 20.06.2019
6079 -273 0 0 0 0 0 16:18 20.06.2019
6080 Clouds 18 1011 77 10000 3.6 280 16:18 20.06.2019
6081 Clouds 17 1011 88 10000 3.6 290 15:42 20.06.2019
6082 Clouds 17 1011 88 10000 3.6 290 15:23 20.06.2019
6083 Clouds 18 1011 88 10000 3.6 290 14:52 20.06.2019
6084 Clouds 18 1011 88 8000 4.1 300 14:24 20.06.2019
6085 Clouds 18 1010 82 10000 5.1 290 13:56 20.06.2019
6086 Rain 17 1010 88 10000 4.6 300 13:37 20.06.2019
6087 Rain 17 1010 88 10000 4.6 300 13:18 20.06.2019
6088 Clouds 18 1009 82 10000 6.2 270 12:40 20.06.2019
6089 Clouds 18 1009 82 10000 6.2 270 12:19 20.06.2019
6090 Clouds 17 1009 88 8000 6.2 260 11:40 20.06.2019
6091 Clouds 17 1009 88 8000 6.2 260 11:22 20.06.2019
6092 Clouds 16 1008 93 8000 5.1 270 10:43 20.06.2019
6093 Clouds 16 1008 93 8000 6.2 280 10:23 20.06.2019
6094 Clouds 17 1008 82 9000 5.7 260 09:46 20.06.2019
6095 Clouds 16 1008 88 8000 5.1 260 09:24 20.06.2019
6096 Clouds 17 1008 93 8000 4.1 260 08:58 20.06.2019
6097 Mist 17 1008 93 5000 3.6 250 08:40 20.06.2019
6098 Mist 17 1008 93 5000 3.6 250 08:19 20.06.2019
6099 Mist 16 1007 100 3000 3.6 230 07:42 20.06.2019
6100 Mist 16 1007 100 3000 3.6 230 07:23 20.06.2019
6101 Fog 16 1006 93 800 2.6 230 06:19 20.06.2019
6102 Clouds 16 1006 93 10000 2.6 190 03:40 20.06.2019
6103 Clouds 16 1006 93 10000 2.1 170 01:56 20.06.2019
6104 Thunderstorm 18 1008 93 4500 4.1 200 00:33 20.06.2019
6105 Thunderstorm 18 1008 93 4500 4.1 200 23:45 19.06.2019
6106 Thunderstorm 18 1007 100 10000 2.1 200 23:27 19.06.2019
6107 Fog 19 1007 100 10000 1 180 22:48 19.06.2019
6108 Clouds 20 1006 88 10000 1 290 22:24 19.06.2019
6109 Clouds 20 1006 88 10000 1 290 21:58 19.06.2019
6110 Clouds 20 1006 88 10000 0.5 0 21:37 19.06.2019
6111 Clouds 20 1006 88 10000 0.5 0 21:19 19.06.2019
6112 Clouds 19 1006 88 10000 2.1 240 20:41 19.06.2019
6113 Clouds 19 1006 88 10000 2.1 240 20:21 19.06.2019
6114 Clouds 21 1006 88 10000 2.1 240 19:46 19.06.2019
6115 Thunderstorm 19 1007 88 8000 4.1 190 19:26 19.06.2019
6116 Thunderstorm 19 1007 88 8000 4.1 190 18:56 19.06.2019
6117 Thunderstorm 17 1007 88 5000 4.6 200 18:24 19.06.2019
6118 Thunderstorm 26 1006 47 10000 4.6 290 17:47 19.06.2019
6119 Clouds 27 1005 47 10000 3.6 290 17:25 19.06.2019
6120 Clouds 27 1005 47 10000 3.6 290 16:56 19.06.2019
6121 Clouds 26 1006 57 10000 4.6 290 16:37 19.06.2019
6122 Clouds 26 1006 57 10000 4.6 290 16:19 19.06.2019
6123 Clouds 23 1006 57 10000 4.6 290 15:44 19.06.2019
6124 Clouds 25 1007 39 10000 6.2 240 15:22 19.06.2019
6125 Clouds 24 1007 39 10000 6.2 240 14:43 19.06.2019
6126 Clouds 25 1006 42 10000 5.7 220 14:25 19.06.2019
6127 Clouds 26 1006 42 10000 5.7 220 13:47 19.06.2019
6128 Clouds 26 1006 45 10000 5.1 160 13:28 19.06.2019
6129 Clouds 26 1006 45 10000 5.1 160 12:59 19.06.2019
6130 Clouds 27 1007 51 10000 3.6 130 12:40 19.06.2019
6131 Clouds 27 1007 51 10000 3.6 130 12:18 19.06.2019
6132 Clouds 23 1007 61 10000 2.6 160 11:42 19.06.2019
6133 Clouds 23 1007 61 10000 2.6 160 11:21 19.06.2019
6134 Clouds 23 1007 61 10000 2.6 160 10:49 19.06.2019
6135 Clouds 23 1008 69 10000 2.6 140 10:28 19.06.2019
6136 Clouds 23 1008 69 10000 2.6 140 10:28 19.06.2019
6137 Clouds 23 1008 69 10000 2.6 140 09:56 19.06.2019
6138 Clouds 20 1008 77 10000 3.1 110 09:38 19.06.2019
6139 Clouds 20 1008 77 10000 3.1 110 09:38 19.06.2019
6140 Clouds 20 1008 77 10000 3.1 110 09:18 19.06.2019
6141 Clouds 19 1008 88 8000 3.6 90 08:43 19.06.2019
6142 Clouds 19 1008 88 8000 3.6 90 08:25 19.06.2019
6143 Clouds 18 1008 88 8000 3.6 90 07:44 19.06.2019
6144 Rain 18 1009 93 7000 3.6 80 07:23 19.06.2019
6145 Mist 17 1009 93 5000 3.6 80 06:42 19.06.2019
6146 Mist 17 1009 93 5000 3.6 80 06:20 19.06.2019
6147 Mist 16 1009 93 4500 3.1 70 05:40 19.06.2019
6148 Clouds 17 1010 88 10000 2.1 70 03:58 19.06.2019
6149 Clouds 17 1011 88 10000 2.6 80 02:52 19.06.2019
6150 Clouds 17 1012 88 10000 2.6 70 01:44 19.06.2019
6151 Clouds 17 1012 88 10000 2.1 70 00:56 19.06.2019
6152 Clouds 17 1012 88 10000 3.1 20 00:38 19.06.2019
6153 Clouds 17 1012 88 10000 3.1 20 00:19 19.06.2019
6154 Clouds 18 1013 82 10000 3.6 10 23:43 18.06.2019
6155 Clouds 18 1013 82 10000 3.6 10 23:25 18.06.2019
6156 Clouds 18 1013 72 10000 3.1 10 22:42 18.06.2019
6157 Clouds 18 1013 72 10000 3.1 10 22:23 18.06.2019
6158 Clouds 18 1013 72 10000 3.1 10 21:55 18.06.2019
6159 Clouds 18 1013 72 10000 3.6 20 21:37 18.06.2019
6160 Clouds 18 1013 72 10000 3.6 20 21:37 18.06.2019
6161 Clouds 18 1013 72 10000 3.6 20 21:18 18.06.2019
6162 Clouds 21 1013 53 10000 4.1 360 20:41 18.06.2019
6163 Clouds 21 1013 53 10000 4.1 360 20:22 18.06.2019
6164 Clouds 22 1013 53 10000 3.6 350 19:41 18.06.2019
6165 Clouds 22 1013 53 10000 3.6 350 19:22 18.06.2019
6166 Clouds 22 1013 53 10000 3.6 350 18:55 18.06.2019
6167 Clouds 22 1013 53 10000 3.6 320 18:26 18.06.2019
6168 Clouds 22 1013 53 10000 3.6 320 17:56 18.06.2019
6169 Clouds 22 1013 53 10000 3.6 320 17:56 18.06.2019
6170 Clouds 22 1013 50 10000 3.6 330 17:38 18.06.2019
6171 Clouds 22 1013 50 10000 3.6 330 17:19 18.06.2019
6172 Thunderstorm 22 1014 60 10000 4.1 300 16:42 18.06.2019
6173 Thunderstorm 22 1014 60 10000 4.1 300 16:22 18.06.2019
6174 Thunderstorm 22 1014 60 10000 4.1 300 16:22 18.06.2019
6175 Thunderstorm 23 1014 57 10000 4.1 320 15:43 18.06.2019
6176 Thunderstorm 23 1014 57 10000 4.1 320 15:23 18.06.2019
6177 Clouds 24 1014 50 10000 4.1 40 14:57 18.06.2019
6178 Clouds 26 1014 47 10000 2.6 270 14:39 18.06.2019
6179 Clouds 26 1014 47 10000 2.6 270 14:19 18.06.2019
6180 Clouds 26 1014 47 10000 2.6 270 13:50 18.06.2019
6181 Clouds 27 1014 42 10000 3.1 210 13:31 18.06.2019
6182 Clouds 27 1014 42 10000 3.1 210 12:46 18.06.2019
6183 Clouds 26 1015 47 10000 2.1 180 12:28 18.06.2019
6184 Clouds 26 1015 47 10000 2.1 180 11:56 18.06.2019
6185 Clouds 24 1015 57 10000 2.6 190 11:38 18.06.2019
6186 Clouds 24 1015 57 10000 2.6 190 11:20 18.06.2019
6187 Clouds 24 1015 57 10000 2.6 190 10:43 18.06.2019
6188 Clouds 22 1015 64 10000 2.6 150 10:22 18.06.2019
6189 Clouds 22 1015 64 10000 2.6 150 09:52 18.06.2019
6190 Clouds 19 1016 72 10000 2.6 150 09:25 18.06.2019
6191 Clouds 19 1016 72 10000 2.6 150 08:58 18.06.2019
6192 Clouds 19 1016 72 10000 3.1 150 08:39 18.06.2019
6193 Clouds 19 1016 72 10000 3.1 150 08:20 18.06.2019
6194 Clouds 18 1016 77 10000 3.1 140 07:27 18.06.2019
6195 Clouds 18 1016 77 10000 3.1 140 07:27 18.06.2019
6196 Clouds 16 1016 77 10000 3.1 140 06:57 18.06.2019
6197 Clouds 16 1016 82 10000 2.1 130 05:28 18.06.2019
6198 Clouds 16 1017 77 10000 2.1 130 04:22 18.06.2019
6199 Clouds 16 1017 77 10000 3.1 150 02:50 18.06.2019
6200 Clouds 17 1017 68 10000 2.6 150 01:49 18.06.2019
6201 Clouds 18 1017 63 10000 3.1 140 01:24 18.06.2019
6202 Clouds 18 1017 63 10000 2.1 130 00:40 18.06.2019
6203 Clouds 18 1017 63 10000 2.1 130 00:22 18.06.2019
6204 Clouds 19 1018 56 10000 2.1 130 23:38 17.06.2019
6205 Clouds 19 1018 56 10000 2.1 130 23:19 17.06.2019
6206 Clouds 20 1018 56 10000 1.5 120 22:41 17.06.2019
6207 Clouds 20 1018 56 10000 1.5 120 22:21 17.06.2019
6208 Clouds 20 1018 56 10000 1.5 120 22:21 17.06.2019
6209 Clouds 20 1018 56 10000 1.5 120 21:56 17.06.2019
6210 Clouds 22 1018 47 10000 1.5 130 21:38 17.06.2019
6211 Clouds 22 1018 47 10000 1.5 130 21:18 17.06.2019
6212 Clouds 23 1018 41 10000 3.1 200 20:36 17.06.2019
6213 Clouds 23 1018 41 10000 3.1 200 20:18 17.06.2019
6214 Clouds 23 1019 50 10000 2.6 70 19:41 17.06.2019
6215 Clouds 23 1019 50 10000 2.6 70 19:22 17.06.2019
6216 Clouds 23 1019 50 10000 2.6 70 18:57 17.06.2019
6217 Clouds 22 1019 53 10000 4.1 50 18:37 17.06.2019
6218 Clear 21 1016 70 0 6.71 0 18:18 17.06.2019
6219 Clouds 21 1020 56 10000 2.6 50 17:42 17.06.2019
6220 Clouds 21 1020 56 10000 2.6 50 17:24 17.06.2019
6221 Clouds 22 1020 56 10000 3.1 80 16:46 17.06.2019
6222 Clouds 22 1020 56 10000 3.1 80 16:28 17.06.2019
6223 Clouds 22 1020 56 10000 3.1 80 15:56 17.06.2019
6224 Clouds 22 1020 50 10000 3.1 260 15:38 17.06.2019
6225 Clouds 22 1020 50 10000 3.1 260 15:18 17.06.2019
6226 Clouds 22 1020 46 10000 3.6 240 14:48 17.06.2019
6227 Clouds 22 1020 46 10000 3.6 240 14:30 17.06.2019
6228 Clouds 22 1021 49 10000 3.6 230 13:50 17.06.2019
6229 Clouds 22 1021 49 10000 3.6 230 13:23 17.06.2019
6230 Clouds 23 1021 49 10000 3.6 230 12:52 17.06.2019
6231 Clouds 21 1021 60 10000 4.1 220 12:31 17.06.2019
6232 Clouds 21 1022 64 10000 4.1 260 11:49 17.06.2019
6233 Clouds 21 1022 64 10000 4.1 260 11:26 17.06.2019
6234 Clouds 21 1022 64 10000 4.1 260 10:59 17.06.2019
6235 Clear 20 1022 68 10000 3.6 220 10:40 17.06.2019
6236 Clear 20 1022 68 10000 3.6 220 10:22 17.06.2019
6237 Clear 19 1022 68 10000 3.6 220 09:53 17.06.2019
6238 Clear 18 1022 77 10000 3.1 210 09:30 17.06.2019
6239 Clouds 17 1021 82 8000 3.6 210 08:42 17.06.2019
6240 Clouds 17 1021 82 8000 3.6 210 08:23 17.06.2019
6241 Clouds 16 1021 93 8000 2.1 190 07:46 17.06.2019
6242 Clouds 16 1021 93 8000 2.1 190 07:28 17.06.2019
6243 Clouds 14 1021 87 7000 3.1 180 06:44 17.06.2019
6244 Fog 13 1021 82 10000 3.1 170 05:49 17.06.2019
6245 Fog 14 1021 82 10000 3.1 170 04:52 17.06.2019
6246 Fog 13 1021 87 10000 1 160 03:50 17.06.2019
6247 Fog 13 1021 87 10000 1 160 03:20 17.06.2019
6248 Fog 14 1021 93 10000 1.5 160 02:41 17.06.2019
6249 Fog 14 1021 93 10000 1.5 160 02:18 17.06.2019
6250 Fog 13 1021 100 10000 1 200 01:34 17.06.2019
6251 Fog 14 1021 100 10000 1 190 00:45 17.06.2019
6252 Fog 14 1021 100 10000 1 190 00:23 17.06.2019
6253 Fog 14 1021 100 10000 1 190 23:56 16.06.2019
6254 Fog 14 1021 93 50 0.5 0 23:36 16.06.2019
6255 Fog 15 1021 93 10000 1 210 23:18 16.06.2019
6256 Clouds 16 1020 93 10000 0.5 0 22:39 16.06.2019
6257 Clouds 16 1020 93 10000 0.5 0 22:19 16.06.2019
6258 Clouds 15 1020 93 10000 0.5 0 21:56 16.06.2019
6259 Rain 16 1021 77 10000 2.1 240 21:38 16.06.2019
6260 Rain 16 1021 77 10000 2.1 240 21:19 16.06.2019
6261 Clouds 18 1020 72 10000 2.6 350 20:38 16.06.2019
6262 Clouds 18 1020 72 10000 2.6 350 20:19 16.06.2019
6263 Clouds 17 1020 72 10000 2.6 350 19:58 16.06.2019
6264 Clouds 17 1020 82 10000 4.1 340 19:38 16.06.2019
6265 Clouds 17 1020 82 10000 4.1 340 19:19 16.06.2019
6266 Rain 16 1020 82 10000 3.6 330 18:41 16.06.2019
6267 Rain 17 1020 82 7000 7.2 310 18:21 16.06.2019
6268 Clouds 19 1019 68 10000 6.2 330 17:49 16.06.2019
6269 Clouds 19 1019 68 10000 6.2 330 17:24 16.06.2019
6270 Clouds 19 1019 68 10000 6.2 330 16:58 16.06.2019
6271 Clouds 22 1019 49 10000 4.6 230 16:40 16.06.2019
6272 Clouds 22 1019 49 10000 4.6 230 16:21 16.06.2019
6273 Clouds 20 1019 49 10000 4.1 220 15:45 16.06.2019
6274 Clouds 20 1019 49 10000 4.1 220 15:26 16.06.2019
6275 Clouds 20 1019 53 10000 3.1 220 14:56 16.06.2019
6276 Clouds 20 1019 60 10000 3.1 250 14:37 16.06.2019
6277 Clouds 20 1019 60 10000 3.1 250 14:19 16.06.2019
6278 Clouds 21 1019 56 10000 3.1 210 13:45 16.06.2019
6279 Clouds 21 1019 56 10000 3.1 210 13:25 16.06.2019
6280 Clouds 19 1019 63 10000 2.6 210 12:44 16.06.2019
6281 Clouds 19 1019 63 10000 2.6 210 12:22 16.06.2019
6282 Clouds 19 1019 63 10000 2.6 210 11:56 16.06.2019
6283 Clouds 19 1018 72 10000 3.1 210 11:38 16.06.2019
6284 Clouds 19 1018 72 10000 3.1 210 11:18 16.06.2019
6285 Clouds 18 1018 82 10000 4.1 230 10:44 16.06.2019
6286 Clouds 18 1018 82 10000 4.1 230 10:19 16.06.2019
6287 Clouds 16 1018 87 10000 3.6 230 09:43 16.06.2019
6288 Clouds 16 1018 87 10000 3.6 230 09:23 16.06.2019
6289 Clouds 15 1018 82 10000 2.6 210 08:47 16.06.2019
6290 Clouds 15 1018 82 10000 2.6 210 08:21 16.06.2019
6291 Clouds 12 1017 100 10000 2.6 210 07:49 16.06.2019
6292 Clouds 12 1017 100 10000 2.6 210 07:31 16.06.2019
6293 Clouds 12 1017 100 10000 2.6 210 06:53 16.06.2019
6294 Fog 12 1017 93 10000 2.6 220 05:57 16.06.2019
6295 Fog 11 1017 93 10000 2.1 240 05:24 16.06.2019
6296 Clouds 12 1017 100 10000 2.1 230 04:22 16.06.2019
6297 Clouds 12 1017 93 10000 2.6 260 03:43 16.06.2019
6298 Clouds 12 1017 93 10000 2.6 260 03:23 16.06.2019
6299 Clouds 13 1016 87 10000 2.6 290 01:51 16.06.2019
6300 Clouds 13 1016 87 10000 2.6 290 01:33 16.06.2019
6301 Clouds 14 1016 82 10000 5.1 290 00:49 16.06.2019
6302 Clouds 14 1016 82 10000 5.1 290 00:26 16.06.2019
6303 Clouds 14 1016 82 10000 5.1 290 23:58 15.06.2019
6304 Clouds 15 1015 87 10000 6.7 290 23:39 15.06.2019
6305 Clouds 15 1015 87 10000 6.7 290 23:20 15.06.2019
6306 Clouds 15 1014 87 10000 6.7 300 22:48 15.06.2019
6307 Clouds 15 1014 87 10000 6.7 300 22:26 15.06.2019
6308 Clouds 15 1014 87 10000 7.7 300 21:45 15.06.2019
6309 Clouds 15 1014 87 10000 8.2 290 21:21 15.06.2019
6310 Clouds 15 1013 93 10000 7.7 280 20:46 15.06.2019
6311 Clouds 15 1013 93 10000 7.7 280 20:23 15.06.2019
6312 Clouds 16 1012 87 8000 8.2 270 19:53 15.06.2019
6313 Clouds 16 1012 87 8000 8.2 270 19:29 15.06.2019
6314 Clouds 16 1012 93 6000 8.2 270 18:59 15.06.2019
6315 Rain 16 1011 88 5000 3.6 260 18:37 15.06.2019
6316 Rain 17 1011 88 7000 3.1 260 18:18 15.06.2019
6317 Rain 17 1011 88 7000 3.1 260 18:18 15.06.2019
6318 Clouds 18 1011 82 10000 4.1 270 17:40 15.06.2019
6319 Clouds 18 1011 82 10000 4.1 270 17:21 15.06.2019
6320 Clouds 19 1010 82 10000 5.7 290 16:44 15.06.2019
6321 Clouds 19 1010 88 9000 5.7 290 16:18 15.06.2019
6322 Drizzle 17 1010 93 4000 5.7 290 15:41 15.06.2019
6323 Drizzle 17 1010 93 4000 5.7 290 15:22 15.06.2019
6324 Rain 17 1009 88 7000 1.5 180 14:39 15.06.2019
6325 Clouds 18 1009 88 10000 3.07 268.001 14:18 15.06.2019
6326 Clouds 17 1009 88 10000 3.07 268.001 13:44 15.06.2019
6327 Clouds 17 1009 88 10000 3.07 268.001 13:22 15.06.2019
6328 Rain 17 1009 88 10000 3.07 268.001 12:59 15.06.2019
6329 Rain 17 1008 88 6000 2.1 90 12:41 15.06.2019
6330 Rain 18 1008 88 6000 2.1 90 12:23 15.06.2019
6331 Thunderstorm 18 1008 88 10000 2.6 80 11:47 15.06.2019
6332 Thunderstorm 18 1008 88 10000 2.6 80 11:28 15.06.2019
6333 Thunderstorm 18 1008 82 10000 4.1 70 10:43 15.06.2019
6334 Thunderstorm 18 1008 82 10000 4.1 70 10:25 15.06.2019
6335 Clouds 17 1009 93 10000 3.6 60 09:48 15.06.2019
6336 Clouds 17 1009 93 10000 3.6 60 09:26 15.06.2019
6337 Clouds 17 1009 93 10000 3.6 60 08:54 15.06.2019
6338 Rain 16 1009 93 10000 4.1 70 08:36 15.06.2019
6339 Rain 16 1009 93 10000 4.1 70 08:18 15.06.2019
6340 Rain 16 1010 93 9000 2.6 90 07:26 15.06.2019
6341 Rain 16 1010 93 9000 2.6 90 07:25 15.06.2019
6342 Rain 17 1011 88 10000 1 90 06:48 15.06.2019
6343 Rain 17 1011 88 10000 1 90 06:25 15.06.2019
6344 Clouds 17 1012 88 10000 1 0 05:39 15.06.2019
6345 Clouds 17 1012 88 10000 1 0 05:39 15.06.2019
6346 Clouds 17 1012 88 10000 1 0 04:52 15.06.2019
6347 Clouds 17 1012 88 10000 3.1 60 04:19 15.06.2019
6348 Clouds 17 1013 82 10000 3.1 50 03:22 15.06.2019
6349 Clouds 17 1014 77 10000 3.1 60 02:31 15.06.2019
6350 Clouds 17 1014 77 10000 3.1 60 01:57 15.06.2019
6351 Clouds 17 1014 77 10000 3.1 60 01:20 15.06.2019
6352 Clouds 17 1014 82 10000 3.1 60 00:42 15.06.2019
6353 Clouds 17 1014 82 10000 3.1 60 00:23 15.06.2019
6354 Clouds 17 1015 72 10000 4.6 60 23:46 14.06.2019
6355 Clouds 17 1015 72 10000 4.6 60 23:19 14.06.2019
6356 Clouds 19 1015 64 10000 2.6 40 22:41 14.06.2019
6357 Clouds 19 1015 64 10000 2.6 40 22:21 14.06.2019
6358 Clouds 21 1015 60 10000 3.6 50 21:48 14.06.2019
6359 Clouds 21 1015 60 10000 3.6 50 21:28 14.06.2019
6360 Clouds 21 1015 56 10000 4.6 40 20:55 14.06.2019
6361 Clouds 21 1015 56 10000 4.6 40 20:36 14.06.2019
6362 Clouds 21 1015 56 10000 4.6 40 20:18 14.06.2019
6363 Clouds 21 1015 56 10000 3.6 40 19:39 14.06.2019
6364 Clouds 21 1015 56 10000 3.6 40 19:21 14.06.2019
6365 Clouds 21 1015 56 10000 3.6 40 18:54 14.06.2019
6366 Clouds 21 1015 56 10000 3.6 40 18:54 14.06.2019
6367 Clouds 22 1015 53 10000 3.6 360 18:36 14.06.2019
6368 Clouds 22 1015 53 10000 3.6 360 18:18 14.06.2019
6369 Clouds 22 1015 56 10000 4.1 360 17:44 14.06.2019
6370 Clouds 22 1015 56 10000 4.1 360 17:44 14.06.2019
6371 Clouds 22 1015 56 10000 4.1 360 17:23 14.06.2019
6372 Rain 20 1015 60 10000 6.7 300 16:49 14.06.2019
6373 Rain 20 1015 60 10000 6.7 300 16:24 14.06.2019
6374 Rain 20 1015 60 10000 6.7 300 16:24 14.06.2019
6375 -273 0 0 0 0 0 15:59 14.06.2019
6376 Clouds 21 1015 47 10000 3.6 200 15:39 14.06.2019
6377 Clouds 21 1015 47 10000 3.6 200 15:19 14.06.2019
6378 Clouds 22 1015 44 10000 4.6 210 14:46 14.06.2019
6379 Clouds 22 1015 44 10000 4.6 210 14:46 14.06.2019
6380 Clouds 22 1015 44 10000 4.6 210 14:28 14.06.2019
6381 Clouds 23 1014 43 10000 5.1 150 13:46 14.06.2019
6382 Clouds 23 1014 43 10000 5.1 150 13:28 14.06.2019
6383 Clouds 23 1014 43 10000 5.1 150 12:59 14.06.2019
6384 Clouds 23 1014 43 10000 5.1 150 12:59 14.06.2019
6385 Clouds 21 1015 46 10000 5.1 130 12:39 14.06.2019
6386 Clouds 21 1015 46 10000 5.1 130 12:39 14.06.2019
6387 -273 0 0 0 0 0 12:21 14.06.2019
6388 Clouds 21 1015 46 10000 5.1 130 12:21 14.06.2019
6389 Clouds 21 1015 49 10000 4.1 140 11:42 14.06.2019
6390 Clouds 21 1015 49 10000 4.1 140 11:42 14.06.2019
6391 Clouds 21 1015 49 10000 4.1 140 11:23 14.06.2019
6392 Clouds 19 1016 55 10000 3.1 160 10:48 14.06.2019
6393 Clouds 19 1016 55 10000 3.1 160 10:22 14.06.2019
6394 Clouds 18 1016 55 10000 3.1 160 09:55 14.06.2019
6395 Clouds 17 1016 67 10000 3.1 180 09:34 14.06.2019
6396 Clouds 17 1016 67 10000 3.1 180 08:56 14.06.2019
6397 Clouds 16 1015 77 10000 3.1 160 08:38 14.06.2019
6398 Clouds 16 1015 77 10000 3.1 160 08:18 14.06.2019
6399 Clouds 13 1015 82 10000 2.1 160 07:43 14.06.2019
6400 Clouds 13 1015 82 10000 2.1 160 07:19 14.06.2019
6401 Rain 13 1014 82 10000 1.5 140 06:27 14.06.2019
6402 Clouds 13 1014 82 10000 2.6 150 05:49 14.06.2019
6403 Clouds 13 1014 82 10000 2.6 150 04:56 14.06.2019
6404 Clouds 13 1014 87 10000 2.1 150 04:31 14.06.2019
6405 Clouds 13 1014 87 10000 2.1 190 03:41 14.06.2019
6406 Clouds 13 1014 87 10000 2.1 190 03:23 14.06.2019
6407 Rain 14 1014 67 10000 6.2 260 02:41 14.06.2019
6408 Rain 14 1014 67 10000 6.2 260 01:53 14.06.2019
6409 Clouds 14 1013 76 10000 1.5 190 00:45 14.06.2019
6410 Clouds 14 1013 76 10000 1.5 190 00:22 14.06.2019
6411 Rain 15 1013 67 10000 1.5 210 23:51 13.06.2019
6412 Rain 15 1013 67 10000 1.5 210 23:26 13.06.2019
6413 Rain 15 1013 67 10000 1.5 210 22:58 13.06.2019
6414 Clouds 16 1012 52 10000 2.6 210 22:38 13.06.2019
6415 Clouds 16 1012 52 10000 2.6 210 22:19 13.06.2019
6416 Clouds 16 1012 48 10000 2.6 210 21:38 13.06.2019
6417 Clouds 16 1012 48 10000 2.6 210 21:38 13.06.2019
6418 Clouds 16 1012 48 10000 2.6 210 21:19 13.06.2019
6419 Rain 19 1012 48 10000 4.6 230 20:45 13.06.2019
6420 Rain 19 1012 48 10000 4.6 230 20:21 13.06.2019
6421 Rain 19 1012 48 10000 4.6 230 19:56 13.06.2019
6422 Clouds 22 1011 40 10000 4.6 230 19:37 13.06.2019
6423 Clouds 22 1011 40 10000 4.6 230 19:18 13.06.2019
6424 Clouds 22 1012 40 10000 6.7 220 18:45 13.06.2019
6425 Clouds 22 1012 40 10000 6.7 220 18:27 13.06.2019
6426 Clouds 22 1012 40 10000 6.7 220 17:57 13.06.2019
6427 Clouds 21 1012 40 10000 7.2 220 17:39 13.06.2019
6428 Clouds 21 1012 40 10000 7.2 220 17:19 13.06.2019
6429 Clouds 21 1011 43 10000 5.7 220 16:45 13.06.2019
6430 Clouds 21 1011 43 10000 5.7 220 16:21 13.06.2019
6431 Clouds 21 1011 43 10000 5.7 220 15:56 13.06.2019
6432 Clouds 20 1012 45 10000 6.7 220 15:37 13.06.2019
6433 Clouds 20 1012 45 10000 6.7 220 15:18 13.06.2019
6434 Clouds 21 1011 46 10000 7.7 200 14:44 13.06.2019
6435 Clouds 21 1011 46 10000 7.7 200 14:23 13.06.2019
6436 Clouds 20 1011 49 10000 8.2 210 13:44 13.06.2019
6437 Clouds 20 1011 49 10000 8.2 210 13:21 13.06.2019
6438 Clouds 19 1011 55 10000 7.2 210 12:42 13.06.2019
6439 Clouds 19 1011 55 10000 7.2 210 12:23 13.06.2019
6440 Clouds 19 1011 55 10000 7.2 210 11:57 13.06.2019
6441 Clouds 19 1011 55 10000 6.7 220 11:39 13.06.2019
6442 Clouds 19 1011 55 10000 6.7 220 11:21 13.06.2019
6443 Clouds 18 1011 68 10000 4.6 190 10:45 13.06.2019
6444 Clouds 18 1011 68 10000 4.6 190 10:26 13.06.2019
6445 Clouds 16 1011 72 10000 4.1 190 09:44 13.06.2019
6446 Clouds 16 1011 72 10000 4.1 190 09:24 13.06.2019
6447 Clouds 16 1011 72 10000 4.1 190 09:24 13.06.2019
6448 Clouds 16 1011 72 10000 4.1 190 09:24 13.06.2019
6449 Clouds 14 1011 87 10000 3.1 180 08:49 13.06.2019
6450 Clouds 14 1011 87 10000 3.1 180 08:28 13.06.2019
6451 Clouds 14 1011 87 10000 3.1 180 07:59 13.06.2019
6452 Clouds 14 1010 93 10000 3.6 170 07:30 13.06.2019
6453 Clouds 13 1010 93 10000 3.6 170 06:52 13.06.2019
6454 Clouds 12 1010 93 10000 2.6 180 06:24 13.06.2019
6455 Clouds 12 1010 93 10000 2.6 180 05:56 13.06.2019
6456 Clouds 12 1010 82 10000 2.6 170 05:37 13.06.2019
6457 Clouds 12 1010 82 10000 2.6 170 04:59 13.06.2019
6458 Clouds 13 1010 82 10000 3.1 220 03:28 13.06.2019
6459 Clouds 14 1009 82 10000 4.1 220 01:27 13.06.2019
6460 Clouds 15 1009 87 10000 3.6 200 00:29 13.06.2019
6461 Clouds 15 1009 87 10000 3.6 210 23:24 12.06.2019
6462 Clouds 16 1009 87 10000 3.1 230 22:47 12.06.2019
6463 Clouds 16 1009 87 10000 3.1 230 22:28 12.06.2019
6464 Clouds 16 1009 87 10000 3.1 230 21:58 12.06.2019
6465 Rain 17 1008 87 10000 4.6 230 21:40 12.06.2019
6466 Rain 17 1008 87 10000 4.6 230 21:21 12.06.2019
6467 Mist 17 1007 93 5000 2.6 170 20:42 12.06.2019
6468 Mist 17 1007 93 5000 2.6 170 20:22 12.06.2019
6469 Clouds 17 1007 93 6000 2.1 200 19:57 12.06.2019
6470 Mist 17 1007 93 5000 1.5 220 19:37 12.06.2019
6471 Rain 17 1007 93 4500 1.5 110 19:19 12.06.2019
6472 Rain 16 1007 93 4500 1.5 100 18:42 12.06.2019
6473 Rain 16 1007 93 4500 1.5 100 18:23 12.06.2019
6474 Rain 16 1008 93 5000 2.1 220 17:45 12.06.2019
6475 Rain 17 1008 82 5000 3.6 170 17:21 12.06.2019
6476 Rain 17 1008 82 7000 3.6 170 16:43 12.06.2019
6477 Rain 17 1008 82 7000 3.6 170 16:25 12.06.2019
6478 Rain 18 1008 77 10000 3.1 130 15:58 12.06.2019
6479 Clouds 17 1008 77 10000 4.1 90 15:33 12.06.2019
6480 Clouds 16 1008 77 10000 4.1 90 14:55 12.06.2019
6481 Clouds 17 1008 77 10000 4.1 70 14:32 12.06.2019
6482 Clouds 17 1008 77 10000 4.1 70 13:57 12.06.2019
6483 Clouds 17 1008 77 10000 4.6 60 13:38 12.06.2019
6484 Clouds 17 1009 82 10000 5.1 80 13:19 12.06.2019
6485 Clouds 17 1009 82 10000 5.1 80 13:19 12.06.2019
6486 Clouds 16 1009 82 9000 6.2 70 12:40 12.06.2019
6487 Clouds 16 1009 82 9000 6.2 70 12:21 12.06.2019
6488 Clouds 17 1010 82 9000 6.7 60 11:48 12.06.2019
6489 Clouds 17 1010 82 9000 6.7 60 11:30 12.06.2019
6490 Clouds 17 1010 82 9000 6.7 60 10:58 12.06.2019
6491 Clouds 16 1010 88 9000 6.2 60 10:39 12.06.2019
6492 Clouds 16 1010 88 9000 6.2 60 10:18 12.06.2019
6493 Clouds 16 1010 82 9000 4.6 40 09:41 12.06.2019
6494 Clouds 16 1010 82 9000 4.6 40 09:21 12.06.2019
6495 Clouds 16 1010 82 10000 3.6 30 08:37 12.06.2019
6496 Clouds 16 1010 82 10000 3.6 30 08:18 12.06.2019
6497 Clouds 16 1009 87 10000 2.6 340 07:20 12.06.2019
6498 Clouds 13 1010 82 10000 3.1 20 06:40 12.06.2019
6499 Clouds 13 1010 87 10000 2.6 10 05:25 12.06.2019
6500 Clouds 13 1013 93 10000 2.6 60 03:41 12.06.2019
6501 Clouds 14 1012 93 10000 2.1 20 00:47 12.06.2019
6502 Clouds 14 1012 93 10000 2.1 20 00:20 12.06.2019
6503 Clouds 15 1012 87 10000 2.6 360 23:43 11.06.2019
6504 Clouds 15 1012 87 10000 2.6 360 23:24 11.06.2019
6505 Clouds 16 1012 87 10000 3.1 360 22:43 11.06.2019
6506 Clouds 16 1012 87 10000 3.1 360 22:18 11.06.2019
6507 Clouds 17 1012 87 10000 3.1 360 21:56 11.06.2019
6508 Clouds 18 1012 72 10000 2.1 320 21:37 11.06.2019
6509 Clouds 18 1012 72 10000 2.1 320 21:19 11.06.2019
6510 Clouds 19 1011 68 10000 3.6 280 20:46 11.06.2019
6511 Clouds 19 1011 68 10000 3.6 280 20:23 11.06.2019
6512 Clouds 19 1011 68 10000 3.6 280 19:53 11.06.2019
6513 Clouds 19 1011 68 10000 4.6 260 19:29 11.06.2019
6514 Clouds 19 1011 68 10000 4.6 260 18:54 11.06.2019
6515 Clouds 19 1011 68 10000 5.1 250 18:21 11.06.2019
6516 Clouds 19 1011 68 10000 5.1 250 17:42 11.06.2019
6517 Clouds 19 1011 68 10000 4.6 260 17:22 11.06.2019
6518 Clouds 19 1011 68 10000 4.6 260 16:56 11.06.2019
6519 Clouds 19 1011 77 10000 4.6 240 16:37 11.06.2019
6520 Clouds 19 1011 77 10000 4.6 240 16:19 11.06.2019
6521 Clouds 19 1010 82 8000 4.6 240 15:41 11.06.2019
6522 Clouds 19 1010 82 8000 4.6 240 15:21 11.06.2019
6523 Rain 18 1010 88 8000 3.6 260 14:44 11.06.2019
6524 Rain 18 1010 88 8000 3.6 260 14:21 11.06.2019
6525 Clouds 19 1010 88 8000 1.5 270 13:50 11.06.2019
6526 Clouds 19 1010 88 8000 1.5 270 13:24 11.06.2019
6527 Clouds 17 1010 93 7000 1 0 12:44 11.06.2019
6528 Clouds 17 1010 93 7000 1 0 12:23 11.06.2019
6529 Rain 16 1010 93 5000 2.1 90 11:58 11.06.2019
6530 Rain 16 1010 93 5000 2.1 90 11:39 11.06.2019
6531 Rain 15 1010 100 3500 2.6 100 11:19 11.06.2019
6532 Rain 15 1010 93 2500 1.5 90 10:45 11.06.2019
6533 Rain 15 1010 93 2500 1.5 90 10:25 11.06.2019
6534 Drizzle 15 1010 93 3000 1.5 90 09:48 11.06.2019
6535 Drizzle 15 1010 93 3000 1.5 90 09:24 11.06.2019
6536 Drizzle 15 1010 93 3000 1.5 90 09:24 11.06.2019
6537 Drizzle 15 1010 93 4000 2.1 120 08:45 11.06.2019
6538 Drizzle 15 1010 93 4000 2.1 120 08:25 11.06.2019
6539 Mist 14 1009 93 5000 3.6 90 07:38 11.06.2019
6540 Mist 14 1009 93 5000 3.6 90 06:56 11.06.2019
6541 Mist 14 1009 93 5000 3.6 90 06:34 11.06.2019
6542 Clouds 14 1009 93 10000 6.2 80 04:55 11.06.2019
6543 Clouds 15 1010 93 10000 7.2 80 03:42 11.06.2019
6544 Rain 15 1011 93 4500 5.7 70 01:40 11.06.2019
6545 Thunderstorm 15 1012 93 3000 3.1 50 00:47 11.06.2019
6546 Thunderstorm 15 1011 93 2500 5.7 60 23:48 10.06.2019
6547 Thunderstorm 15 1011 93 2500 5.7 60 23:25 10.06.2019
6548 Thunderstorm 15 1011 93 2500 5.7 60 22:56 10.06.2019
6549 Thunderstorm 16 1011 87 6000 5.7 60 22:37 10.06.2019
6550 Thunderstorm 16 1011 87 10000 5.7 70 22:19 10.06.2019
6551 Clouds 17 1011 72 10000 6.2 70 21:41 10.06.2019
6552 Clouds 17 1011 72 10000 6.2 70 21:22 10.06.2019
6553 Clouds 18 1012 72 10000 7.7 70 20:46 10.06.2019
6554 Clouds 18 1012 72 10000 7.7 70 20:25 10.06.2019
6555 Clouds 17 1012 72 10000 7.7 70 19:56 10.06.2019
6556 Clouds 18 1012 72 10000 7.7 70 19:36 10.06.2019
6557 Clouds 18 1012 72 10000 7.7 70 19:18 10.06.2019
6558 Clouds 18 1012 72 10000 7.7 70 18:55 10.06.2019
6559 Clouds 18 1012 72 10000 7.7 70 18:36 10.06.2019
6560 Clouds 18 1012 72 10000 7.7 70 18:18 10.06.2019
6561 Clouds 17 1013 72 10000 9.3 80 17:39 10.06.2019
6562 Clouds 17 1013 72 10000 9.3 80 17:20 10.06.2019
6563 Clouds 17 1014 72 10000 7.7 80 16:43 10.06.2019
6564 Clouds 17 1014 72 10000 7.7 80 16:25 10.06.2019
6565 Clouds 17 1014 68 10000 8.2 70 15:42 10.06.2019
6566 Clouds 17 1014 68 10000 8.2 70 15:24 10.06.2019
6567 Clouds 17 1014 68 10000 8.2 70 14:58 10.06.2019
6568 Clouds 17 1014 68 10000 7.7 70 14:38 10.06.2019
6569 Clouds 17 1014 68 10000 7.7 70 14:20 10.06.2019
6570 Clouds 17 1015 72 10000 6.7 70 13:43 10.06.2019
6571 Clouds 17 1015 72 10000 6.7 70 13:22 10.06.2019
6572 Clouds 16 1015 82 10000 6.7 90 12:45 10.06.2019
6573 Clouds 16 1015 82 10000 6.7 90 12:26 10.06.2019
6574 Rain 16 1015 87 9000 5.1 70 11:46 10.06.2019
6575 Rain 16 1015 87 9000 5.1 70 11:28 10.06.2019
6576 Rain 15 1016 87 10000 5.1 70 10:46 10.06.2019
6577 Rain 15 1016 87 10000 5.1 70 10:22 10.06.2019
6578 Rain 15 1016 87 10000 5.1 70 09:58 10.06.2019
6579 Rain 15 1016 87 9000 4.6 70 09:39 10.06.2019
6580 Rain 15 1016 87 9000 4.6 70 09:19 10.06.2019
6581 Clouds 15 1016 82 10000 4.1 70 08:45 10.06.2019
6582 Clouds 15 1016 82 10000 4.1 70 08:25 10.06.2019
6583 Clouds 14 1017 82 10000 4.6 50 07:21 10.06.2019
6584 Clouds 15 1018 76 10000 3.6 70 04:30 10.06.2019
6585 Clouds 15 1020 72 10000 3.1 60 01:59 10.06.2019
6586 Clouds 15 1020 77 10000 4.6 50 01:27 10.06.2019
6587 Clouds 15 1020 77 10000 4.6 50 00:58 10.06.2019
6588 Clouds 14 1020 77 10000 5.1 40 00:23 10.06.2019
6589 Clouds 15 1021 72 10000 4.1 40 23:44 09.06.2019
6590 Clouds 15 1021 72 10000 4.1 40 23:20 09.06.2019
6591 Clouds 15 1021 72 10000 3.1 30 22:45 09.06.2019
6592 Clouds 15 1021 72 10000 3.1 30 22:25 09.06.2019
6593 Clouds 15 1021 67 10000 3.6 30 21:46 09.06.2019
6594 Clouds 15 1021 67 10000 3.6 30 21:46 09.06.2019
6595 Clouds 15 1021 67 10000 3.6 30 21:27 09.06.2019
6596 Clouds 16 1021 59 10000 4.1 20 20:45 09.06.2019
6597 Clouds 16 1021 59 10000 4.1 20 20:24 09.06.2019
6598 Clouds 16 1021 59 10000 4.1 20 19:58 09.06.2019
6599 Clouds 17 1021 55 10000 4.1 10 19:39 09.06.2019
6600 Clouds 17 1021 55 10000 4.1 10 19:18 09.06.2019
6601 Clouds 18 1022 42 10000 1.5 290 18:42 09.06.2019
6602 Clouds 18 1022 42 10000 1.5 290 18:24 09.06.2019
6603 Clouds 19 1022 37 10000 4.1 250 17:48 09.06.2019
6604 Clouds 19 1022 37 10000 4.1 250 17:28 09.06.2019
6605 Clouds 18 1022 37 10000 4.1 250 16:55 09.06.2019
6606 Clouds 19 1022 40 10000 4.1 270 16:37 09.06.2019
6607 Clouds 19 1022 40 10000 4.1 270 16:19 09.06.2019
6608 Clouds 19 1022 40 10000 3.6 240 15:47 09.06.2019
6609 Clouds 19 1022 40 10000 3.6 240 15:28 09.06.2019
6610 Clouds 19 1023 42 10000 4.6 250 14:46 09.06.2019
6611 Clouds 19 1023 42 10000 4.6 250 14:27 09.06.2019
6612 Clouds 19 1023 42 10000 4.6 250 13:56 09.06.2019
6613 Clouds 18 1023 48 10000 5.7 230 13:37 09.06.2019
6614 Clouds 17 1023 59 10000 3.6 240 12:46 09.06.2019
6615 Clouds 17 1023 59 10000 3.6 240 12:27 09.06.2019
6616 Clouds 17 1023 63 10000 5.1 220 11:48 09.06.2019
6617 Clouds 17 1023 63 10000 5.1 220 11:29 09.06.2019
6618 Clouds 16 1023 72 10000 5.1 230 10:47 09.06.2019
6619 Clouds 16 1023 72 10000 5.1 230 10:25 09.06.2019
6620 Clouds 15 1023 72 10000 5.1 230 09:56 09.06.2019
6621 Clouds 14 1022 71 10000 5.7 230 09:37 09.06.2019
6622 Clouds 14 1022 71 10000 5.7 230 09:18 09.06.2019
6623 Clouds 13 1022 71 10000 5.1 220 08:43 09.06.2019
6624 Clouds 13 1022 71 10000 5.1 220 07:51 09.06.2019
6625 Clouds 11 1020 81 10000 4.6 220 06:40 09.06.2019
6626 Clouds 11 1020 81 10000 4.6 220 05:52 09.06.2019
6627 Clouds 13 1019 71 10000 6.7 220 02:55 09.06.2019
6628 Clouds 14 1018 67 10000 5.7 210 01:37 09.06.2019
6629 Clouds 14 1018 67 10000 5.7 210 01:37 09.06.2019
6630 Clouds 14 1018 67 10000 5.7 210 01:37 09.06.2019
6631 Clouds 14 1018 67 10000 5.7 210 01:18 09.06.2019
6632 Clouds 13 1018 67 10000 5.7 220 00:29 09.06.2019
6633 Clouds 13 1017 76 10000 3.6 210 23:41 08.06.2019
6634 Clouds 13 1017 76 10000 3.6 210 23:22 08.06.2019
6635 Clouds 14 1017 76 10000 3.6 210 22:55 08.06.2019
6636 Clouds 14 1017 67 10000 5.7 210 22:36 08.06.2019
6637 Clouds 14 1017 67 10000 5.7 210 22:18 08.06.2019
6638 Clouds 14 1016 71 10000 7.2 220 21:40 08.06.2019
6639 Clouds 14 1016 71 10000 7.2 220 21:21 08.06.2019
6640 Clouds 15 1016 71 10000 5.1 210 20:45 08.06.2019
6641 Clouds 15 1016 71 10000 5.1 210 20:25 08.06.2019
6642 Clouds 15 1016 71 10000 5.1 210 19:56 08.06.2019
6643 Clouds 15 1015 63 10000 8.2 220 19:37 08.06.2019
6644 Clouds 15 1015 63 10000 8.2 220 19:19 08.06.2019
6645 Clouds 17 1015 55 10000 12.9 220 18:41 08.06.2019
6646 Clouds 17 1015 55 10000 12.9 220 18:22 08.06.2019
6647 Clouds 16 1014 63 10000 6.2 210 17:44 08.06.2019
6648 Clouds 16 1014 63 10000 6.2 210 17:22 08.06.2019
6649 Clouds 16 1014 63 10000 6.2 210 16:53 08.06.2019
6650 Clouds 15 1014 67 10000 5.7 200 16:34 08.06.2019
6651 Clouds 16 1014 67 10000 5.7 200 15:52 08.06.2019
6652 Rain 15 1014 82 9000 7.2 200 15:33 08.06.2019
6653 Clouds 14 1014 62 10000 8.7 210 14:48 08.06.2019
6654 Clouds 14 1014 62 10000 8.7 210 14:29 08.06.2019
6655 Clouds 15 1013 58 10000 9.8 220 13:49 08.06.2019
6656 Clouds 15 1013 58 10000 9.8 220 12:54 08.06.2019
6657 Clouds 15 1012 55 10000 10.8 210 12:34 08.06.2019
6658 Clouds 16 1011 51 10000 10.8 210 11:51 08.06.2019
6659 Clouds 16 1011 51 10000 10.8 210 11:28 08.06.2019
6660 Clouds 16 1011 55 10000